<?xml version="1.0" encoding="UTF-8" standalone="no" ?><gpx xmlns="http://www.topografix.com/GPX/1/1" xmlns:gpxx="http://www.garmin.com/xmlschemas/GpxExtensions/v3" xmlns:wptx1="http://www.garmin.com/xmlschemas/WaypointExtension/v1" xmlns:gpxtpx="http://www.garmin.com/xmlschemas/TrackPointExtension/v1" creator="GuideVTT.com" version="1.1" xmlns:xsi="http://www.w3.org/2001/XMLSchema-instance" xsi:schemaLocation="http://www.topografix.com/GPX/1/1 http://www.topografix.com/GPX/1/1/gpx.xsd http://www.garmin.com/xmlschemas/GpxExtensions/v3 http://www8.garmin.com/xmlschemas/GpxExtensionsv3.xsd http://www.garmin.com/xmlschemas/WaypointExtension/v1 http://www8.garmin.com/xmlschemas/WaypointExtensionv1.xsd http://www.garmin.com/xmlschemas/TrackPointExtension/v1 http://www.garmin.com/xmlschemas/TrackPointExtensionv1.xsd">
<metadata><link href="http://www.garmin.com"><text>Garmin International</text></link><time>2013-06-22T15:13:50Z</time></metadata>
<trk><name>2024rp30cor.gpx</name><extensions><gpxx:TrackExtension><gpxx:DisplayColor>Cyan</gpxx:DisplayColor></gpxx:TrackExtension></extensions><trkseg>
<trkpt lat="46.46363" lon="6.94508"><ele></ele><time>2025-2-13T1:9:31Z</time></trkpt>
<trkpt lat="46.46362" lon="6.94506"><ele></ele><time>2025-2-13T1:9:34Z</time></trkpt>
<trkpt lat="46.46361" lon="6.94505"><ele></ele><time>2025-2-13T1:9:37Z</time></trkpt>
<trkpt lat="46.46363" lon="6.94506"><ele></ele><time>2025-2-13T1:9:40Z</time></trkpt>
<trkpt lat="46.46362" lon="6.94505"><ele></ele><time>2025-2-13T1:9:43Z</time></trkpt>
<trkpt lat="46.46361" lon="6.94506"><ele></ele><time>2025-2-13T1:9:46Z</time></trkpt>
<trkpt lat="46.46361" lon="6.94506"><ele></ele><time>2025-2-13T1:9:49Z</time></trkpt>
<trkpt lat="46.4636" lon="6.94507"><ele></ele><time>2025-2-13T1:9:52Z</time></trkpt>
<trkpt lat="46.4636" lon="6.94505"><ele></ele><time>2025-2-13T1:9:55Z</time></trkpt>
<trkpt lat="46.4636" lon="6.94506"><ele></ele><time>2025-2-13T1:9:58Z</time></trkpt>
<trkpt lat="46.46363" lon="6.94509"><ele></ele><time>2025-2-13T1:10:1Z</time></trkpt>
<trkpt lat="46.4636" lon="6.94512"><ele></ele><time>2025-2-13T1:10:4Z</time></trkpt>
<trkpt lat="46.4636" lon="6.94513"><ele></ele><time>2025-2-13T1:10:7Z</time></trkpt>
<trkpt lat="46.46359" lon="6.94513"><ele></ele><time>2025-2-13T1:10:10Z</time></trkpt>
<trkpt lat="46.46359" lon="6.94513"><ele></ele><time>2025-2-13T1:10:13Z</time></trkpt>
<trkpt lat="46.46358" lon="6.94517"><ele></ele><time>2025-2-13T1:10:16Z</time></trkpt>
<trkpt lat="46.46359" lon="6.94517"><ele></ele><time>2025-2-13T1:10:19Z</time></trkpt>
<trkpt lat="46.4636" lon="6.94512"><ele></ele><time>2025-2-13T1:10:22Z</time></trkpt>
<trkpt lat="46.46361" lon="6.94508"><ele></ele><time>2025-2-13T1:10:25Z</time></trkpt>
<trkpt lat="46.46361" lon="6.94508"><ele></ele><time>2025-2-13T1:10:28Z</time></trkpt>
<trkpt lat="46.46362" lon="6.94508"><ele></ele><time>2025-2-13T1:10:31Z</time></trkpt>
<trkpt lat="46.46359" lon="6.94506"><ele></ele><time>2025-2-13T1:10:34Z</time></trkpt>
<trkpt lat="46.46358" lon="6.94508"><ele></ele><time>2025-2-13T1:10:37Z</time></trkpt>
<trkpt lat="46.46359" lon="6.94508"><ele></ele><time>2025-2-13T1:10:40Z</time></trkpt>
<trkpt lat="46.4636" lon="6.94509"><ele></ele><time>2025-2-13T1:10:43Z</time></trkpt>
<trkpt lat="46.4636" lon="6.94505"><ele></ele><time>2025-2-13T1:10:46Z</time></trkpt>
<trkpt lat="46.46359" lon="6.94503"><ele></ele><time>2025-2-13T1:10:49Z</time></trkpt>
<trkpt lat="46.46361" lon="6.94508"><ele></ele><time>2025-2-13T1:10:52Z</time></trkpt>
<trkpt lat="46.46361" lon="6.94508"><ele></ele><time>2025-2-13T1:10:55Z</time></trkpt>
<trkpt lat="46.46362" lon="6.94506"><ele></ele><time>2025-2-13T1:10:58Z</time></trkpt>
<trkpt lat="46.46361" lon="6.94505"><ele></ele><time>2025-2-13T1:11:1Z</time></trkpt>
<trkpt lat="46.4636" lon="6.94504"><ele></ele><time>2025-2-13T1:11:4Z</time></trkpt>
<trkpt lat="46.46359" lon="6.94506"><ele></ele><time>2025-2-13T1:11:7Z</time></trkpt>
<trkpt lat="46.46361" lon="6.9451"><ele></ele><time>2025-2-13T1:11:10Z</time></trkpt>
<trkpt lat="46.46359" lon="6.94509"><ele></ele><time>2025-2-13T1:11:13Z</time></trkpt>
<trkpt lat="46.46357" lon="6.9451"><ele></ele><time>2025-2-13T1:11:16Z</time></trkpt>
<trkpt lat="46.46359" lon="6.94507"><ele></ele><time>2025-2-13T1:11:19Z</time></trkpt>
<trkpt lat="46.46361" lon="6.94503"><ele></ele><time>2025-2-13T1:11:22Z</time></trkpt>
<trkpt lat="46.46361" lon="6.94503"><ele></ele><time>2025-2-13T1:11:25Z</time></trkpt>
<trkpt lat="46.46361" lon="6.94506"><ele></ele><time>2025-2-13T1:11:28Z</time></trkpt>
<trkpt lat="46.4636" lon="6.94502"><ele></ele><time>2025-2-13T1:11:31Z</time></trkpt>
<trkpt lat="46.46361" lon="6.94503"><ele></ele><time>2025-2-13T1:11:34Z</time></trkpt>
<trkpt lat="46.46362" lon="6.94506"><ele></ele><time>2025-2-13T1:11:37Z</time></trkpt>
<trkpt lat="46.46361" lon="6.94508"><ele></ele><time>2025-2-13T1:11:40Z</time></trkpt>
<trkpt lat="46.46359" lon="6.94511"><ele></ele><time>2025-2-13T1:11:43Z</time></trkpt>
<trkpt lat="46.46359" lon="6.94511"><ele></ele><time>2025-2-13T1:11:46Z</time></trkpt>
<trkpt lat="46.46358" lon="6.94511"><ele></ele><time>2025-2-13T1:11:49Z</time></trkpt>
<trkpt lat="46.46358" lon="6.94511"><ele></ele><time>2025-2-13T1:11:52Z</time></trkpt>
<trkpt lat="46.46358" lon="6.9451"><ele></ele><time>2025-2-13T1:11:55Z</time></trkpt>
<trkpt lat="46.46358" lon="6.94509"><ele></ele><time>2025-2-13T1:11:58Z</time></trkpt>
<trkpt lat="46.46357" lon="6.94509"><ele></ele><time>2025-2-13T1:12:1Z</time></trkpt>
<trkpt lat="46.46355" lon="6.9451"><ele></ele><time>2025-2-13T1:12:4Z</time></trkpt>
<trkpt lat="46.46356" lon="6.94511"><ele></ele><time>2025-2-13T1:12:7Z</time></trkpt>
<trkpt lat="46.46357" lon="6.94512"><ele></ele><time>2025-2-13T1:12:10Z</time></trkpt>
<trkpt lat="46.46362" lon="6.94515"><ele></ele><time>2025-2-13T1:12:13Z</time></trkpt>
<trkpt lat="46.46363" lon="6.94514"><ele></ele><time>2025-2-13T1:12:16Z</time></trkpt>
<trkpt lat="46.46363" lon="6.94511"><ele></ele><time>2025-2-13T1:12:19Z</time></trkpt>
<trkpt lat="46.46365" lon="6.94508"><ele></ele><time>2025-2-13T1:12:22Z</time></trkpt>
<trkpt lat="46.46368" lon="6.94511"><ele></ele><time>2025-2-13T1:12:25Z</time></trkpt>
<trkpt lat="46.4637" lon="6.94515"><ele></ele><time>2025-2-13T1:12:28Z</time></trkpt>
<trkpt lat="46.46369" lon="6.94516"><ele></ele><time>2025-2-13T1:12:31Z</time></trkpt>
<trkpt lat="46.46366" lon="6.94518"><ele></ele><time>2025-2-13T1:12:34Z</time></trkpt>
<trkpt lat="46.46364" lon="6.94519"><ele></ele><time>2025-2-13T1:12:37Z</time></trkpt>
<trkpt lat="46.46363" lon="6.9452"><ele></ele><time>2025-2-13T1:12:40Z</time></trkpt>
<trkpt lat="46.46364" lon="6.94522"><ele></ele><time>2025-2-13T1:12:43Z</time></trkpt>
<trkpt lat="46.46365" lon="6.94525"><ele></ele><time>2025-2-13T1:12:46Z</time></trkpt>
<trkpt lat="46.46362" lon="6.94527"><ele></ele><time>2025-2-13T1:12:49Z</time></trkpt>
<trkpt lat="46.4636" lon="6.94525"><ele></ele><time>2025-2-13T1:12:52Z</time></trkpt>
<trkpt lat="46.46358" lon="6.94525"><ele></ele><time>2025-2-13T1:12:55Z</time></trkpt>
<trkpt lat="46.46353" lon="6.94528"><ele></ele><time>2025-2-13T1:12:58Z</time></trkpt>
<trkpt lat="46.46351" lon="6.94531"><ele></ele><time>2025-2-13T1:13:1Z</time></trkpt>
<trkpt lat="46.46349" lon="6.9454"><ele></ele><time>2025-2-13T1:13:4Z</time></trkpt>
<trkpt lat="46.46348" lon="6.94541"><ele></ele><time>2025-2-13T1:13:7Z</time></trkpt>
<trkpt lat="46.46347" lon="6.94549"><ele></ele><time>2025-2-13T1:13:10Z</time></trkpt>
<trkpt lat="46.46346" lon="6.9455"><ele></ele><time>2025-2-13T1:13:13Z</time></trkpt>
<trkpt lat="46.46344" lon="6.94551"><ele></ele><time>2025-2-13T1:13:16Z</time></trkpt>
<trkpt lat="46.46342" lon="6.9455"><ele></ele><time>2025-2-13T1:13:19Z</time></trkpt>
<trkpt lat="46.46339" lon="6.94549"><ele></ele><time>2025-2-13T1:13:22Z</time></trkpt>
<trkpt lat="46.46334" lon="6.94551"><ele></ele><time>2025-2-13T1:13:25Z</time></trkpt>
<trkpt lat="46.46334" lon="6.94551"><ele></ele><time>2025-2-13T1:13:28Z</time></trkpt>
<trkpt lat="46.46334" lon="6.94551"><ele></ele><time>2025-2-13T1:13:31Z</time></trkpt>
<trkpt lat="46.46334" lon="6.94551"><ele></ele><time>2025-2-13T1:13:34Z</time></trkpt>
<trkpt lat="46.46334" lon="6.94551"><ele></ele><time>2025-2-13T1:13:37Z</time></trkpt>
<trkpt lat="46.46334" lon="6.94551"><ele></ele><time>2025-2-13T1:13:40Z</time></trkpt>
<trkpt lat="46.46334" lon="6.94551"><ele></ele><time>2025-2-13T1:13:43Z</time></trkpt>
<trkpt lat="46.46334" lon="6.94551"><ele></ele><time>2025-2-13T1:13:46Z</time></trkpt>
<trkpt lat="46.46334" lon="6.94551"><ele></ele><time>2025-2-13T1:13:49Z</time></trkpt>
<trkpt lat="46.46334" lon="6.94551"><ele></ele><time>2025-2-13T1:13:52Z</time></trkpt>
<trkpt lat="46.46334" lon="6.94551"><ele></ele><time>2025-2-13T1:13:55Z</time></trkpt>
<trkpt lat="46.46335" lon="6.9455"><ele></ele><time>2025-2-13T1:13:58Z</time></trkpt>
<trkpt lat="46.46335" lon="6.9455"><ele></ele><time>2025-2-13T1:14:1Z</time></trkpt>
<trkpt lat="46.46335" lon="6.9455"><ele></ele><time>2025-2-13T1:14:4Z</time></trkpt>
<trkpt lat="46.46335" lon="6.9455"><ele></ele><time>2025-2-13T1:14:7Z</time></trkpt>
<trkpt lat="46.46335" lon="6.9455"><ele></ele><time>2025-2-13T1:14:10Z</time></trkpt>
<trkpt lat="46.46335" lon="6.9455"><ele></ele><time>2025-2-13T1:14:13Z</time></trkpt>
<trkpt lat="46.46336" lon="6.94549"><ele></ele><time>2025-2-13T1:14:16Z</time></trkpt>
<trkpt lat="46.46335" lon="6.9455"><ele></ele><time>2025-2-13T1:14:19Z</time></trkpt>
<trkpt lat="46.46334" lon="6.94553"><ele></ele><time>2025-2-13T1:14:22Z</time></trkpt>
<trkpt lat="46.46331" lon="6.94555"><ele></ele><time>2025-2-13T1:14:25Z</time></trkpt>
<trkpt lat="46.46324" lon="6.94559"><ele></ele><time>2025-2-13T1:14:28Z</time></trkpt>
<trkpt lat="46.46322" lon="6.9456"><ele></ele><time>2025-2-13T1:14:31Z</time></trkpt>
<trkpt lat="46.46319" lon="6.94562"><ele></ele><time>2025-2-13T1:14:34Z</time></trkpt>
<trkpt lat="46.46314" lon="6.94565"><ele></ele><time>2025-2-13T1:14:37Z</time></trkpt>
<trkpt lat="46.46312" lon="6.94568"><ele></ele><time>2025-2-13T1:14:40Z</time></trkpt>
<trkpt lat="46.46308" lon="6.94569"><ele></ele><time>2025-2-13T1:14:43Z</time></trkpt>
<trkpt lat="46.46306" lon="6.94571"><ele></ele><time>2025-2-13T1:14:46Z</time></trkpt>
<trkpt lat="46.46302" lon="6.94573"><ele></ele><time>2025-2-13T1:14:49Z</time></trkpt>
<trkpt lat="46.46299" lon="6.94576"><ele></ele><time>2025-2-13T1:14:52Z</time></trkpt>
<trkpt lat="46.46295" lon="6.94579"><ele></ele><time>2025-2-13T1:14:55Z</time></trkpt>
<trkpt lat="46.46295" lon="6.94581"><ele></ele><time>2025-2-13T1:14:58Z</time></trkpt>
<trkpt lat="46.46294" lon="6.94582"><ele></ele><time>2025-2-13T1:15:1Z</time></trkpt>
<trkpt lat="46.46293" lon="6.94586"><ele></ele><time>2025-2-13T1:15:4Z</time></trkpt>
<trkpt lat="46.46293" lon="6.94588"><ele></ele><time>2025-2-13T1:15:7Z</time></trkpt>
<trkpt lat="46.46292" lon="6.9459"><ele></ele><time>2025-2-13T1:15:10Z</time></trkpt>
<trkpt lat="46.46291" lon="6.94595"><ele></ele><time>2025-2-13T1:15:13Z</time></trkpt>
<trkpt lat="46.46291" lon="6.94601"><ele></ele><time>2025-2-13T1:15:16Z</time></trkpt>
<trkpt lat="46.46291" lon="6.94605"><ele></ele><time>2025-2-13T1:15:19Z</time></trkpt>
<trkpt lat="46.46291" lon="6.9461"><ele></ele><time>2025-2-13T1:15:22Z</time></trkpt>
<trkpt lat="46.46291" lon="6.94611"><ele></ele><time>2025-2-13T1:15:25Z</time></trkpt>
<trkpt lat="46.46291" lon="6.94613"><ele></ele><time>2025-2-13T1:15:28Z</time></trkpt>
<trkpt lat="46.46291" lon="6.9462"><ele></ele><time>2025-2-13T1:15:31Z</time></trkpt>
<trkpt lat="46.46291" lon="6.94623"><ele></ele><time>2025-2-13T1:15:34Z</time></trkpt>
<trkpt lat="46.46293" lon="6.94628"><ele></ele><time>2025-2-13T1:15:37Z</time></trkpt>
<trkpt lat="46.46294" lon="6.9463"><ele></ele><time>2025-2-13T1:15:40Z</time></trkpt>
<trkpt lat="46.46296" lon="6.94633"><ele></ele><time>2025-2-13T1:15:43Z</time></trkpt>
<trkpt lat="46.46296" lon="6.94635"><ele></ele><time>2025-2-13T1:15:46Z</time></trkpt>
<trkpt lat="46.46296" lon="6.94637"><ele></ele><time>2025-2-13T1:15:49Z</time></trkpt>
<trkpt lat="46.46297" lon="6.94641"><ele></ele><time>2025-2-13T1:15:52Z</time></trkpt>
<trkpt lat="46.463" lon="6.94645"><ele></ele><time>2025-2-13T1:15:55Z</time></trkpt>
<trkpt lat="46.46303" lon="6.94653"><ele></ele><time>2025-2-13T1:15:58Z</time></trkpt>
<trkpt lat="46.46306" lon="6.9466"><ele></ele><time>2025-2-13T1:16:1Z</time></trkpt>
<trkpt lat="46.46309" lon="6.94668"><ele></ele><time>2025-2-13T1:16:4Z</time></trkpt>
<trkpt lat="46.4631" lon="6.94669"><ele></ele><time>2025-2-13T1:16:7Z</time></trkpt>
<trkpt lat="46.46308" lon="6.94676"><ele></ele><time>2025-2-13T1:16:10Z</time></trkpt>
<trkpt lat="46.46305" lon="6.94678"><ele></ele><time>2025-2-13T1:16:13Z</time></trkpt>
<trkpt lat="46.463" lon="6.94678"><ele></ele><time>2025-2-13T1:16:16Z</time></trkpt>
<trkpt lat="46.46297" lon="6.94676"><ele></ele><time>2025-2-13T1:16:19Z</time></trkpt>
<trkpt lat="46.46296" lon="6.94675"><ele></ele><time>2025-2-13T1:16:22Z</time></trkpt>
<trkpt lat="46.46295" lon="6.94673"><ele></ele><time>2025-2-13T1:16:25Z</time></trkpt>
<trkpt lat="46.4629" lon="6.94669"><ele></ele><time>2025-2-13T1:16:28Z</time></trkpt>
<trkpt lat="46.46288" lon="6.94668"><ele></ele><time>2025-2-13T1:16:31Z</time></trkpt>
<trkpt lat="46.46283" lon="6.94666"><ele></ele><time>2025-2-13T1:16:34Z</time></trkpt>
<trkpt lat="46.46281" lon="6.94665"><ele></ele><time>2025-2-13T1:16:37Z</time></trkpt>
<trkpt lat="46.46279" lon="6.9466"><ele></ele><time>2025-2-13T1:16:40Z</time></trkpt>
<trkpt lat="46.46278" lon="6.94661"><ele></ele><time>2025-2-13T1:16:43Z</time></trkpt>
<trkpt lat="46.46274" lon="6.94659"><ele></ele><time>2025-2-13T1:16:46Z</time></trkpt>
<trkpt lat="46.46273" lon="6.94658"><ele></ele><time>2025-2-13T1:16:49Z</time></trkpt>
<trkpt lat="46.46267" lon="6.94657"><ele></ele><time>2025-2-13T1:16:52Z</time></trkpt>
<trkpt lat="46.46265" lon="6.94656"><ele></ele><time>2025-2-13T1:16:55Z</time></trkpt>
<trkpt lat="46.4626" lon="6.94654"><ele></ele><time>2025-2-13T1:16:58Z</time></trkpt>
<trkpt lat="46.46256" lon="6.94652"><ele></ele><time>2025-2-13T1:17:1Z</time></trkpt>
<trkpt lat="46.46255" lon="6.94652"><ele></ele><time>2025-2-13T1:17:4Z</time></trkpt>
<trkpt lat="46.46254" lon="6.94652"><ele></ele><time>2025-2-13T1:17:7Z</time></trkpt>
<trkpt lat="46.46251" lon="6.94652"><ele></ele><time>2025-2-13T1:17:10Z</time></trkpt>
<trkpt lat="46.4625" lon="6.9465"><ele></ele><time>2025-2-13T1:17:13Z</time></trkpt>
<trkpt lat="46.46248" lon="6.9465"><ele></ele><time>2025-2-13T1:17:16Z</time></trkpt>
<trkpt lat="46.46248" lon="6.9465"><ele></ele><time>2025-2-13T1:17:19Z</time></trkpt>
<trkpt lat="46.46247" lon="6.94647"><ele></ele><time>2025-2-13T1:17:22Z</time></trkpt>
<trkpt lat="46.46246" lon="6.94646"><ele></ele><time>2025-2-13T1:17:25Z</time></trkpt>
<trkpt lat="46.46242" lon="6.94641"><ele></ele><time>2025-2-13T1:17:28Z</time></trkpt>
<trkpt lat="46.46241" lon="6.94639"><ele></ele><time>2025-2-13T1:17:31Z</time></trkpt>
<trkpt lat="46.46241" lon="6.94638"><ele></ele><time>2025-2-13T1:17:34Z</time></trkpt>
<trkpt lat="46.46239" lon="6.94637"><ele></ele><time>2025-2-13T1:17:37Z</time></trkpt>
<trkpt lat="46.46234" lon="6.94634"><ele></ele><time>2025-2-13T1:17:40Z</time></trkpt>
<trkpt lat="46.46231" lon="6.9463"><ele></ele><time>2025-2-13T1:17:43Z</time></trkpt>
<trkpt lat="46.46229" lon="6.94627"><ele></ele><time>2025-2-13T1:17:46Z</time></trkpt>
<trkpt lat="46.46226" lon="6.9462"><ele></ele><time>2025-2-13T1:17:49Z</time></trkpt>
<trkpt lat="46.46223" lon="6.94618"><ele></ele><time>2025-2-13T1:17:52Z</time></trkpt>
<trkpt lat="46.46221" lon="6.94614"><ele></ele><time>2025-2-13T1:17:55Z</time></trkpt>
<trkpt lat="46.46217" lon="6.94611"><ele></ele><time>2025-2-13T1:17:58Z</time></trkpt>
<trkpt lat="46.46216" lon="6.9461"><ele></ele><time>2025-2-13T1:18:1Z</time></trkpt>
<trkpt lat="46.46213" lon="6.94606"><ele></ele><time>2025-2-13T1:18:4Z</time></trkpt>
<trkpt lat="46.46213" lon="6.94605"><ele></ele><time>2025-2-13T1:18:7Z</time></trkpt>
<trkpt lat="46.4621" lon="6.94605"><ele></ele><time>2025-2-13T1:18:10Z</time></trkpt>
<trkpt lat="46.46206" lon="6.94604"><ele></ele><time>2025-2-13T1:18:13Z</time></trkpt>
<trkpt lat="46.46205" lon="6.94603"><ele></ele><time>2025-2-13T1:18:16Z</time></trkpt>
<trkpt lat="46.462" lon="6.94603"><ele></ele><time>2025-2-13T1:18:19Z</time></trkpt>
<trkpt lat="46.46198" lon="6.94602"><ele></ele><time>2025-2-13T1:18:22Z</time></trkpt>
<trkpt lat="46.46194" lon="6.94603"><ele></ele><time>2025-2-13T1:18:25Z</time></trkpt>
<trkpt lat="46.4619" lon="6.94604"><ele></ele><time>2025-2-13T1:18:28Z</time></trkpt>
<trkpt lat="46.46189" lon="6.94605"><ele></ele><time>2025-2-13T1:18:31Z</time></trkpt>
<trkpt lat="46.46184" lon="6.94605"><ele></ele><time>2025-2-13T1:18:34Z</time></trkpt>
<trkpt lat="46.46183" lon="6.94606"><ele></ele><time>2025-2-13T1:18:37Z</time></trkpt>
<trkpt lat="46.4618" lon="6.94606"><ele></ele><time>2025-2-13T1:18:40Z</time></trkpt>
<trkpt lat="46.46177" lon="6.94609"><ele></ele><time>2025-2-13T1:18:43Z</time></trkpt>
<trkpt lat="46.46172" lon="6.9461"><ele></ele><time>2025-2-13T1:18:46Z</time></trkpt>
<trkpt lat="46.46171" lon="6.94611"><ele></ele><time>2025-2-13T1:18:49Z</time></trkpt>
<trkpt lat="46.46168" lon="6.94613"><ele></ele><time>2025-2-13T1:18:52Z</time></trkpt>
<trkpt lat="46.46166" lon="6.94612"><ele></ele><time>2025-2-13T1:18:55Z</time></trkpt>
<trkpt lat="46.46166" lon="6.94612"><ele></ele><time>2025-2-13T1:18:58Z</time></trkpt>
<trkpt lat="46.46159" lon="6.94612"><ele></ele><time>2025-2-13T1:19:1Z</time></trkpt>
<trkpt lat="46.46158" lon="6.94612"><ele></ele><time>2025-2-13T1:19:4Z</time></trkpt>
<trkpt lat="46.46154" lon="6.94612"><ele></ele><time>2025-2-13T1:19:7Z</time></trkpt>
<trkpt lat="46.46152" lon="6.94612"><ele></ele><time>2025-2-13T1:19:10Z</time></trkpt>
<trkpt lat="46.46149" lon="6.94613"><ele></ele><time>2025-2-13T1:19:13Z</time></trkpt>
<trkpt lat="46.46148" lon="6.94613"><ele></ele><time>2025-2-13T1:19:16Z</time></trkpt>
<trkpt lat="46.46147" lon="6.94614"><ele></ele><time>2025-2-13T1:19:19Z</time></trkpt>
<trkpt lat="46.46139" lon="6.94614"><ele></ele><time>2025-2-13T1:19:22Z</time></trkpt>
<trkpt lat="46.46138" lon="6.94614"><ele></ele><time>2025-2-13T1:19:25Z</time></trkpt>
<trkpt lat="46.46131" lon="6.94616"><ele></ele><time>2025-2-13T1:19:28Z</time></trkpt>
<trkpt lat="46.46124" lon="6.9461"><ele></ele><time>2025-2-13T1:19:31Z</time></trkpt>
<trkpt lat="46.46123" lon="6.94609"><ele></ele><time>2025-2-13T1:19:34Z</time></trkpt>
<trkpt lat="46.46115" lon="6.94608"><ele></ele><time>2025-2-13T1:19:37Z</time></trkpt>
<trkpt lat="46.46114" lon="6.94609"><ele></ele><time>2025-2-13T1:19:40Z</time></trkpt>
<trkpt lat="46.46109" lon="6.94612"><ele></ele><time>2025-2-13T1:19:43Z</time></trkpt>
<trkpt lat="46.46108" lon="6.94613"><ele></ele><time>2025-2-13T1:19:46Z</time></trkpt>
<trkpt lat="46.46107" lon="6.94614"><ele></ele><time>2025-2-13T1:19:49Z</time></trkpt>
<trkpt lat="46.46103" lon="6.94617"><ele></ele><time>2025-2-13T1:19:52Z</time></trkpt>
<trkpt lat="46.46101" lon="6.94617"><ele></ele><time>2025-2-13T1:19:55Z</time></trkpt>
<trkpt lat="46.46098" lon="6.94619"><ele></ele><time>2025-2-13T1:19:58Z</time></trkpt>
<trkpt lat="46.46097" lon="6.94621"><ele></ele><time>2025-2-13T1:20:1Z</time></trkpt>
<trkpt lat="46.46095" lon="6.94626"><ele></ele><time>2025-2-13T1:20:4Z</time></trkpt>
<trkpt lat="46.46094" lon="6.94629"><ele></ele><time>2025-2-13T1:20:7Z</time></trkpt>
<trkpt lat="46.4609" lon="6.94634"><ele></ele><time>2025-2-13T1:20:10Z</time></trkpt>
<trkpt lat="46.46089" lon="6.94635"><ele></ele><time>2025-2-13T1:20:13Z</time></trkpt>
<trkpt lat="46.46088" lon="6.94637"><ele></ele><time>2025-2-13T1:20:16Z</time></trkpt>
<trkpt lat="46.46082" lon="6.94643"><ele></ele><time>2025-2-13T1:20:19Z</time></trkpt>
<trkpt lat="46.46082" lon="6.94644"><ele></ele><time>2025-2-13T1:20:22Z</time></trkpt>
<trkpt lat="46.46078" lon="6.94651"><ele></ele><time>2025-2-13T1:20:25Z</time></trkpt>
<trkpt lat="46.46078" lon="6.94652"><ele></ele><time>2025-2-13T1:20:28Z</time></trkpt>
<trkpt lat="46.46076" lon="6.94658"><ele></ele><time>2025-2-13T1:20:31Z</time></trkpt>
<trkpt lat="46.46077" lon="6.94664"><ele></ele><time>2025-2-13T1:20:34Z</time></trkpt>
<trkpt lat="46.46077" lon="6.94663"><ele></ele><time>2025-2-13T1:20:37Z</time></trkpt>
<trkpt lat="46.46077" lon="6.94663"><ele></ele><time>2025-2-13T1:20:40Z</time></trkpt>
<trkpt lat="46.46077" lon="6.94663"><ele></ele><time>2025-2-13T1:20:43Z</time></trkpt>
<trkpt lat="46.46078" lon="6.94664"><ele></ele><time>2025-2-13T1:20:46Z</time></trkpt>
<trkpt lat="46.46079" lon="6.94662"><ele></ele><time>2025-2-13T1:20:49Z</time></trkpt>
<trkpt lat="46.46079" lon="6.94662"><ele></ele><time>2025-2-13T1:20:52Z</time></trkpt>
<trkpt lat="46.46075" lon="6.94659"><ele></ele><time>2025-2-13T1:20:55Z</time></trkpt>
<trkpt lat="46.46075" lon="6.94662"><ele></ele><time>2025-2-13T1:20:58Z</time></trkpt>
<trkpt lat="46.46075" lon="6.9466"><ele></ele><time>2025-2-13T1:21:1Z</time></trkpt>
<trkpt lat="46.46074" lon="6.94659"><ele></ele><time>2025-2-13T1:21:4Z</time></trkpt>
<trkpt lat="46.46073" lon="6.94661"><ele></ele><time>2025-2-13T1:21:7Z</time></trkpt>
<trkpt lat="46.46072" lon="6.9466"><ele></ele><time>2025-2-13T1:21:10Z</time></trkpt>
<trkpt lat="46.46072" lon="6.94657"><ele></ele><time>2025-2-13T1:21:13Z</time></trkpt>
<trkpt lat="46.46073" lon="6.94655"><ele></ele><time>2025-2-13T1:21:16Z</time></trkpt>
<trkpt lat="46.46075" lon="6.94655"><ele></ele><time>2025-2-13T1:21:19Z</time></trkpt>
<trkpt lat="46.46074" lon="6.94653"><ele></ele><time>2025-2-13T1:21:22Z</time></trkpt>
<trkpt lat="46.46074" lon="6.94653"><ele></ele><time>2025-2-13T1:21:25Z</time></trkpt>
<trkpt lat="46.46075" lon="6.94655"><ele></ele><time>2025-2-13T1:21:28Z</time></trkpt>
<trkpt lat="46.46075" lon="6.94658"><ele></ele><time>2025-2-13T1:21:31Z</time></trkpt>
<trkpt lat="46.46075" lon="6.94658"><ele></ele><time>2025-2-13T1:21:34Z</time></trkpt>
<trkpt lat="46.46075" lon="6.94657"><ele></ele><time>2025-2-13T1:21:37Z</time></trkpt>
<trkpt lat="46.46075" lon="6.94657"><ele></ele><time>2025-2-13T1:21:40Z</time></trkpt>
<trkpt lat="46.46073" lon="6.94657"><ele></ele><time>2025-2-13T1:21:43Z</time></trkpt>
<trkpt lat="46.46072" lon="6.94658"><ele></ele><time>2025-2-13T1:21:46Z</time></trkpt>
<trkpt lat="46.46073" lon="6.94658"><ele></ele><time>2025-2-13T1:21:49Z</time></trkpt>
<trkpt lat="46.46073" lon="6.94658"><ele></ele><time>2025-2-13T1:21:52Z</time></trkpt>
<trkpt lat="46.46074" lon="6.9466"><ele></ele><time>2025-2-13T1:21:55Z</time></trkpt>
<trkpt lat="46.46075" lon="6.94662"><ele></ele><time>2025-2-13T1:21:58Z</time></trkpt>
<trkpt lat="46.46073" lon="6.94665"><ele></ele><time>2025-2-13T1:22:1Z</time></trkpt>
<trkpt lat="46.46072" lon="6.94668"><ele></ele><time>2025-2-13T1:22:4Z</time></trkpt>
<trkpt lat="46.46069" lon="6.94676"><ele></ele><time>2025-2-13T1:22:7Z</time></trkpt>
<trkpt lat="46.46069" lon="6.94677"><ele></ele><time>2025-2-13T1:22:10Z</time></trkpt>
<trkpt lat="46.46064" lon="6.94685"><ele></ele><time>2025-2-13T1:22:13Z</time></trkpt>
<trkpt lat="46.46063" lon="6.94686"><ele></ele><time>2025-2-13T1:22:16Z</time></trkpt>
<trkpt lat="46.46062" lon="6.94689"><ele></ele><time>2025-2-13T1:22:19Z</time></trkpt>
<trkpt lat="46.46059" lon="6.94694"><ele></ele><time>2025-2-13T1:22:22Z</time></trkpt>
<trkpt lat="46.46059" lon="6.94704"><ele></ele><time>2025-2-13T1:22:25Z</time></trkpt>
<trkpt lat="46.46059" lon="6.94707"><ele></ele><time>2025-2-13T1:22:28Z</time></trkpt>
<trkpt lat="46.46057" lon="6.94712"><ele></ele><time>2025-2-13T1:22:31Z</time></trkpt>
<trkpt lat="46.46056" lon="6.94718"><ele></ele><time>2025-2-13T1:22:34Z</time></trkpt>
<trkpt lat="46.46054" lon="6.94727"><ele></ele><time>2025-2-13T1:22:37Z</time></trkpt>
<trkpt lat="46.46052" lon="6.94732"><ele></ele><time>2025-2-13T1:22:40Z</time></trkpt>
<trkpt lat="46.46051" lon="6.94732"><ele></ele><time>2025-2-13T1:22:43Z</time></trkpt>
<trkpt lat="46.4605" lon="6.94729"><ele></ele><time>2025-2-13T1:22:46Z</time></trkpt>
<trkpt lat="46.4605" lon="6.9473"><ele></ele><time>2025-2-13T1:22:49Z</time></trkpt>
<trkpt lat="46.46051" lon="6.94731"><ele></ele><time>2025-2-13T1:22:52Z</time></trkpt>
<trkpt lat="46.46051" lon="6.94731"><ele></ele><time>2025-2-13T1:22:55Z</time></trkpt>
<trkpt lat="46.46051" lon="6.94731"><ele></ele><time>2025-2-13T1:22:58Z</time></trkpt>
<trkpt lat="46.46051" lon="6.9473"><ele></ele><time>2025-2-13T1:23:1Z</time></trkpt>
<trkpt lat="46.4605" lon="6.9473"><ele></ele><time>2025-2-13T1:23:4Z</time></trkpt>
<trkpt lat="46.46047" lon="6.94734"><ele></ele><time>2025-2-13T1:23:7Z</time></trkpt>
<trkpt lat="46.46047" lon="6.94737"><ele></ele><time>2025-2-13T1:23:10Z</time></trkpt>
<trkpt lat="46.46046" lon="6.94744"><ele></ele><time>2025-2-13T1:23:13Z</time></trkpt>
<trkpt lat="46.46046" lon="6.94745"><ele></ele><time>2025-2-13T1:23:16Z</time></trkpt>
<trkpt lat="46.46044" lon="6.94747"><ele></ele><time>2025-2-13T1:23:19Z</time></trkpt>
<trkpt lat="46.46043" lon="6.94749"><ele></ele><time>2025-2-13T1:23:22Z</time></trkpt>
<trkpt lat="46.46042" lon="6.9475"><ele></ele><time>2025-2-13T1:23:25Z</time></trkpt>
<trkpt lat="46.46042" lon="6.94751"><ele></ele><time>2025-2-13T1:23:28Z</time></trkpt>
<trkpt lat="46.4604" lon="6.94754"><ele></ele><time>2025-2-13T1:23:31Z</time></trkpt>
<trkpt lat="46.46039" lon="6.94755"><ele></ele><time>2025-2-13T1:23:34Z</time></trkpt>
<trkpt lat="46.46038" lon="6.94761"><ele></ele><time>2025-2-13T1:23:37Z</time></trkpt>
<trkpt lat="46.46037" lon="6.94763"><ele></ele><time>2025-2-13T1:23:40Z</time></trkpt>
<trkpt lat="46.46036" lon="6.94769"><ele></ele><time>2025-2-13T1:23:43Z</time></trkpt>
<trkpt lat="46.46034" lon="6.94776"><ele></ele><time>2025-2-13T1:23:46Z</time></trkpt>
<trkpt lat="46.46034" lon="6.94778"><ele></ele><time>2025-2-13T1:23:49Z</time></trkpt>
<trkpt lat="46.4603" lon="6.94787"><ele></ele><time>2025-2-13T1:23:52Z</time></trkpt>
<trkpt lat="46.46029" lon="6.94788"><ele></ele><time>2025-2-13T1:23:55Z</time></trkpt>
<trkpt lat="46.46024" lon="6.94798"><ele></ele><time>2025-2-13T1:23:58Z</time></trkpt>
<trkpt lat="46.46023" lon="6.94801"><ele></ele><time>2025-2-13T1:24:1Z</time></trkpt>
<trkpt lat="46.46021" lon="6.94809"><ele></ele><time>2025-2-13T1:24:4Z</time></trkpt>
<trkpt lat="46.46021" lon="6.9481"><ele></ele><time>2025-2-13T1:24:7Z</time></trkpt>
<trkpt lat="46.46018" lon="6.9482"><ele></ele><time>2025-2-13T1:24:10Z</time></trkpt>
<trkpt lat="46.46016" lon="6.9483"><ele></ele><time>2025-2-13T1:24:13Z</time></trkpt>
<trkpt lat="46.46015" lon="6.94831"><ele></ele><time>2025-2-13T1:24:16Z</time></trkpt>
<trkpt lat="46.46014" lon="6.94837"><ele></ele><time>2025-2-13T1:24:19Z</time></trkpt>
<trkpt lat="46.46013" lon="6.94844"><ele></ele><time>2025-2-13T1:24:22Z</time></trkpt>
<trkpt lat="46.46011" lon="6.94853"><ele></ele><time>2025-2-13T1:24:25Z</time></trkpt>
<trkpt lat="46.46008" lon="6.9486"><ele></ele><time>2025-2-13T1:24:28Z</time></trkpt>
<trkpt lat="46.46007" lon="6.94863"><ele></ele><time>2025-2-13T1:24:31Z</time></trkpt>
<trkpt lat="46.46004" lon="6.9487"><ele></ele><time>2025-2-13T1:24:34Z</time></trkpt>
<trkpt lat="46.46004" lon="6.94872"><ele></ele><time>2025-2-13T1:24:37Z</time></trkpt>
<trkpt lat="46.46001" lon="6.94882"><ele></ele><time>2025-2-13T1:24:40Z</time></trkpt>
<trkpt lat="46.46001" lon="6.94883"><ele></ele><time>2025-2-13T1:24:43Z</time></trkpt>
<trkpt lat="46.45998" lon="6.94891"><ele></ele><time>2025-2-13T1:24:46Z</time></trkpt>
<trkpt lat="46.45996" lon="6.94896"><ele></ele><time>2025-2-13T1:24:49Z</time></trkpt>
<trkpt lat="46.45991" lon="6.94906"><ele></ele><time>2025-2-13T1:24:52Z</time></trkpt>
<trkpt lat="46.4599" lon="6.94907"><ele></ele><time>2025-2-13T1:24:55Z</time></trkpt>
<trkpt lat="46.45986" lon="6.94914"><ele></ele><time>2025-2-13T1:24:58Z</time></trkpt>
<trkpt lat="46.45984" lon="6.94918"><ele></ele><time>2025-2-13T1:25:1Z</time></trkpt>
<trkpt lat="46.45981" lon="6.94924"><ele></ele><time>2025-2-13T1:25:4Z</time></trkpt>
<trkpt lat="46.45979" lon="6.9493"><ele></ele><time>2025-2-13T1:25:7Z</time></trkpt>
<trkpt lat="46.45977" lon="6.94937"><ele></ele><time>2025-2-13T1:25:10Z</time></trkpt>
<trkpt lat="46.45975" lon="6.94941"><ele></ele><time>2025-2-13T1:25:13Z</time></trkpt>
<trkpt lat="46.45973" lon="6.94951"><ele></ele><time>2025-2-13T1:25:16Z</time></trkpt>
<trkpt lat="46.45973" lon="6.94952"><ele></ele><time>2025-2-13T1:25:19Z</time></trkpt>
<trkpt lat="46.45971" lon="6.94955"><ele></ele><time>2025-2-13T1:25:22Z</time></trkpt>
<trkpt lat="46.45971" lon="6.9496"><ele></ele><time>2025-2-13T1:25:25Z</time></trkpt>
<trkpt lat="46.4597" lon="6.94964"><ele></ele><time>2025-2-13T1:25:28Z</time></trkpt>
<trkpt lat="46.45969" lon="6.94964"><ele></ele><time>2025-2-13T1:25:31Z</time></trkpt>
<trkpt lat="46.45969" lon="6.94964"><ele></ele><time>2025-2-13T1:25:34Z</time></trkpt>
<trkpt lat="46.45969" lon="6.94964"><ele></ele><time>2025-2-13T1:25:37Z</time></trkpt>
<trkpt lat="46.45971" lon="6.94966"><ele></ele><time>2025-2-13T1:25:40Z</time></trkpt>
<trkpt lat="46.45975" lon="6.9497"><ele></ele><time>2025-2-13T1:25:43Z</time></trkpt>
<trkpt lat="46.45981" lon="6.94983"><ele></ele><time>2025-2-13T1:25:46Z</time></trkpt>
<trkpt lat="46.45981" lon="6.94984"><ele></ele><time>2025-2-13T1:25:49Z</time></trkpt>
<trkpt lat="46.45982" lon="6.94986"><ele></ele><time>2025-2-13T1:25:52Z</time></trkpt>
<trkpt lat="46.45983" lon="6.94989"><ele></ele><time>2025-2-13T1:25:55Z</time></trkpt>
<trkpt lat="46.45986" lon="6.94995"><ele></ele><time>2025-2-13T1:25:58Z</time></trkpt>
<trkpt lat="46.45987" lon="6.94998"><ele></ele><time>2025-2-13T1:26:1Z</time></trkpt>
<trkpt lat="46.45993" lon="6.95011"><ele></ele><time>2025-2-13T1:26:4Z</time></trkpt>
<trkpt lat="46.45998" lon="6.95026"><ele></ele><time>2025-2-13T1:26:7Z</time></trkpt>
<trkpt lat="46.46" lon="6.95029"><ele></ele><time>2025-2-13T1:26:10Z</time></trkpt>
<trkpt lat="46.46007" lon="6.95047"><ele></ele><time>2025-2-13T1:26:13Z</time></trkpt>
<trkpt lat="46.46019" lon="6.95073"><ele></ele><time>2025-2-13T1:26:16Z</time></trkpt>
<trkpt lat="46.46024" lon="6.95083"><ele></ele><time>2025-2-13T1:26:19Z</time></trkpt>
<trkpt lat="46.4603" lon="6.95102"><ele></ele><time>2025-2-13T1:26:22Z</time></trkpt>
<trkpt lat="46.46034" lon="6.95113"><ele></ele><time>2025-2-13T1:26:25Z</time></trkpt>
<trkpt lat="46.4604" lon="6.95131"><ele></ele><time>2025-2-13T1:26:28Z</time></trkpt>
<trkpt lat="46.46044" lon="6.9514"><ele></ele><time>2025-2-13T1:26:31Z</time></trkpt>
<trkpt lat="46.46049" lon="6.9515"><ele></ele><time>2025-2-13T1:26:34Z</time></trkpt>
<trkpt lat="46.46059" lon="6.9517"><ele></ele><time>2025-2-13T1:26:37Z</time></trkpt>
<trkpt lat="46.46062" lon="6.95177"><ele></ele><time>2025-2-13T1:26:40Z</time></trkpt>
<trkpt lat="46.46075" lon="6.95205"><ele></ele><time>2025-2-13T1:26:43Z</time></trkpt>
<trkpt lat="46.46076" lon="6.95208"><ele></ele><time>2025-2-13T1:26:46Z</time></trkpt>
<trkpt lat="46.46086" lon="6.95232"><ele></ele><time>2025-2-13T1:26:49Z</time></trkpt>
<trkpt lat="46.46092" lon="6.95246"><ele></ele><time>2025-2-13T1:26:52Z</time></trkpt>
<trkpt lat="46.46098" lon="6.95261"><ele></ele><time>2025-2-13T1:26:55Z</time></trkpt>
<trkpt lat="46.4611" lon="6.95284"><ele></ele><time>2025-2-13T1:26:58Z</time></trkpt>
<trkpt lat="46.46113" lon="6.95292"><ele></ele><time>2025-2-13T1:27:1Z</time></trkpt>
<trkpt lat="46.46123" lon="6.95316"><ele></ele><time>2025-2-13T1:27:4Z</time></trkpt>
<trkpt lat="46.46124" lon="6.95321"><ele></ele><time>2025-2-13T1:27:7Z</time></trkpt>
<trkpt lat="46.46134" lon="6.95347"><ele></ele><time>2025-2-13T1:27:10Z</time></trkpt>
<trkpt lat="46.46139" lon="6.95356"><ele></ele><time>2025-2-13T1:27:13Z</time></trkpt>
<trkpt lat="46.46145" lon="6.9537"><ele></ele><time>2025-2-13T1:27:16Z</time></trkpt>
<trkpt lat="46.46154" lon="6.95395"><ele></ele><time>2025-2-13T1:27:19Z</time></trkpt>
<trkpt lat="46.46155" lon="6.95398"><ele></ele><time>2025-2-13T1:27:22Z</time></trkpt>
<trkpt lat="46.46169" lon="6.95425"><ele></ele><time>2025-2-13T1:27:25Z</time></trkpt>
<trkpt lat="46.46186" lon="6.95453"><ele></ele><time>2025-2-13T1:27:28Z</time></trkpt>
<trkpt lat="46.4619" lon="6.95458"><ele></ele><time>2025-2-13T1:27:31Z</time></trkpt>
<trkpt lat="46.46197" lon="6.95468"><ele></ele><time>2025-2-13T1:27:34Z</time></trkpt>
<trkpt lat="46.46201" lon="6.95473"><ele></ele><time>2025-2-13T1:27:37Z</time></trkpt>
<trkpt lat="46.46203" lon="6.95474"><ele></ele><time>2025-2-13T1:27:40Z</time></trkpt>
<trkpt lat="46.46204" lon="6.95474"><ele></ele><time>2025-2-13T1:27:43Z</time></trkpt>
<trkpt lat="46.46203" lon="6.95474"><ele></ele><time>2025-2-13T1:27:46Z</time></trkpt>
<trkpt lat="46.46203" lon="6.95474"><ele></ele><time>2025-2-13T1:27:49Z</time></trkpt>
<trkpt lat="46.46203" lon="6.95475"><ele></ele><time>2025-2-13T1:27:52Z</time></trkpt>
<trkpt lat="46.46204" lon="6.95475"><ele></ele><time>2025-2-13T1:27:55Z</time></trkpt>
<trkpt lat="46.46205" lon="6.95475"><ele></ele><time>2025-2-13T1:27:58Z</time></trkpt>
<trkpt lat="46.46206" lon="6.95475"><ele></ele><time>2025-2-13T1:28:1Z</time></trkpt>
<trkpt lat="46.46204" lon="6.95473"><ele></ele><time>2025-2-13T1:28:4Z</time></trkpt>
<trkpt lat="46.46204" lon="6.95474"><ele></ele><time>2025-2-13T1:28:7Z</time></trkpt>
<trkpt lat="46.46204" lon="6.95474"><ele></ele><time>2025-2-13T1:28:10Z</time></trkpt>
<trkpt lat="46.46204" lon="6.95474"><ele></ele><time>2025-2-13T1:28:13Z</time></trkpt>
<trkpt lat="46.46204" lon="6.95474"><ele></ele><time>2025-2-13T1:28:16Z</time></trkpt>
<trkpt lat="46.46202" lon="6.95472"><ele></ele><time>2025-2-13T1:28:19Z</time></trkpt>
<trkpt lat="46.46202" lon="6.95472"><ele></ele><time>2025-2-13T1:28:22Z</time></trkpt>
<trkpt lat="46.46202" lon="6.95472"><ele></ele><time>2025-2-13T1:28:25Z</time></trkpt>
<trkpt lat="46.46202" lon="6.95473"><ele></ele><time>2025-2-13T1:28:28Z</time></trkpt>
<trkpt lat="46.46203" lon="6.95473"><ele></ele><time>2025-2-13T1:28:31Z</time></trkpt>
<trkpt lat="46.46204" lon="6.95473"><ele></ele><time>2025-2-13T1:28:34Z</time></trkpt>
<trkpt lat="46.46204" lon="6.95473"><ele></ele><time>2025-2-13T1:28:37Z</time></trkpt>
<trkpt lat="46.46203" lon="6.95473"><ele></ele><time>2025-2-13T1:28:40Z</time></trkpt>
<trkpt lat="46.46204" lon="6.95473"><ele></ele><time>2025-2-13T1:28:43Z</time></trkpt>
<trkpt lat="46.46204" lon="6.95474"><ele></ele><time>2025-2-13T1:28:46Z</time></trkpt>
<trkpt lat="46.46203" lon="6.95478"><ele></ele><time>2025-2-13T1:28:49Z</time></trkpt>
<trkpt lat="46.46203" lon="6.95478"><ele></ele><time>2025-2-13T1:28:52Z</time></trkpt>
<trkpt lat="46.46203" lon="6.95478"><ele></ele><time>2025-2-13T1:28:55Z</time></trkpt>
<trkpt lat="46.46203" lon="6.95478"><ele></ele><time>2025-2-13T1:28:58Z</time></trkpt>
<trkpt lat="46.46203" lon="6.95478"><ele></ele><time>2025-2-13T1:29:1Z</time></trkpt>
<trkpt lat="46.46202" lon="6.95479"><ele></ele><time>2025-2-13T1:29:4Z</time></trkpt>
<trkpt lat="46.46203" lon="6.95479"><ele></ele><time>2025-2-13T1:29:7Z</time></trkpt>
<trkpt lat="46.46203" lon="6.95479"><ele></ele><time>2025-2-13T1:29:10Z</time></trkpt>
<trkpt lat="46.46203" lon="6.95479"><ele></ele><time>2025-2-13T1:29:13Z</time></trkpt>
<trkpt lat="46.46204" lon="6.9548"><ele></ele><time>2025-2-13T1:29:16Z</time></trkpt>
<trkpt lat="46.46207" lon="6.95482"><ele></ele><time>2025-2-13T1:29:19Z</time></trkpt>
<trkpt lat="46.46221" lon="6.95496"><ele></ele><time>2025-2-13T1:29:22Z</time></trkpt>
<trkpt lat="46.46235" lon="6.9551"><ele></ele><time>2025-2-13T1:29:25Z</time></trkpt>
<trkpt lat="46.46237" lon="6.95513"><ele></ele><time>2025-2-13T1:29:28Z</time></trkpt>
<trkpt lat="46.46247" lon="6.95526"><ele></ele><time>2025-2-13T1:29:31Z</time></trkpt>
<trkpt lat="46.46252" lon="6.95531"><ele></ele><time>2025-2-13T1:29:34Z</time></trkpt>
<trkpt lat="46.46262" lon="6.95546"><ele></ele><time>2025-2-13T1:29:37Z</time></trkpt>
<trkpt lat="46.46269" lon="6.9556"><ele></ele><time>2025-2-13T1:29:40Z</time></trkpt>
<trkpt lat="46.46275" lon="6.9557"><ele></ele><time>2025-2-13T1:29:43Z</time></trkpt>
<trkpt lat="46.46277" lon="6.95573"><ele></ele><time>2025-2-13T1:29:46Z</time></trkpt>
<trkpt lat="46.46283" lon="6.95581"><ele></ele><time>2025-2-13T1:29:49Z</time></trkpt>
<trkpt lat="46.46296" lon="6.95598"><ele></ele><time>2025-2-13T1:29:52Z</time></trkpt>
<trkpt lat="46.463" lon="6.95603"><ele></ele><time>2025-2-13T1:29:55Z</time></trkpt>
<trkpt lat="46.46313" lon="6.95617"><ele></ele><time>2025-2-13T1:29:58Z</time></trkpt>
<trkpt lat="46.46316" lon="6.95623"><ele></ele><time>2025-2-13T1:30:1Z</time></trkpt>
<trkpt lat="46.46325" lon="6.95635"><ele></ele><time>2025-2-13T1:30:4Z</time></trkpt>
<trkpt lat="46.46332" lon="6.95644"><ele></ele><time>2025-2-13T1:30:7Z</time></trkpt>
<trkpt lat="46.46338" lon="6.95657"><ele></ele><time>2025-2-13T1:30:10Z</time></trkpt>
<trkpt lat="46.46339" lon="6.95665"><ele></ele><time>2025-2-13T1:30:13Z</time></trkpt>
<trkpt lat="46.46339" lon="6.95675"><ele></ele><time>2025-2-13T1:30:16Z</time></trkpt>
<trkpt lat="46.46338" lon="6.95683"><ele></ele><time>2025-2-13T1:30:19Z</time></trkpt>
<trkpt lat="46.46332" lon="6.95697"><ele></ele><time>2025-2-13T1:30:22Z</time></trkpt>
<trkpt lat="46.46331" lon="6.95699"><ele></ele><time>2025-2-13T1:30:25Z</time></trkpt>
<trkpt lat="46.46324" lon="6.95713"><ele></ele><time>2025-2-13T1:30:28Z</time></trkpt>
<trkpt lat="46.46322" lon="6.95719"><ele></ele><time>2025-2-13T1:30:31Z</time></trkpt>
<trkpt lat="46.46318" lon="6.95733"><ele></ele><time>2025-2-13T1:30:34Z</time></trkpt>
<trkpt lat="46.46316" lon="6.95746"><ele></ele><time>2025-2-13T1:30:37Z</time></trkpt>
<trkpt lat="46.46316" lon="6.95752"><ele></ele><time>2025-2-13T1:30:40Z</time></trkpt>
<trkpt lat="46.46314" lon="6.95767"><ele></ele><time>2025-2-13T1:30:43Z</time></trkpt>
<trkpt lat="46.46314" lon="6.95777"><ele></ele><time>2025-2-13T1:30:46Z</time></trkpt>
<trkpt lat="46.46313" lon="6.95791"><ele></ele><time>2025-2-13T1:30:49Z</time></trkpt>
<trkpt lat="46.4631" lon="6.95807"><ele></ele><time>2025-2-13T1:30:52Z</time></trkpt>
<trkpt lat="46.46308" lon="6.95817"><ele></ele><time>2025-2-13T1:30:55Z</time></trkpt>
<trkpt lat="46.46304" lon="6.95836"><ele></ele><time>2025-2-13T1:30:58Z</time></trkpt>
<trkpt lat="46.46304" lon="6.95839"><ele></ele><time>2025-2-13T1:31:1Z</time></trkpt>
<trkpt lat="46.46303" lon="6.95853"><ele></ele><time>2025-2-13T1:31:4Z</time></trkpt>
<trkpt lat="46.46305" lon="6.95861"><ele></ele><time>2025-2-13T1:31:7Z</time></trkpt>
<trkpt lat="46.4631" lon="6.95873"><ele></ele><time>2025-2-13T1:31:10Z</time></trkpt>
<trkpt lat="46.46312" lon="6.95877"><ele></ele><time>2025-2-13T1:31:13Z</time></trkpt>
<trkpt lat="46.46316" lon="6.9588"><ele></ele><time>2025-2-13T1:31:16Z</time></trkpt>
<trkpt lat="46.46316" lon="6.95878"><ele></ele><time>2025-2-13T1:31:19Z</time></trkpt>
<trkpt lat="46.46313" lon="6.95875"><ele></ele><time>2025-2-13T1:31:22Z</time></trkpt>
<trkpt lat="46.46311" lon="6.95877"><ele></ele><time>2025-2-13T1:31:25Z</time></trkpt>
<trkpt lat="46.46312" lon="6.95881"><ele></ele><time>2025-2-13T1:31:28Z</time></trkpt>
<trkpt lat="46.46313" lon="6.95881"><ele></ele><time>2025-2-13T1:31:31Z</time></trkpt>
<trkpt lat="46.46321" lon="6.95882"><ele></ele><time>2025-2-13T1:31:34Z</time></trkpt>
<trkpt lat="46.46322" lon="6.95882"><ele></ele><time>2025-2-13T1:31:37Z</time></trkpt>
<trkpt lat="46.46325" lon="6.95884"><ele></ele><time>2025-2-13T1:31:40Z</time></trkpt>
<trkpt lat="46.4633" lon="6.95882"><ele></ele><time>2025-2-13T1:31:43Z</time></trkpt>
<trkpt lat="46.46342" lon="6.95883"><ele></ele><time>2025-2-13T1:31:46Z</time></trkpt>
<trkpt lat="46.46347" lon="6.95878"><ele></ele><time>2025-2-13T1:31:49Z</time></trkpt>
<trkpt lat="46.46353" lon="6.95873"><ele></ele><time>2025-2-13T1:31:52Z</time></trkpt>
<trkpt lat="46.46364" lon="6.95862"><ele></ele><time>2025-2-13T1:31:55Z</time></trkpt>
<trkpt lat="46.46369" lon="6.95858"><ele></ele><time>2025-2-13T1:31:58Z</time></trkpt>
<trkpt lat="46.46371" lon="6.95855"><ele></ele><time>2025-2-13T1:32:1Z</time></trkpt>
<trkpt lat="46.46377" lon="6.95846"><ele></ele><time>2025-2-13T1:32:4Z</time></trkpt>
<trkpt lat="46.4638" lon="6.95847"><ele></ele><time>2025-2-13T1:32:7Z</time></trkpt>
<trkpt lat="46.46377" lon="6.95846"><ele></ele><time>2025-2-13T1:32:10Z</time></trkpt>
<trkpt lat="46.46378" lon="6.95846"><ele></ele><time>2025-2-13T1:32:13Z</time></trkpt>
<trkpt lat="46.46378" lon="6.95844"><ele></ele><time>2025-2-13T1:32:16Z</time></trkpt>
<trkpt lat="46.46378" lon="6.95849"><ele></ele><time>2025-2-13T1:32:19Z</time></trkpt>
<trkpt lat="46.46378" lon="6.95846"><ele></ele><time>2025-2-13T1:32:22Z</time></trkpt>
<trkpt lat="46.46378" lon="6.9585"><ele></ele><time>2025-2-13T1:32:25Z</time></trkpt>
<trkpt lat="46.46378" lon="6.95851"><ele></ele><time>2025-2-13T1:32:28Z</time></trkpt>
<trkpt lat="46.46379" lon="6.95852"><ele></ele><time>2025-2-13T1:32:31Z</time></trkpt>
<trkpt lat="46.46379" lon="6.95852"><ele></ele><time>2025-2-13T1:32:34Z</time></trkpt>
<trkpt lat="46.46379" lon="6.95852"><ele></ele><time>2025-2-13T1:32:37Z</time></trkpt>
<trkpt lat="46.46382" lon="6.95851"><ele></ele><time>2025-2-13T1:32:40Z</time></trkpt>
<trkpt lat="46.46384" lon="6.95853"><ele></ele><time>2025-2-13T1:32:43Z</time></trkpt>
<trkpt lat="46.46384" lon="6.95852"><ele></ele><time>2025-2-13T1:32:46Z</time></trkpt>
<trkpt lat="46.46382" lon="6.9585"><ele></ele><time>2025-2-13T1:32:49Z</time></trkpt>
<trkpt lat="46.46377" lon="6.95848"><ele></ele><time>2025-2-13T1:32:52Z</time></trkpt>
<trkpt lat="46.46378" lon="6.95849"><ele></ele><time>2025-2-13T1:32:55Z</time></trkpt>
<trkpt lat="46.46379" lon="6.95847"><ele></ele><time>2025-2-13T1:32:58Z</time></trkpt>
<trkpt lat="46.46377" lon="6.95848"><ele></ele><time>2025-2-13T1:33:1Z</time></trkpt>
<trkpt lat="46.46379" lon="6.95846"><ele></ele><time>2025-2-13T1:33:4Z</time></trkpt>
<trkpt lat="46.46376" lon="6.95843"><ele></ele><time>2025-2-13T1:33:7Z</time></trkpt>
<trkpt lat="46.46376" lon="6.95842"><ele></ele><time>2025-2-13T1:33:10Z</time></trkpt>
<trkpt lat="46.46375" lon="6.95842"><ele></ele><time>2025-2-13T1:33:13Z</time></trkpt>
<trkpt lat="46.46375" lon="6.95843"><ele></ele><time>2025-2-13T1:33:16Z</time></trkpt>
<trkpt lat="46.46373" lon="6.95842"><ele></ele><time>2025-2-13T1:33:19Z</time></trkpt>
<trkpt lat="46.46373" lon="6.95843"><ele></ele><time>2025-2-13T1:33:22Z</time></trkpt>
<trkpt lat="46.46373" lon="6.95846"><ele></ele><time>2025-2-13T1:33:25Z</time></trkpt>
<trkpt lat="46.46377" lon="6.95844"><ele></ele><time>2025-2-13T1:33:28Z</time></trkpt>
<trkpt lat="46.46375" lon="6.95844"><ele></ele><time>2025-2-13T1:33:31Z</time></trkpt>
<trkpt lat="46.46376" lon="6.95847"><ele></ele><time>2025-2-13T1:33:34Z</time></trkpt>
<trkpt lat="46.46375" lon="6.95847"><ele></ele><time>2025-2-13T1:33:37Z</time></trkpt>
<trkpt lat="46.46377" lon="6.95845"><ele></ele><time>2025-2-13T1:33:40Z</time></trkpt>
<trkpt lat="46.46378" lon="6.95845"><ele></ele><time>2025-2-13T1:33:43Z</time></trkpt>
<trkpt lat="46.46377" lon="6.95847"><ele></ele><time>2025-2-13T1:33:46Z</time></trkpt>
<trkpt lat="46.46376" lon="6.95844"><ele></ele><time>2025-2-13T1:33:49Z</time></trkpt>
<trkpt lat="46.46375" lon="6.95842"><ele></ele><time>2025-2-13T1:33:52Z</time></trkpt>
<trkpt lat="46.46376" lon="6.95843"><ele></ele><time>2025-2-13T1:33:55Z</time></trkpt>
<trkpt lat="46.46375" lon="6.95843"><ele></ele><time>2025-2-13T1:33:58Z</time></trkpt>
<trkpt lat="46.46376" lon="6.95842"><ele></ele><time>2025-2-13T1:34:1Z</time></trkpt>
<trkpt lat="46.46376" lon="6.95842"><ele></ele><time>2025-2-13T1:34:4Z</time></trkpt>
<trkpt lat="46.46377" lon="6.95842"><ele></ele><time>2025-2-13T1:34:7Z</time></trkpt>
<trkpt lat="46.46377" lon="6.95842"><ele></ele><time>2025-2-13T1:34:10Z</time></trkpt>
<trkpt lat="46.46378" lon="6.95841"><ele></ele><time>2025-2-13T1:34:13Z</time></trkpt>
<trkpt lat="46.46383" lon="6.95832"><ele></ele><time>2025-2-13T1:34:16Z</time></trkpt>
<trkpt lat="46.46385" lon="6.9583"><ele></ele><time>2025-2-13T1:34:19Z</time></trkpt>
<trkpt lat="46.46385" lon="6.95831"><ele></ele><time>2025-2-13T1:34:22Z</time></trkpt>
<trkpt lat="46.4639" lon="6.95823"><ele></ele><time>2025-2-13T1:34:25Z</time></trkpt>
<trkpt lat="46.46394" lon="6.95821"><ele></ele><time>2025-2-13T1:34:28Z</time></trkpt>
<trkpt lat="46.46404" lon="6.95819"><ele></ele><time>2025-2-13T1:34:31Z</time></trkpt>
<trkpt lat="46.46409" lon="6.9582"><ele></ele><time>2025-2-13T1:34:34Z</time></trkpt>
<trkpt lat="46.46415" lon="6.95819"><ele></ele><time>2025-2-13T1:34:37Z</time></trkpt>
<trkpt lat="46.46425" lon="6.95818"><ele></ele><time>2025-2-13T1:34:40Z</time></trkpt>
<trkpt lat="46.4643" lon="6.95819"><ele></ele><time>2025-2-13T1:34:43Z</time></trkpt>
<trkpt lat="46.46434" lon="6.95821"><ele></ele><time>2025-2-13T1:34:46Z</time></trkpt>
<trkpt lat="46.46443" lon="6.95827"><ele></ele><time>2025-2-13T1:34:49Z</time></trkpt>
<trkpt lat="46.46449" lon="6.95829"><ele></ele><time>2025-2-13T1:34:52Z</time></trkpt>
<trkpt lat="46.46452" lon="6.9583"><ele></ele><time>2025-2-13T1:34:55Z</time></trkpt>
<trkpt lat="46.46458" lon="6.95834"><ele></ele><time>2025-2-13T1:34:58Z</time></trkpt>
<trkpt lat="46.46464" lon="6.95838"><ele></ele><time>2025-2-13T1:35:1Z</time></trkpt>
<trkpt lat="46.46468" lon="6.95839"><ele></ele><time>2025-2-13T1:35:4Z</time></trkpt>
<trkpt lat="46.46472" lon="6.9584"><ele></ele><time>2025-2-13T1:35:7Z</time></trkpt>
<trkpt lat="46.46476" lon="6.95839"><ele></ele><time>2025-2-13T1:35:10Z</time></trkpt>
<trkpt lat="46.46482" lon="6.95837"><ele></ele><time>2025-2-13T1:35:13Z</time></trkpt>
<trkpt lat="46.46486" lon="6.95835"><ele></ele><time>2025-2-13T1:35:16Z</time></trkpt>
<trkpt lat="46.46492" lon="6.95823"><ele></ele><time>2025-2-13T1:35:19Z</time></trkpt>
<trkpt lat="46.46495" lon="6.9582"><ele></ele><time>2025-2-13T1:35:22Z</time></trkpt>
<trkpt lat="46.46503" lon="6.95818"><ele></ele><time>2025-2-13T1:35:25Z</time></trkpt>
<trkpt lat="46.46507" lon="6.95821"><ele></ele><time>2025-2-13T1:35:28Z</time></trkpt>
<trkpt lat="46.46509" lon="6.95825"><ele></ele><time>2025-2-13T1:35:31Z</time></trkpt>
<trkpt lat="46.46514" lon="6.95833"><ele></ele><time>2025-2-13T1:35:34Z</time></trkpt>
<trkpt lat="46.46517" lon="6.95836"><ele></ele><time>2025-2-13T1:35:37Z</time></trkpt>
<trkpt lat="46.46522" lon="6.95842"><ele></ele><time>2025-2-13T1:35:40Z</time></trkpt>
<trkpt lat="46.46524" lon="6.95843"><ele></ele><time>2025-2-13T1:35:43Z</time></trkpt>
<trkpt lat="46.46524" lon="6.95844"><ele></ele><time>2025-2-13T1:35:46Z</time></trkpt>
<trkpt lat="46.46525" lon="6.95844"><ele></ele><time>2025-2-13T1:35:49Z</time></trkpt>
<trkpt lat="46.46528" lon="6.95847"><ele></ele><time>2025-2-13T1:35:52Z</time></trkpt>
<trkpt lat="46.46533" lon="6.95853"><ele></ele><time>2025-2-13T1:35:55Z</time></trkpt>
<trkpt lat="46.46537" lon="6.95858"><ele></ele><time>2025-2-13T1:35:58Z</time></trkpt>
<trkpt lat="46.4654" lon="6.95864"><ele></ele><time>2025-2-13T1:36:1Z</time></trkpt>
<trkpt lat="46.46544" lon="6.9587"><ele></ele><time>2025-2-13T1:36:4Z</time></trkpt>
<trkpt lat="46.46548" lon="6.95875"><ele></ele><time>2025-2-13T1:36:7Z</time></trkpt>
<trkpt lat="46.46555" lon="6.95883"><ele></ele><time>2025-2-13T1:36:10Z</time></trkpt>
<trkpt lat="46.46557" lon="6.95886"><ele></ele><time>2025-2-13T1:36:13Z</time></trkpt>
<trkpt lat="46.4656" lon="6.9589"><ele></ele><time>2025-2-13T1:36:16Z</time></trkpt>
<trkpt lat="46.46563" lon="6.95893"><ele></ele><time>2025-2-13T1:36:19Z</time></trkpt>
<trkpt lat="46.46573" lon="6.95908"><ele></ele><time>2025-2-13T1:36:22Z</time></trkpt>
<trkpt lat="46.4658" lon="6.95918"><ele></ele><time>2025-2-13T1:36:25Z</time></trkpt>
<trkpt lat="46.46587" lon="6.95928"><ele></ele><time>2025-2-13T1:36:28Z</time></trkpt>
<trkpt lat="46.46599" lon="6.95941"><ele></ele><time>2025-2-13T1:36:31Z</time></trkpt>
<trkpt lat="46.46607" lon="6.95947"><ele></ele><time>2025-2-13T1:36:34Z</time></trkpt>
<trkpt lat="46.46611" lon="6.95951"><ele></ele><time>2025-2-13T1:36:37Z</time></trkpt>
<trkpt lat="46.46618" lon="6.95957"><ele></ele><time>2025-2-13T1:36:40Z</time></trkpt>
<trkpt lat="46.46628" lon="6.95966"><ele></ele><time>2025-2-13T1:36:43Z</time></trkpt>
<trkpt lat="46.46632" lon="6.95969"><ele></ele><time>2025-2-13T1:36:46Z</time></trkpt>
<trkpt lat="46.46637" lon="6.95973"><ele></ele><time>2025-2-13T1:36:49Z</time></trkpt>
<trkpt lat="46.46645" lon="6.95982"><ele></ele><time>2025-2-13T1:36:52Z</time></trkpt>
<trkpt lat="46.46647" lon="6.95987"><ele></ele><time>2025-2-13T1:36:55Z</time></trkpt>
<trkpt lat="46.4665" lon="6.95992"><ele></ele><time>2025-2-13T1:36:58Z</time></trkpt>
<trkpt lat="46.4665" lon="6.95992"><ele></ele><time>2025-2-13T1:37:1Z</time></trkpt>
<trkpt lat="46.4665" lon="6.95992"><ele></ele><time>2025-2-13T1:37:4Z</time></trkpt>
<trkpt lat="46.4665" lon="6.95992"><ele></ele><time>2025-2-13T1:37:7Z</time></trkpt>
<trkpt lat="46.46651" lon="6.95991"><ele></ele><time>2025-2-13T1:37:10Z</time></trkpt>
<trkpt lat="46.46651" lon="6.95991"><ele></ele><time>2025-2-13T1:37:13Z</time></trkpt>
<trkpt lat="46.46651" lon="6.95993"><ele></ele><time>2025-2-13T1:37:16Z</time></trkpt>
<trkpt lat="46.46661" lon="6.96005"><ele></ele><time>2025-2-13T1:37:19Z</time></trkpt>
<trkpt lat="46.46665" lon="6.96008"><ele></ele><time>2025-2-13T1:37:22Z</time></trkpt>
<trkpt lat="46.46668" lon="6.96011"><ele></ele><time>2025-2-13T1:37:25Z</time></trkpt>
<trkpt lat="46.46675" lon="6.96017"><ele></ele><time>2025-2-13T1:37:28Z</time></trkpt>
<trkpt lat="46.46678" lon="6.96021"><ele></ele><time>2025-2-13T1:37:31Z</time></trkpt>
<trkpt lat="46.46682" lon="6.96025"><ele></ele><time>2025-2-13T1:37:34Z</time></trkpt>
<trkpt lat="46.46685" lon="6.9603"><ele></ele><time>2025-2-13T1:37:37Z</time></trkpt>
<trkpt lat="46.46692" lon="6.9604"><ele></ele><time>2025-2-13T1:37:40Z</time></trkpt>
<trkpt lat="46.46699" lon="6.96052"><ele></ele><time>2025-2-13T1:37:43Z</time></trkpt>
<trkpt lat="46.46702" lon="6.96057"><ele></ele><time>2025-2-13T1:37:46Z</time></trkpt>
<trkpt lat="46.46705" lon="6.96061"><ele></ele><time>2025-2-13T1:37:49Z</time></trkpt>
<trkpt lat="46.46706" lon="6.96063"><ele></ele><time>2025-2-13T1:37:52Z</time></trkpt>
<trkpt lat="46.46706" lon="6.96062"><ele></ele><time>2025-2-13T1:37:55Z</time></trkpt>
<trkpt lat="46.46706" lon="6.96062"><ele></ele><time>2025-2-13T1:37:58Z</time></trkpt>
<trkpt lat="46.46706" lon="6.96062"><ele></ele><time>2025-2-13T1:38:1Z</time></trkpt>
<trkpt lat="46.46706" lon="6.96062"><ele></ele><time>2025-2-13T1:38:4Z</time></trkpt>
<trkpt lat="46.46705" lon="6.96063"><ele></ele><time>2025-2-13T1:38:7Z</time></trkpt>
<trkpt lat="46.46704" lon="6.96063"><ele></ele><time>2025-2-13T1:38:10Z</time></trkpt>
<trkpt lat="46.46704" lon="6.96063"><ele></ele><time>2025-2-13T1:38:13Z</time></trkpt>
<trkpt lat="46.46704" lon="6.96063"><ele></ele><time>2025-2-13T1:38:16Z</time></trkpt>
<trkpt lat="46.46705" lon="6.96063"><ele></ele><time>2025-2-13T1:38:19Z</time></trkpt>
<trkpt lat="46.46705" lon="6.96063"><ele></ele><time>2025-2-13T1:38:22Z</time></trkpt>
<trkpt lat="46.4671" lon="6.9607"><ele></ele><time>2025-2-13T1:38:25Z</time></trkpt>
<trkpt lat="46.46716" lon="6.96079"><ele></ele><time>2025-2-13T1:38:28Z</time></trkpt>
<trkpt lat="46.46722" lon="6.96091"><ele></ele><time>2025-2-13T1:38:31Z</time></trkpt>
<trkpt lat="46.4673" lon="6.96106"><ele></ele><time>2025-2-13T1:38:34Z</time></trkpt>
<trkpt lat="46.46738" lon="6.96124"><ele></ele><time>2025-2-13T1:38:37Z</time></trkpt>
<trkpt lat="46.46741" lon="6.96132"><ele></ele><time>2025-2-13T1:38:40Z</time></trkpt>
<trkpt lat="46.46744" lon="6.9614"><ele></ele><time>2025-2-13T1:38:43Z</time></trkpt>
<trkpt lat="46.4675" lon="6.96153"><ele></ele><time>2025-2-13T1:38:46Z</time></trkpt>
<trkpt lat="46.46756" lon="6.96164"><ele></ele><time>2025-2-13T1:38:49Z</time></trkpt>
<trkpt lat="46.46758" lon="6.96173"><ele></ele><time>2025-2-13T1:38:52Z</time></trkpt>
<trkpt lat="46.4676" lon="6.96181"><ele></ele><time>2025-2-13T1:38:55Z</time></trkpt>
<trkpt lat="46.46763" lon="6.96184"><ele></ele><time>2025-2-13T1:38:58Z</time></trkpt>
<trkpt lat="46.46764" lon="6.96185"><ele></ele><time>2025-2-13T1:39:1Z</time></trkpt>
<trkpt lat="46.46767" lon="6.96186"><ele></ele><time>2025-2-13T1:39:4Z</time></trkpt>
<trkpt lat="46.46767" lon="6.96186"><ele></ele><time>2025-2-13T1:39:7Z</time></trkpt>
<trkpt lat="46.46767" lon="6.96186"><ele></ele><time>2025-2-13T1:39:10Z</time></trkpt>
<trkpt lat="46.46768" lon="6.96186"><ele></ele><time>2025-2-13T1:39:13Z</time></trkpt>
<trkpt lat="46.46774" lon="6.96197"><ele></ele><time>2025-2-13T1:39:16Z</time></trkpt>
<trkpt lat="46.46782" lon="6.96206"><ele></ele><time>2025-2-13T1:39:19Z</time></trkpt>
<trkpt lat="46.46794" lon="6.96214"><ele></ele><time>2025-2-13T1:39:22Z</time></trkpt>
<trkpt lat="46.46801" lon="6.96218"><ele></ele><time>2025-2-13T1:39:25Z</time></trkpt>
<trkpt lat="46.46807" lon="6.96224"><ele></ele><time>2025-2-13T1:39:28Z</time></trkpt>
<trkpt lat="46.46813" lon="6.9623"><ele></ele><time>2025-2-13T1:39:31Z</time></trkpt>
<trkpt lat="46.46818" lon="6.96236"><ele></ele><time>2025-2-13T1:39:34Z</time></trkpt>
<trkpt lat="46.46823" lon="6.9624"><ele></ele><time>2025-2-13T1:39:37Z</time></trkpt>
<trkpt lat="46.46829" lon="6.96243"><ele></ele><time>2025-2-13T1:39:40Z</time></trkpt>
<trkpt lat="46.46836" lon="6.96247"><ele></ele><time>2025-2-13T1:39:43Z</time></trkpt>
<trkpt lat="46.4684" lon="6.96251"><ele></ele><time>2025-2-13T1:39:46Z</time></trkpt>
<trkpt lat="46.46839" lon="6.96253"><ele></ele><time>2025-2-13T1:39:49Z</time></trkpt>
<trkpt lat="46.46836" lon="6.96254"><ele></ele><time>2025-2-13T1:39:52Z</time></trkpt>
<trkpt lat="46.46835" lon="6.96253"><ele></ele><time>2025-2-13T1:39:55Z</time></trkpt>
<trkpt lat="46.46834" lon="6.96254"><ele></ele><time>2025-2-13T1:39:58Z</time></trkpt>
<trkpt lat="46.46835" lon="6.96252"><ele></ele><time>2025-2-13T1:40:1Z</time></trkpt>
<trkpt lat="46.46835" lon="6.96254"><ele></ele><time>2025-2-13T1:40:4Z</time></trkpt>
<trkpt lat="46.46836" lon="6.96257"><ele></ele><time>2025-2-13T1:40:7Z</time></trkpt>
<trkpt lat="46.46834" lon="6.96252"><ele></ele><time>2025-2-13T1:40:10Z</time></trkpt>
<trkpt lat="46.46833" lon="6.9625"><ele></ele><time>2025-2-13T1:40:13Z</time></trkpt>
<trkpt lat="46.46833" lon="6.96251"><ele></ele><time>2025-2-13T1:40:16Z</time></trkpt>
<trkpt lat="46.46834" lon="6.96252"><ele></ele><time>2025-2-13T1:40:19Z</time></trkpt>
<trkpt lat="46.46836" lon="6.96251"><ele></ele><time>2025-2-13T1:40:22Z</time></trkpt>
<trkpt lat="46.46837" lon="6.96251"><ele></ele><time>2025-2-13T1:40:25Z</time></trkpt>
<trkpt lat="46.46839" lon="6.96256"><ele></ele><time>2025-2-13T1:40:28Z</time></trkpt>
<trkpt lat="46.4684" lon="6.96256"><ele></ele><time>2025-2-13T1:40:31Z</time></trkpt>
<trkpt lat="46.46838" lon="6.96253"><ele></ele><time>2025-2-13T1:40:34Z</time></trkpt>
<trkpt lat="46.4684" lon="6.96254"><ele></ele><time>2025-2-13T1:40:37Z</time></trkpt>
<trkpt lat="46.4684" lon="6.96255"><ele></ele><time>2025-2-13T1:40:40Z</time></trkpt>
<trkpt lat="46.4684" lon="6.96256"><ele></ele><time>2025-2-13T1:40:43Z</time></trkpt>
<trkpt lat="46.46838" lon="6.96255"><ele></ele><time>2025-2-13T1:40:46Z</time></trkpt>
<trkpt lat="46.46829" lon="6.9625"><ele></ele><time>2025-2-13T1:40:49Z</time></trkpt>
<trkpt lat="46.46818" lon="6.96247"><ele></ele><time>2025-2-13T1:40:52Z</time></trkpt>
<trkpt lat="46.46806" lon="6.96245"><ele></ele><time>2025-2-13T1:40:55Z</time></trkpt>
<trkpt lat="46.46798" lon="6.96246"><ele></ele><time>2025-2-13T1:40:58Z</time></trkpt>
<trkpt lat="46.46792" lon="6.96247"><ele></ele><time>2025-2-13T1:41:1Z</time></trkpt>
<trkpt lat="46.46781" lon="6.96248"><ele></ele><time>2025-2-13T1:41:4Z</time></trkpt>
<trkpt lat="46.46771" lon="6.96249"><ele></ele><time>2025-2-13T1:41:7Z</time></trkpt>
<trkpt lat="46.46761" lon="6.96243"><ele></ele><time>2025-2-13T1:41:10Z</time></trkpt>
<trkpt lat="46.46748" lon="6.9623"><ele></ele><time>2025-2-13T1:41:13Z</time></trkpt>
<trkpt lat="46.46741" lon="6.96221"><ele></ele><time>2025-2-13T1:41:16Z</time></trkpt>
<trkpt lat="46.46734" lon="6.96212"><ele></ele><time>2025-2-13T1:41:19Z</time></trkpt>
<trkpt lat="46.46719" lon="6.96196"><ele></ele><time>2025-2-13T1:41:22Z</time></trkpt>
<trkpt lat="46.46712" lon="6.9619"><ele></ele><time>2025-2-13T1:41:25Z</time></trkpt>
<trkpt lat="46.46703" lon="6.96184"><ele></ele><time>2025-2-13T1:41:28Z</time></trkpt>
<trkpt lat="46.46695" lon="6.9618"><ele></ele><time>2025-2-13T1:41:31Z</time></trkpt>
<trkpt lat="46.46679" lon="6.96172"><ele></ele><time>2025-2-13T1:41:34Z</time></trkpt>
<trkpt lat="46.46672" lon="6.9617"><ele></ele><time>2025-2-13T1:41:37Z</time></trkpt>
<trkpt lat="46.46664" lon="6.96168"><ele></ele><time>2025-2-13T1:41:40Z</time></trkpt>
<trkpt lat="46.46648" lon="6.96162"><ele></ele><time>2025-2-13T1:41:43Z</time></trkpt>
<trkpt lat="46.46639" lon="6.96157"><ele></ele><time>2025-2-13T1:41:46Z</time></trkpt>
<trkpt lat="46.46629" lon="6.96154"><ele></ele><time>2025-2-13T1:41:49Z</time></trkpt>
<trkpt lat="46.4662" lon="6.96151"><ele></ele><time>2025-2-13T1:41:52Z</time></trkpt>
<trkpt lat="46.46611" lon="6.96149"><ele></ele><time>2025-2-13T1:41:55Z</time></trkpt>
<trkpt lat="46.46601" lon="6.96149"><ele></ele><time>2025-2-13T1:41:58Z</time></trkpt>
<trkpt lat="46.46592" lon="6.96151"><ele></ele><time>2025-2-13T1:42:1Z</time></trkpt>
<trkpt lat="46.46583" lon="6.96154"><ele></ele><time>2025-2-13T1:42:4Z</time></trkpt>
<trkpt lat="46.46566" lon="6.9616"><ele></ele><time>2025-2-13T1:42:7Z</time></trkpt>
<trkpt lat="46.46558" lon="6.96161"><ele></ele><time>2025-2-13T1:42:10Z</time></trkpt>
<trkpt lat="46.46549" lon="6.96161"><ele></ele><time>2025-2-13T1:42:13Z</time></trkpt>
<trkpt lat="46.46522" lon="6.96161"><ele></ele><time>2025-2-13T1:42:16Z</time></trkpt>
<trkpt lat="46.46512" lon="6.96162"><ele></ele><time>2025-2-13T1:42:19Z</time></trkpt>
<trkpt lat="46.46503" lon="6.96163"><ele></ele><time>2025-2-13T1:42:22Z</time></trkpt>
<trkpt lat="46.46492" lon="6.96164"><ele></ele><time>2025-2-13T1:42:25Z</time></trkpt>
<trkpt lat="46.46472" lon="6.9617"><ele></ele><time>2025-2-13T1:42:28Z</time></trkpt>
<trkpt lat="46.46463" lon="6.96171"><ele></ele><time>2025-2-13T1:42:31Z</time></trkpt>
<trkpt lat="46.46445" lon="6.96173"><ele></ele><time>2025-2-13T1:42:34Z</time></trkpt>
<trkpt lat="46.4643" lon="6.96179"><ele></ele><time>2025-2-13T1:42:37Z</time></trkpt>
<trkpt lat="46.46422" lon="6.96185"><ele></ele><time>2025-2-13T1:42:40Z</time></trkpt>
<trkpt lat="46.46416" lon="6.96192"><ele></ele><time>2025-2-13T1:42:43Z</time></trkpt>
<trkpt lat="46.46411" lon="6.962"><ele></ele><time>2025-2-13T1:42:46Z</time></trkpt>
<trkpt lat="46.46406" lon="6.96208"><ele></ele><time>2025-2-13T1:42:49Z</time></trkpt>
<trkpt lat="46.464" lon="6.96214"><ele></ele><time>2025-2-13T1:42:52Z</time></trkpt>
<trkpt lat="46.46393" lon="6.96218"><ele></ele><time>2025-2-13T1:42:55Z</time></trkpt>
<trkpt lat="46.46386" lon="6.9622"><ele></ele><time>2025-2-13T1:42:58Z</time></trkpt>
<trkpt lat="46.46369" lon="6.96226"><ele></ele><time>2025-2-13T1:43:1Z</time></trkpt>
<trkpt lat="46.46362" lon="6.96231"><ele></ele><time>2025-2-13T1:43:4Z</time></trkpt>
<trkpt lat="46.46354" lon="6.96237"><ele></ele><time>2025-2-13T1:43:7Z</time></trkpt>
<trkpt lat="46.46346" lon="6.96244"><ele></ele><time>2025-2-13T1:43:10Z</time></trkpt>
<trkpt lat="46.46331" lon="6.9626"><ele></ele><time>2025-2-13T1:43:13Z</time></trkpt>
<trkpt lat="46.46324" lon="6.96267"><ele></ele><time>2025-2-13T1:43:16Z</time></trkpt>
<trkpt lat="46.46319" lon="6.96273"><ele></ele><time>2025-2-13T1:43:19Z</time></trkpt>
<trkpt lat="46.46312" lon="6.96277"><ele></ele><time>2025-2-13T1:43:22Z</time></trkpt>
<trkpt lat="46.46304" lon="6.9628"><ele></ele><time>2025-2-13T1:43:25Z</time></trkpt>
<trkpt lat="46.46296" lon="6.96283"><ele></ele><time>2025-2-13T1:43:28Z</time></trkpt>
<trkpt lat="46.46287" lon="6.96285"><ele></ele><time>2025-2-13T1:43:31Z</time></trkpt>
<trkpt lat="46.46269" lon="6.96291"><ele></ele><time>2025-2-13T1:43:34Z</time></trkpt>
<trkpt lat="46.4626" lon="6.96296"><ele></ele><time>2025-2-13T1:43:37Z</time></trkpt>
<trkpt lat="46.46252" lon="6.963"><ele></ele><time>2025-2-13T1:43:40Z</time></trkpt>
<trkpt lat="46.46234" lon="6.96309"><ele></ele><time>2025-2-13T1:43:43Z</time></trkpt>
<trkpt lat="46.46215" lon="6.96316"><ele></ele><time>2025-2-13T1:43:46Z</time></trkpt>
<trkpt lat="46.46207" lon="6.96319"><ele></ele><time>2025-2-13T1:43:49Z</time></trkpt>
<trkpt lat="46.4619" lon="6.96326"><ele></ele><time>2025-2-13T1:43:52Z</time></trkpt>
<trkpt lat="46.46182" lon="6.96329"><ele></ele><time>2025-2-13T1:43:55Z</time></trkpt>
<trkpt lat="46.46165" lon="6.96339"><ele></ele><time>2025-2-13T1:43:58Z</time></trkpt>
<trkpt lat="46.46161" lon="6.96346"><ele></ele><time>2025-2-13T1:44:1Z</time></trkpt>
<trkpt lat="46.46156" lon="6.96353"><ele></ele><time>2025-2-13T1:44:4Z</time></trkpt>
<trkpt lat="46.46154" lon="6.96361"><ele></ele><time>2025-2-13T1:44:7Z</time></trkpt>
<trkpt lat="46.4615" lon="6.96368"><ele></ele><time>2025-2-13T1:44:10Z</time></trkpt>
<trkpt lat="46.46139" lon="6.9638"><ele></ele><time>2025-2-13T1:44:13Z</time></trkpt>
<trkpt lat="46.46134" lon="6.96387"><ele></ele><time>2025-2-13T1:44:16Z</time></trkpt>
<trkpt lat="46.46125" lon="6.96393"><ele></ele><time>2025-2-13T1:44:19Z</time></trkpt>
<trkpt lat="46.4611" lon="6.96405"><ele></ele><time>2025-2-13T1:44:22Z</time></trkpt>
<trkpt lat="46.461" lon="6.96409"><ele></ele><time>2025-2-13T1:44:25Z</time></trkpt>
<trkpt lat="46.46094" lon="6.96412"><ele></ele><time>2025-2-13T1:44:28Z</time></trkpt>
<trkpt lat="46.46088" lon="6.96414"><ele></ele><time>2025-2-13T1:44:31Z</time></trkpt>
<trkpt lat="46.46076" lon="6.96417"><ele></ele><time>2025-2-13T1:44:34Z</time></trkpt>
<trkpt lat="46.46071" lon="6.96419"><ele></ele><time>2025-2-13T1:44:37Z</time></trkpt>
<trkpt lat="46.46065" lon="6.96422"><ele></ele><time>2025-2-13T1:44:40Z</time></trkpt>
<trkpt lat="46.46058" lon="6.96426"><ele></ele><time>2025-2-13T1:44:43Z</time></trkpt>
<trkpt lat="46.46052" lon="6.9643"><ele></ele><time>2025-2-13T1:44:46Z</time></trkpt>
<trkpt lat="46.46045" lon="6.96434"><ele></ele><time>2025-2-13T1:44:49Z</time></trkpt>
<trkpt lat="46.46039" lon="6.96438"><ele></ele><time>2025-2-13T1:44:52Z</time></trkpt>
<trkpt lat="46.46031" lon="6.96444"><ele></ele><time>2025-2-13T1:44:55Z</time></trkpt>
<trkpt lat="46.46027" lon="6.96449"><ele></ele><time>2025-2-13T1:44:58Z</time></trkpt>
<trkpt lat="46.46024" lon="6.96455"><ele></ele><time>2025-2-13T1:45:1Z</time></trkpt>
<trkpt lat="46.46019" lon="6.9646"><ele></ele><time>2025-2-13T1:45:4Z</time></trkpt>
<trkpt lat="46.46017" lon="6.96462"><ele></ele><time>2025-2-13T1:45:7Z</time></trkpt>
<trkpt lat="46.46015" lon="6.96469"><ele></ele><time>2025-2-13T1:45:10Z</time></trkpt>
<trkpt lat="46.46015" lon="6.96471"><ele></ele><time>2025-2-13T1:45:13Z</time></trkpt>
<trkpt lat="46.46015" lon="6.96481"><ele></ele><time>2025-2-13T1:45:16Z</time></trkpt>
<trkpt lat="46.46016" lon="6.96495"><ele></ele><time>2025-2-13T1:45:19Z</time></trkpt>
<trkpt lat="46.46018" lon="6.96501"><ele></ele><time>2025-2-13T1:45:22Z</time></trkpt>
<trkpt lat="46.46019" lon="6.96504"><ele></ele><time>2025-2-13T1:45:25Z</time></trkpt>
<trkpt lat="46.46019" lon="6.96511"><ele></ele><time>2025-2-13T1:45:28Z</time></trkpt>
<trkpt lat="46.46019" lon="6.96513"><ele></ele><time>2025-2-13T1:45:31Z</time></trkpt>
<trkpt lat="46.46021" lon="6.96515"><ele></ele><time>2025-2-13T1:45:34Z</time></trkpt>
<trkpt lat="46.46022" lon="6.96518"><ele></ele><time>2025-2-13T1:45:37Z</time></trkpt>
<trkpt lat="46.46023" lon="6.96522"><ele></ele><time>2025-2-13T1:45:40Z</time></trkpt>
<trkpt lat="46.46022" lon="6.96526"><ele></ele><time>2025-2-13T1:45:43Z</time></trkpt>
<trkpt lat="46.46021" lon="6.96527"><ele></ele><time>2025-2-13T1:45:46Z</time></trkpt>
<trkpt lat="46.46023" lon="6.96532"><ele></ele><time>2025-2-13T1:45:49Z</time></trkpt>
<trkpt lat="46.46023" lon="6.96533"><ele></ele><time>2025-2-13T1:45:52Z</time></trkpt>
<trkpt lat="46.46023" lon="6.96536"><ele></ele><time>2025-2-13T1:45:55Z</time></trkpt>
<trkpt lat="46.46022" lon="6.96539"><ele></ele><time>2025-2-13T1:45:58Z</time></trkpt>
<trkpt lat="46.46022" lon="6.96542"><ele></ele><time>2025-2-13T1:46:1Z</time></trkpt>
<trkpt lat="46.46021" lon="6.96545"><ele></ele><time>2025-2-13T1:46:4Z</time></trkpt>
<trkpt lat="46.46021" lon="6.96548"><ele></ele><time>2025-2-13T1:46:7Z</time></trkpt>
<trkpt lat="46.46022" lon="6.96552"><ele></ele><time>2025-2-13T1:46:10Z</time></trkpt>
<trkpt lat="46.46021" lon="6.96553"><ele></ele><time>2025-2-13T1:46:13Z</time></trkpt>
<trkpt lat="46.46021" lon="6.96557"><ele></ele><time>2025-2-13T1:46:16Z</time></trkpt>
<trkpt lat="46.46022" lon="6.96558"><ele></ele><time>2025-2-13T1:46:19Z</time></trkpt>
<trkpt lat="46.46023" lon="6.96561"><ele></ele><time>2025-2-13T1:46:22Z</time></trkpt>
<trkpt lat="46.46025" lon="6.96565"><ele></ele><time>2025-2-13T1:46:25Z</time></trkpt>
<trkpt lat="46.46026" lon="6.96566"><ele></ele><time>2025-2-13T1:46:28Z</time></trkpt>
<trkpt lat="46.4603" lon="6.96571"><ele></ele><time>2025-2-13T1:46:31Z</time></trkpt>
<trkpt lat="46.46031" lon="6.96572"><ele></ele><time>2025-2-13T1:46:34Z</time></trkpt>
<trkpt lat="46.46032" lon="6.96576"><ele></ele><time>2025-2-13T1:46:37Z</time></trkpt>
<trkpt lat="46.46033" lon="6.96577"><ele></ele><time>2025-2-13T1:46:40Z</time></trkpt>
<trkpt lat="46.46033" lon="6.96579"><ele></ele><time>2025-2-13T1:46:43Z</time></trkpt>
<trkpt lat="46.46036" lon="6.96582"><ele></ele><time>2025-2-13T1:46:46Z</time></trkpt>
<trkpt lat="46.46038" lon="6.96586"><ele></ele><time>2025-2-13T1:46:49Z</time></trkpt>
<trkpt lat="46.46039" lon="6.96586"><ele></ele><time>2025-2-13T1:46:52Z</time></trkpt>
<trkpt lat="46.46043" lon="6.96587"><ele></ele><time>2025-2-13T1:46:55Z</time></trkpt>
<trkpt lat="46.46045" lon="6.96588"><ele></ele><time>2025-2-13T1:46:58Z</time></trkpt>
<trkpt lat="46.46049" lon="6.9659"><ele></ele><time>2025-2-13T1:47:1Z</time></trkpt>
<trkpt lat="46.4605" lon="6.9659"><ele></ele><time>2025-2-13T1:47:4Z</time></trkpt>
<trkpt lat="46.46055" lon="6.96591"><ele></ele><time>2025-2-13T1:47:7Z</time></trkpt>
<trkpt lat="46.46056" lon="6.96592"><ele></ele><time>2025-2-13T1:47:10Z</time></trkpt>
<trkpt lat="46.46061" lon="6.96591"><ele></ele><time>2025-2-13T1:47:13Z</time></trkpt>
<trkpt lat="46.46062" lon="6.9659"><ele></ele><time>2025-2-13T1:47:16Z</time></trkpt>
<trkpt lat="46.46065" lon="6.96591"><ele></ele><time>2025-2-13T1:47:19Z</time></trkpt>
<trkpt lat="46.46067" lon="6.96591"><ele></ele><time>2025-2-13T1:47:22Z</time></trkpt>
<trkpt lat="46.46074" lon="6.96593"><ele></ele><time>2025-2-13T1:47:25Z</time></trkpt>
<trkpt lat="46.46078" lon="6.96595"><ele></ele><time>2025-2-13T1:47:28Z</time></trkpt>
<trkpt lat="46.4608" lon="6.96595"><ele></ele><time>2025-2-13T1:47:31Z</time></trkpt>
<trkpt lat="46.46086" lon="6.96596"><ele></ele><time>2025-2-13T1:47:34Z</time></trkpt>
<trkpt lat="46.46087" lon="6.96596"><ele></ele><time>2025-2-13T1:47:37Z</time></trkpt>
<trkpt lat="46.46091" lon="6.96599"><ele></ele><time>2025-2-13T1:47:40Z</time></trkpt>
<trkpt lat="46.46093" lon="6.96599"><ele></ele><time>2025-2-13T1:47:43Z</time></trkpt>
<trkpt lat="46.46096" lon="6.96603"><ele></ele><time>2025-2-13T1:47:46Z</time></trkpt>
<trkpt lat="46.46097" lon="6.96604"><ele></ele><time>2025-2-13T1:47:49Z</time></trkpt>
<trkpt lat="46.46102" lon="6.96604"><ele></ele><time>2025-2-13T1:47:52Z</time></trkpt>
<trkpt lat="46.46104" lon="6.96604"><ele></ele><time>2025-2-13T1:47:55Z</time></trkpt>
<trkpt lat="46.46108" lon="6.96607"><ele></ele><time>2025-2-13T1:47:58Z</time></trkpt>
<trkpt lat="46.4611" lon="6.96608"><ele></ele><time>2025-2-13T1:48:1Z</time></trkpt>
<trkpt lat="46.46113" lon="6.96611"><ele></ele><time>2025-2-13T1:48:4Z</time></trkpt>
<trkpt lat="46.46114" lon="6.96611"><ele></ele><time>2025-2-13T1:48:7Z</time></trkpt>
<trkpt lat="46.46119" lon="6.96617"><ele></ele><time>2025-2-13T1:48:10Z</time></trkpt>
<trkpt lat="46.4612" lon="6.96617"><ele></ele><time>2025-2-13T1:48:13Z</time></trkpt>
<trkpt lat="46.46122" lon="6.9662"><ele></ele><time>2025-2-13T1:48:16Z</time></trkpt>
<trkpt lat="46.46123" lon="6.9662"><ele></ele><time>2025-2-13T1:48:19Z</time></trkpt>
<trkpt lat="46.46124" lon="6.9662"><ele></ele><time>2025-2-13T1:48:22Z</time></trkpt>
<trkpt lat="46.46128" lon="6.96622"><ele></ele><time>2025-2-13T1:48:25Z</time></trkpt>
<trkpt lat="46.46129" lon="6.96622"><ele></ele><time>2025-2-13T1:48:28Z</time></trkpt>
<trkpt lat="46.46134" lon="6.96624"><ele></ele><time>2025-2-13T1:48:31Z</time></trkpt>
<trkpt lat="46.46136" lon="6.96623"><ele></ele><time>2025-2-13T1:48:34Z</time></trkpt>
<trkpt lat="46.46139" lon="6.96624"><ele></ele><time>2025-2-13T1:48:37Z</time></trkpt>
<trkpt lat="46.46139" lon="6.96625"><ele></ele><time>2025-2-13T1:48:40Z</time></trkpt>
<trkpt lat="46.46142" lon="6.96626"><ele></ele><time>2025-2-13T1:48:43Z</time></trkpt>
<trkpt lat="46.46144" lon="6.96628"><ele></ele><time>2025-2-13T1:48:46Z</time></trkpt>
<trkpt lat="46.46146" lon="6.96631"><ele></ele><time>2025-2-13T1:48:49Z</time></trkpt>
<trkpt lat="46.46149" lon="6.96629"><ele></ele><time>2025-2-13T1:48:52Z</time></trkpt>
<trkpt lat="46.46151" lon="6.96629"><ele></ele><time>2025-2-13T1:48:55Z</time></trkpt>
<trkpt lat="46.46152" lon="6.9663"><ele></ele><time>2025-2-13T1:48:58Z</time></trkpt>
<trkpt lat="46.46153" lon="6.9663"><ele></ele><time>2025-2-13T1:49:1Z</time></trkpt>
<trkpt lat="46.46156" lon="6.96629"><ele></ele><time>2025-2-13T1:49:4Z</time></trkpt>
<trkpt lat="46.46158" lon="6.9663"><ele></ele><time>2025-2-13T1:49:7Z</time></trkpt>
<trkpt lat="46.46159" lon="6.96629"><ele></ele><time>2025-2-13T1:49:10Z</time></trkpt>
<trkpt lat="46.46163" lon="6.96631"><ele></ele><time>2025-2-13T1:49:13Z</time></trkpt>
<trkpt lat="46.46164" lon="6.96632"><ele></ele><time>2025-2-13T1:49:16Z</time></trkpt>
<trkpt lat="46.46168" lon="6.96633"><ele></ele><time>2025-2-13T1:49:19Z</time></trkpt>
<trkpt lat="46.46169" lon="6.96633"><ele></ele><time>2025-2-13T1:49:22Z</time></trkpt>
<trkpt lat="46.46173" lon="6.96635"><ele></ele><time>2025-2-13T1:49:25Z</time></trkpt>
<trkpt lat="46.46175" lon="6.96637"><ele></ele><time>2025-2-13T1:49:28Z</time></trkpt>
<trkpt lat="46.46176" lon="6.96637"><ele></ele><time>2025-2-13T1:49:31Z</time></trkpt>
<trkpt lat="46.46179" lon="6.96637"><ele></ele><time>2025-2-13T1:49:34Z</time></trkpt>
<trkpt lat="46.4618" lon="6.96638"><ele></ele><time>2025-2-13T1:49:37Z</time></trkpt>
<trkpt lat="46.46182" lon="6.9664"><ele></ele><time>2025-2-13T1:49:40Z</time></trkpt>
<trkpt lat="46.46184" lon="6.9664"><ele></ele><time>2025-2-13T1:49:43Z</time></trkpt>
<trkpt lat="46.46187" lon="6.96641"><ele></ele><time>2025-2-13T1:49:46Z</time></trkpt>
<trkpt lat="46.46192" lon="6.96644"><ele></ele><time>2025-2-13T1:49:49Z</time></trkpt>
<trkpt lat="46.46196" lon="6.96648"><ele></ele><time>2025-2-13T1:49:52Z</time></trkpt>
<trkpt lat="46.46199" lon="6.96648"><ele></ele><time>2025-2-13T1:49:55Z</time></trkpt>
<trkpt lat="46.46202" lon="6.96649"><ele></ele><time>2025-2-13T1:49:58Z</time></trkpt>
<trkpt lat="46.46202" lon="6.96649"><ele></ele><time>2025-2-13T1:50:1Z</time></trkpt>
<trkpt lat="46.46204" lon="6.96649"><ele></ele><time>2025-2-13T1:50:4Z</time></trkpt>
<trkpt lat="46.46205" lon="6.96652"><ele></ele><time>2025-2-13T1:50:7Z</time></trkpt>
<trkpt lat="46.46206" lon="6.96652"><ele></ele><time>2025-2-13T1:50:10Z</time></trkpt>
<trkpt lat="46.46208" lon="6.96654"><ele></ele><time>2025-2-13T1:50:13Z</time></trkpt>
<trkpt lat="46.4621" lon="6.96655"><ele></ele><time>2025-2-13T1:50:16Z</time></trkpt>
<trkpt lat="46.46214" lon="6.96658"><ele></ele><time>2025-2-13T1:50:19Z</time></trkpt>
<trkpt lat="46.46216" lon="6.96659"><ele></ele><time>2025-2-13T1:50:22Z</time></trkpt>
<trkpt lat="46.46218" lon="6.96661"><ele></ele><time>2025-2-13T1:50:25Z</time></trkpt>
<trkpt lat="46.4622" lon="6.96663"><ele></ele><time>2025-2-13T1:50:28Z</time></trkpt>
<trkpt lat="46.46223" lon="6.96664"><ele></ele><time>2025-2-13T1:50:31Z</time></trkpt>
<trkpt lat="46.46224" lon="6.96664"><ele></ele><time>2025-2-13T1:50:34Z</time></trkpt>
<trkpt lat="46.46228" lon="6.96666"><ele></ele><time>2025-2-13T1:50:37Z</time></trkpt>
<trkpt lat="46.46231" lon="6.96668"><ele></ele><time>2025-2-13T1:50:40Z</time></trkpt>
<trkpt lat="46.46231" lon="6.96668"><ele></ele><time>2025-2-13T1:50:43Z</time></trkpt>
<trkpt lat="46.46231" lon="6.96669"><ele></ele><time>2025-2-13T1:50:46Z</time></trkpt>
<trkpt lat="46.4623" lon="6.9667"><ele></ele><time>2025-2-13T1:50:49Z</time></trkpt>
<trkpt lat="46.46229" lon="6.96675"><ele></ele><time>2025-2-13T1:50:52Z</time></trkpt>
<trkpt lat="46.46227" lon="6.96676"><ele></ele><time>2025-2-13T1:50:55Z</time></trkpt>
<trkpt lat="46.46226" lon="6.96678"><ele></ele><time>2025-2-13T1:50:58Z</time></trkpt>
<trkpt lat="46.46226" lon="6.96676"><ele></ele><time>2025-2-13T1:51:1Z</time></trkpt>
<trkpt lat="46.46228" lon="6.96674"><ele></ele><time>2025-2-13T1:51:4Z</time></trkpt>
<trkpt lat="46.46228" lon="6.96673"><ele></ele><time>2025-2-13T1:51:7Z</time></trkpt>
<trkpt lat="46.46228" lon="6.96674"><ele></ele><time>2025-2-13T1:51:10Z</time></trkpt>
<trkpt lat="46.46229" lon="6.96672"><ele></ele><time>2025-2-13T1:51:13Z</time></trkpt>
<trkpt lat="46.46232" lon="6.96673"><ele></ele><time>2025-2-13T1:51:16Z</time></trkpt>
<trkpt lat="46.46236" lon="6.96674"><ele></ele><time>2025-2-13T1:51:19Z</time></trkpt>
<trkpt lat="46.46237" lon="6.96674"><ele></ele><time>2025-2-13T1:51:22Z</time></trkpt>
<trkpt lat="46.46241" lon="6.96675"><ele></ele><time>2025-2-13T1:51:25Z</time></trkpt>
<trkpt lat="46.46246" lon="6.96677"><ele></ele><time>2025-2-13T1:51:28Z</time></trkpt>
<trkpt lat="46.46247" lon="6.96677"><ele></ele><time>2025-2-13T1:51:31Z</time></trkpt>
<trkpt lat="46.46252" lon="6.96679"><ele></ele><time>2025-2-13T1:51:34Z</time></trkpt>
<trkpt lat="46.46252" lon="6.96678"><ele></ele><time>2025-2-13T1:51:37Z</time></trkpt>
<trkpt lat="46.46256" lon="6.96677"><ele></ele><time>2025-2-13T1:51:40Z</time></trkpt>
<trkpt lat="46.46262" lon="6.96677"><ele></ele><time>2025-2-13T1:51:43Z</time></trkpt>
<trkpt lat="46.46264" lon="6.96677"><ele></ele><time>2025-2-13T1:51:46Z</time></trkpt>
<trkpt lat="46.46271" lon="6.96679"><ele></ele><time>2025-2-13T1:51:49Z</time></trkpt>
<trkpt lat="46.46274" lon="6.96678"><ele></ele><time>2025-2-13T1:51:52Z</time></trkpt>
<trkpt lat="46.46275" lon="6.96679"><ele></ele><time>2025-2-13T1:51:55Z</time></trkpt>
<trkpt lat="46.46277" lon="6.96681"><ele></ele><time>2025-2-13T1:51:58Z</time></trkpt>
<trkpt lat="46.46278" lon="6.96682"><ele></ele><time>2025-2-13T1:52:1Z</time></trkpt>
<trkpt lat="46.46282" lon="6.96682"><ele></ele><time>2025-2-13T1:52:4Z</time></trkpt>
<trkpt lat="46.46286" lon="6.96681"><ele></ele><time>2025-2-13T1:52:7Z</time></trkpt>
<trkpt lat="46.46288" lon="6.96681"><ele></ele><time>2025-2-13T1:52:10Z</time></trkpt>
<trkpt lat="46.46293" lon="6.96685"><ele></ele><time>2025-2-13T1:52:13Z</time></trkpt>
<trkpt lat="46.46297" lon="6.96686"><ele></ele><time>2025-2-13T1:52:16Z</time></trkpt>
<trkpt lat="46.463" lon="6.96684"><ele></ele><time>2025-2-13T1:52:19Z</time></trkpt>
<trkpt lat="46.46301" lon="6.96684"><ele></ele><time>2025-2-13T1:52:22Z</time></trkpt>
<trkpt lat="46.46305" lon="6.96683"><ele></ele><time>2025-2-13T1:52:25Z</time></trkpt>
<trkpt lat="46.46306" lon="6.96683"><ele></ele><time>2025-2-13T1:52:28Z</time></trkpt>
<trkpt lat="46.4631" lon="6.96685"><ele></ele><time>2025-2-13T1:52:31Z</time></trkpt>
<trkpt lat="46.46311" lon="6.96685"><ele></ele><time>2025-2-13T1:52:34Z</time></trkpt>
<trkpt lat="46.46316" lon="6.9669"><ele></ele><time>2025-2-13T1:52:37Z</time></trkpt>
<trkpt lat="46.46318" lon="6.96691"><ele></ele><time>2025-2-13T1:52:40Z</time></trkpt>
<trkpt lat="46.46323" lon="6.96695"><ele></ele><time>2025-2-13T1:52:43Z</time></trkpt>
<trkpt lat="46.46326" lon="6.96697"><ele></ele><time>2025-2-13T1:52:46Z</time></trkpt>
<trkpt lat="46.46328" lon="6.96697"><ele></ele><time>2025-2-13T1:52:49Z</time></trkpt>
<trkpt lat="46.46331" lon="6.96697"><ele></ele><time>2025-2-13T1:52:52Z</time></trkpt>
<trkpt lat="46.46333" lon="6.96697"><ele></ele><time>2025-2-13T1:52:55Z</time></trkpt>
<trkpt lat="46.46337" lon="6.96695"><ele></ele><time>2025-2-13T1:52:58Z</time></trkpt>
<trkpt lat="46.4634" lon="6.96695"><ele></ele><time>2025-2-13T1:53:1Z</time></trkpt>
<trkpt lat="46.46343" lon="6.96697"><ele></ele><time>2025-2-13T1:53:4Z</time></trkpt>
<trkpt lat="46.46348" lon="6.96701"><ele></ele><time>2025-2-13T1:53:7Z</time></trkpt>
<trkpt lat="46.46352" lon="6.96701"><ele></ele><time>2025-2-13T1:53:10Z</time></trkpt>
<trkpt lat="46.46355" lon="6.96702"><ele></ele><time>2025-2-13T1:53:13Z</time></trkpt>
<trkpt lat="46.46358" lon="6.96704"><ele></ele><time>2025-2-13T1:53:16Z</time></trkpt>
<trkpt lat="46.46361" lon="6.96706"><ele></ele><time>2025-2-13T1:53:19Z</time></trkpt>
<trkpt lat="46.46364" lon="6.9671"><ele></ele><time>2025-2-13T1:53:22Z</time></trkpt>
<trkpt lat="46.46368" lon="6.96714"><ele></ele><time>2025-2-13T1:53:25Z</time></trkpt>
<trkpt lat="46.46375" lon="6.9672"><ele></ele><time>2025-2-13T1:53:28Z</time></trkpt>
<trkpt lat="46.46376" lon="6.9672"><ele></ele><time>2025-2-13T1:53:31Z</time></trkpt>
<trkpt lat="46.46383" lon="6.96719"><ele></ele><time>2025-2-13T1:53:34Z</time></trkpt>
<trkpt lat="46.46395" lon="6.96719"><ele></ele><time>2025-2-13T1:53:37Z</time></trkpt>
<trkpt lat="46.46398" lon="6.96719"><ele></ele><time>2025-2-13T1:53:40Z</time></trkpt>
<trkpt lat="46.46406" lon="6.96717"><ele></ele><time>2025-2-13T1:53:43Z</time></trkpt>
<trkpt lat="46.46415" lon="6.96715"><ele></ele><time>2025-2-13T1:53:46Z</time></trkpt>
<trkpt lat="46.46417" lon="6.96714"><ele></ele><time>2025-2-13T1:53:49Z</time></trkpt>
<trkpt lat="46.46428" lon="6.96714"><ele></ele><time>2025-2-13T1:53:52Z</time></trkpt>
<trkpt lat="46.46432" lon="6.96713"><ele></ele><time>2025-2-13T1:53:55Z</time></trkpt>
<trkpt lat="46.46441" lon="6.96713"><ele></ele><time>2025-2-13T1:53:58Z</time></trkpt>
<trkpt lat="46.46451" lon="6.96717"><ele></ele><time>2025-2-13T1:54:1Z</time></trkpt>
<trkpt lat="46.46455" lon="6.96719"><ele></ele><time>2025-2-13T1:54:4Z</time></trkpt>
<trkpt lat="46.46462" lon="6.96729"><ele></ele><time>2025-2-13T1:54:7Z</time></trkpt>
<trkpt lat="46.46458" lon="6.9674"><ele></ele><time>2025-2-13T1:54:10Z</time></trkpt>
<trkpt lat="46.46456" lon="6.96741"><ele></ele><time>2025-2-13T1:54:13Z</time></trkpt>
<trkpt lat="46.46446" lon="6.96745"><ele></ele><time>2025-2-13T1:54:16Z</time></trkpt>
<trkpt lat="46.46438" lon="6.96755"><ele></ele><time>2025-2-13T1:54:19Z</time></trkpt>
<trkpt lat="46.46433" lon="6.96763"><ele></ele><time>2025-2-13T1:54:22Z</time></trkpt>
<trkpt lat="46.46432" lon="6.96764"><ele></ele><time>2025-2-13T1:54:25Z</time></trkpt>
<trkpt lat="46.46428" lon="6.96773"><ele></ele><time>2025-2-13T1:54:28Z</time></trkpt>
<trkpt lat="46.46426" lon="6.96779"><ele></ele><time>2025-2-13T1:54:31Z</time></trkpt>
<trkpt lat="46.46421" lon="6.96791"><ele></ele><time>2025-2-13T1:54:34Z</time></trkpt>
<trkpt lat="46.46419" lon="6.968"><ele></ele><time>2025-2-13T1:54:37Z</time></trkpt>
<trkpt lat="46.46415" lon="6.96808"><ele></ele><time>2025-2-13T1:54:40Z</time></trkpt>
<trkpt lat="46.46414" lon="6.96812"><ele></ele><time>2025-2-13T1:54:43Z</time></trkpt>
<trkpt lat="46.4641" lon="6.96816"><ele></ele><time>2025-2-13T1:54:46Z</time></trkpt>
<trkpt lat="46.46404" lon="6.96824"><ele></ele><time>2025-2-13T1:54:49Z</time></trkpt>
<trkpt lat="46.46401" lon="6.96833"><ele></ele><time>2025-2-13T1:54:52Z</time></trkpt>
<trkpt lat="46.46397" lon="6.96845"><ele></ele><time>2025-2-13T1:54:55Z</time></trkpt>
<trkpt lat="46.46392" lon="6.96855"><ele></ele><time>2025-2-13T1:54:58Z</time></trkpt>
<trkpt lat="46.46383" lon="6.96862"><ele></ele><time>2025-2-13T1:55:1Z</time></trkpt>
<trkpt lat="46.46365" lon="6.96874"><ele></ele><time>2025-2-13T1:55:4Z</time></trkpt>
<trkpt lat="46.46361" lon="6.96873"><ele></ele><time>2025-2-13T1:55:7Z</time></trkpt>
<trkpt lat="46.46357" lon="6.96872"><ele></ele><time>2025-2-13T1:55:10Z</time></trkpt>
<trkpt lat="46.46343" lon="6.96869"><ele></ele><time>2025-2-13T1:55:13Z</time></trkpt>
<trkpt lat="46.46325" lon="6.96877"><ele></ele><time>2025-2-13T1:55:16Z</time></trkpt>
<trkpt lat="46.46306" lon="6.96885"><ele></ele><time>2025-2-13T1:55:19Z</time></trkpt>
<trkpt lat="46.46298" lon="6.96885"><ele></ele><time>2025-2-13T1:55:22Z</time></trkpt>
<trkpt lat="46.46289" lon="6.96885"><ele></ele><time>2025-2-13T1:55:25Z</time></trkpt>
<trkpt lat="46.4628" lon="6.96886"><ele></ele><time>2025-2-13T1:55:28Z</time></trkpt>
<trkpt lat="46.46269" lon="6.96887"><ele></ele><time>2025-2-13T1:55:31Z</time></trkpt>
<trkpt lat="46.46258" lon="6.96889"><ele></ele><time>2025-2-13T1:55:34Z</time></trkpt>
<trkpt lat="46.46246" lon="6.96892"><ele></ele><time>2025-2-13T1:55:37Z</time></trkpt>
<trkpt lat="46.46239" lon="6.96893"><ele></ele><time>2025-2-13T1:55:40Z</time></trkpt>
<trkpt lat="46.46227" lon="6.96896"><ele></ele><time>2025-2-13T1:55:43Z</time></trkpt>
<trkpt lat="46.46214" lon="6.96897"><ele></ele><time>2025-2-13T1:55:46Z</time></trkpt>
<trkpt lat="46.46207" lon="6.96897"><ele></ele><time>2025-2-13T1:55:49Z</time></trkpt>
<trkpt lat="46.462" lon="6.96897"><ele></ele><time>2025-2-13T1:55:52Z</time></trkpt>
<trkpt lat="46.46192" lon="6.96897"><ele></ele><time>2025-2-13T1:55:55Z</time></trkpt>
<trkpt lat="46.46185" lon="6.96898"><ele></ele><time>2025-2-13T1:55:58Z</time></trkpt>
<trkpt lat="46.46167" lon="6.96898"><ele></ele><time>2025-2-13T1:56:1Z</time></trkpt>
<trkpt lat="46.46158" lon="6.96899"><ele></ele><time>2025-2-13T1:56:4Z</time></trkpt>
<trkpt lat="46.46151" lon="6.96899"><ele></ele><time>2025-2-13T1:56:7Z</time></trkpt>
<trkpt lat="46.46144" lon="6.96899"><ele></ele><time>2025-2-13T1:56:10Z</time></trkpt>
<trkpt lat="46.4613" lon="6.96897"><ele></ele><time>2025-2-13T1:56:13Z</time></trkpt>
<trkpt lat="46.46123" lon="6.969"><ele></ele><time>2025-2-13T1:56:16Z</time></trkpt>
<trkpt lat="46.46111" lon="6.96905"><ele></ele><time>2025-2-13T1:56:19Z</time></trkpt>
<trkpt lat="46.46097" lon="6.96909"><ele></ele><time>2025-2-13T1:56:22Z</time></trkpt>
<trkpt lat="46.46086" lon="6.96911"><ele></ele><time>2025-2-13T1:56:25Z</time></trkpt>
<trkpt lat="46.46076" lon="6.96912"><ele></ele><time>2025-2-13T1:56:28Z</time></trkpt>
<trkpt lat="46.46072" lon="6.96915"><ele></ele><time>2025-2-13T1:56:31Z</time></trkpt>
<trkpt lat="46.46067" lon="6.96919"><ele></ele><time>2025-2-13T1:56:34Z</time></trkpt>
<trkpt lat="46.46062" lon="6.96922"><ele></ele><time>2025-2-13T1:56:37Z</time></trkpt>
<trkpt lat="46.46058" lon="6.96927"><ele></ele><time>2025-2-13T1:56:40Z</time></trkpt>
<trkpt lat="46.46053" lon="6.96938"><ele></ele><time>2025-2-13T1:56:43Z</time></trkpt>
<trkpt lat="46.46049" lon="6.96944"><ele></ele><time>2025-2-13T1:56:46Z</time></trkpt>
<trkpt lat="46.46045" lon="6.96948"><ele></ele><time>2025-2-13T1:56:49Z</time></trkpt>
<trkpt lat="46.46035" lon="6.96948"><ele></ele><time>2025-2-13T1:56:52Z</time></trkpt>
<trkpt lat="46.46026" lon="6.96948"><ele></ele><time>2025-2-13T1:56:55Z</time></trkpt>
<trkpt lat="46.46016" lon="6.96952"><ele></ele><time>2025-2-13T1:56:58Z</time></trkpt>
<trkpt lat="46.46012" lon="6.96955"><ele></ele><time>2025-2-13T1:57:1Z</time></trkpt>
<trkpt lat="46.46007" lon="6.96958"><ele></ele><time>2025-2-13T1:57:4Z</time></trkpt>
<trkpt lat="46.46003" lon="6.96962"><ele></ele><time>2025-2-13T1:57:7Z</time></trkpt>
<trkpt lat="46.45996" lon="6.96972"><ele></ele><time>2025-2-13T1:57:10Z</time></trkpt>
<trkpt lat="46.45994" lon="6.96978"><ele></ele><time>2025-2-13T1:57:13Z</time></trkpt>
<trkpt lat="46.45986" lon="6.96991"><ele></ele><time>2025-2-13T1:57:16Z</time></trkpt>
<trkpt lat="46.45981" lon="6.96993"><ele></ele><time>2025-2-13T1:57:19Z</time></trkpt>
<trkpt lat="46.45977" lon="6.96993"><ele></ele><time>2025-2-13T1:57:22Z</time></trkpt>
<trkpt lat="46.45971" lon="6.96989"><ele></ele><time>2025-2-13T1:57:25Z</time></trkpt>
<trkpt lat="46.45969" lon="6.96985"><ele></ele><time>2025-2-13T1:57:28Z</time></trkpt>
<trkpt lat="46.45968" lon="6.9698"><ele></ele><time>2025-2-13T1:57:31Z</time></trkpt>
<trkpt lat="46.45965" lon="6.96979"><ele></ele><time>2025-2-13T1:57:34Z</time></trkpt>
<trkpt lat="46.45961" lon="6.96979"><ele></ele><time>2025-2-13T1:57:37Z</time></trkpt>
<trkpt lat="46.45954" lon="6.9698"><ele></ele><time>2025-2-13T1:57:40Z</time></trkpt>
<trkpt lat="46.4595" lon="6.96985"><ele></ele><time>2025-2-13T1:57:43Z</time></trkpt>
<trkpt lat="46.45946" lon="6.96989"><ele></ele><time>2025-2-13T1:57:46Z</time></trkpt>
<trkpt lat="46.45942" lon="6.96996"><ele></ele><time>2025-2-13T1:57:49Z</time></trkpt>
<trkpt lat="46.4594" lon="6.96997"><ele></ele><time>2025-2-13T1:57:52Z</time></trkpt>
<trkpt lat="46.45936" lon="6.97005"><ele></ele><time>2025-2-13T1:57:55Z</time></trkpt>
<trkpt lat="46.45936" lon="6.97007"><ele></ele><time>2025-2-13T1:57:58Z</time></trkpt>
<trkpt lat="46.45934" lon="6.97013"><ele></ele><time>2025-2-13T1:58:1Z</time></trkpt>
<trkpt lat="46.45934" lon="6.97015"><ele></ele><time>2025-2-13T1:58:4Z</time></trkpt>
<trkpt lat="46.45935" lon="6.97017"><ele></ele><time>2025-2-13T1:58:7Z</time></trkpt>
<trkpt lat="46.45934" lon="6.97019"><ele></ele><time>2025-2-13T1:58:10Z</time></trkpt>
<trkpt lat="46.45935" lon="6.97026"><ele></ele><time>2025-2-13T1:58:13Z</time></trkpt>
<trkpt lat="46.45935" lon="6.97034"><ele></ele><time>2025-2-13T1:58:16Z</time></trkpt>
<trkpt lat="46.45935" lon="6.97038"><ele></ele><time>2025-2-13T1:58:19Z</time></trkpt>
<trkpt lat="46.45932" lon="6.97043"><ele></ele><time>2025-2-13T1:58:22Z</time></trkpt>
<trkpt lat="46.45929" lon="6.97045"><ele></ele><time>2025-2-13T1:58:25Z</time></trkpt>
<trkpt lat="46.45928" lon="6.97045"><ele></ele><time>2025-2-13T1:58:28Z</time></trkpt>
<trkpt lat="46.4592" lon="6.9705"><ele></ele><time>2025-2-13T1:58:31Z</time></trkpt>
<trkpt lat="46.45918" lon="6.97052"><ele></ele><time>2025-2-13T1:58:34Z</time></trkpt>
<trkpt lat="46.4591" lon="6.97057"><ele></ele><time>2025-2-13T1:58:37Z</time></trkpt>
<trkpt lat="46.45906" lon="6.97059"><ele></ele><time>2025-2-13T1:58:40Z</time></trkpt>
<trkpt lat="46.45902" lon="6.97064"><ele></ele><time>2025-2-13T1:58:43Z</time></trkpt>
<trkpt lat="46.45902" lon="6.97065"><ele></ele><time>2025-2-13T1:58:46Z</time></trkpt>
<trkpt lat="46.45901" lon="6.97075"><ele></ele><time>2025-2-13T1:58:49Z</time></trkpt>
<trkpt lat="46.45901" lon="6.97077"><ele></ele><time>2025-2-13T1:58:52Z</time></trkpt>
<trkpt lat="46.45899" lon="6.97087"><ele></ele><time>2025-2-13T1:58:55Z</time></trkpt>
<trkpt lat="46.45898" lon="6.97089"><ele></ele><time>2025-2-13T1:58:58Z</time></trkpt>
<trkpt lat="46.45898" lon="6.97091"><ele></ele><time>2025-2-13T1:59:1Z</time></trkpt>
<trkpt lat="46.45896" lon="6.97098"><ele></ele><time>2025-2-13T1:59:4Z</time></trkpt>
<trkpt lat="46.45895" lon="6.97104"><ele></ele><time>2025-2-13T1:59:7Z</time></trkpt>
<trkpt lat="46.45895" lon="6.97112"><ele></ele><time>2025-2-13T1:59:10Z</time></trkpt>
<trkpt lat="46.45895" lon="6.97122"><ele></ele><time>2025-2-13T1:59:13Z</time></trkpt>
<trkpt lat="46.45892" lon="6.97129"><ele></ele><time>2025-2-13T1:59:16Z</time></trkpt>
<trkpt lat="46.45885" lon="6.97131"><ele></ele><time>2025-2-13T1:59:19Z</time></trkpt>
<trkpt lat="46.45883" lon="6.97131"><ele></ele><time>2025-2-13T1:59:22Z</time></trkpt>
<trkpt lat="46.45874" lon="6.97128"><ele></ele><time>2025-2-13T1:59:25Z</time></trkpt>
<trkpt lat="46.45869" lon="6.97128"><ele></ele><time>2025-2-13T1:59:28Z</time></trkpt>
<trkpt lat="46.45863" lon="6.97132"><ele></ele><time>2025-2-13T1:59:31Z</time></trkpt>
<trkpt lat="46.45861" lon="6.97133"><ele></ele><time>2025-2-13T1:59:34Z</time></trkpt>
<trkpt lat="46.45852" lon="6.97135"><ele></ele><time>2025-2-13T1:59:37Z</time></trkpt>
<trkpt lat="46.45847" lon="6.97134"><ele></ele><time>2025-2-13T1:59:40Z</time></trkpt>
<trkpt lat="46.45843" lon="6.9713"><ele></ele><time>2025-2-13T1:59:43Z</time></trkpt>
<trkpt lat="46.45838" lon="6.97126"><ele></ele><time>2025-2-13T1:59:46Z</time></trkpt>
<trkpt lat="46.45827" lon="6.97121"><ele></ele><time>2025-2-13T1:59:49Z</time></trkpt>
<trkpt lat="46.4582" lon="6.97127"><ele></ele><time>2025-2-13T1:59:52Z</time></trkpt>
<trkpt lat="46.45819" lon="6.97131"><ele></ele><time>2025-2-13T1:59:55Z</time></trkpt>
<trkpt lat="46.45817" lon="6.97138"><ele></ele><time>2025-2-13T1:59:58Z</time></trkpt>
<trkpt lat="46.45816" lon="6.97141"><ele></ele><time>2025-2-13T2:0:1Z</time></trkpt>
<trkpt lat="46.45814" lon="6.97153"><ele></ele><time>2025-2-13T2:0:4Z</time></trkpt>
<trkpt lat="46.45812" lon="6.97156"><ele></ele><time>2025-2-13T2:0:7Z</time></trkpt>
<trkpt lat="46.4581" lon="6.97163"><ele></ele><time>2025-2-13T2:0:10Z</time></trkpt>
<trkpt lat="46.45808" lon="6.97165"><ele></ele><time>2025-2-13T2:0:13Z</time></trkpt>
<trkpt lat="46.45805" lon="6.97168"><ele></ele><time>2025-2-13T2:0:16Z</time></trkpt>
<trkpt lat="46.45799" lon="6.97172"><ele></ele><time>2025-2-13T2:0:19Z</time></trkpt>
<trkpt lat="46.45798" lon="6.97173"><ele></ele><time>2025-2-13T2:0:22Z</time></trkpt>
<trkpt lat="46.45794" lon="6.97172"><ele></ele><time>2025-2-13T2:0:25Z</time></trkpt>
<trkpt lat="46.45789" lon="6.97172"><ele></ele><time>2025-2-13T2:0:28Z</time></trkpt>
<trkpt lat="46.45788" lon="6.97172"><ele></ele><time>2025-2-13T2:0:31Z</time></trkpt>
<trkpt lat="46.45781" lon="6.97169"><ele></ele><time>2025-2-13T2:0:34Z</time></trkpt>
<trkpt lat="46.45779" lon="6.97168"><ele></ele><time>2025-2-13T2:0:37Z</time></trkpt>
<trkpt lat="46.45777" lon="6.97169"><ele></ele><time>2025-2-13T2:0:40Z</time></trkpt>
<trkpt lat="46.45775" lon="6.97176"><ele></ele><time>2025-2-13T2:0:43Z</time></trkpt>
<trkpt lat="46.45775" lon="6.97176"><ele></ele><time>2025-2-13T2:0:46Z</time></trkpt>
<trkpt lat="46.45775" lon="6.97177"><ele></ele><time>2025-2-13T2:0:49Z</time></trkpt>
<trkpt lat="46.45772" lon="6.9718"><ele></ele><time>2025-2-13T2:0:52Z</time></trkpt>
<trkpt lat="46.45768" lon="6.97183"><ele></ele><time>2025-2-13T2:0:55Z</time></trkpt>
<trkpt lat="46.45768" lon="6.97184"><ele></ele><time>2025-2-13T2:0:58Z</time></trkpt>
<trkpt lat="46.45765" lon="6.97193"><ele></ele><time>2025-2-13T2:1:1Z</time></trkpt>
<trkpt lat="46.45759" lon="6.97199"><ele></ele><time>2025-2-13T2:1:4Z</time></trkpt>
<trkpt lat="46.45747" lon="6.97208"><ele></ele><time>2025-2-13T2:1:7Z</time></trkpt>
<trkpt lat="46.45739" lon="6.97213"><ele></ele><time>2025-2-13T2:1:10Z</time></trkpt>
<trkpt lat="46.45737" lon="6.97213"><ele></ele><time>2025-2-13T2:1:13Z</time></trkpt>
<trkpt lat="46.45736" lon="6.97214"><ele></ele><time>2025-2-13T2:1:16Z</time></trkpt>
<trkpt lat="46.45733" lon="6.97217"><ele></ele><time>2025-2-13T2:1:19Z</time></trkpt>
<trkpt lat="46.45732" lon="6.97218"><ele></ele><time>2025-2-13T2:1:22Z</time></trkpt>
<trkpt lat="46.45732" lon="6.97218"><ele></ele><time>2025-2-13T2:1:25Z</time></trkpt>
<trkpt lat="46.45727" lon="6.97221"><ele></ele><time>2025-2-13T2:1:28Z</time></trkpt>
<trkpt lat="46.45723" lon="6.97223"><ele></ele><time>2025-2-13T2:1:31Z</time></trkpt>
<trkpt lat="46.4572" lon="6.97225"><ele></ele><time>2025-2-13T2:1:34Z</time></trkpt>
<trkpt lat="46.45716" lon="6.97226"><ele></ele><time>2025-2-13T2:1:37Z</time></trkpt>
<trkpt lat="46.45713" lon="6.97226"><ele></ele><time>2025-2-13T2:1:40Z</time></trkpt>
<trkpt lat="46.4571" lon="6.97225"><ele></ele><time>2025-2-13T2:1:43Z</time></trkpt>
<trkpt lat="46.45708" lon="6.97224"><ele></ele><time>2025-2-13T2:1:46Z</time></trkpt>
<trkpt lat="46.45701" lon="6.97222"><ele></ele><time>2025-2-13T2:1:49Z</time></trkpt>
<trkpt lat="46.45698" lon="6.97221"><ele></ele><time>2025-2-13T2:1:52Z</time></trkpt>
<trkpt lat="46.45695" lon="6.9722"><ele></ele><time>2025-2-13T2:1:55Z</time></trkpt>
<trkpt lat="46.45692" lon="6.97219"><ele></ele><time>2025-2-13T2:1:58Z</time></trkpt>
<trkpt lat="46.45691" lon="6.97219"><ele></ele><time>2025-2-13T2:2:1Z</time></trkpt>
<trkpt lat="46.45687" lon="6.97218"><ele></ele><time>2025-2-13T2:2:4Z</time></trkpt>
<trkpt lat="46.45683" lon="6.97217"><ele></ele><time>2025-2-13T2:2:7Z</time></trkpt>
<trkpt lat="46.45678" lon="6.97213"><ele></ele><time>2025-2-13T2:2:10Z</time></trkpt>
<trkpt lat="46.45678" lon="6.97213"><ele></ele><time>2025-2-13T2:2:13Z</time></trkpt>
<trkpt lat="46.45672" lon="6.97211"><ele></ele><time>2025-2-13T2:2:16Z</time></trkpt>
<trkpt lat="46.45671" lon="6.97211"><ele></ele><time>2025-2-13T2:2:19Z</time></trkpt>
<trkpt lat="46.45666" lon="6.97214"><ele></ele><time>2025-2-13T2:2:22Z</time></trkpt>
<trkpt lat="46.45665" lon="6.97215"><ele></ele><time>2025-2-13T2:2:25Z</time></trkpt>
<trkpt lat="46.45664" lon="6.97216"><ele></ele><time>2025-2-13T2:2:28Z</time></trkpt>
<trkpt lat="46.4566" lon="6.97222"><ele></ele><time>2025-2-13T2:2:31Z</time></trkpt>
<trkpt lat="46.45658" lon="6.97223"><ele></ele><time>2025-2-13T2:2:34Z</time></trkpt>
<trkpt lat="46.45655" lon="6.97227"><ele></ele><time>2025-2-13T2:2:37Z</time></trkpt>
<trkpt lat="46.45653" lon="6.97229"><ele></ele><time>2025-2-13T2:2:40Z</time></trkpt>
<trkpt lat="46.45651" lon="6.97229"><ele></ele><time>2025-2-13T2:2:43Z</time></trkpt>
<trkpt lat="46.45647" lon="6.97232"><ele></ele><time>2025-2-13T2:2:46Z</time></trkpt>
<trkpt lat="46.45643" lon="6.97234"><ele></ele><time>2025-2-13T2:2:49Z</time></trkpt>
<trkpt lat="46.45639" lon="6.97236"><ele></ele><time>2025-2-13T2:2:52Z</time></trkpt>
<trkpt lat="46.45632" lon="6.97237"><ele></ele><time>2025-2-13T2:2:55Z</time></trkpt>
<trkpt lat="46.45631" lon="6.97237"><ele></ele><time>2025-2-13T2:2:58Z</time></trkpt>
<trkpt lat="46.45625" lon="6.97238"><ele></ele><time>2025-2-13T2:3:1Z</time></trkpt>
<trkpt lat="46.45622" lon="6.97238"><ele></ele><time>2025-2-13T2:3:4Z</time></trkpt>
<trkpt lat="46.45619" lon="6.97237"><ele></ele><time>2025-2-13T2:3:7Z</time></trkpt>
<trkpt lat="46.45613" lon="6.97237"><ele></ele><time>2025-2-13T2:3:10Z</time></trkpt>
<trkpt lat="46.45611" lon="6.97237"><ele></ele><time>2025-2-13T2:3:13Z</time></trkpt>
<trkpt lat="46.45606" lon="6.97236"><ele></ele><time>2025-2-13T2:3:16Z</time></trkpt>
<trkpt lat="46.45603" lon="6.97236"><ele></ele><time>2025-2-13T2:3:19Z</time></trkpt>
<trkpt lat="46.45597" lon="6.97238"><ele></ele><time>2025-2-13T2:3:22Z</time></trkpt>
<trkpt lat="46.45593" lon="6.97241"><ele></ele><time>2025-2-13T2:3:25Z</time></trkpt>
<trkpt lat="46.45592" lon="6.97245"><ele></ele><time>2025-2-13T2:3:28Z</time></trkpt>
<trkpt lat="46.45592" lon="6.9725"><ele></ele><time>2025-2-13T2:3:31Z</time></trkpt>
<trkpt lat="46.45591" lon="6.97255"><ele></ele><time>2025-2-13T2:3:34Z</time></trkpt>
<trkpt lat="46.45587" lon="6.97259"><ele></ele><time>2025-2-13T2:3:37Z</time></trkpt>
<trkpt lat="46.45584" lon="6.9726"><ele></ele><time>2025-2-13T2:3:40Z</time></trkpt>
<trkpt lat="46.45579" lon="6.97263"><ele></ele><time>2025-2-13T2:3:43Z</time></trkpt>
<trkpt lat="46.45575" lon="6.97262"><ele></ele><time>2025-2-13T2:3:46Z</time></trkpt>
<trkpt lat="46.45569" lon="6.9726"><ele></ele><time>2025-2-13T2:3:49Z</time></trkpt>
<trkpt lat="46.45562" lon="6.97257"><ele></ele><time>2025-2-13T2:3:52Z</time></trkpt>
<trkpt lat="46.45558" lon="6.97255"><ele></ele><time>2025-2-13T2:3:55Z</time></trkpt>
<trkpt lat="46.45556" lon="6.97251"><ele></ele><time>2025-2-13T2:3:58Z</time></trkpt>
<trkpt lat="46.45555" lon="6.97245"><ele></ele><time>2025-2-13T2:4:1Z</time></trkpt>
<trkpt lat="46.45554" lon="6.97243"><ele></ele><time>2025-2-13T2:4:4Z</time></trkpt>
<trkpt lat="46.4555" lon="6.97236"><ele></ele><time>2025-2-13T2:4:7Z</time></trkpt>
<trkpt lat="46.45547" lon="6.97233"><ele></ele><time>2025-2-13T2:4:10Z</time></trkpt>
<trkpt lat="46.45544" lon="6.9723"><ele></ele><time>2025-2-13T2:4:13Z</time></trkpt>
<trkpt lat="46.45541" lon="6.97227"><ele></ele><time>2025-2-13T2:4:16Z</time></trkpt>
<trkpt lat="46.45538" lon="6.97226"><ele></ele><time>2025-2-13T2:4:19Z</time></trkpt>
<trkpt lat="46.45537" lon="6.97225"><ele></ele><time>2025-2-13T2:4:22Z</time></trkpt>
<trkpt lat="46.45529" lon="6.97223"><ele></ele><time>2025-2-13T2:4:25Z</time></trkpt>
<trkpt lat="46.45528" lon="6.97223"><ele></ele><time>2025-2-13T2:4:28Z</time></trkpt>
<trkpt lat="46.45527" lon="6.97222"><ele></ele><time>2025-2-13T2:4:31Z</time></trkpt>
<trkpt lat="46.45521" lon="6.97219"><ele></ele><time>2025-2-13T2:4:34Z</time></trkpt>
<trkpt lat="46.4552" lon="6.97219"><ele></ele><time>2025-2-13T2:4:37Z</time></trkpt>
<trkpt lat="46.45516" lon="6.97216"><ele></ele><time>2025-2-13T2:4:40Z</time></trkpt>
<trkpt lat="46.45514" lon="6.97215"><ele></ele><time>2025-2-13T2:4:43Z</time></trkpt>
<trkpt lat="46.45508" lon="6.97209"><ele></ele><time>2025-2-13T2:4:46Z</time></trkpt>
<trkpt lat="46.45507" lon="6.97209"><ele></ele><time>2025-2-13T2:4:49Z</time></trkpt>
<trkpt lat="46.455" lon="6.97207"><ele></ele><time>2025-2-13T2:4:52Z</time></trkpt>
<trkpt lat="46.4549" lon="6.97202"><ele></ele><time>2025-2-13T2:4:55Z</time></trkpt>
<trkpt lat="46.45489" lon="6.97201"><ele></ele><time>2025-2-13T2:4:58Z</time></trkpt>
<trkpt lat="46.45484" lon="6.97197"><ele></ele><time>2025-2-13T2:5:1Z</time></trkpt>
<trkpt lat="46.4548" lon="6.97194"><ele></ele><time>2025-2-13T2:5:4Z</time></trkpt>
<trkpt lat="46.45477" lon="6.97192"><ele></ele><time>2025-2-13T2:5:7Z</time></trkpt>
<trkpt lat="46.45475" lon="6.9719"><ele></ele><time>2025-2-13T2:5:10Z</time></trkpt>
<trkpt lat="46.45472" lon="6.97189"><ele></ele><time>2025-2-13T2:5:13Z</time></trkpt>
<trkpt lat="46.45468" lon="6.97186"><ele></ele><time>2025-2-13T2:5:16Z</time></trkpt>
<trkpt lat="46.45462" lon="6.97182"><ele></ele><time>2025-2-13T2:5:19Z</time></trkpt>
<trkpt lat="46.45458" lon="6.9718"><ele></ele><time>2025-2-13T2:5:22Z</time></trkpt>
<trkpt lat="46.45456" lon="6.97178"><ele></ele><time>2025-2-13T2:5:25Z</time></trkpt>
<trkpt lat="46.45449" lon="6.97173"><ele></ele><time>2025-2-13T2:5:28Z</time></trkpt>
<trkpt lat="46.45447" lon="6.97172"><ele></ele><time>2025-2-13T2:5:31Z</time></trkpt>
<trkpt lat="46.45446" lon="6.97169"><ele></ele><time>2025-2-13T2:5:34Z</time></trkpt>
<trkpt lat="46.45442" lon="6.97166"><ele></ele><time>2025-2-13T2:5:37Z</time></trkpt>
<trkpt lat="46.45439" lon="6.97164"><ele></ele><time>2025-2-13T2:5:40Z</time></trkpt>
<trkpt lat="46.45436" lon="6.9716"><ele></ele><time>2025-2-13T2:5:43Z</time></trkpt>
<trkpt lat="46.45433" lon="6.97157"><ele></ele><time>2025-2-13T2:5:46Z</time></trkpt>
<trkpt lat="46.45429" lon="6.97155"><ele></ele><time>2025-2-13T2:5:49Z</time></trkpt>
<trkpt lat="46.45424" lon="6.97151"><ele></ele><time>2025-2-13T2:5:52Z</time></trkpt>
<trkpt lat="46.45422" lon="6.97149"><ele></ele><time>2025-2-13T2:5:55Z</time></trkpt>
<trkpt lat="46.45418" lon="6.97142"><ele></ele><time>2025-2-13T2:5:58Z</time></trkpt>
<trkpt lat="46.45416" lon="6.9714"><ele></ele><time>2025-2-13T2:6:1Z</time></trkpt>
<trkpt lat="46.4541" lon="6.97133"><ele></ele><time>2025-2-13T2:6:4Z</time></trkpt>
<trkpt lat="46.45407" lon="6.9713"><ele></ele><time>2025-2-13T2:6:7Z</time></trkpt>
<trkpt lat="46.45402" lon="6.97124"><ele></ele><time>2025-2-13T2:6:10Z</time></trkpt>
<trkpt lat="46.45394" lon="6.9712"><ele></ele><time>2025-2-13T2:6:13Z</time></trkpt>
<trkpt lat="46.45387" lon="6.97118"><ele></ele><time>2025-2-13T2:6:16Z</time></trkpt>
<trkpt lat="46.45385" lon="6.97117"><ele></ele><time>2025-2-13T2:6:19Z</time></trkpt>
<trkpt lat="46.45378" lon="6.97116"><ele></ele><time>2025-2-13T2:6:22Z</time></trkpt>
<trkpt lat="46.45375" lon="6.97116"><ele></ele><time>2025-2-13T2:6:25Z</time></trkpt>
<trkpt lat="46.45371" lon="6.97117"><ele></ele><time>2025-2-13T2:6:28Z</time></trkpt>
<trkpt lat="46.45367" lon="6.97117"><ele></ele><time>2025-2-13T2:6:31Z</time></trkpt>
<trkpt lat="46.45364" lon="6.97117"><ele></ele><time>2025-2-13T2:6:34Z</time></trkpt>
<trkpt lat="46.45358" lon="6.97121"><ele></ele><time>2025-2-13T2:6:37Z</time></trkpt>
<trkpt lat="46.45356" lon="6.97122"><ele></ele><time>2025-2-13T2:6:40Z</time></trkpt>
<trkpt lat="46.45352" lon="6.97125"><ele></ele><time>2025-2-13T2:6:43Z</time></trkpt>
<trkpt lat="46.4535" lon="6.97126"><ele></ele><time>2025-2-13T2:6:46Z</time></trkpt>
<trkpt lat="46.45345" lon="6.97127"><ele></ele><time>2025-2-13T2:6:49Z</time></trkpt>
<trkpt lat="46.45343" lon="6.97127"><ele></ele><time>2025-2-13T2:6:52Z</time></trkpt>
<trkpt lat="46.45336" lon="6.9713"><ele></ele><time>2025-2-13T2:6:55Z</time></trkpt>
<trkpt lat="46.45334" lon="6.97131"><ele></ele><time>2025-2-13T2:6:58Z</time></trkpt>
<trkpt lat="46.45327" lon="6.97137"><ele></ele><time>2025-2-13T2:7:1Z</time></trkpt>
<trkpt lat="46.45326" lon="6.97139"><ele></ele><time>2025-2-13T2:7:4Z</time></trkpt>
<trkpt lat="46.4532" lon="6.97143"><ele></ele><time>2025-2-13T2:7:7Z</time></trkpt>
<trkpt lat="46.45318" lon="6.97143"><ele></ele><time>2025-2-13T2:7:10Z</time></trkpt>
<trkpt lat="46.4531" lon="6.97146"><ele></ele><time>2025-2-13T2:7:13Z</time></trkpt>
<trkpt lat="46.45309" lon="6.97146"><ele></ele><time>2025-2-13T2:7:16Z</time></trkpt>
<trkpt lat="46.45303" lon="6.97151"><ele></ele><time>2025-2-13T2:7:19Z</time></trkpt>
<trkpt lat="46.45302" lon="6.97151"><ele></ele><time>2025-2-13T2:7:22Z</time></trkpt>
<trkpt lat="46.45297" lon="6.97153"><ele></ele><time>2025-2-13T2:7:25Z</time></trkpt>
<trkpt lat="46.45294" lon="6.97157"><ele></ele><time>2025-2-13T2:7:28Z</time></trkpt>
<trkpt lat="46.45292" lon="6.97162"><ele></ele><time>2025-2-13T2:7:31Z</time></trkpt>
<trkpt lat="46.45291" lon="6.97164"><ele></ele><time>2025-2-13T2:7:34Z</time></trkpt>
<trkpt lat="46.45291" lon="6.97164"><ele></ele><time>2025-2-13T2:7:37Z</time></trkpt>
<trkpt lat="46.45287" lon="6.97169"><ele></ele><time>2025-2-13T2:7:40Z</time></trkpt>
<trkpt lat="46.45286" lon="6.97169"><ele></ele><time>2025-2-13T2:7:43Z</time></trkpt>
<trkpt lat="46.45285" lon="6.9717"><ele></ele><time>2025-2-13T2:7:46Z</time></trkpt>
<trkpt lat="46.45278" lon="6.9717"><ele></ele><time>2025-2-13T2:7:49Z</time></trkpt>
<trkpt lat="46.45277" lon="6.97171"><ele></ele><time>2025-2-13T2:7:52Z</time></trkpt>
<trkpt lat="46.45268" lon="6.97174"><ele></ele><time>2025-2-13T2:7:55Z</time></trkpt>
<trkpt lat="46.45267" lon="6.97175"><ele></ele><time>2025-2-13T2:7:58Z</time></trkpt>
<trkpt lat="46.45259" lon="6.97181"><ele></ele><time>2025-2-13T2:8:1Z</time></trkpt>
<trkpt lat="46.45252" lon="6.97185"><ele></ele><time>2025-2-13T2:8:4Z</time></trkpt>
<trkpt lat="46.4525" lon="6.97187"><ele></ele><time>2025-2-13T2:8:7Z</time></trkpt>
<trkpt lat="46.45246" lon="6.97193"><ele></ele><time>2025-2-13T2:8:10Z</time></trkpt>
<trkpt lat="46.45245" lon="6.97194"><ele></ele><time>2025-2-13T2:8:13Z</time></trkpt>
<trkpt lat="46.45241" lon="6.972"><ele></ele><time>2025-2-13T2:8:16Z</time></trkpt>
<trkpt lat="46.45238" lon="6.97202"><ele></ele><time>2025-2-13T2:8:19Z</time></trkpt>
<trkpt lat="46.45236" lon="6.97205"><ele></ele><time>2025-2-13T2:8:22Z</time></trkpt>
<trkpt lat="46.45235" lon="6.97211"><ele></ele><time>2025-2-13T2:8:25Z</time></trkpt>
<trkpt lat="46.45235" lon="6.97212"><ele></ele><time>2025-2-13T2:8:28Z</time></trkpt>
<trkpt lat="46.45232" lon="6.97216"><ele></ele><time>2025-2-13T2:8:31Z</time></trkpt>
<trkpt lat="46.45231" lon="6.97217"><ele></ele><time>2025-2-13T2:8:34Z</time></trkpt>
<trkpt lat="46.45222" lon="6.97216"><ele></ele><time>2025-2-13T2:8:37Z</time></trkpt>
<trkpt lat="46.45221" lon="6.97215"><ele></ele><time>2025-2-13T2:8:40Z</time></trkpt>
<trkpt lat="46.45218" lon="6.97211"><ele></ele><time>2025-2-13T2:8:43Z</time></trkpt>
<trkpt lat="46.45216" lon="6.9721"><ele></ele><time>2025-2-13T2:8:46Z</time></trkpt>
<trkpt lat="46.45213" lon="6.97201"><ele></ele><time>2025-2-13T2:8:49Z</time></trkpt>
<trkpt lat="46.45211" lon="6.97198"><ele></ele><time>2025-2-13T2:8:52Z</time></trkpt>
<trkpt lat="46.45206" lon="6.97187"><ele></ele><time>2025-2-13T2:8:55Z</time></trkpt>
<trkpt lat="46.45205" lon="6.97185"><ele></ele><time>2025-2-13T2:8:58Z</time></trkpt>
<trkpt lat="46.45198" lon="6.97179"><ele></ele><time>2025-2-13T2:9:1Z</time></trkpt>
<trkpt lat="46.45197" lon="6.97179"><ele></ele><time>2025-2-13T2:9:4Z</time></trkpt>
<trkpt lat="46.45191" lon="6.97175"><ele></ele><time>2025-2-13T2:9:7Z</time></trkpt>
<trkpt lat="46.4519" lon="6.97175"><ele></ele><time>2025-2-13T2:9:10Z</time></trkpt>
<trkpt lat="46.45183" lon="6.97178"><ele></ele><time>2025-2-13T2:9:13Z</time></trkpt>
<trkpt lat="46.45181" lon="6.9718"><ele></ele><time>2025-2-13T2:9:16Z</time></trkpt>
<trkpt lat="46.45175" lon="6.97185"><ele></ele><time>2025-2-13T2:9:19Z</time></trkpt>
<trkpt lat="46.45174" lon="6.97186"><ele></ele><time>2025-2-13T2:9:22Z</time></trkpt>
<trkpt lat="46.4517" lon="6.97191"><ele></ele><time>2025-2-13T2:9:25Z</time></trkpt>
<trkpt lat="46.45168" lon="6.97194"><ele></ele><time>2025-2-13T2:9:28Z</time></trkpt>
<trkpt lat="46.45164" lon="6.97198"><ele></ele><time>2025-2-13T2:9:31Z</time></trkpt>
<trkpt lat="46.45161" lon="6.97199"><ele></ele><time>2025-2-13T2:9:34Z</time></trkpt>
<trkpt lat="46.45153" lon="6.97202"><ele></ele><time>2025-2-13T2:9:37Z</time></trkpt>
<trkpt lat="46.4515" lon="6.97202"><ele></ele><time>2025-2-13T2:9:40Z</time></trkpt>
<trkpt lat="46.45139" lon="6.97205"><ele></ele><time>2025-2-13T2:9:43Z</time></trkpt>
<trkpt lat="46.45138" lon="6.97207"><ele></ele><time>2025-2-13T2:9:46Z</time></trkpt>
<trkpt lat="46.45137" lon="6.97209"><ele></ele><time>2025-2-13T2:9:49Z</time></trkpt>
<trkpt lat="46.45139" lon="6.97214"><ele></ele><time>2025-2-13T2:9:52Z</time></trkpt>
<trkpt lat="46.4514" lon="6.97215"><ele></ele><time>2025-2-13T2:9:55Z</time></trkpt>
<trkpt lat="46.45143" lon="6.97217"><ele></ele><time>2025-2-13T2:9:58Z</time></trkpt>
<trkpt lat="46.45152" lon="6.97216"><ele></ele><time>2025-2-13T2:10:1Z</time></trkpt>
<trkpt lat="46.45157" lon="6.97217"><ele></ele><time>2025-2-13T2:10:4Z</time></trkpt>
<trkpt lat="46.4516" lon="6.97216"><ele></ele><time>2025-2-13T2:10:7Z</time></trkpt>
<trkpt lat="46.45165" lon="6.97214"><ele></ele><time>2025-2-13T2:10:10Z</time></trkpt>
<trkpt lat="46.45168" lon="6.97213"><ele></ele><time>2025-2-13T2:10:13Z</time></trkpt>
<trkpt lat="46.45173" lon="6.9721"><ele></ele><time>2025-2-13T2:10:16Z</time></trkpt>
<trkpt lat="46.45177" lon="6.97208"><ele></ele><time>2025-2-13T2:10:19Z</time></trkpt>
<trkpt lat="46.45181" lon="6.97209"><ele></ele><time>2025-2-13T2:10:22Z</time></trkpt>
<trkpt lat="46.45185" lon="6.97211"><ele></ele><time>2025-2-13T2:10:25Z</time></trkpt>
<trkpt lat="46.45186" lon="6.97212"><ele></ele><time>2025-2-13T2:10:28Z</time></trkpt>
<trkpt lat="46.4519" lon="6.97218"><ele></ele><time>2025-2-13T2:10:31Z</time></trkpt>
<trkpt lat="46.45191" lon="6.97219"><ele></ele><time>2025-2-13T2:10:34Z</time></trkpt>
<trkpt lat="46.45194" lon="6.9723"><ele></ele><time>2025-2-13T2:10:37Z</time></trkpt>
<trkpt lat="46.45196" lon="6.97241"><ele></ele><time>2025-2-13T2:10:40Z</time></trkpt>
<trkpt lat="46.45196" lon="6.97242"><ele></ele><time>2025-2-13T2:10:43Z</time></trkpt>
<trkpt lat="46.45198" lon="6.97248"><ele></ele><time>2025-2-13T2:10:46Z</time></trkpt>
<trkpt lat="46.45199" lon="6.97252"><ele></ele><time>2025-2-13T2:10:49Z</time></trkpt>
<trkpt lat="46.45199" lon="6.97258"><ele></ele><time>2025-2-13T2:10:52Z</time></trkpt>
<trkpt lat="46.45201" lon="6.97264"><ele></ele><time>2025-2-13T2:10:55Z</time></trkpt>
<trkpt lat="46.45202" lon="6.97266"><ele></ele><time>2025-2-13T2:10:58Z</time></trkpt>
<trkpt lat="46.45204" lon="6.97271"><ele></ele><time>2025-2-13T2:11:1Z</time></trkpt>
<trkpt lat="46.45205" lon="6.97273"><ele></ele><time>2025-2-13T2:11:4Z</time></trkpt>
<trkpt lat="46.45205" lon="6.97278"><ele></ele><time>2025-2-13T2:11:7Z</time></trkpt>
<trkpt lat="46.45205" lon="6.97279"><ele></ele><time>2025-2-13T2:11:10Z</time></trkpt>
<trkpt lat="46.45206" lon="6.9728"><ele></ele><time>2025-2-13T2:11:13Z</time></trkpt>
<trkpt lat="46.45207" lon="6.97282"><ele></ele><time>2025-2-13T2:11:16Z</time></trkpt>
<trkpt lat="46.4521" lon="6.97285"><ele></ele><time>2025-2-13T2:11:19Z</time></trkpt>
<trkpt lat="46.45212" lon="6.97287"><ele></ele><time>2025-2-13T2:11:22Z</time></trkpt>
<trkpt lat="46.45214" lon="6.97288"><ele></ele><time>2025-2-13T2:11:25Z</time></trkpt>
<trkpt lat="46.45215" lon="6.97288"><ele></ele><time>2025-2-13T2:11:28Z</time></trkpt>
<trkpt lat="46.45217" lon="6.97288"><ele></ele><time>2025-2-13T2:11:31Z</time></trkpt>
<trkpt lat="46.45221" lon="6.97289"><ele></ele><time>2025-2-13T2:11:34Z</time></trkpt>
<trkpt lat="46.45227" lon="6.97289"><ele></ele><time>2025-2-13T2:11:37Z</time></trkpt>
<trkpt lat="46.4523" lon="6.97289"><ele></ele><time>2025-2-13T2:11:40Z</time></trkpt>
<trkpt lat="46.45236" lon="6.97286"><ele></ele><time>2025-2-13T2:11:43Z</time></trkpt>
<trkpt lat="46.45238" lon="6.97284"><ele></ele><time>2025-2-13T2:11:46Z</time></trkpt>
<trkpt lat="46.45245" lon="6.97283"><ele></ele><time>2025-2-13T2:11:49Z</time></trkpt>
<trkpt lat="46.45247" lon="6.97281"><ele></ele><time>2025-2-13T2:11:52Z</time></trkpt>
<trkpt lat="46.45253" lon="6.97278"><ele></ele><time>2025-2-13T2:11:55Z</time></trkpt>
<trkpt lat="46.45255" lon="6.97277"><ele></ele><time>2025-2-13T2:11:58Z</time></trkpt>
<trkpt lat="46.45261" lon="6.97275"><ele></ele><time>2025-2-13T2:12:1Z</time></trkpt>
<trkpt lat="46.45264" lon="6.97273"><ele></ele><time>2025-2-13T2:12:4Z</time></trkpt>
<trkpt lat="46.45271" lon="6.9727"><ele></ele><time>2025-2-13T2:12:7Z</time></trkpt>
<trkpt lat="46.45276" lon="6.97269"><ele></ele><time>2025-2-13T2:12:10Z</time></trkpt>
<trkpt lat="46.45279" lon="6.97268"><ele></ele><time>2025-2-13T2:12:13Z</time></trkpt>
<trkpt lat="46.45285" lon="6.97268"><ele></ele><time>2025-2-13T2:12:16Z</time></trkpt>
<trkpt lat="46.45287" lon="6.97269"><ele></ele><time>2025-2-13T2:12:19Z</time></trkpt>
<trkpt lat="46.45292" lon="6.97271"><ele></ele><time>2025-2-13T2:12:22Z</time></trkpt>
<trkpt lat="46.45299" lon="6.97274"><ele></ele><time>2025-2-13T2:12:25Z</time></trkpt>
<trkpt lat="46.45301" lon="6.97274"><ele></ele><time>2025-2-13T2:12:28Z</time></trkpt>
<trkpt lat="46.4531" lon="6.97276"><ele></ele><time>2025-2-13T2:12:31Z</time></trkpt>
<trkpt lat="46.45313" lon="6.97277"><ele></ele><time>2025-2-13T2:12:34Z</time></trkpt>
<trkpt lat="46.45318" lon="6.97277"><ele></ele><time>2025-2-13T2:12:37Z</time></trkpt>
<trkpt lat="46.45322" lon="6.97275"><ele></ele><time>2025-2-13T2:12:40Z</time></trkpt>
<trkpt lat="46.45328" lon="6.97273"><ele></ele><time>2025-2-13T2:12:43Z</time></trkpt>
<trkpt lat="46.45333" lon="6.97272"><ele></ele><time>2025-2-13T2:12:46Z</time></trkpt>
<trkpt lat="46.45339" lon="6.97269"><ele></ele><time>2025-2-13T2:12:49Z</time></trkpt>
<trkpt lat="46.45343" lon="6.97269"><ele></ele><time>2025-2-13T2:12:52Z</time></trkpt>
<trkpt lat="46.45355" lon="6.97267"><ele></ele><time>2025-2-13T2:12:55Z</time></trkpt>
<trkpt lat="46.45357" lon="6.97267"><ele></ele><time>2025-2-13T2:12:58Z</time></trkpt>
<trkpt lat="46.45365" lon="6.97274"><ele></ele><time>2025-2-13T2:13:1Z</time></trkpt>
<trkpt lat="46.45365" lon="6.97277"><ele></ele><time>2025-2-13T2:13:4Z</time></trkpt>
<trkpt lat="46.45364" lon="6.9728"><ele></ele><time>2025-2-13T2:13:7Z</time></trkpt>
<trkpt lat="46.45362" lon="6.9728"><ele></ele><time>2025-2-13T2:13:10Z</time></trkpt>
<trkpt lat="46.45356" lon="6.9728"><ele></ele><time>2025-2-13T2:13:13Z</time></trkpt>
<trkpt lat="46.45355" lon="6.97281"><ele></ele><time>2025-2-13T2:13:16Z</time></trkpt>
<trkpt lat="46.45347" lon="6.97283"><ele></ele><time>2025-2-13T2:13:19Z</time></trkpt>
<trkpt lat="46.45345" lon="6.97283"><ele></ele><time>2025-2-13T2:13:22Z</time></trkpt>
<trkpt lat="46.4534" lon="6.97286"><ele></ele><time>2025-2-13T2:13:25Z</time></trkpt>
<trkpt lat="46.45337" lon="6.97288"><ele></ele><time>2025-2-13T2:13:28Z</time></trkpt>
<trkpt lat="46.45334" lon="6.97293"><ele></ele><time>2025-2-13T2:13:31Z</time></trkpt>
<trkpt lat="46.4533" lon="6.97293"><ele></ele><time>2025-2-13T2:13:34Z</time></trkpt>
<trkpt lat="46.45328" lon="6.97294"><ele></ele><time>2025-2-13T2:13:37Z</time></trkpt>
<trkpt lat="46.45326" lon="6.97296"><ele></ele><time>2025-2-13T2:13:40Z</time></trkpt>
<trkpt lat="46.45325" lon="6.97298"><ele></ele><time>2025-2-13T2:13:43Z</time></trkpt>
<trkpt lat="46.45319" lon="6.97304"><ele></ele><time>2025-2-13T2:13:46Z</time></trkpt>
<trkpt lat="46.45317" lon="6.97306"><ele></ele><time>2025-2-13T2:13:49Z</time></trkpt>
<trkpt lat="46.45315" lon="6.97308"><ele></ele><time>2025-2-13T2:13:52Z</time></trkpt>
<trkpt lat="46.45312" lon="6.97311"><ele></ele><time>2025-2-13T2:13:55Z</time></trkpt>
<trkpt lat="46.45312" lon="6.9731"><ele></ele><time>2025-2-13T2:13:58Z</time></trkpt>
<trkpt lat="46.45312" lon="6.97311"><ele></ele><time>2025-2-13T2:14:1Z</time></trkpt>
<trkpt lat="46.45312" lon="6.97313"><ele></ele><time>2025-2-13T2:14:4Z</time></trkpt>
<trkpt lat="46.45313" lon="6.97313"><ele></ele><time>2025-2-13T2:14:7Z</time></trkpt>
<trkpt lat="46.45314" lon="6.97313"><ele></ele><time>2025-2-13T2:14:10Z</time></trkpt>
<trkpt lat="46.45317" lon="6.97312"><ele></ele><time>2025-2-13T2:14:13Z</time></trkpt>
<trkpt lat="46.45318" lon="6.97309"><ele></ele><time>2025-2-13T2:14:16Z</time></trkpt>
<trkpt lat="46.45316" lon="6.97308"><ele></ele><time>2025-2-13T2:14:19Z</time></trkpt>
<trkpt lat="46.45313" lon="6.97311"><ele></ele><time>2025-2-13T2:14:22Z</time></trkpt>
<trkpt lat="46.45308" lon="6.97315"><ele></ele><time>2025-2-13T2:14:25Z</time></trkpt>
<trkpt lat="46.45307" lon="6.97315"><ele></ele><time>2025-2-13T2:14:28Z</time></trkpt>
<trkpt lat="46.45303" lon="6.97316"><ele></ele><time>2025-2-13T2:14:31Z</time></trkpt>
<trkpt lat="46.45298" lon="6.9732"><ele></ele><time>2025-2-13T2:14:34Z</time></trkpt>
<trkpt lat="46.45294" lon="6.97322"><ele></ele><time>2025-2-13T2:14:37Z</time></trkpt>
<trkpt lat="46.45289" lon="6.97326"><ele></ele><time>2025-2-13T2:14:40Z</time></trkpt>
<trkpt lat="46.45285" lon="6.97328"><ele></ele><time>2025-2-13T2:14:43Z</time></trkpt>
<trkpt lat="46.45282" lon="6.97332"><ele></ele><time>2025-2-13T2:14:46Z</time></trkpt>
<trkpt lat="46.45281" lon="6.97335"><ele></ele><time>2025-2-13T2:14:49Z</time></trkpt>
<trkpt lat="46.45274" lon="6.97339"><ele></ele><time>2025-2-13T2:14:52Z</time></trkpt>
<trkpt lat="46.45271" lon="6.97342"><ele></ele><time>2025-2-13T2:14:55Z</time></trkpt>
<trkpt lat="46.45266" lon="6.97346"><ele></ele><time>2025-2-13T2:14:58Z</time></trkpt>
<trkpt lat="46.4526" lon="6.97353"><ele></ele><time>2025-2-13T2:15:1Z</time></trkpt>
<trkpt lat="46.45259" lon="6.97355"><ele></ele><time>2025-2-13T2:15:4Z</time></trkpt>
<trkpt lat="46.45254" lon="6.97362"><ele></ele><time>2025-2-13T2:15:7Z</time></trkpt>
<trkpt lat="46.45248" lon="6.97371"><ele></ele><time>2025-2-13T2:15:10Z</time></trkpt>
<trkpt lat="46.45245" lon="6.97376"><ele></ele><time>2025-2-13T2:15:13Z</time></trkpt>
<trkpt lat="46.45243" lon="6.97379"><ele></ele><time>2025-2-13T2:15:16Z</time></trkpt>
<trkpt lat="46.45241" lon="6.97387"><ele></ele><time>2025-2-13T2:15:19Z</time></trkpt>
<trkpt lat="46.45239" lon="6.97393"><ele></ele><time>2025-2-13T2:15:22Z</time></trkpt>
<trkpt lat="46.45238" lon="6.97398"><ele></ele><time>2025-2-13T2:15:25Z</time></trkpt>
<trkpt lat="46.45238" lon="6.974"><ele></ele><time>2025-2-13T2:15:28Z</time></trkpt>
<trkpt lat="46.45234" lon="6.97405"><ele></ele><time>2025-2-13T2:15:31Z</time></trkpt>
<trkpt lat="46.45232" lon="6.97417"><ele></ele><time>2025-2-13T2:15:34Z</time></trkpt>
<trkpt lat="46.45232" lon="6.97421"><ele></ele><time>2025-2-13T2:15:37Z</time></trkpt>
<trkpt lat="46.45231" lon="6.97425"><ele></ele><time>2025-2-13T2:15:40Z</time></trkpt>
<trkpt lat="46.4523" lon="6.97431"><ele></ele><time>2025-2-13T2:15:43Z</time></trkpt>
<trkpt lat="46.45229" lon="6.97434"><ele></ele><time>2025-2-13T2:15:46Z</time></trkpt>
<trkpt lat="46.45229" lon="6.97435"><ele></ele><time>2025-2-13T2:15:49Z</time></trkpt>
<trkpt lat="46.45229" lon="6.97445"><ele></ele><time>2025-2-13T2:15:52Z</time></trkpt>
<trkpt lat="46.45228" lon="6.97456"><ele></ele><time>2025-2-13T2:15:55Z</time></trkpt>
<trkpt lat="46.45228" lon="6.97467"><ele></ele><time>2025-2-13T2:15:58Z</time></trkpt>
<trkpt lat="46.45227" lon="6.9747"><ele></ele><time>2025-2-13T2:16:1Z</time></trkpt>
<trkpt lat="46.45226" lon="6.9748"><ele></ele><time>2025-2-13T2:16:4Z</time></trkpt>
<trkpt lat="46.45225" lon="6.97484"><ele></ele><time>2025-2-13T2:16:7Z</time></trkpt>
<trkpt lat="46.45221" lon="6.97494"><ele></ele><time>2025-2-13T2:16:10Z</time></trkpt>
<trkpt lat="46.45221" lon="6.97496"><ele></ele><time>2025-2-13T2:16:13Z</time></trkpt>
<trkpt lat="46.45219" lon="6.97507"><ele></ele><time>2025-2-13T2:16:16Z</time></trkpt>
<trkpt lat="46.45218" lon="6.97508"><ele></ele><time>2025-2-13T2:16:19Z</time></trkpt>
<trkpt lat="46.45216" lon="6.97518"><ele></ele><time>2025-2-13T2:16:22Z</time></trkpt>
<trkpt lat="46.45215" lon="6.97521"><ele></ele><time>2025-2-13T2:16:25Z</time></trkpt>
<trkpt lat="46.45212" lon="6.97534"><ele></ele><time>2025-2-13T2:16:28Z</time></trkpt>
<trkpt lat="46.45212" lon="6.97537"><ele></ele><time>2025-2-13T2:16:31Z</time></trkpt>
<trkpt lat="46.4521" lon="6.97549"><ele></ele><time>2025-2-13T2:16:34Z</time></trkpt>
<trkpt lat="46.45209" lon="6.97554"><ele></ele><time>2025-2-13T2:16:37Z</time></trkpt>
<trkpt lat="46.45208" lon="6.97563"><ele></ele><time>2025-2-13T2:16:40Z</time></trkpt>
<trkpt lat="46.45206" lon="6.97569"><ele></ele><time>2025-2-13T2:16:43Z</time></trkpt>
<trkpt lat="46.45204" lon="6.97577"><ele></ele><time>2025-2-13T2:16:46Z</time></trkpt>
<trkpt lat="46.45201" lon="6.97586"><ele></ele><time>2025-2-13T2:16:49Z</time></trkpt>
<trkpt lat="46.452" lon="6.97593"><ele></ele><time>2025-2-13T2:16:52Z</time></trkpt>
<trkpt lat="46.45198" lon="6.97597"><ele></ele><time>2025-2-13T2:16:55Z</time></trkpt>
<trkpt lat="46.45194" lon="6.97614"><ele></ele><time>2025-2-13T2:16:58Z</time></trkpt>
<trkpt lat="46.45192" lon="6.97618"><ele></ele><time>2025-2-13T2:17:1Z</time></trkpt>
<trkpt lat="46.45188" lon="6.97634"><ele></ele><time>2025-2-13T2:17:4Z</time></trkpt>
<trkpt lat="46.45186" lon="6.9764"><ele></ele><time>2025-2-13T2:17:7Z</time></trkpt>
<trkpt lat="46.4518" lon="6.97655"><ele></ele><time>2025-2-13T2:17:10Z</time></trkpt>
<trkpt lat="46.45178" lon="6.97665"><ele></ele><time>2025-2-13T2:17:13Z</time></trkpt>
<trkpt lat="46.45173" lon="6.97681"><ele></ele><time>2025-2-13T2:17:16Z</time></trkpt>
<trkpt lat="46.4517" lon="6.97689"><ele></ele><time>2025-2-13T2:17:19Z</time></trkpt>
<trkpt lat="46.45166" lon="6.97702"><ele></ele><time>2025-2-13T2:17:22Z</time></trkpt>
<trkpt lat="46.45166" lon="6.97706"><ele></ele><time>2025-2-13T2:17:25Z</time></trkpt>
<trkpt lat="46.45165" lon="6.97711"><ele></ele><time>2025-2-13T2:17:28Z</time></trkpt>
<trkpt lat="46.45165" lon="6.97713"><ele></ele><time>2025-2-13T2:17:31Z</time></trkpt>
<trkpt lat="46.45166" lon="6.97715"><ele></ele><time>2025-2-13T2:17:34Z</time></trkpt>
<trkpt lat="46.45167" lon="6.97715"><ele></ele><time>2025-2-13T2:17:37Z</time></trkpt>
<trkpt lat="46.45166" lon="6.97714"><ele></ele><time>2025-2-13T2:17:40Z</time></trkpt>
<trkpt lat="46.4517" lon="6.97713"><ele></ele><time>2025-2-13T2:17:43Z</time></trkpt>
<trkpt lat="46.4517" lon="6.97713"><ele></ele><time>2025-2-13T2:17:46Z</time></trkpt>
<trkpt lat="46.45171" lon="6.97711"><ele></ele><time>2025-2-13T2:17:49Z</time></trkpt>
<trkpt lat="46.45168" lon="6.97708"><ele></ele><time>2025-2-13T2:17:52Z</time></trkpt>
<trkpt lat="46.45165" lon="6.97709"><ele></ele><time>2025-2-13T2:17:55Z</time></trkpt>
<trkpt lat="46.45162" lon="6.97712"><ele></ele><time>2025-2-13T2:17:58Z</time></trkpt>
<trkpt lat="46.45161" lon="6.97713"><ele></ele><time>2025-2-13T2:18:1Z</time></trkpt>
<trkpt lat="46.45157" lon="6.97717"><ele></ele><time>2025-2-13T2:18:4Z</time></trkpt>
<trkpt lat="46.45156" lon="6.97717"><ele></ele><time>2025-2-13T2:18:7Z</time></trkpt>
<trkpt lat="46.45152" lon="6.97719"><ele></ele><time>2025-2-13T2:18:10Z</time></trkpt>
<trkpt lat="46.45147" lon="6.97718"><ele></ele><time>2025-2-13T2:18:13Z</time></trkpt>
<trkpt lat="46.45146" lon="6.97715"><ele></ele><time>2025-2-13T2:18:16Z</time></trkpt>
<trkpt lat="46.45142" lon="6.97706"><ele></ele><time>2025-2-13T2:18:19Z</time></trkpt>
<trkpt lat="46.45139" lon="6.97702"><ele></ele><time>2025-2-13T2:18:22Z</time></trkpt>
<trkpt lat="46.45133" lon="6.97693"><ele></ele><time>2025-2-13T2:18:25Z</time></trkpt>
<trkpt lat="46.45133" lon="6.9769"><ele></ele><time>2025-2-13T2:18:28Z</time></trkpt>
<trkpt lat="46.45133" lon="6.97671"><ele></ele><time>2025-2-13T2:18:31Z</time></trkpt>
<trkpt lat="46.45133" lon="6.97651"><ele></ele><time>2025-2-13T2:18:34Z</time></trkpt>
<trkpt lat="46.45133" lon="6.97649"><ele></ele><time>2025-2-13T2:18:37Z</time></trkpt>
<trkpt lat="46.45132" lon="6.9765"><ele></ele><time>2025-2-13T2:18:40Z</time></trkpt>
<trkpt lat="46.45132" lon="6.9765"><ele></ele><time>2025-2-13T2:18:43Z</time></trkpt>
<trkpt lat="46.45133" lon="6.97648"><ele></ele><time>2025-2-13T2:18:46Z</time></trkpt>
<trkpt lat="46.45133" lon="6.97648"><ele></ele><time>2025-2-13T2:18:49Z</time></trkpt>
<trkpt lat="46.45133" lon="6.97648"><ele></ele><time>2025-2-13T2:18:52Z</time></trkpt>
<trkpt lat="46.45133" lon="6.97648"><ele></ele><time>2025-2-13T2:18:55Z</time></trkpt>
<trkpt lat="46.45132" lon="6.97649"><ele></ele><time>2025-2-13T2:18:58Z</time></trkpt>
<trkpt lat="46.45132" lon="6.9765"><ele></ele><time>2025-2-13T2:19:1Z</time></trkpt>
<trkpt lat="46.45131" lon="6.97658"><ele></ele><time>2025-2-13T2:19:4Z</time></trkpt>
<trkpt lat="46.45122" lon="6.97665"><ele></ele><time>2025-2-13T2:19:7Z</time></trkpt>
<trkpt lat="46.45122" lon="6.9767"><ele></ele><time>2025-2-13T2:19:10Z</time></trkpt>
<trkpt lat="46.45124" lon="6.97674"><ele></ele><time>2025-2-13T2:19:13Z</time></trkpt>
<trkpt lat="46.45125" lon="6.97691"><ele></ele><time>2025-2-13T2:19:16Z</time></trkpt>
<trkpt lat="46.45127" lon="6.97697"><ele></ele><time>2025-2-13T2:19:19Z</time></trkpt>
<trkpt lat="46.45126" lon="6.977"><ele></ele><time>2025-2-13T2:19:22Z</time></trkpt>
<trkpt lat="46.45126" lon="6.977"><ele></ele><time>2025-2-13T2:19:25Z</time></trkpt>
<trkpt lat="46.45126" lon="6.977"><ele></ele><time>2025-2-13T2:19:28Z</time></trkpt>
<trkpt lat="46.45126" lon="6.977"><ele></ele><time>2025-2-13T2:19:31Z</time></trkpt>
<trkpt lat="46.45127" lon="6.97701"><ele></ele><time>2025-2-13T2:19:34Z</time></trkpt>
<trkpt lat="46.45126" lon="6.977"><ele></ele><time>2025-2-13T2:19:37Z</time></trkpt>
<trkpt lat="46.45126" lon="6.977"><ele></ele><time>2025-2-13T2:19:40Z</time></trkpt>
<trkpt lat="46.45126" lon="6.97701"><ele></ele><time>2025-2-13T2:19:43Z</time></trkpt>
<trkpt lat="46.45126" lon="6.97701"><ele></ele><time>2025-2-13T2:19:46Z</time></trkpt>
<trkpt lat="46.45126" lon="6.977"><ele></ele><time>2025-2-13T2:19:49Z</time></trkpt>
<trkpt lat="46.45126" lon="6.977"><ele></ele><time>2025-2-13T2:19:52Z</time></trkpt>
<trkpt lat="46.45126" lon="6.977"><ele></ele><time>2025-2-13T2:19:55Z</time></trkpt>
<trkpt lat="46.45126" lon="6.97702"><ele></ele><time>2025-2-13T2:19:58Z</time></trkpt>
<trkpt lat="46.45126" lon="6.977"><ele></ele><time>2025-2-13T2:20:1Z</time></trkpt>
<trkpt lat="46.45126" lon="6.977"><ele></ele><time>2025-2-13T2:20:4Z</time></trkpt>
<trkpt lat="46.45126" lon="6.97698"><ele></ele><time>2025-2-13T2:20:7Z</time></trkpt>
<trkpt lat="46.45127" lon="6.97697"><ele></ele><time>2025-2-13T2:20:10Z</time></trkpt>
<trkpt lat="46.45127" lon="6.97698"><ele></ele><time>2025-2-13T2:20:13Z</time></trkpt>
<trkpt lat="46.45127" lon="6.97699"><ele></ele><time>2025-2-13T2:20:16Z</time></trkpt>
<trkpt lat="46.45128" lon="6.97697"><ele></ele><time>2025-2-13T2:20:19Z</time></trkpt>
<trkpt lat="46.4513" lon="6.97696"><ele></ele><time>2025-2-13T2:20:22Z</time></trkpt>
<trkpt lat="46.45131" lon="6.97695"><ele></ele><time>2025-2-13T2:20:25Z</time></trkpt>
<trkpt lat="46.45132" lon="6.97695"><ele></ele><time>2025-2-13T2:20:28Z</time></trkpt>
<trkpt lat="46.45135" lon="6.97697"><ele></ele><time>2025-2-13T2:20:31Z</time></trkpt>
<trkpt lat="46.45138" lon="6.97704"><ele></ele><time>2025-2-13T2:20:34Z</time></trkpt>
<trkpt lat="46.45149" lon="6.97714"><ele></ele><time>2025-2-13T2:20:37Z</time></trkpt>
<trkpt lat="46.45152" lon="6.97715"><ele></ele><time>2025-2-13T2:20:40Z</time></trkpt>
<trkpt lat="46.45155" lon="6.97715"><ele></ele><time>2025-2-13T2:20:43Z</time></trkpt>
<trkpt lat="46.45158" lon="6.97713"><ele></ele><time>2025-2-13T2:20:46Z</time></trkpt>
<trkpt lat="46.45165" lon="6.977"><ele></ele><time>2025-2-13T2:20:49Z</time></trkpt>
<trkpt lat="46.45166" lon="6.97696"><ele></ele><time>2025-2-13T2:20:52Z</time></trkpt>
<trkpt lat="46.4517" lon="6.97686"><ele></ele><time>2025-2-13T2:20:55Z</time></trkpt>
<trkpt lat="46.45179" lon="6.97662"><ele></ele><time>2025-2-13T2:20:58Z</time></trkpt>
<trkpt lat="46.4518" lon="6.97655"><ele></ele><time>2025-2-13T2:21:1Z</time></trkpt>
<trkpt lat="46.45186" lon="6.97634"><ele></ele><time>2025-2-13T2:21:4Z</time></trkpt>
<trkpt lat="46.4519" lon="6.9762"><ele></ele><time>2025-2-13T2:21:7Z</time></trkpt>
<trkpt lat="46.45192" lon="6.97613"><ele></ele><time>2025-2-13T2:21:10Z</time></trkpt>
<trkpt lat="46.45198" lon="6.97591"><ele></ele><time>2025-2-13T2:21:13Z</time></trkpt>
<trkpt lat="46.45204" lon="6.97568"><ele></ele><time>2025-2-13T2:21:16Z</time></trkpt>
<trkpt lat="46.45209" lon="6.97543"><ele></ele><time>2025-2-13T2:21:19Z</time></trkpt>
<trkpt lat="46.45211" lon="6.97535"><ele></ele><time>2025-2-13T2:21:22Z</time></trkpt>
<trkpt lat="46.45214" lon="6.97519"><ele></ele><time>2025-2-13T2:21:25Z</time></trkpt>
<trkpt lat="46.45216" lon="6.97512"><ele></ele><time>2025-2-13T2:21:28Z</time></trkpt>
<trkpt lat="46.45219" lon="6.975"><ele></ele><time>2025-2-13T2:21:31Z</time></trkpt>
<trkpt lat="46.45221" lon="6.97491"><ele></ele><time>2025-2-13T2:21:34Z</time></trkpt>
<trkpt lat="46.45222" lon="6.97487"><ele></ele><time>2025-2-13T2:21:37Z</time></trkpt>
<trkpt lat="46.45223" lon="6.97487"><ele></ele><time>2025-2-13T2:21:40Z</time></trkpt>
<trkpt lat="46.45223" lon="6.97487"><ele></ele><time>2025-2-13T2:21:43Z</time></trkpt>
<trkpt lat="46.45223" lon="6.97487"><ele></ele><time>2025-2-13T2:21:46Z</time></trkpt>
<trkpt lat="46.45223" lon="6.97487"><ele></ele><time>2025-2-13T2:21:49Z</time></trkpt>
<trkpt lat="46.45223" lon="6.97487"><ele></ele><time>2025-2-13T2:21:52Z</time></trkpt>
<trkpt lat="46.45223" lon="6.97487"><ele></ele><time>2025-2-13T2:21:55Z</time></trkpt>
<trkpt lat="46.45223" lon="6.97487"><ele></ele><time>2025-2-13T2:21:58Z</time></trkpt>
<trkpt lat="46.45223" lon="6.97487"><ele></ele><time>2025-2-13T2:22:1Z</time></trkpt>
<trkpt lat="46.45222" lon="6.97487"><ele></ele><time>2025-2-13T2:22:4Z</time></trkpt>
<trkpt lat="46.45223" lon="6.97487"><ele></ele><time>2025-2-13T2:22:7Z</time></trkpt>
<trkpt lat="46.45223" lon="6.97487"><ele></ele><time>2025-2-13T2:22:10Z</time></trkpt>
<trkpt lat="46.45223" lon="6.97488"><ele></ele><time>2025-2-13T2:22:13Z</time></trkpt>
<trkpt lat="46.45223" lon="6.97488"><ele></ele><time>2025-2-13T2:22:16Z</time></trkpt>
<trkpt lat="46.45223" lon="6.97487"><ele></ele><time>2025-2-13T2:22:19Z</time></trkpt>
<trkpt lat="46.45226" lon="6.97474"><ele></ele><time>2025-2-13T2:22:22Z</time></trkpt>
<trkpt lat="46.45229" lon="6.97449"><ele></ele><time>2025-2-13T2:22:25Z</time></trkpt>
<trkpt lat="46.4523" lon="6.97438"><ele></ele><time>2025-2-13T2:22:28Z</time></trkpt>
<trkpt lat="46.45231" lon="6.97426"><ele></ele><time>2025-2-13T2:22:31Z</time></trkpt>
<trkpt lat="46.45235" lon="6.97401"><ele></ele><time>2025-2-13T2:22:34Z</time></trkpt>
<trkpt lat="46.45239" lon="6.97389"><ele></ele><time>2025-2-13T2:22:37Z</time></trkpt>
<trkpt lat="46.45245" lon="6.97377"><ele></ele><time>2025-2-13T2:22:40Z</time></trkpt>
<trkpt lat="46.45252" lon="6.97366"><ele></ele><time>2025-2-13T2:22:43Z</time></trkpt>
<trkpt lat="46.45259" lon="6.97356"><ele></ele><time>2025-2-13T2:22:46Z</time></trkpt>
<trkpt lat="46.45267" lon="6.97346"><ele></ele><time>2025-2-13T2:22:49Z</time></trkpt>
<trkpt lat="46.45283" lon="6.97329"><ele></ele><time>2025-2-13T2:22:52Z</time></trkpt>
<trkpt lat="46.45292" lon="6.97321"><ele></ele><time>2025-2-13T2:22:55Z</time></trkpt>
<trkpt lat="46.45301" lon="6.97315"><ele></ele><time>2025-2-13T2:22:58Z</time></trkpt>
<trkpt lat="46.45311" lon="6.97309"><ele></ele><time>2025-2-13T2:23:1Z</time></trkpt>
<trkpt lat="46.45319" lon="6.97302"><ele></ele><time>2025-2-13T2:23:4Z</time></trkpt>
<trkpt lat="46.45326" lon="6.97295"><ele></ele><time>2025-2-13T2:23:7Z</time></trkpt>
<trkpt lat="46.4534" lon="6.97282"><ele></ele><time>2025-2-13T2:23:10Z</time></trkpt>
<trkpt lat="46.45348" lon="6.97279"><ele></ele><time>2025-2-13T2:23:13Z</time></trkpt>
<trkpt lat="46.45355" lon="6.97277"><ele></ele><time>2025-2-13T2:23:16Z</time></trkpt>
<trkpt lat="46.45362" lon="6.97276"><ele></ele><time>2025-2-13T2:23:19Z</time></trkpt>
<trkpt lat="46.45367" lon="6.97277"><ele></ele><time>2025-2-13T2:23:22Z</time></trkpt>
<trkpt lat="46.4537" lon="6.97278"><ele></ele><time>2025-2-13T2:23:25Z</time></trkpt>
<trkpt lat="46.45375" lon="6.9728"><ele></ele><time>2025-2-13T2:23:28Z</time></trkpt>
<trkpt lat="46.45378" lon="6.97285"><ele></ele><time>2025-2-13T2:23:31Z</time></trkpt>
<trkpt lat="46.45381" lon="6.97292"><ele></ele><time>2025-2-13T2:23:34Z</time></trkpt>
<trkpt lat="46.45384" lon="6.97298"><ele></ele><time>2025-2-13T2:23:37Z</time></trkpt>
<trkpt lat="46.45385" lon="6.97301"><ele></ele><time>2025-2-13T2:23:40Z</time></trkpt>
<trkpt lat="46.45387" lon="6.97305"><ele></ele><time>2025-2-13T2:23:43Z</time></trkpt>
<trkpt lat="46.4539" lon="6.97313"><ele></ele><time>2025-2-13T2:23:46Z</time></trkpt>
<trkpt lat="46.45394" lon="6.97318"><ele></ele><time>2025-2-13T2:23:49Z</time></trkpt>
<trkpt lat="46.45398" lon="6.97324"><ele></ele><time>2025-2-13T2:23:52Z</time></trkpt>
<trkpt lat="46.45402" lon="6.97331"><ele></ele><time>2025-2-13T2:23:55Z</time></trkpt>
<trkpt lat="46.45405" lon="6.97335"><ele></ele><time>2025-2-13T2:23:58Z</time></trkpt>
<trkpt lat="46.45414" lon="6.97347"><ele></ele><time>2025-2-13T2:24:1Z</time></trkpt>
<trkpt lat="46.45418" lon="6.97353"><ele></ele><time>2025-2-13T2:24:4Z</time></trkpt>
<trkpt lat="46.45423" lon="6.9736"><ele></ele><time>2025-2-13T2:24:7Z</time></trkpt>
<trkpt lat="46.45427" lon="6.97368"><ele></ele><time>2025-2-13T2:24:10Z</time></trkpt>
<trkpt lat="46.4543" lon="6.97377"><ele></ele><time>2025-2-13T2:24:13Z</time></trkpt>
<trkpt lat="46.45434" lon="6.97386"><ele></ele><time>2025-2-13T2:24:16Z</time></trkpt>
<trkpt lat="46.45437" lon="6.97395"><ele></ele><time>2025-2-13T2:24:19Z</time></trkpt>
<trkpt lat="46.45438" lon="6.974"><ele></ele><time>2025-2-13T2:24:22Z</time></trkpt>
<trkpt lat="46.45442" lon="6.97405"><ele></ele><time>2025-2-13T2:24:25Z</time></trkpt>
<trkpt lat="46.45444" lon="6.97406"><ele></ele><time>2025-2-13T2:24:28Z</time></trkpt>
<trkpt lat="46.45449" lon="6.97412"><ele></ele><time>2025-2-13T2:24:31Z</time></trkpt>
<trkpt lat="46.4545" lon="6.97413"><ele></ele><time>2025-2-13T2:24:34Z</time></trkpt>
<trkpt lat="46.4546" lon="6.97422"><ele></ele><time>2025-2-13T2:24:37Z</time></trkpt>
<trkpt lat="46.45462" lon="6.97424"><ele></ele><time>2025-2-13T2:24:40Z</time></trkpt>
<trkpt lat="46.4547" lon="6.97437"><ele></ele><time>2025-2-13T2:24:43Z</time></trkpt>
<trkpt lat="46.45471" lon="6.97439"><ele></ele><time>2025-2-13T2:24:46Z</time></trkpt>
<trkpt lat="46.45477" lon="6.97458"><ele></ele><time>2025-2-13T2:24:49Z</time></trkpt>
<trkpt lat="46.45479" lon="6.97463"><ele></ele><time>2025-2-13T2:24:52Z</time></trkpt>
<trkpt lat="46.45481" lon="6.97468"><ele></ele><time>2025-2-13T2:24:55Z</time></trkpt>
<trkpt lat="46.45482" lon="6.9747"><ele></ele><time>2025-2-13T2:24:58Z</time></trkpt>
<trkpt lat="46.4549" lon="6.97481"><ele></ele><time>2025-2-13T2:25:1Z</time></trkpt>
<trkpt lat="46.45491" lon="6.97482"><ele></ele><time>2025-2-13T2:25:4Z</time></trkpt>
<trkpt lat="46.45499" lon="6.97491"><ele></ele><time>2025-2-13T2:25:7Z</time></trkpt>
<trkpt lat="46.45507" lon="6.97507"><ele></ele><time>2025-2-13T2:25:10Z</time></trkpt>
<trkpt lat="46.4551" lon="6.97508"><ele></ele><time>2025-2-13T2:25:13Z</time></trkpt>
<trkpt lat="46.45519" lon="6.97513"><ele></ele><time>2025-2-13T2:25:16Z</time></trkpt>
<trkpt lat="46.4552" lon="6.97515"><ele></ele><time>2025-2-13T2:25:19Z</time></trkpt>
<trkpt lat="46.45527" lon="6.97523"><ele></ele><time>2025-2-13T2:25:22Z</time></trkpt>
<trkpt lat="46.45529" lon="6.97525"><ele></ele><time>2025-2-13T2:25:25Z</time></trkpt>
<trkpt lat="46.45536" lon="6.9753"><ele></ele><time>2025-2-13T2:25:28Z</time></trkpt>
<trkpt lat="46.45542" lon="6.97531"><ele></ele><time>2025-2-13T2:25:31Z</time></trkpt>
<trkpt lat="46.45552" lon="6.97529"><ele></ele><time>2025-2-13T2:25:34Z</time></trkpt>
<trkpt lat="46.45554" lon="6.97529"><ele></ele><time>2025-2-13T2:25:37Z</time></trkpt>
<trkpt lat="46.45556" lon="6.97529"><ele></ele><time>2025-2-13T2:25:40Z</time></trkpt>
<trkpt lat="46.45564" lon="6.97524"><ele></ele><time>2025-2-13T2:25:43Z</time></trkpt>
<trkpt lat="46.45566" lon="6.97522"><ele></ele><time>2025-2-13T2:25:46Z</time></trkpt>
<trkpt lat="46.4557" lon="6.97521"><ele></ele><time>2025-2-13T2:25:49Z</time></trkpt>
<trkpt lat="46.45572" lon="6.97521"><ele></ele><time>2025-2-13T2:25:52Z</time></trkpt>
<trkpt lat="46.45573" lon="6.97522"><ele></ele><time>2025-2-13T2:25:55Z</time></trkpt>
<trkpt lat="46.45581" lon="6.97527"><ele></ele><time>2025-2-13T2:25:58Z</time></trkpt>
<trkpt lat="46.45584" lon="6.97529"><ele></ele><time>2025-2-13T2:26:1Z</time></trkpt>
<trkpt lat="46.45589" lon="6.97533"><ele></ele><time>2025-2-13T2:26:4Z</time></trkpt>
<trkpt lat="46.4559" lon="6.97534"><ele></ele><time>2025-2-13T2:26:7Z</time></trkpt>
<trkpt lat="46.45594" lon="6.97533"><ele></ele><time>2025-2-13T2:26:10Z</time></trkpt>
<trkpt lat="46.45594" lon="6.97533"><ele></ele><time>2025-2-13T2:26:13Z</time></trkpt>
<trkpt lat="46.45594" lon="6.97533"><ele></ele><time>2025-2-13T2:26:16Z</time></trkpt>
<trkpt lat="46.45594" lon="6.97533"><ele></ele><time>2025-2-13T2:26:19Z</time></trkpt>
<trkpt lat="46.45594" lon="6.97533"><ele></ele><time>2025-2-13T2:26:22Z</time></trkpt>
<trkpt lat="46.45594" lon="6.97533"><ele></ele><time>2025-2-13T2:26:25Z</time></trkpt>
<trkpt lat="46.45594" lon="6.97533"><ele></ele><time>2025-2-13T2:26:28Z</time></trkpt>
<trkpt lat="46.45594" lon="6.97531"><ele></ele><time>2025-2-13T2:26:31Z</time></trkpt>
<trkpt lat="46.45594" lon="6.97531"><ele></ele><time>2025-2-13T2:26:34Z</time></trkpt>
<trkpt lat="46.45594" lon="6.97534"><ele></ele><time>2025-2-13T2:26:37Z</time></trkpt>
<trkpt lat="46.45594" lon="6.97534"><ele></ele><time>2025-2-13T2:26:40Z</time></trkpt>
<trkpt lat="46.45594" lon="6.97535"><ele></ele><time>2025-2-13T2:26:43Z</time></trkpt>
<trkpt lat="46.45594" lon="6.97535"><ele></ele><time>2025-2-13T2:26:46Z</time></trkpt>
<trkpt lat="46.45595" lon="6.97534"><ele></ele><time>2025-2-13T2:26:49Z</time></trkpt>
<trkpt lat="46.45595" lon="6.97534"><ele></ele><time>2025-2-13T2:26:52Z</time></trkpt>
<trkpt lat="46.45594" lon="6.97534"><ele></ele><time>2025-2-13T2:26:55Z</time></trkpt>
<trkpt lat="46.45594" lon="6.97536"><ele></ele><time>2025-2-13T2:26:58Z</time></trkpt>
<trkpt lat="46.45595" lon="6.97535"><ele></ele><time>2025-2-13T2:27:1Z</time></trkpt>
<trkpt lat="46.456" lon="6.97533"><ele></ele><time>2025-2-13T2:27:4Z</time></trkpt>
<trkpt lat="46.45601" lon="6.97533"><ele></ele><time>2025-2-13T2:27:7Z</time></trkpt>
<trkpt lat="46.45598" lon="6.97535"><ele></ele><time>2025-2-13T2:27:10Z</time></trkpt>
<trkpt lat="46.45583" lon="6.9753"><ele></ele><time>2025-2-13T2:27:13Z</time></trkpt>
<trkpt lat="46.45571" lon="6.97521"><ele></ele><time>2025-2-13T2:27:16Z</time></trkpt>
<trkpt lat="46.45567" lon="6.97521"><ele></ele><time>2025-2-13T2:27:19Z</time></trkpt>
<trkpt lat="46.45567" lon="6.97522"><ele></ele><time>2025-2-13T2:27:22Z</time></trkpt>
<trkpt lat="46.45567" lon="6.97523"><ele></ele><time>2025-2-13T2:27:25Z</time></trkpt>
<trkpt lat="46.45567" lon="6.97522"><ele></ele><time>2025-2-13T2:27:28Z</time></trkpt>
<trkpt lat="46.45567" lon="6.97522"><ele></ele><time>2025-2-13T2:27:31Z</time></trkpt>
<trkpt lat="46.45569" lon="6.97521"><ele></ele><time>2025-2-13T2:27:34Z</time></trkpt>
<trkpt lat="46.45571" lon="6.97521"><ele></ele><time>2025-2-13T2:27:37Z</time></trkpt>
<trkpt lat="46.45583" lon="6.97529"><ele></ele><time>2025-2-13T2:27:40Z</time></trkpt>
<trkpt lat="46.4559" lon="6.97534"><ele></ele><time>2025-2-13T2:27:43Z</time></trkpt>
<trkpt lat="46.45598" lon="6.97534"><ele></ele><time>2025-2-13T2:27:46Z</time></trkpt>
<trkpt lat="46.456" lon="6.97534"><ele></ele><time>2025-2-13T2:27:49Z</time></trkpt>
<trkpt lat="46.45599" lon="6.97536"><ele></ele><time>2025-2-13T2:27:52Z</time></trkpt>
<trkpt lat="46.45596" lon="6.97537"><ele></ele><time>2025-2-13T2:27:55Z</time></trkpt>
<trkpt lat="46.45595" lon="6.97535"><ele></ele><time>2025-2-13T2:27:58Z</time></trkpt>
<trkpt lat="46.45595" lon="6.97535"><ele></ele><time>2025-2-13T2:28:1Z</time></trkpt>
<trkpt lat="46.45594" lon="6.97536"><ele></ele><time>2025-2-13T2:28:4Z</time></trkpt>
<trkpt lat="46.45594" lon="6.97536"><ele></ele><time>2025-2-13T2:28:7Z</time></trkpt>
<trkpt lat="46.45595" lon="6.97535"><ele></ele><time>2025-2-13T2:28:10Z</time></trkpt>
<trkpt lat="46.45595" lon="6.97535"><ele></ele><time>2025-2-13T2:28:13Z</time></trkpt>
<trkpt lat="46.45595" lon="6.97535"><ele></ele><time>2025-2-13T2:28:16Z</time></trkpt>
<trkpt lat="46.45595" lon="6.97535"><ele></ele><time>2025-2-13T2:28:19Z</time></trkpt>
<trkpt lat="46.45595" lon="6.97535"><ele></ele><time>2025-2-13T2:28:22Z</time></trkpt>
<trkpt lat="46.45595" lon="6.97534"><ele></ele><time>2025-2-13T2:28:25Z</time></trkpt>
<trkpt lat="46.45593" lon="6.97533"><ele></ele><time>2025-2-13T2:28:28Z</time></trkpt>
<trkpt lat="46.4559" lon="6.97533"><ele></ele><time>2025-2-13T2:28:31Z</time></trkpt>
<trkpt lat="46.45589" lon="6.97532"><ele></ele><time>2025-2-13T2:28:34Z</time></trkpt>
<trkpt lat="46.45587" lon="6.97532"><ele></ele><time>2025-2-13T2:28:37Z</time></trkpt>
<trkpt lat="46.45587" lon="6.97532"><ele></ele><time>2025-2-13T2:28:40Z</time></trkpt>
<trkpt lat="46.45588" lon="6.97533"><ele></ele><time>2025-2-13T2:28:43Z</time></trkpt>
<trkpt lat="46.45597" lon="6.97533"><ele></ele><time>2025-2-13T2:28:46Z</time></trkpt>
<trkpt lat="46.45614" lon="6.97531"><ele></ele><time>2025-2-13T2:28:49Z</time></trkpt>
<trkpt lat="46.45623" lon="6.9753"><ele></ele><time>2025-2-13T2:28:52Z</time></trkpt>
<trkpt lat="46.45623" lon="6.97529"><ele></ele><time>2025-2-13T2:28:55Z</time></trkpt>
<trkpt lat="46.45621" lon="6.97528"><ele></ele><time>2025-2-13T2:28:58Z</time></trkpt>
<trkpt lat="46.4562" lon="6.97529"><ele></ele><time>2025-2-13T2:29:1Z</time></trkpt>
<trkpt lat="46.45609" lon="6.97531"><ele></ele><time>2025-2-13T2:29:4Z</time></trkpt>
<trkpt lat="46.45596" lon="6.97534"><ele></ele><time>2025-2-13T2:29:7Z</time></trkpt>
<trkpt lat="46.45592" lon="6.97535"><ele></ele><time>2025-2-13T2:29:10Z</time></trkpt>
<trkpt lat="46.4559" lon="6.97535"><ele></ele><time>2025-2-13T2:29:13Z</time></trkpt>
<trkpt lat="46.4559" lon="6.97535"><ele></ele><time>2025-2-13T2:29:16Z</time></trkpt>
<trkpt lat="46.45594" lon="6.97536"><ele></ele><time>2025-2-13T2:29:19Z</time></trkpt>
<trkpt lat="46.45594" lon="6.97536"><ele></ele><time>2025-2-13T2:29:22Z</time></trkpt>
<trkpt lat="46.45594" lon="6.97536"><ele></ele><time>2025-2-13T2:29:25Z</time></trkpt>
<trkpt lat="46.45594" lon="6.97536"><ele></ele><time>2025-2-13T2:29:28Z</time></trkpt>
<trkpt lat="46.45594" lon="6.97536"><ele></ele><time>2025-2-13T2:29:31Z</time></trkpt>
<trkpt lat="46.45594" lon="6.97536"><ele></ele><time>2025-2-13T2:29:34Z</time></trkpt>
<trkpt lat="46.45594" lon="6.97536"><ele></ele><time>2025-2-13T2:29:37Z</time></trkpt>
<trkpt lat="46.45595" lon="6.97536"><ele></ele><time>2025-2-13T2:29:40Z</time></trkpt>
<trkpt lat="46.45596" lon="6.97534"><ele></ele><time>2025-2-13T2:29:43Z</time></trkpt>
<trkpt lat="46.45597" lon="6.97534"><ele></ele><time>2025-2-13T2:29:46Z</time></trkpt>
<trkpt lat="46.45598" lon="6.97534"><ele></ele><time>2025-2-13T2:29:49Z</time></trkpt>
<trkpt lat="46.45606" lon="6.97531"><ele></ele><time>2025-2-13T2:29:52Z</time></trkpt>
<trkpt lat="46.45619" lon="6.97531"><ele></ele><time>2025-2-13T2:29:55Z</time></trkpt>
<trkpt lat="46.45622" lon="6.9753"><ele></ele><time>2025-2-13T2:29:58Z</time></trkpt>
<trkpt lat="46.45637" lon="6.97522"><ele></ele><time>2025-2-13T2:30:1Z</time></trkpt>
<trkpt lat="46.4564" lon="6.97521"><ele></ele><time>2025-2-13T2:30:4Z</time></trkpt>
<trkpt lat="46.45649" lon="6.97523"><ele></ele><time>2025-2-13T2:30:7Z</time></trkpt>
<trkpt lat="46.45656" lon="6.97526"><ele></ele><time>2025-2-13T2:30:10Z</time></trkpt>
<trkpt lat="46.45661" lon="6.9753"><ele></ele><time>2025-2-13T2:30:13Z</time></trkpt>
<trkpt lat="46.45665" lon="6.9753"><ele></ele><time>2025-2-13T2:30:16Z</time></trkpt>
<trkpt lat="46.45668" lon="6.97531"><ele></ele><time>2025-2-13T2:30:19Z</time></trkpt>
<trkpt lat="46.4568" lon="6.97536"><ele></ele><time>2025-2-13T2:30:22Z</time></trkpt>
<trkpt lat="46.45681" lon="6.97537"><ele></ele><time>2025-2-13T2:30:25Z</time></trkpt>
<trkpt lat="46.45691" lon="6.97543"><ele></ele><time>2025-2-13T2:30:28Z</time></trkpt>
<trkpt lat="46.45699" lon="6.97554"><ele></ele><time>2025-2-13T2:30:31Z</time></trkpt>
<trkpt lat="46.457" lon="6.97555"><ele></ele><time>2025-2-13T2:30:34Z</time></trkpt>
<trkpt lat="46.45703" lon="6.97564"><ele></ele><time>2025-2-13T2:30:37Z</time></trkpt>
<trkpt lat="46.45705" lon="6.97568"><ele></ele><time>2025-2-13T2:30:40Z</time></trkpt>
<trkpt lat="46.4571" lon="6.97575"><ele></ele><time>2025-2-13T2:30:43Z</time></trkpt>
<trkpt lat="46.45711" lon="6.97575"><ele></ele><time>2025-2-13T2:30:46Z</time></trkpt>
<trkpt lat="46.45718" lon="6.97577"><ele></ele><time>2025-2-13T2:30:49Z</time></trkpt>
<trkpt lat="46.45724" lon="6.97577"><ele></ele><time>2025-2-13T2:30:52Z</time></trkpt>
<trkpt lat="46.45732" lon="6.97578"><ele></ele><time>2025-2-13T2:30:55Z</time></trkpt>
<trkpt lat="46.45736" lon="6.9758"><ele></ele><time>2025-2-13T2:30:58Z</time></trkpt>
<trkpt lat="46.45741" lon="6.97585"><ele></ele><time>2025-2-13T2:31:1Z</time></trkpt>
<trkpt lat="46.45742" lon="6.97586"><ele></ele><time>2025-2-13T2:31:4Z</time></trkpt>
<trkpt lat="46.45747" lon="6.97589"><ele></ele><time>2025-2-13T2:31:7Z</time></trkpt>
<trkpt lat="46.45755" lon="6.97592"><ele></ele><time>2025-2-13T2:31:10Z</time></trkpt>
<trkpt lat="46.45761" lon="6.97591"><ele></ele><time>2025-2-13T2:31:13Z</time></trkpt>
<trkpt lat="46.45765" lon="6.97586"><ele></ele><time>2025-2-13T2:31:16Z</time></trkpt>
<trkpt lat="46.45775" lon="6.97573"><ele></ele><time>2025-2-13T2:31:19Z</time></trkpt>
<trkpt lat="46.45788" lon="6.97566"><ele></ele><time>2025-2-13T2:31:22Z</time></trkpt>
<trkpt lat="46.45795" lon="6.97565"><ele></ele><time>2025-2-13T2:31:25Z</time></trkpt>
<trkpt lat="46.458" lon="6.97566"><ele></ele><time>2025-2-13T2:31:28Z</time></trkpt>
<trkpt lat="46.45805" lon="6.97562"><ele></ele><time>2025-2-13T2:31:31Z</time></trkpt>
<trkpt lat="46.45809" lon="6.9756"><ele></ele><time>2025-2-13T2:31:34Z</time></trkpt>
<trkpt lat="46.45818" lon="6.97554"><ele></ele><time>2025-2-13T2:31:37Z</time></trkpt>
<trkpt lat="46.45822" lon="6.97555"><ele></ele><time>2025-2-13T2:31:40Z</time></trkpt>
<trkpt lat="46.45828" lon="6.97557"><ele></ele><time>2025-2-13T2:31:43Z</time></trkpt>
<trkpt lat="46.45832" lon="6.97562"><ele></ele><time>2025-2-13T2:31:46Z</time></trkpt>
<trkpt lat="46.45837" lon="6.97568"><ele></ele><time>2025-2-13T2:31:49Z</time></trkpt>
<trkpt lat="46.45841" lon="6.97571"><ele></ele><time>2025-2-13T2:31:52Z</time></trkpt>
<trkpt lat="46.4585" lon="6.97576"><ele></ele><time>2025-2-13T2:31:55Z</time></trkpt>
<trkpt lat="46.45851" lon="6.97576"><ele></ele><time>2025-2-13T2:31:58Z</time></trkpt>
<trkpt lat="46.45863" lon="6.97578"><ele></ele><time>2025-2-13T2:32:1Z</time></trkpt>
<trkpt lat="46.45874" lon="6.97573"><ele></ele><time>2025-2-13T2:32:4Z</time></trkpt>
<trkpt lat="46.45876" lon="6.97572"><ele></ele><time>2025-2-13T2:32:7Z</time></trkpt>
<trkpt lat="46.45883" lon="6.97567"><ele></ele><time>2025-2-13T2:32:10Z</time></trkpt>
<trkpt lat="46.45886" lon="6.97566"><ele></ele><time>2025-2-13T2:32:13Z</time></trkpt>
<trkpt lat="46.45896" lon="6.97567"><ele></ele><time>2025-2-13T2:32:16Z</time></trkpt>
<trkpt lat="46.45908" lon="6.97562"><ele></ele><time>2025-2-13T2:32:19Z</time></trkpt>
<trkpt lat="46.45913" lon="6.97563"><ele></ele><time>2025-2-13T2:32:22Z</time></trkpt>
<trkpt lat="46.45918" lon="6.97567"><ele></ele><time>2025-2-13T2:32:25Z</time></trkpt>
<trkpt lat="46.4593" lon="6.97574"><ele></ele><time>2025-2-13T2:32:28Z</time></trkpt>
<trkpt lat="46.45932" lon="6.97574"><ele></ele><time>2025-2-13T2:32:31Z</time></trkpt>
<trkpt lat="46.45943" lon="6.97569"><ele></ele><time>2025-2-13T2:32:34Z</time></trkpt>
<trkpt lat="46.45945" lon="6.97568"><ele></ele><time>2025-2-13T2:32:37Z</time></trkpt>
<trkpt lat="46.45953" lon="6.97562"><ele></ele><time>2025-2-13T2:32:40Z</time></trkpt>
<trkpt lat="46.45954" lon="6.97561"><ele></ele><time>2025-2-13T2:32:43Z</time></trkpt>
<trkpt lat="46.45963" lon="6.97557"><ele></ele><time>2025-2-13T2:32:46Z</time></trkpt>
<trkpt lat="46.45967" lon="6.97561"><ele></ele><time>2025-2-13T2:32:49Z</time></trkpt>
<trkpt lat="46.45971" lon="6.97568"><ele></ele><time>2025-2-13T2:32:52Z</time></trkpt>
<trkpt lat="46.45979" lon="6.97574"><ele></ele><time>2025-2-13T2:32:55Z</time></trkpt>
<trkpt lat="46.4598" lon="6.97575"><ele></ele><time>2025-2-13T2:32:58Z</time></trkpt>
<trkpt lat="46.45988" lon="6.97573"><ele></ele><time>2025-2-13T2:33:1Z</time></trkpt>
<trkpt lat="46.45992" lon="6.9757"><ele></ele><time>2025-2-13T2:33:4Z</time></trkpt>
<trkpt lat="46.46" lon="6.97563"><ele></ele><time>2025-2-13T2:33:7Z</time></trkpt>
<trkpt lat="46.46002" lon="6.97562"><ele></ele><time>2025-2-13T2:33:10Z</time></trkpt>
<trkpt lat="46.46009" lon="6.97563"><ele></ele><time>2025-2-13T2:33:13Z</time></trkpt>
<trkpt lat="46.46012" lon="6.97563"><ele></ele><time>2025-2-13T2:33:16Z</time></trkpt>
<trkpt lat="46.46019" lon="6.9756"><ele></ele><time>2025-2-13T2:33:19Z</time></trkpt>
<trkpt lat="46.46025" lon="6.97558"><ele></ele><time>2025-2-13T2:33:22Z</time></trkpt>
<trkpt lat="46.46032" lon="6.97559"><ele></ele><time>2025-2-13T2:33:25Z</time></trkpt>
<trkpt lat="46.4604" lon="6.9756"><ele></ele><time>2025-2-13T2:33:28Z</time></trkpt>
<trkpt lat="46.46043" lon="6.97559"><ele></ele><time>2025-2-13T2:33:31Z</time></trkpt>
<trkpt lat="46.46052" lon="6.97558"><ele></ele><time>2025-2-13T2:33:34Z</time></trkpt>
<trkpt lat="46.4606" lon="6.97561"><ele></ele><time>2025-2-13T2:33:37Z</time></trkpt>
<trkpt lat="46.46061" lon="6.97562"><ele></ele><time>2025-2-13T2:33:40Z</time></trkpt>
<trkpt lat="46.46063" lon="6.97563"><ele></ele><time>2025-2-13T2:33:43Z</time></trkpt>
<trkpt lat="46.46067" lon="6.97566"><ele></ele><time>2025-2-13T2:33:46Z</time></trkpt>
<trkpt lat="46.46069" lon="6.97565"><ele></ele><time>2025-2-13T2:33:49Z</time></trkpt>
<trkpt lat="46.46072" lon="6.97566"><ele></ele><time>2025-2-13T2:33:52Z</time></trkpt>
<trkpt lat="46.46074" lon="6.97566"><ele></ele><time>2025-2-13T2:33:55Z</time></trkpt>
<trkpt lat="46.46079" lon="6.97563"><ele></ele><time>2025-2-13T2:33:58Z</time></trkpt>
<trkpt lat="46.46088" lon="6.9756"><ele></ele><time>2025-2-13T2:34:1Z</time></trkpt>
<trkpt lat="46.46093" lon="6.97559"><ele></ele><time>2025-2-13T2:34:4Z</time></trkpt>
<trkpt lat="46.46102" lon="6.97557"><ele></ele><time>2025-2-13T2:34:7Z</time></trkpt>
<trkpt lat="46.46106" lon="6.97555"><ele></ele><time>2025-2-13T2:34:10Z</time></trkpt>
<trkpt lat="46.46114" lon="6.97548"><ele></ele><time>2025-2-13T2:34:13Z</time></trkpt>
<trkpt lat="46.46114" lon="6.97547"><ele></ele><time>2025-2-13T2:34:16Z</time></trkpt>
<trkpt lat="46.46122" lon="6.97529"><ele></ele><time>2025-2-13T2:34:19Z</time></trkpt>
<trkpt lat="46.46132" lon="6.97521"><ele></ele><time>2025-2-13T2:34:22Z</time></trkpt>
<trkpt lat="46.46134" lon="6.97522"><ele></ele><time>2025-2-13T2:34:25Z</time></trkpt>
<trkpt lat="46.46141" lon="6.97519"><ele></ele><time>2025-2-13T2:34:28Z</time></trkpt>
<trkpt lat="46.46143" lon="6.97515"><ele></ele><time>2025-2-13T2:34:31Z</time></trkpt>
<trkpt lat="46.46149" lon="6.97508"><ele></ele><time>2025-2-13T2:34:34Z</time></trkpt>
<trkpt lat="46.46158" lon="6.97504"><ele></ele><time>2025-2-13T2:34:37Z</time></trkpt>
<trkpt lat="46.46161" lon="6.97504"><ele></ele><time>2025-2-13T2:34:40Z</time></trkpt>
<trkpt lat="46.46173" lon="6.97501"><ele></ele><time>2025-2-13T2:34:43Z</time></trkpt>
<trkpt lat="46.46178" lon="6.97497"><ele></ele><time>2025-2-13T2:34:46Z</time></trkpt>
<trkpt lat="46.46193" lon="6.97477"><ele></ele><time>2025-2-13T2:34:49Z</time></trkpt>
<trkpt lat="46.46196" lon="6.97474"><ele></ele><time>2025-2-13T2:34:52Z</time></trkpt>
<trkpt lat="46.46207" lon="6.97465"><ele></ele><time>2025-2-13T2:34:55Z</time></trkpt>
<trkpt lat="46.46211" lon="6.97464"><ele></ele><time>2025-2-13T2:34:58Z</time></trkpt>
<trkpt lat="46.46215" lon="6.97464"><ele></ele><time>2025-2-13T2:35:1Z</time></trkpt>
<trkpt lat="46.46217" lon="6.97464"><ele></ele><time>2025-2-13T2:35:4Z</time></trkpt>
<trkpt lat="46.46226" lon="6.97462"><ele></ele><time>2025-2-13T2:35:7Z</time></trkpt>
<trkpt lat="46.46227" lon="6.97462"><ele></ele><time>2025-2-13T2:35:10Z</time></trkpt>
<trkpt lat="46.46233" lon="6.97458"><ele></ele><time>2025-2-13T2:35:13Z</time></trkpt>
<trkpt lat="46.46239" lon="6.97458"><ele></ele><time>2025-2-13T2:35:16Z</time></trkpt>
<trkpt lat="46.46241" lon="6.97458"><ele></ele><time>2025-2-13T2:35:19Z</time></trkpt>
<trkpt lat="46.46252" lon="6.97454"><ele></ele><time>2025-2-13T2:35:22Z</time></trkpt>
<trkpt lat="46.46261" lon="6.97454"><ele></ele><time>2025-2-13T2:35:25Z</time></trkpt>
<trkpt lat="46.46263" lon="6.97454"><ele></ele><time>2025-2-13T2:35:28Z</time></trkpt>
<trkpt lat="46.4627" lon="6.97453"><ele></ele><time>2025-2-13T2:35:31Z</time></trkpt>
<trkpt lat="46.46277" lon="6.9745"><ele></ele><time>2025-2-13T2:35:34Z</time></trkpt>
<trkpt lat="46.46279" lon="6.97447"><ele></ele><time>2025-2-13T2:35:37Z</time></trkpt>
<trkpt lat="46.46288" lon="6.97444"><ele></ele><time>2025-2-13T2:35:40Z</time></trkpt>
<trkpt lat="46.46289" lon="6.97444"><ele></ele><time>2025-2-13T2:35:43Z</time></trkpt>
<trkpt lat="46.46298" lon="6.97439"><ele></ele><time>2025-2-13T2:35:46Z</time></trkpt>
<trkpt lat="46.46301" lon="6.97438"><ele></ele><time>2025-2-13T2:35:49Z</time></trkpt>
<trkpt lat="46.46309" lon="6.97438"><ele></ele><time>2025-2-13T2:35:52Z</time></trkpt>
<trkpt lat="46.46317" lon="6.97435"><ele></ele><time>2025-2-13T2:35:55Z</time></trkpt>
<trkpt lat="46.46318" lon="6.97434"><ele></ele><time>2025-2-13T2:35:58Z</time></trkpt>
<trkpt lat="46.4633" lon="6.97429"><ele></ele><time>2025-2-13T2:36:1Z</time></trkpt>
<trkpt lat="46.46333" lon="6.97427"><ele></ele><time>2025-2-13T2:36:4Z</time></trkpt>
<trkpt lat="46.46343" lon="6.97423"><ele></ele><time>2025-2-13T2:36:7Z</time></trkpt>
<trkpt lat="46.4635" lon="6.97421"><ele></ele><time>2025-2-13T2:36:10Z</time></trkpt>
<trkpt lat="46.46356" lon="6.97419"><ele></ele><time>2025-2-13T2:36:13Z</time></trkpt>
<trkpt lat="46.46365" lon="6.97417"><ele></ele><time>2025-2-13T2:36:16Z</time></trkpt>
<trkpt lat="46.4637" lon="6.97416"><ele></ele><time>2025-2-13T2:36:19Z</time></trkpt>
<trkpt lat="46.46379" lon="6.97413"><ele></ele><time>2025-2-13T2:36:22Z</time></trkpt>
<trkpt lat="46.46382" lon="6.97414"><ele></ele><time>2025-2-13T2:36:25Z</time></trkpt>
<trkpt lat="46.46394" lon="6.97417"><ele></ele><time>2025-2-13T2:36:28Z</time></trkpt>
<trkpt lat="46.46395" lon="6.97417"><ele></ele><time>2025-2-13T2:36:31Z</time></trkpt>
<trkpt lat="46.46407" lon="6.97419"><ele></ele><time>2025-2-13T2:36:34Z</time></trkpt>
<trkpt lat="46.46408" lon="6.97419"><ele></ele><time>2025-2-13T2:36:37Z</time></trkpt>
<trkpt lat="46.46422" lon="6.97415"><ele></ele><time>2025-2-13T2:36:40Z</time></trkpt>
<trkpt lat="46.46426" lon="6.97414"><ele></ele><time>2025-2-13T2:36:43Z</time></trkpt>
<trkpt lat="46.46439" lon="6.97412"><ele></ele><time>2025-2-13T2:36:46Z</time></trkpt>
<trkpt lat="46.46441" lon="6.97413"><ele></ele><time>2025-2-13T2:36:49Z</time></trkpt>
<trkpt lat="46.46453" lon="6.97413"><ele></ele><time>2025-2-13T2:36:52Z</time></trkpt>
<trkpt lat="46.46457" lon="6.97413"><ele></ele><time>2025-2-13T2:36:55Z</time></trkpt>
<trkpt lat="46.46465" lon="6.97411"><ele></ele><time>2025-2-13T2:36:58Z</time></trkpt>
<trkpt lat="46.4647" lon="6.97409"><ele></ele><time>2025-2-13T2:37:1Z</time></trkpt>
<trkpt lat="46.46474" lon="6.9741"><ele></ele><time>2025-2-13T2:37:4Z</time></trkpt>
<trkpt lat="46.46483" lon="6.97407"><ele></ele><time>2025-2-13T2:37:7Z</time></trkpt>
<trkpt lat="46.46486" lon="6.97404"><ele></ele><time>2025-2-13T2:37:10Z</time></trkpt>
<trkpt lat="46.46496" lon="6.97397"><ele></ele><time>2025-2-13T2:37:13Z</time></trkpt>
<trkpt lat="46.46506" lon="6.97391"><ele></ele><time>2025-2-13T2:37:16Z</time></trkpt>
<trkpt lat="46.46511" lon="6.97389"><ele></ele><time>2025-2-13T2:37:19Z</time></trkpt>
<trkpt lat="46.46526" lon="6.97383"><ele></ele><time>2025-2-13T2:37:22Z</time></trkpt>
<trkpt lat="46.46543" lon="6.97378"><ele></ele><time>2025-2-13T2:37:25Z</time></trkpt>
<trkpt lat="46.46545" lon="6.97377"><ele></ele><time>2025-2-13T2:37:28Z</time></trkpt>
<trkpt lat="46.46558" lon="6.97372"><ele></ele><time>2025-2-13T2:37:31Z</time></trkpt>
<trkpt lat="46.46568" lon="6.9737"><ele></ele><time>2025-2-13T2:37:34Z</time></trkpt>
<trkpt lat="46.46572" lon="6.97369"><ele></ele><time>2025-2-13T2:37:37Z</time></trkpt>
<trkpt lat="46.4658" lon="6.97367"><ele></ele><time>2025-2-13T2:37:40Z</time></trkpt>
<trkpt lat="46.4659" lon="6.97361"><ele></ele><time>2025-2-13T2:37:43Z</time></trkpt>
<trkpt lat="46.46605" lon="6.97351"><ele></ele><time>2025-2-13T2:37:46Z</time></trkpt>
<trkpt lat="46.46607" lon="6.9735"><ele></ele><time>2025-2-13T2:37:49Z</time></trkpt>
<trkpt lat="46.4662" lon="6.97347"><ele></ele><time>2025-2-13T2:37:52Z</time></trkpt>
<trkpt lat="46.46628" lon="6.9735"><ele></ele><time>2025-2-13T2:37:55Z</time></trkpt>
<trkpt lat="46.46637" lon="6.97351"><ele></ele><time>2025-2-13T2:37:58Z</time></trkpt>
<trkpt lat="46.46643" lon="6.9735"><ele></ele><time>2025-2-13T2:38:1Z</time></trkpt>
<trkpt lat="46.46643" lon="6.9735"><ele></ele><time>2025-2-13T2:38:4Z</time></trkpt>
<trkpt lat="46.46643" lon="6.9735"><ele></ele><time>2025-2-13T2:38:7Z</time></trkpt>
<trkpt lat="46.46643" lon="6.9735"><ele></ele><time>2025-2-13T2:38:10Z</time></trkpt>
<trkpt lat="46.46643" lon="6.9735"><ele></ele><time>2025-2-13T2:38:13Z</time></trkpt>
<trkpt lat="46.46642" lon="6.97351"><ele></ele><time>2025-2-13T2:38:16Z</time></trkpt>
<trkpt lat="46.46642" lon="6.97353"><ele></ele><time>2025-2-13T2:38:19Z</time></trkpt>
<trkpt lat="46.46642" lon="6.97351"><ele></ele><time>2025-2-13T2:38:22Z</time></trkpt>
<trkpt lat="46.46642" lon="6.97351"><ele></ele><time>2025-2-13T2:38:25Z</time></trkpt>
<trkpt lat="46.46642" lon="6.97352"><ele></ele><time>2025-2-13T2:38:28Z</time></trkpt>
<trkpt lat="46.46642" lon="6.97353"><ele></ele><time>2025-2-13T2:38:31Z</time></trkpt>
<trkpt lat="46.46642" lon="6.97351"><ele></ele><time>2025-2-13T2:38:34Z</time></trkpt>
<trkpt lat="46.46645" lon="6.97346"><ele></ele><time>2025-2-13T2:38:37Z</time></trkpt>
<trkpt lat="46.46652" lon="6.9734"><ele></ele><time>2025-2-13T2:38:40Z</time></trkpt>
<trkpt lat="46.46652" lon="6.97338"><ele></ele><time>2025-2-13T2:38:43Z</time></trkpt>
<trkpt lat="46.46651" lon="6.97338"><ele></ele><time>2025-2-13T2:38:46Z</time></trkpt>
<trkpt lat="46.46649" lon="6.97345"><ele></ele><time>2025-2-13T2:38:49Z</time></trkpt>
<trkpt lat="46.46646" lon="6.97348"><ele></ele><time>2025-2-13T2:38:52Z</time></trkpt>
<trkpt lat="46.46639" lon="6.97351"><ele></ele><time>2025-2-13T2:38:55Z</time></trkpt>
<trkpt lat="46.46635" lon="6.97351"><ele></ele><time>2025-2-13T2:38:58Z</time></trkpt>
<trkpt lat="46.46621" lon="6.97347"><ele></ele><time>2025-2-13T2:39:1Z</time></trkpt>
<trkpt lat="46.46607" lon="6.97347"><ele></ele><time>2025-2-13T2:39:4Z</time></trkpt>
<trkpt lat="46.46605" lon="6.97348"><ele></ele><time>2025-2-13T2:39:7Z</time></trkpt>
<trkpt lat="46.46606" lon="6.9735"><ele></ele><time>2025-2-13T2:39:10Z</time></trkpt>
<trkpt lat="46.4661" lon="6.97348"><ele></ele><time>2025-2-13T2:39:13Z</time></trkpt>
<trkpt lat="46.46616" lon="6.97347"><ele></ele><time>2025-2-13T2:39:16Z</time></trkpt>
<trkpt lat="46.46636" lon="6.97351"><ele></ele><time>2025-2-13T2:39:19Z</time></trkpt>
<trkpt lat="46.46639" lon="6.9735"><ele></ele><time>2025-2-13T2:39:22Z</time></trkpt>
<trkpt lat="46.46652" lon="6.97343"><ele></ele><time>2025-2-13T2:39:25Z</time></trkpt>
<trkpt lat="46.46652" lon="6.9734"><ele></ele><time>2025-2-13T2:39:28Z</time></trkpt>
<trkpt lat="46.4665" lon="6.97338"><ele></ele><time>2025-2-13T2:39:31Z</time></trkpt>
<trkpt lat="46.46648" lon="6.97342"><ele></ele><time>2025-2-13T2:39:34Z</time></trkpt>
<trkpt lat="46.46645" lon="6.97348"><ele></ele><time>2025-2-13T2:39:37Z</time></trkpt>
<trkpt lat="46.46644" lon="6.97351"><ele></ele><time>2025-2-13T2:39:40Z</time></trkpt>
<trkpt lat="46.46641" lon="6.97353"><ele></ele><time>2025-2-13T2:39:43Z</time></trkpt>
<trkpt lat="46.46641" lon="6.97353"><ele></ele><time>2025-2-13T2:39:46Z</time></trkpt>
<trkpt lat="46.46641" lon="6.97352"><ele></ele><time>2025-2-13T2:39:49Z</time></trkpt>
<trkpt lat="46.46643" lon="6.97351"><ele></ele><time>2025-2-13T2:39:52Z</time></trkpt>
<trkpt lat="46.46642" lon="6.97353"><ele></ele><time>2025-2-13T2:39:55Z</time></trkpt>
<trkpt lat="46.46641" lon="6.97352"><ele></ele><time>2025-2-13T2:39:58Z</time></trkpt>
<trkpt lat="46.46636" lon="6.97349"><ele></ele><time>2025-2-13T2:40:1Z</time></trkpt>
<trkpt lat="46.46625" lon="6.97346"><ele></ele><time>2025-2-13T2:40:4Z</time></trkpt>
<trkpt lat="46.46623" lon="6.97347"><ele></ele><time>2025-2-13T2:40:7Z</time></trkpt>
<trkpt lat="46.46625" lon="6.97348"><ele></ele><time>2025-2-13T2:40:10Z</time></trkpt>
<trkpt lat="46.46632" lon="6.97351"><ele></ele><time>2025-2-13T2:40:13Z</time></trkpt>
<trkpt lat="46.46643" lon="6.97348"><ele></ele><time>2025-2-13T2:40:16Z</time></trkpt>
<trkpt lat="46.46653" lon="6.97332"><ele></ele><time>2025-2-13T2:40:19Z</time></trkpt>
<trkpt lat="46.46665" lon="6.97321"><ele></ele><time>2025-2-13T2:40:22Z</time></trkpt>
<trkpt lat="46.46668" lon="6.97322"><ele></ele><time>2025-2-13T2:40:25Z</time></trkpt>
<trkpt lat="46.46669" lon="6.97319"><ele></ele><time>2025-2-13T2:40:28Z</time></trkpt>
<trkpt lat="46.46667" lon="6.97319"><ele></ele><time>2025-2-13T2:40:31Z</time></trkpt>
<trkpt lat="46.46664" lon="6.97322"><ele></ele><time>2025-2-13T2:40:34Z</time></trkpt>
<trkpt lat="46.46653" lon="6.97333"><ele></ele><time>2025-2-13T2:40:37Z</time></trkpt>
<trkpt lat="46.46645" lon="6.97347"><ele></ele><time>2025-2-13T2:40:40Z</time></trkpt>
<trkpt lat="46.46637" lon="6.9735"><ele></ele><time>2025-2-13T2:40:43Z</time></trkpt>
<trkpt lat="46.46633" lon="6.97353"><ele></ele><time>2025-2-13T2:40:46Z</time></trkpt>
<trkpt lat="46.46639" lon="6.97353"><ele></ele><time>2025-2-13T2:40:49Z</time></trkpt>
<trkpt lat="46.4664" lon="6.97353"><ele></ele><time>2025-2-13T2:40:52Z</time></trkpt>
<trkpt lat="46.4664" lon="6.97353"><ele></ele><time>2025-2-13T2:40:55Z</time></trkpt>
<trkpt lat="46.4664" lon="6.97353"><ele></ele><time>2025-2-13T2:40:58Z</time></trkpt>
<trkpt lat="46.4664" lon="6.97353"><ele></ele><time>2025-2-13T2:41:1Z</time></trkpt>
<trkpt lat="46.46641" lon="6.97352"><ele></ele><time>2025-2-13T2:41:4Z</time></trkpt>
<trkpt lat="46.46641" lon="6.97351"><ele></ele><time>2025-2-13T2:41:7Z</time></trkpt>
<trkpt lat="46.46641" lon="6.97351"><ele></ele><time>2025-2-13T2:41:10Z</time></trkpt>
<trkpt lat="46.46642" lon="6.97352"><ele></ele><time>2025-2-13T2:41:13Z</time></trkpt>
<trkpt lat="46.46641" lon="6.97353"><ele></ele><time>2025-2-13T2:41:16Z</time></trkpt>
<trkpt lat="46.46641" lon="6.97352"><ele></ele><time>2025-2-13T2:41:19Z</time></trkpt>
<trkpt lat="46.46641" lon="6.97351"><ele></ele><time>2025-2-13T2:41:22Z</time></trkpt>
<trkpt lat="46.46641" lon="6.97349"><ele></ele><time>2025-2-13T2:41:25Z</time></trkpt>
<trkpt lat="46.46644" lon="6.97346"><ele></ele><time>2025-2-13T2:41:28Z</time></trkpt>
<trkpt lat="46.46653" lon="6.97332"><ele></ele><time>2025-2-13T2:41:31Z</time></trkpt>
<trkpt lat="46.46665" lon="6.9732"><ele></ele><time>2025-2-13T2:41:34Z</time></trkpt>
<trkpt lat="46.4668" lon="6.97321"><ele></ele><time>2025-2-13T2:41:37Z</time></trkpt>
<trkpt lat="46.46683" lon="6.97323"><ele></ele><time>2025-2-13T2:41:40Z</time></trkpt>
<trkpt lat="46.46703" lon="6.97333"><ele></ele><time>2025-2-13T2:41:43Z</time></trkpt>
<trkpt lat="46.46717" lon="6.97333"><ele></ele><time>2025-2-13T2:41:46Z</time></trkpt>
<trkpt lat="46.46723" lon="6.97333"><ele></ele><time>2025-2-13T2:41:49Z</time></trkpt>
<trkpt lat="46.46749" lon="6.97339"><ele></ele><time>2025-2-13T2:41:52Z</time></trkpt>
<trkpt lat="46.46752" lon="6.9734"><ele></ele><time>2025-2-13T2:41:55Z</time></trkpt>
<trkpt lat="46.46759" lon="6.97342"><ele></ele><time>2025-2-13T2:41:58Z</time></trkpt>
<trkpt lat="46.46776" lon="6.97343"><ele></ele><time>2025-2-13T2:42:1Z</time></trkpt>
<trkpt lat="46.46782" lon="6.97328"><ele></ele><time>2025-2-13T2:42:4Z</time></trkpt>
<trkpt lat="46.46783" lon="6.97322"><ele></ele><time>2025-2-13T2:42:7Z</time></trkpt>
<trkpt lat="46.46783" lon="6.97316"><ele></ele><time>2025-2-13T2:42:10Z</time></trkpt>
<trkpt lat="46.46786" lon="6.97297"><ele></ele><time>2025-2-13T2:42:13Z</time></trkpt>
<trkpt lat="46.46789" lon="6.97292"><ele></ele><time>2025-2-13T2:42:16Z</time></trkpt>
<trkpt lat="46.46792" lon="6.97288"><ele></ele><time>2025-2-13T2:42:19Z</time></trkpt>
<trkpt lat="46.46796" lon="6.97285"><ele></ele><time>2025-2-13T2:42:22Z</time></trkpt>
<trkpt lat="46.468" lon="6.97284"><ele></ele><time>2025-2-13T2:42:25Z</time></trkpt>
<trkpt lat="46.46808" lon="6.97284"><ele></ele><time>2025-2-13T2:42:28Z</time></trkpt>
<trkpt lat="46.46817" lon="6.97286"><ele></ele><time>2025-2-13T2:42:31Z</time></trkpt>
<trkpt lat="46.46821" lon="6.97287"><ele></ele><time>2025-2-13T2:42:34Z</time></trkpt>
<trkpt lat="46.4683" lon="6.97282"><ele></ele><time>2025-2-13T2:42:37Z</time></trkpt>
<trkpt lat="46.46833" lon="6.97278"><ele></ele><time>2025-2-13T2:42:40Z</time></trkpt>
<trkpt lat="46.46836" lon="6.97273"><ele></ele><time>2025-2-13T2:42:43Z</time></trkpt>
<trkpt lat="46.46843" lon="6.97264"><ele></ele><time>2025-2-13T2:42:46Z</time></trkpt>
<trkpt lat="46.46852" lon="6.97258"><ele></ele><time>2025-2-13T2:42:49Z</time></trkpt>
<trkpt lat="46.46874" lon="6.9725"><ele></ele><time>2025-2-13T2:42:52Z</time></trkpt>
<trkpt lat="46.46879" lon="6.9725"><ele></ele><time>2025-2-13T2:42:55Z</time></trkpt>
<trkpt lat="46.46903" lon="6.97252"><ele></ele><time>2025-2-13T2:42:58Z</time></trkpt>
<trkpt lat="46.46907" lon="6.97252"><ele></ele><time>2025-2-13T2:43:1Z</time></trkpt>
<trkpt lat="46.46927" lon="6.97252"><ele></ele><time>2025-2-13T2:43:4Z</time></trkpt>
<trkpt lat="46.4694" lon="6.97255"><ele></ele><time>2025-2-13T2:43:7Z</time></trkpt>
<trkpt lat="46.46947" lon="6.97258"><ele></ele><time>2025-2-13T2:43:10Z</time></trkpt>
<trkpt lat="46.46952" lon="6.97261"><ele></ele><time>2025-2-13T2:43:13Z</time></trkpt>
<trkpt lat="46.46963" lon="6.97265"><ele></ele><time>2025-2-13T2:43:16Z</time></trkpt>
<trkpt lat="46.46975" lon="6.97272"><ele></ele><time>2025-2-13T2:43:19Z</time></trkpt>
<trkpt lat="46.46993" lon="6.97272"><ele></ele><time>2025-2-13T2:43:22Z</time></trkpt>
<trkpt lat="46.46997" lon="6.97273"><ele></ele><time>2025-2-13T2:43:25Z</time></trkpt>
<trkpt lat="46.47003" lon="6.97272"><ele></ele><time>2025-2-13T2:43:28Z</time></trkpt>
<trkpt lat="46.47008" lon="6.97273"><ele></ele><time>2025-2-13T2:43:31Z</time></trkpt>
<trkpt lat="46.47012" lon="6.97275"><ele></ele><time>2025-2-13T2:43:34Z</time></trkpt>
<trkpt lat="46.47021" lon="6.9728"><ele></ele><time>2025-2-13T2:43:37Z</time></trkpt>
<trkpt lat="46.4703" lon="6.97281"><ele></ele><time>2025-2-13T2:43:40Z</time></trkpt>
<trkpt lat="46.47038" lon="6.97281"><ele></ele><time>2025-2-13T2:43:43Z</time></trkpt>
<trkpt lat="46.47042" lon="6.97281"><ele></ele><time>2025-2-13T2:43:46Z</time></trkpt>
<trkpt lat="46.47048" lon="6.97281"><ele></ele><time>2025-2-13T2:43:49Z</time></trkpt>
<trkpt lat="46.47055" lon="6.97279"><ele></ele><time>2025-2-13T2:43:52Z</time></trkpt>
<trkpt lat="46.47063" lon="6.97273"><ele></ele><time>2025-2-13T2:43:55Z</time></trkpt>
<trkpt lat="46.47065" lon="6.97268"><ele></ele><time>2025-2-13T2:43:58Z</time></trkpt>
<trkpt lat="46.47071" lon="6.97249"><ele></ele><time>2025-2-13T2:44:1Z</time></trkpt>
<trkpt lat="46.47074" lon="6.97241"><ele></ele><time>2025-2-13T2:44:4Z</time></trkpt>
<trkpt lat="46.47078" lon="6.97232"><ele></ele><time>2025-2-13T2:44:7Z</time></trkpt>
<trkpt lat="46.47083" lon="6.97224"><ele></ele><time>2025-2-13T2:44:10Z</time></trkpt>
<trkpt lat="46.47089" lon="6.97216"><ele></ele><time>2025-2-13T2:44:13Z</time></trkpt>
<trkpt lat="46.47103" lon="6.972"><ele></ele><time>2025-2-13T2:44:16Z</time></trkpt>
<trkpt lat="46.47115" lon="6.97186"><ele></ele><time>2025-2-13T2:44:19Z</time></trkpt>
<trkpt lat="46.47122" lon="6.97183"><ele></ele><time>2025-2-13T2:44:22Z</time></trkpt>
<trkpt lat="46.47129" lon="6.97185"><ele></ele><time>2025-2-13T2:44:25Z</time></trkpt>
<trkpt lat="46.47135" lon="6.9719"><ele></ele><time>2025-2-13T2:44:28Z</time></trkpt>
<trkpt lat="46.47141" lon="6.97195"><ele></ele><time>2025-2-13T2:44:31Z</time></trkpt>
<trkpt lat="46.47154" lon="6.972"><ele></ele><time>2025-2-13T2:44:34Z</time></trkpt>
<trkpt lat="46.4716" lon="6.97199"><ele></ele><time>2025-2-13T2:44:37Z</time></trkpt>
<trkpt lat="46.47166" lon="6.97196"><ele></ele><time>2025-2-13T2:44:40Z</time></trkpt>
<trkpt lat="46.47171" lon="6.97192"><ele></ele><time>2025-2-13T2:44:43Z</time></trkpt>
<trkpt lat="46.47175" lon="6.97189"><ele></ele><time>2025-2-13T2:44:46Z</time></trkpt>
<trkpt lat="46.47184" lon="6.97184"><ele></ele><time>2025-2-13T2:44:49Z</time></trkpt>
<trkpt lat="46.47185" lon="6.97183"><ele></ele><time>2025-2-13T2:44:52Z</time></trkpt>
<trkpt lat="46.47184" lon="6.97182"><ele></ele><time>2025-2-13T2:44:55Z</time></trkpt>
<trkpt lat="46.47185" lon="6.97181"><ele></ele><time>2025-2-13T2:44:58Z</time></trkpt>
<trkpt lat="46.4719" lon="6.97182"><ele></ele><time>2025-2-13T2:45:1Z</time></trkpt>
<trkpt lat="46.47191" lon="6.97181"><ele></ele><time>2025-2-13T2:45:4Z</time></trkpt>
<trkpt lat="46.47192" lon="6.97179"><ele></ele><time>2025-2-13T2:45:7Z</time></trkpt>
<trkpt lat="46.47194" lon="6.97177"><ele></ele><time>2025-2-13T2:45:10Z</time></trkpt>
<trkpt lat="46.47196" lon="6.97175"><ele></ele><time>2025-2-13T2:45:13Z</time></trkpt>
<trkpt lat="46.47199" lon="6.97173"><ele></ele><time>2025-2-13T2:45:16Z</time></trkpt>
<trkpt lat="46.47202" lon="6.97173"><ele></ele><time>2025-2-13T2:45:19Z</time></trkpt>
<trkpt lat="46.47207" lon="6.97171"><ele></ele><time>2025-2-13T2:45:22Z</time></trkpt>
<trkpt lat="46.47207" lon="6.9717"><ele></ele><time>2025-2-13T2:45:25Z</time></trkpt>
<trkpt lat="46.4721" lon="6.97165"><ele></ele><time>2025-2-13T2:45:28Z</time></trkpt>
<trkpt lat="46.47212" lon="6.97165"><ele></ele><time>2025-2-13T2:45:31Z</time></trkpt>
<trkpt lat="46.47213" lon="6.97163"><ele></ele><time>2025-2-13T2:45:34Z</time></trkpt>
<trkpt lat="46.47214" lon="6.97162"><ele></ele><time>2025-2-13T2:45:37Z</time></trkpt>
<trkpt lat="46.47215" lon="6.9716"><ele></ele><time>2025-2-13T2:45:40Z</time></trkpt>
<trkpt lat="46.47216" lon="6.97159"><ele></ele><time>2025-2-13T2:45:43Z</time></trkpt>
<trkpt lat="46.47218" lon="6.97156"><ele></ele><time>2025-2-13T2:45:46Z</time></trkpt>
<trkpt lat="46.47223" lon="6.97149"><ele></ele><time>2025-2-13T2:45:49Z</time></trkpt>
<trkpt lat="46.47226" lon="6.97147"><ele></ele><time>2025-2-13T2:45:52Z</time></trkpt>
<trkpt lat="46.47232" lon="6.97139"><ele></ele><time>2025-2-13T2:45:55Z</time></trkpt>
<trkpt lat="46.47241" lon="6.97119"><ele></ele><time>2025-2-13T2:45:58Z</time></trkpt>
<trkpt lat="46.47252" lon="6.97102"><ele></ele><time>2025-2-13T2:46:1Z</time></trkpt>
<trkpt lat="46.47254" lon="6.97091"><ele></ele><time>2025-2-13T2:46:4Z</time></trkpt>
<trkpt lat="46.4725" lon="6.97077"><ele></ele><time>2025-2-13T2:46:7Z</time></trkpt>
<trkpt lat="46.47247" lon="6.97067"><ele></ele><time>2025-2-13T2:46:10Z</time></trkpt>
<trkpt lat="46.47242" lon="6.97054"><ele></ele><time>2025-2-13T2:46:13Z</time></trkpt>
<trkpt lat="46.47242" lon="6.97029"><ele></ele><time>2025-2-13T2:46:16Z</time></trkpt>
<trkpt lat="46.47249" lon="6.97019"><ele></ele><time>2025-2-13T2:46:19Z</time></trkpt>
<trkpt lat="46.47251" lon="6.97015"><ele></ele><time>2025-2-13T2:46:22Z</time></trkpt>
<trkpt lat="46.47255" lon="6.97006"><ele></ele><time>2025-2-13T2:46:25Z</time></trkpt>
<trkpt lat="46.47262" lon="6.96986"><ele></ele><time>2025-2-13T2:46:28Z</time></trkpt>
<trkpt lat="46.47263" lon="6.96982"><ele></ele><time>2025-2-13T2:46:31Z</time></trkpt>
<trkpt lat="46.47267" lon="6.96968"><ele></ele><time>2025-2-13T2:46:34Z</time></trkpt>
<trkpt lat="46.47269" lon="6.96965"><ele></ele><time>2025-2-13T2:46:37Z</time></trkpt>
<trkpt lat="46.47277" lon="6.96953"><ele></ele><time>2025-2-13T2:46:40Z</time></trkpt>
<trkpt lat="46.47285" lon="6.96941"><ele></ele><time>2025-2-13T2:46:43Z</time></trkpt>
<trkpt lat="46.47287" lon="6.96932"><ele></ele><time>2025-2-13T2:46:46Z</time></trkpt>
<trkpt lat="46.47287" lon="6.96916"><ele></ele><time>2025-2-13T2:46:49Z</time></trkpt>
<trkpt lat="46.47285" lon="6.96897"><ele></ele><time>2025-2-13T2:46:52Z</time></trkpt>
<trkpt lat="46.47281" lon="6.96877"><ele></ele><time>2025-2-13T2:46:55Z</time></trkpt>
<trkpt lat="46.47278" lon="6.9687"><ele></ele><time>2025-2-13T2:46:58Z</time></trkpt>
<trkpt lat="46.4727" lon="6.9686"><ele></ele><time>2025-2-13T2:47:1Z</time></trkpt>
<trkpt lat="46.47239" lon="6.96836"><ele></ele><time>2025-2-13T2:47:4Z</time></trkpt>
<trkpt lat="46.47208" lon="6.96819"><ele></ele><time>2025-2-13T2:47:7Z</time></trkpt>
<trkpt lat="46.47197" lon="6.96809"><ele></ele><time>2025-2-13T2:47:10Z</time></trkpt>
<trkpt lat="46.47193" lon="6.96797"><ele></ele><time>2025-2-13T2:47:13Z</time></trkpt>
<trkpt lat="46.47197" lon="6.96785"><ele></ele><time>2025-2-13T2:47:16Z</time></trkpt>
<trkpt lat="46.47199" lon="6.9678"><ele></ele><time>2025-2-13T2:47:19Z</time></trkpt>
<trkpt lat="46.47202" lon="6.96775"><ele></ele><time>2025-2-13T2:47:22Z</time></trkpt>
<trkpt lat="46.47207" lon="6.96766"><ele></ele><time>2025-2-13T2:47:25Z</time></trkpt>
<trkpt lat="46.47214" lon="6.96754"><ele></ele><time>2025-2-13T2:47:28Z</time></trkpt>
<trkpt lat="46.47223" lon="6.96742"><ele></ele><time>2025-2-13T2:47:31Z</time></trkpt>
<trkpt lat="46.47225" lon="6.96741"><ele></ele><time>2025-2-13T2:47:34Z</time></trkpt>
<trkpt lat="46.47229" lon="6.96737"><ele></ele><time>2025-2-13T2:47:37Z</time></trkpt>
<trkpt lat="46.4723" lon="6.96736"><ele></ele><time>2025-2-13T2:47:40Z</time></trkpt>
<trkpt lat="46.47237" lon="6.96735"><ele></ele><time>2025-2-13T2:47:43Z</time></trkpt>
<trkpt lat="46.47243" lon="6.96735"><ele></ele><time>2025-2-13T2:47:46Z</time></trkpt>
<trkpt lat="46.47246" lon="6.96735"><ele></ele><time>2025-2-13T2:47:49Z</time></trkpt>
<trkpt lat="46.47257" lon="6.96738"><ele></ele><time>2025-2-13T2:47:52Z</time></trkpt>
<trkpt lat="46.47266" lon="6.96746"><ele></ele><time>2025-2-13T2:47:55Z</time></trkpt>
<trkpt lat="46.47269" lon="6.96748"><ele></ele><time>2025-2-13T2:47:58Z</time></trkpt>
<trkpt lat="46.47273" lon="6.96753"><ele></ele><time>2025-2-13T2:48:1Z</time></trkpt>
<trkpt lat="46.47276" lon="6.96757"><ele></ele><time>2025-2-13T2:48:4Z</time></trkpt>
<trkpt lat="46.47282" lon="6.96769"><ele></ele><time>2025-2-13T2:48:7Z</time></trkpt>
<trkpt lat="46.47285" lon="6.96773"><ele></ele><time>2025-2-13T2:48:10Z</time></trkpt>
<trkpt lat="46.47287" lon="6.96777"><ele></ele><time>2025-2-13T2:48:13Z</time></trkpt>
<trkpt lat="46.47291" lon="6.96784"><ele></ele><time>2025-2-13T2:48:16Z</time></trkpt>
<trkpt lat="46.47293" lon="6.96788"><ele></ele><time>2025-2-13T2:48:19Z</time></trkpt>
<trkpt lat="46.473" lon="6.96798"><ele></ele><time>2025-2-13T2:48:22Z</time></trkpt>
<trkpt lat="46.47301" lon="6.968"><ele></ele><time>2025-2-13T2:48:25Z</time></trkpt>
<trkpt lat="46.4731" lon="6.96812"><ele></ele><time>2025-2-13T2:48:28Z</time></trkpt>
<trkpt lat="46.47323" lon="6.9682"><ele></ele><time>2025-2-13T2:48:31Z</time></trkpt>
<trkpt lat="46.47333" lon="6.96823"><ele></ele><time>2025-2-13T2:48:34Z</time></trkpt>
<trkpt lat="46.47342" lon="6.96822"><ele></ele><time>2025-2-13T2:48:37Z</time></trkpt>
<trkpt lat="46.47356" lon="6.96821"><ele></ele><time>2025-2-13T2:48:40Z</time></trkpt>
<trkpt lat="46.47375" lon="6.96815"><ele></ele><time>2025-2-13T2:48:43Z</time></trkpt>
<trkpt lat="46.47381" lon="6.96812"><ele></ele><time>2025-2-13T2:48:46Z</time></trkpt>
<trkpt lat="46.47405" lon="6.96802"><ele></ele><time>2025-2-13T2:48:49Z</time></trkpt>
<trkpt lat="46.47418" lon="6.96797"><ele></ele><time>2025-2-13T2:48:52Z</time></trkpt>
<trkpt lat="46.47428" lon="6.96792"><ele></ele><time>2025-2-13T2:48:55Z</time></trkpt>
<trkpt lat="46.47446" lon="6.96786"><ele></ele><time>2025-2-13T2:48:58Z</time></trkpt>
<trkpt lat="46.47448" lon="6.96786"><ele></ele><time>2025-2-13T2:49:1Z</time></trkpt>
<trkpt lat="46.47458" lon="6.9678"><ele></ele><time>2025-2-13T2:49:4Z</time></trkpt>
<trkpt lat="46.47459" lon="6.96778"><ele></ele><time>2025-2-13T2:49:7Z</time></trkpt>
<trkpt lat="46.47469" lon="6.96776"><ele></ele><time>2025-2-13T2:49:10Z</time></trkpt>
<trkpt lat="46.47476" lon="6.96772"><ele></ele><time>2025-2-13T2:49:13Z</time></trkpt>
<trkpt lat="46.4748" lon="6.96769"><ele></ele><time>2025-2-13T2:49:16Z</time></trkpt>
<trkpt lat="46.47489" lon="6.96764"><ele></ele><time>2025-2-13T2:49:19Z</time></trkpt>
<trkpt lat="46.47497" lon="6.9676"><ele></ele><time>2025-2-13T2:49:22Z</time></trkpt>
<trkpt lat="46.47498" lon="6.96759"><ele></ele><time>2025-2-13T2:49:25Z</time></trkpt>
<trkpt lat="46.47511" lon="6.96753"><ele></ele><time>2025-2-13T2:49:28Z</time></trkpt>
<trkpt lat="46.47517" lon="6.96751"><ele></ele><time>2025-2-13T2:49:31Z</time></trkpt>
<trkpt lat="46.47529" lon="6.96746"><ele></ele><time>2025-2-13T2:49:34Z</time></trkpt>
<trkpt lat="46.47533" lon="6.96745"><ele></ele><time>2025-2-13T2:49:37Z</time></trkpt>
<trkpt lat="46.47539" lon="6.96743"><ele></ele><time>2025-2-13T2:49:40Z</time></trkpt>
<trkpt lat="46.47551" lon="6.96741"><ele></ele><time>2025-2-13T2:49:43Z</time></trkpt>
<trkpt lat="46.47564" lon="6.96739"><ele></ele><time>2025-2-13T2:49:46Z</time></trkpt>
<trkpt lat="46.4757" lon="6.96738"><ele></ele><time>2025-2-13T2:49:49Z</time></trkpt>
<trkpt lat="46.47581" lon="6.96737"><ele></ele><time>2025-2-13T2:49:52Z</time></trkpt>
<trkpt lat="46.47592" lon="6.96735"><ele></ele><time>2025-2-13T2:49:55Z</time></trkpt>
<trkpt lat="46.476" lon="6.96732"><ele></ele><time>2025-2-13T2:49:58Z</time></trkpt>
<trkpt lat="46.47608" lon="6.96731"><ele></ele><time>2025-2-13T2:50:1Z</time></trkpt>
<trkpt lat="46.47619" lon="6.96729"><ele></ele><time>2025-2-13T2:50:4Z</time></trkpt>
<trkpt lat="46.47626" lon="6.96727"><ele></ele><time>2025-2-13T2:50:7Z</time></trkpt>
<trkpt lat="46.47643" lon="6.96727"><ele></ele><time>2025-2-13T2:50:10Z</time></trkpt>
<trkpt lat="46.4765" lon="6.96728"><ele></ele><time>2025-2-13T2:50:13Z</time></trkpt>
<trkpt lat="46.47651" lon="6.96729"><ele></ele><time>2025-2-13T2:50:16Z</time></trkpt>
<trkpt lat="46.47652" lon="6.96731"><ele></ele><time>2025-2-13T2:50:19Z</time></trkpt>
<trkpt lat="46.4765" lon="6.9674"><ele></ele><time>2025-2-13T2:50:22Z</time></trkpt>
<trkpt lat="46.47649" lon="6.96741"><ele></ele><time>2025-2-13T2:50:25Z</time></trkpt>
<trkpt lat="46.47645" lon="6.96745"><ele></ele><time>2025-2-13T2:50:28Z</time></trkpt>
<trkpt lat="46.47642" lon="6.96748"><ele></ele><time>2025-2-13T2:50:31Z</time></trkpt>
<trkpt lat="46.4764" lon="6.96751"><ele></ele><time>2025-2-13T2:50:34Z</time></trkpt>
<trkpt lat="46.47639" lon="6.96756"><ele></ele><time>2025-2-13T2:50:37Z</time></trkpt>
<trkpt lat="46.47638" lon="6.96758"><ele></ele><time>2025-2-13T2:50:40Z</time></trkpt>
<trkpt lat="46.47636" lon="6.96759"><ele></ele><time>2025-2-13T2:50:43Z</time></trkpt>
<trkpt lat="46.47634" lon="6.96761"><ele></ele><time>2025-2-13T2:50:46Z</time></trkpt>
<trkpt lat="46.47636" lon="6.96761"><ele></ele><time>2025-2-13T2:50:49Z</time></trkpt>
<trkpt lat="46.47636" lon="6.96761"><ele></ele><time>2025-2-13T2:50:52Z</time></trkpt>
<trkpt lat="46.47638" lon="6.96761"><ele></ele><time>2025-2-13T2:50:55Z</time></trkpt>
<trkpt lat="46.47639" lon="6.9676"><ele></ele><time>2025-2-13T2:50:58Z</time></trkpt>
<trkpt lat="46.47639" lon="6.9676"><ele></ele><time>2025-2-13T2:51:1Z</time></trkpt>
<trkpt lat="46.47639" lon="6.9676"><ele></ele><time>2025-2-13T2:51:4Z</time></trkpt>
<trkpt lat="46.47638" lon="6.9676"><ele></ele><time>2025-2-13T2:51:7Z</time></trkpt>
<trkpt lat="46.47638" lon="6.9676"><ele></ele><time>2025-2-13T2:51:10Z</time></trkpt>
<trkpt lat="46.47638" lon="6.9676"><ele></ele><time>2025-2-13T2:51:13Z</time></trkpt>
<trkpt lat="46.47638" lon="6.9676"><ele></ele><time>2025-2-13T2:51:16Z</time></trkpt>
<trkpt lat="46.47638" lon="6.9676"><ele></ele><time>2025-2-13T2:51:19Z</time></trkpt>
<trkpt lat="46.47638" lon="6.9676"><ele></ele><time>2025-2-13T2:51:22Z</time></trkpt>
<trkpt lat="46.47638" lon="6.9676"><ele></ele><time>2025-2-13T2:51:25Z</time></trkpt>
<trkpt lat="46.47638" lon="6.96761"><ele></ele><time>2025-2-13T2:51:28Z</time></trkpt>
<trkpt lat="46.47638" lon="6.9676"><ele></ele><time>2025-2-13T2:51:31Z</time></trkpt>
<trkpt lat="46.47638" lon="6.96761"><ele></ele><time>2025-2-13T2:51:34Z</time></trkpt>
<trkpt lat="46.47638" lon="6.96762"><ele></ele><time>2025-2-13T2:51:37Z</time></trkpt>
<trkpt lat="46.47638" lon="6.96761"><ele></ele><time>2025-2-13T2:51:40Z</time></trkpt>
<trkpt lat="46.47638" lon="6.96761"><ele></ele><time>2025-2-13T2:51:43Z</time></trkpt>
<trkpt lat="46.47638" lon="6.96761"><ele></ele><time>2025-2-13T2:51:46Z</time></trkpt>
<trkpt lat="46.47637" lon="6.96761"><ele></ele><time>2025-2-13T2:51:49Z</time></trkpt>
<trkpt lat="46.47637" lon="6.96761"><ele></ele><time>2025-2-13T2:51:52Z</time></trkpt>
<trkpt lat="46.47637" lon="6.96761"><ele></ele><time>2025-2-13T2:51:55Z</time></trkpt>
<trkpt lat="46.47637" lon="6.96761"><ele></ele><time>2025-2-13T2:51:58Z</time></trkpt>
<trkpt lat="46.47638" lon="6.9676"><ele></ele><time>2025-2-13T2:52:1Z</time></trkpt>
<trkpt lat="46.4764" lon="6.96752"><ele></ele><time>2025-2-13T2:52:4Z</time></trkpt>
<trkpt lat="46.4764" lon="6.96749"><ele></ele><time>2025-2-13T2:52:7Z</time></trkpt>
<trkpt lat="46.4764" lon="6.96749"><ele></ele><time>2025-2-13T2:52:10Z</time></trkpt>
<trkpt lat="46.4764" lon="6.9675"><ele></ele><time>2025-2-13T2:52:13Z</time></trkpt>
<trkpt lat="46.4764" lon="6.9675"><ele></ele><time>2025-2-13T2:52:16Z</time></trkpt>
<trkpt lat="46.4764" lon="6.96749"><ele></ele><time>2025-2-13T2:52:19Z</time></trkpt>
<trkpt lat="46.4764" lon="6.96749"><ele></ele><time>2025-2-13T2:52:22Z</time></trkpt>
<trkpt lat="46.47641" lon="6.96744"><ele></ele><time>2025-2-13T2:52:25Z</time></trkpt>
<trkpt lat="46.47643" lon="6.96741"><ele></ele><time>2025-2-13T2:52:28Z</time></trkpt>
<trkpt lat="46.4765" lon="6.96735"><ele></ele><time>2025-2-13T2:52:31Z</time></trkpt>
<trkpt lat="46.4765" lon="6.96731"><ele></ele><time>2025-2-13T2:52:34Z</time></trkpt>
<trkpt lat="46.47647" lon="6.96727"><ele></ele><time>2025-2-13T2:52:37Z</time></trkpt>
<trkpt lat="46.47644" lon="6.96726"><ele></ele><time>2025-2-13T2:52:40Z</time></trkpt>
<trkpt lat="46.4764" lon="6.96723"><ele></ele><time>2025-2-13T2:52:43Z</time></trkpt>
<trkpt lat="46.4764" lon="6.96722"><ele></ele><time>2025-2-13T2:52:46Z</time></trkpt>
<trkpt lat="46.4764" lon="6.96721"><ele></ele><time>2025-2-13T2:52:49Z</time></trkpt>
<trkpt lat="46.47639" lon="6.96721"><ele></ele><time>2025-2-13T2:52:52Z</time></trkpt>
<trkpt lat="46.47639" lon="6.96718"><ele></ele><time>2025-2-13T2:52:55Z</time></trkpt>
<trkpt lat="46.47639" lon="6.96718"><ele></ele><time>2025-2-13T2:52:58Z</time></trkpt>
<trkpt lat="46.47639" lon="6.96718"><ele></ele><time>2025-2-13T2:53:1Z</time></trkpt>
<trkpt lat="46.47639" lon="6.96719"><ele></ele><time>2025-2-13T2:53:4Z</time></trkpt>
<trkpt lat="46.47639" lon="6.96719"><ele></ele><time>2025-2-13T2:53:7Z</time></trkpt>
<trkpt lat="46.47639" lon="6.96718"><ele></ele><time>2025-2-13T2:53:10Z</time></trkpt>
<trkpt lat="46.4764" lon="6.96719"><ele></ele><time>2025-2-13T2:53:13Z</time></trkpt>
<trkpt lat="46.4764" lon="6.96721"><ele></ele><time>2025-2-13T2:53:16Z</time></trkpt>
<trkpt lat="46.47639" lon="6.96719"><ele></ele><time>2025-2-13T2:53:19Z</time></trkpt>
<trkpt lat="46.47639" lon="6.96718"><ele></ele><time>2025-2-13T2:53:22Z</time></trkpt>
<trkpt lat="46.47638" lon="6.96719"><ele></ele><time>2025-2-13T2:53:25Z</time></trkpt>
<trkpt lat="46.47638" lon="6.96718"><ele></ele><time>2025-2-13T2:53:28Z</time></trkpt>
<trkpt lat="46.47638" lon="6.96718"><ele></ele><time>2025-2-13T2:53:31Z</time></trkpt>
<trkpt lat="46.47639" lon="6.96719"><ele></ele><time>2025-2-13T2:53:34Z</time></trkpt>
<trkpt lat="46.47639" lon="6.96718"><ele></ele><time>2025-2-13T2:53:37Z</time></trkpt>
<trkpt lat="46.47638" lon="6.96718"><ele></ele><time>2025-2-13T2:53:40Z</time></trkpt>
<trkpt lat="46.47639" lon="6.96718"><ele></ele><time>2025-2-13T2:53:43Z</time></trkpt>
<trkpt lat="46.47638" lon="6.96718"><ele></ele><time>2025-2-13T2:53:46Z</time></trkpt>
<trkpt lat="46.47639" lon="6.96719"><ele></ele><time>2025-2-13T2:53:49Z</time></trkpt>
<trkpt lat="46.47639" lon="6.96719"><ele></ele><time>2025-2-13T2:53:52Z</time></trkpt>
<trkpt lat="46.47638" lon="6.96719"><ele></ele><time>2025-2-13T2:53:55Z</time></trkpt>
<trkpt lat="46.47639" lon="6.96718"><ele></ele><time>2025-2-13T2:53:58Z</time></trkpt>
<trkpt lat="46.47639" lon="6.96718"><ele></ele><time>2025-2-13T2:54:1Z</time></trkpt>
<trkpt lat="46.47638" lon="6.96718"><ele></ele><time>2025-2-13T2:54:4Z</time></trkpt>
<trkpt lat="46.47638" lon="6.96718"><ele></ele><time>2025-2-13T2:54:7Z</time></trkpt>
<trkpt lat="46.47639" lon="6.96719"><ele></ele><time>2025-2-13T2:54:10Z</time></trkpt>
<trkpt lat="46.47639" lon="6.96719"><ele></ele><time>2025-2-13T2:54:13Z</time></trkpt>
<trkpt lat="46.47638" lon="6.96719"><ele></ele><time>2025-2-13T2:54:16Z</time></trkpt>
<trkpt lat="46.47639" lon="6.96718"><ele></ele><time>2025-2-13T2:54:19Z</time></trkpt>
<trkpt lat="46.47638" lon="6.96718"><ele></ele><time>2025-2-13T2:54:22Z</time></trkpt>
<trkpt lat="46.47639" lon="6.96718"><ele></ele><time>2025-2-13T2:54:25Z</time></trkpt>
<trkpt lat="46.47639" lon="6.96718"><ele></ele><time>2025-2-13T2:54:28Z</time></trkpt>
<trkpt lat="46.47639" lon="6.96717"><ele></ele><time>2025-2-13T2:54:31Z</time></trkpt>
<trkpt lat="46.47639" lon="6.96717"><ele></ele><time>2025-2-13T2:54:34Z</time></trkpt>
<trkpt lat="46.4764" lon="6.96718"><ele></ele><time>2025-2-13T2:54:37Z</time></trkpt>
<trkpt lat="46.4764" lon="6.96717"><ele></ele><time>2025-2-13T2:54:40Z</time></trkpt>
<trkpt lat="46.4764" lon="6.96717"><ele></ele><time>2025-2-13T2:54:43Z</time></trkpt>
<trkpt lat="46.47639" lon="6.96717"><ele></ele><time>2025-2-13T2:54:46Z</time></trkpt>
<trkpt lat="46.47639" lon="6.96716"><ele></ele><time>2025-2-13T2:54:49Z</time></trkpt>
<trkpt lat="46.47639" lon="6.96716"><ele></ele><time>2025-2-13T2:54:52Z</time></trkpt>
<trkpt lat="46.47639" lon="6.96716"><ele></ele><time>2025-2-13T2:54:55Z</time></trkpt>
<trkpt lat="46.47638" lon="6.96716"><ele></ele><time>2025-2-13T2:54:58Z</time></trkpt>
<trkpt lat="46.47638" lon="6.96717"><ele></ele><time>2025-2-13T2:55:1Z</time></trkpt>
<trkpt lat="46.47638" lon="6.96717"><ele></ele><time>2025-2-13T2:55:4Z</time></trkpt>
<trkpt lat="46.47638" lon="6.96717"><ele></ele><time>2025-2-13T2:55:7Z</time></trkpt>
<trkpt lat="46.47638" lon="6.96716"><ele></ele><time>2025-2-13T2:55:10Z</time></trkpt>
<trkpt lat="46.47639" lon="6.96716"><ele></ele><time>2025-2-13T2:55:13Z</time></trkpt>
<trkpt lat="46.47638" lon="6.96717"><ele></ele><time>2025-2-13T2:55:16Z</time></trkpt>
<trkpt lat="46.47637" lon="6.96717"><ele></ele><time>2025-2-13T2:55:19Z</time></trkpt>
<trkpt lat="46.47639" lon="6.96716"><ele></ele><time>2025-2-13T2:55:22Z</time></trkpt>
<trkpt lat="46.47639" lon="6.96716"><ele></ele><time>2025-2-13T2:55:25Z</time></trkpt>
<trkpt lat="46.47639" lon="6.96716"><ele></ele><time>2025-2-13T2:55:28Z</time></trkpt>
<trkpt lat="46.47639" lon="6.96717"><ele></ele><time>2025-2-13T2:55:31Z</time></trkpt>
<trkpt lat="46.47639" lon="6.96717"><ele></ele><time>2025-2-13T2:55:34Z</time></trkpt>
<trkpt lat="46.47639" lon="6.96717"><ele></ele><time>2025-2-13T2:55:37Z</time></trkpt>
<trkpt lat="46.47639" lon="6.96717"><ele></ele><time>2025-2-13T2:55:40Z</time></trkpt>
<trkpt lat="46.47639" lon="6.96717"><ele></ele><time>2025-2-13T2:55:43Z</time></trkpt>
<trkpt lat="46.47639" lon="6.96716"><ele></ele><time>2025-2-13T2:55:46Z</time></trkpt>
<trkpt lat="46.47639" lon="6.96716"><ele></ele><time>2025-2-13T2:55:49Z</time></trkpt>
<trkpt lat="46.47638" lon="6.96717"><ele></ele><time>2025-2-13T2:55:52Z</time></trkpt>
<trkpt lat="46.47639" lon="6.96717"><ele></ele><time>2025-2-13T2:55:55Z</time></trkpt>
<trkpt lat="46.4764" lon="6.96717"><ele></ele><time>2025-2-13T2:55:58Z</time></trkpt>
<trkpt lat="46.4764" lon="6.96716"><ele></ele><time>2025-2-13T2:56:1Z</time></trkpt>
<trkpt lat="46.4764" lon="6.96715"><ele></ele><time>2025-2-13T2:56:4Z</time></trkpt>
<trkpt lat="46.4764" lon="6.96715"><ele></ele><time>2025-2-13T2:56:7Z</time></trkpt>
<trkpt lat="46.47641" lon="6.96714"><ele></ele><time>2025-2-13T2:56:10Z</time></trkpt>
<trkpt lat="46.4764" lon="6.96717"><ele></ele><time>2025-2-13T2:56:13Z</time></trkpt>
<trkpt lat="46.47639" lon="6.96717"><ele></ele><time>2025-2-13T2:56:16Z</time></trkpt>
<trkpt lat="46.4764" lon="6.96717"><ele></ele><time>2025-2-13T2:56:19Z</time></trkpt>
<trkpt lat="46.47639" lon="6.96717"><ele></ele><time>2025-2-13T2:56:22Z</time></trkpt>
<trkpt lat="46.4764" lon="6.96717"><ele></ele><time>2025-2-13T2:56:25Z</time></trkpt>
<trkpt lat="46.47639" lon="6.96717"><ele></ele><time>2025-2-13T2:56:28Z</time></trkpt>
<trkpt lat="46.4764" lon="6.96718"><ele></ele><time>2025-2-13T2:56:31Z</time></trkpt>
<trkpt lat="46.4764" lon="6.96718"><ele></ele><time>2025-2-13T2:56:34Z</time></trkpt>
<trkpt lat="46.4764" lon="6.96718"><ele></ele><time>2025-2-13T2:56:37Z</time></trkpt>
<trkpt lat="46.47641" lon="6.96717"><ele></ele><time>2025-2-13T2:56:40Z</time></trkpt>
<trkpt lat="46.47641" lon="6.96717"><ele></ele><time>2025-2-13T2:56:43Z</time></trkpt>
<trkpt lat="46.47641" lon="6.96717"><ele></ele><time>2025-2-13T2:56:46Z</time></trkpt>
<trkpt lat="46.47642" lon="6.96716"><ele></ele><time>2025-2-13T2:56:49Z</time></trkpt>
<trkpt lat="46.4764" lon="6.96716"><ele></ele><time>2025-2-13T2:56:52Z</time></trkpt>
<trkpt lat="46.4764" lon="6.96716"><ele></ele><time>2025-2-13T2:56:55Z</time></trkpt>
<trkpt lat="46.4764" lon="6.96716"><ele></ele><time>2025-2-13T2:56:58Z</time></trkpt>
<trkpt lat="46.4764" lon="6.96717"><ele></ele><time>2025-2-13T2:57:1Z</time></trkpt>
<trkpt lat="46.4764" lon="6.96717"><ele></ele><time>2025-2-13T2:57:4Z</time></trkpt>
<trkpt lat="46.47641" lon="6.96718"><ele></ele><time>2025-2-13T2:57:7Z</time></trkpt>
<trkpt lat="46.47639" lon="6.96718"><ele></ele><time>2025-2-13T2:57:10Z</time></trkpt>
<trkpt lat="46.4764" lon="6.96717"><ele></ele><time>2025-2-13T2:57:13Z</time></trkpt>
<trkpt lat="46.4764" lon="6.96717"><ele></ele><time>2025-2-13T2:57:16Z</time></trkpt>
<trkpt lat="46.47641" lon="6.96718"><ele></ele><time>2025-2-13T2:57:19Z</time></trkpt>
<trkpt lat="46.47639" lon="6.96718"><ele></ele><time>2025-2-13T2:57:22Z</time></trkpt>
<trkpt lat="46.4764" lon="6.96717"><ele></ele><time>2025-2-13T2:57:25Z</time></trkpt>
<trkpt lat="46.47638" lon="6.96717"><ele></ele><time>2025-2-13T2:57:28Z</time></trkpt>
<trkpt lat="46.47639" lon="6.96717"><ele></ele><time>2025-2-13T2:57:31Z</time></trkpt>
<trkpt lat="46.47639" lon="6.96717"><ele></ele><time>2025-2-13T2:57:34Z</time></trkpt>
<trkpt lat="46.47639" lon="6.96717"><ele></ele><time>2025-2-13T2:57:37Z</time></trkpt>
<trkpt lat="46.4764" lon="6.96717"><ele></ele><time>2025-2-13T2:57:40Z</time></trkpt>
<trkpt lat="46.47639" lon="6.96717"><ele></ele><time>2025-2-13T2:57:43Z</time></trkpt>
<trkpt lat="46.47639" lon="6.96716"><ele></ele><time>2025-2-13T2:57:46Z</time></trkpt>
<trkpt lat="46.47639" lon="6.96717"><ele></ele><time>2025-2-13T2:57:49Z</time></trkpt>
<trkpt lat="46.47639" lon="6.96717"><ele></ele><time>2025-2-13T2:57:52Z</time></trkpt>
<trkpt lat="46.47638" lon="6.96718"><ele></ele><time>2025-2-13T2:57:55Z</time></trkpt>
<trkpt lat="46.47638" lon="6.96717"><ele></ele><time>2025-2-13T2:57:58Z</time></trkpt>
<trkpt lat="46.47639" lon="6.96717"><ele></ele><time>2025-2-13T2:58:1Z</time></trkpt>
<trkpt lat="46.47639" lon="6.96717"><ele></ele><time>2025-2-13T2:58:4Z</time></trkpt>
<trkpt lat="46.47639" lon="6.96716"><ele></ele><time>2025-2-13T2:58:7Z</time></trkpt>
<trkpt lat="46.47639" lon="6.96719"><ele></ele><time>2025-2-13T2:58:10Z</time></trkpt>
<trkpt lat="46.47639" lon="6.96717"><ele></ele><time>2025-2-13T2:58:13Z</time></trkpt>
<trkpt lat="46.47638" lon="6.96719"><ele></ele><time>2025-2-13T2:58:16Z</time></trkpt>
<trkpt lat="46.47639" lon="6.96717"><ele></ele><time>2025-2-13T2:58:19Z</time></trkpt>
<trkpt lat="46.47639" lon="6.96717"><ele></ele><time>2025-2-13T2:58:22Z</time></trkpt>
<trkpt lat="46.47639" lon="6.96717"><ele></ele><time>2025-2-13T2:58:25Z</time></trkpt>
<trkpt lat="46.47639" lon="6.96717"><ele></ele><time>2025-2-13T2:58:28Z</time></trkpt>
<trkpt lat="46.47638" lon="6.96718"><ele></ele><time>2025-2-13T2:58:31Z</time></trkpt>
<trkpt lat="46.47638" lon="6.96717"><ele></ele><time>2025-2-13T2:58:34Z</time></trkpt>
<trkpt lat="46.47639" lon="6.96717"><ele></ele><time>2025-2-13T2:58:37Z</time></trkpt>
<trkpt lat="46.47639" lon="6.96717"><ele></ele><time>2025-2-13T2:58:40Z</time></trkpt>
<trkpt lat="46.47638" lon="6.96716"><ele></ele><time>2025-2-13T2:58:43Z</time></trkpt>
<trkpt lat="46.47639" lon="6.96717"><ele></ele><time>2025-2-13T2:58:46Z</time></trkpt>
<trkpt lat="46.47639" lon="6.96716"><ele></ele><time>2025-2-13T2:58:49Z</time></trkpt>
<trkpt lat="46.47639" lon="6.96717"><ele></ele><time>2025-2-13T2:58:52Z</time></trkpt>
<trkpt lat="46.47639" lon="6.96717"><ele></ele><time>2025-2-13T2:58:55Z</time></trkpt>
<trkpt lat="46.47639" lon="6.96717"><ele></ele><time>2025-2-13T2:58:58Z</time></trkpt>
<trkpt lat="46.47639" lon="6.96717"><ele></ele><time>2025-2-13T2:59:1Z</time></trkpt>
<trkpt lat="46.47639" lon="6.96717"><ele></ele><time>2025-2-13T2:59:4Z</time></trkpt>
<trkpt lat="46.47639" lon="6.96717"><ele></ele><time>2025-2-13T2:59:7Z</time></trkpt>
<trkpt lat="46.47639" lon="6.96717"><ele></ele><time>2025-2-13T2:59:10Z</time></trkpt>
<trkpt lat="46.47639" lon="6.96717"><ele></ele><time>2025-2-13T2:59:13Z</time></trkpt>
<trkpt lat="46.47639" lon="6.96717"><ele></ele><time>2025-2-13T2:59:16Z</time></trkpt>
<trkpt lat="46.47639" lon="6.96717"><ele></ele><time>2025-2-13T2:59:19Z</time></trkpt>
<trkpt lat="46.47639" lon="6.96717"><ele></ele><time>2025-2-13T2:59:22Z</time></trkpt>
<trkpt lat="46.47639" lon="6.96717"><ele></ele><time>2025-2-13T2:59:25Z</time></trkpt>
<trkpt lat="46.47638" lon="6.96718"><ele></ele><time>2025-2-13T2:59:28Z</time></trkpt>
<trkpt lat="46.47639" lon="6.96717"><ele></ele><time>2025-2-13T2:59:31Z</time></trkpt>
<trkpt lat="46.47639" lon="6.9672"><ele></ele><time>2025-2-13T2:59:34Z</time></trkpt>
<trkpt lat="46.47639" lon="6.9672"><ele></ele><time>2025-2-13T2:59:37Z</time></trkpt>
<trkpt lat="46.47639" lon="6.96717"><ele></ele><time>2025-2-13T2:59:40Z</time></trkpt>
<trkpt lat="46.47639" lon="6.96717"><ele></ele><time>2025-2-13T2:59:43Z</time></trkpt>
<trkpt lat="46.47639" lon="6.96717"><ele></ele><time>2025-2-13T2:59:46Z</time></trkpt>
<trkpt lat="46.47639" lon="6.96717"><ele></ele><time>2025-2-13T2:59:49Z</time></trkpt>
<trkpt lat="46.47639" lon="6.96717"><ele></ele><time>2025-2-13T2:59:52Z</time></trkpt>
<trkpt lat="46.47639" lon="6.96717"><ele></ele><time>2025-2-13T2:59:55Z</time></trkpt>
<trkpt lat="46.47639" lon="6.96716"><ele></ele><time>2025-2-13T2:59:58Z</time></trkpt>
<trkpt lat="46.47639" lon="6.96716"><ele></ele><time>2025-2-13T3:0:1Z</time></trkpt>
<trkpt lat="46.47639" lon="6.96716"><ele></ele><time>2025-2-13T3:0:4Z</time></trkpt>
<trkpt lat="46.47639" lon="6.96716"><ele></ele><time>2025-2-13T3:0:7Z</time></trkpt>
<trkpt lat="46.47639" lon="6.96716"><ele></ele><time>2025-2-13T3:0:10Z</time></trkpt>
<trkpt lat="46.47639" lon="6.96716"><ele></ele><time>2025-2-13T3:0:13Z</time></trkpt>
<trkpt lat="46.47639" lon="6.96717"><ele></ele><time>2025-2-13T3:0:16Z</time></trkpt>
<trkpt lat="46.47639" lon="6.96716"><ele></ele><time>2025-2-13T3:0:19Z</time></trkpt>
<trkpt lat="46.4764" lon="6.96716"><ele></ele><time>2025-2-13T3:0:22Z</time></trkpt>
<trkpt lat="46.47639" lon="6.96716"><ele></ele><time>2025-2-13T3:0:25Z</time></trkpt>
<trkpt lat="46.47638" lon="6.96719"><ele></ele><time>2025-2-13T3:0:28Z</time></trkpt>
<trkpt lat="46.47638" lon="6.9672"><ele></ele><time>2025-2-13T3:0:31Z</time></trkpt>
<trkpt lat="46.47639" lon="6.96716"><ele></ele><time>2025-2-13T3:0:34Z</time></trkpt>
<trkpt lat="46.4764" lon="6.96717"><ele></ele><time>2025-2-13T3:0:37Z</time></trkpt>
<trkpt lat="46.47639" lon="6.96716"><ele></ele><time>2025-2-13T3:0:40Z</time></trkpt>
<trkpt lat="46.47639" lon="6.96716"><ele></ele><time>2025-2-13T3:0:43Z</time></trkpt>
<trkpt lat="46.47639" lon="6.96716"><ele></ele><time>2025-2-13T3:0:46Z</time></trkpt>
<trkpt lat="46.47639" lon="6.96716"><ele></ele><time>2025-2-13T3:0:49Z</time></trkpt>
<trkpt lat="46.47639" lon="6.96717"><ele></ele><time>2025-2-13T3:0:52Z</time></trkpt>
<trkpt lat="46.4764" lon="6.96716"><ele></ele><time>2025-2-13T3:0:55Z</time></trkpt>
<trkpt lat="46.47639" lon="6.96717"><ele></ele><time>2025-2-13T3:0:58Z</time></trkpt>
<trkpt lat="46.4764" lon="6.96717"><ele></ele><time>2025-2-13T3:1:1Z</time></trkpt>
<trkpt lat="46.4764" lon="6.96716"><ele></ele><time>2025-2-13T3:1:4Z</time></trkpt>
<trkpt lat="46.47641" lon="6.96714"><ele></ele><time>2025-2-13T3:1:7Z</time></trkpt>
<trkpt lat="46.4764" lon="6.96716"><ele></ele><time>2025-2-13T3:1:10Z</time></trkpt>
<trkpt lat="46.47641" lon="6.96716"><ele></ele><time>2025-2-13T3:1:13Z</time></trkpt>
<trkpt lat="46.47639" lon="6.96718"><ele></ele><time>2025-2-13T3:1:16Z</time></trkpt>
<trkpt lat="46.47639" lon="6.96718"><ele></ele><time>2025-2-13T3:1:19Z</time></trkpt>
<trkpt lat="46.47639" lon="6.96718"><ele></ele><time>2025-2-13T3:1:22Z</time></trkpt>
<trkpt lat="46.47639" lon="6.96718"><ele></ele><time>2025-2-13T3:1:25Z</time></trkpt>
<trkpt lat="46.47639" lon="6.96718"><ele></ele><time>2025-2-13T3:1:28Z</time></trkpt>
<trkpt lat="46.47639" lon="6.96718"><ele></ele><time>2025-2-13T3:1:31Z</time></trkpt>
<trkpt lat="46.47639" lon="6.96718"><ele></ele><time>2025-2-13T3:1:34Z</time></trkpt>
<trkpt lat="46.47639" lon="6.96718"><ele></ele><time>2025-2-13T3:1:37Z</time></trkpt>
<trkpt lat="46.47639" lon="6.96718"><ele></ele><time>2025-2-13T3:1:40Z</time></trkpt>
<trkpt lat="46.4764" lon="6.96717"><ele></ele><time>2025-2-13T3:1:43Z</time></trkpt>
<trkpt lat="46.47639" lon="6.96718"><ele></ele><time>2025-2-13T3:1:46Z</time></trkpt>
<trkpt lat="46.4764" lon="6.96717"><ele></ele><time>2025-2-13T3:1:49Z</time></trkpt>
<trkpt lat="46.4764" lon="6.96717"><ele></ele><time>2025-2-13T3:1:52Z</time></trkpt>
<trkpt lat="46.47639" lon="6.96718"><ele></ele><time>2025-2-13T3:1:55Z</time></trkpt>
<trkpt lat="46.4764" lon="6.96717"><ele></ele><time>2025-2-13T3:1:58Z</time></trkpt>
<trkpt lat="46.47639" lon="6.96716"><ele></ele><time>2025-2-13T3:2:1Z</time></trkpt>
<trkpt lat="46.4764" lon="6.96717"><ele></ele><time>2025-2-13T3:2:4Z</time></trkpt>
<trkpt lat="46.4764" lon="6.96718"><ele></ele><time>2025-2-13T3:2:7Z</time></trkpt>
<trkpt lat="46.4764" lon="6.96718"><ele></ele><time>2025-2-13T3:2:10Z</time></trkpt>
<trkpt lat="46.4764" lon="6.96718"><ele></ele><time>2025-2-13T3:2:13Z</time></trkpt>
<trkpt lat="46.4764" lon="6.96718"><ele></ele><time>2025-2-13T3:2:16Z</time></trkpt>
<trkpt lat="46.47639" lon="6.96717"><ele></ele><time>2025-2-13T3:2:19Z</time></trkpt>
<trkpt lat="46.47639" lon="6.96719"><ele></ele><time>2025-2-13T3:2:22Z</time></trkpt>
<trkpt lat="46.47639" lon="6.96719"><ele></ele><time>2025-2-13T3:2:25Z</time></trkpt>
<trkpt lat="46.4764" lon="6.96718"><ele></ele><time>2025-2-13T3:2:28Z</time></trkpt>
<trkpt lat="46.47639" lon="6.96718"><ele></ele><time>2025-2-13T3:2:31Z</time></trkpt>
<trkpt lat="46.47639" lon="6.96718"><ele></ele><time>2025-2-13T3:2:34Z</time></trkpt>
<trkpt lat="46.47639" lon="6.96718"><ele></ele><time>2025-2-13T3:2:37Z</time></trkpt>
<trkpt lat="46.47639" lon="6.96716"><ele></ele><time>2025-2-13T3:2:40Z</time></trkpt>
<trkpt lat="46.47639" lon="6.96717"><ele></ele><time>2025-2-13T3:2:43Z</time></trkpt>
<trkpt lat="46.47639" lon="6.96717"><ele></ele><time>2025-2-13T3:2:46Z</time></trkpt>
<trkpt lat="46.47639" lon="6.96718"><ele></ele><time>2025-2-13T3:2:49Z</time></trkpt>
<trkpt lat="46.4764" lon="6.96717"><ele></ele><time>2025-2-13T3:2:52Z</time></trkpt>
<trkpt lat="46.47638" lon="6.96718"><ele></ele><time>2025-2-13T3:2:55Z</time></trkpt>
<trkpt lat="46.47639" lon="6.96718"><ele></ele><time>2025-2-13T3:2:58Z</time></trkpt>
<trkpt lat="46.47639" lon="6.96718"><ele></ele><time>2025-2-13T3:3:1Z</time></trkpt>
<trkpt lat="46.47639" lon="6.96718"><ele></ele><time>2025-2-13T3:3:4Z</time></trkpt>
<trkpt lat="46.47638" lon="6.96717"><ele></ele><time>2025-2-13T3:3:7Z</time></trkpt>
<trkpt lat="46.47639" lon="6.96715"><ele></ele><time>2025-2-13T3:3:10Z</time></trkpt>
<trkpt lat="46.47639" lon="6.96715"><ele></ele><time>2025-2-13T3:3:13Z</time></trkpt>
<trkpt lat="46.47639" lon="6.96717"><ele></ele><time>2025-2-13T3:3:16Z</time></trkpt>
<trkpt lat="46.4764" lon="6.96716"><ele></ele><time>2025-2-13T3:3:19Z</time></trkpt>
<trkpt lat="46.47639" lon="6.96717"><ele></ele><time>2025-2-13T3:3:22Z</time></trkpt>
<trkpt lat="46.4764" lon="6.96715"><ele></ele><time>2025-2-13T3:3:25Z</time></trkpt>
<trkpt lat="46.47639" lon="6.96715"><ele></ele><time>2025-2-13T3:3:28Z</time></trkpt>
<trkpt lat="46.47639" lon="6.96715"><ele></ele><time>2025-2-13T3:3:31Z</time></trkpt>
<trkpt lat="46.47639" lon="6.96715"><ele></ele><time>2025-2-13T3:3:34Z</time></trkpt>
<trkpt lat="46.47638" lon="6.96716"><ele></ele><time>2025-2-13T3:3:37Z</time></trkpt>
<trkpt lat="46.47638" lon="6.96716"><ele></ele><time>2025-2-13T3:3:40Z</time></trkpt>
<trkpt lat="46.47638" lon="6.96716"><ele></ele><time>2025-2-13T3:3:43Z</time></trkpt>
<trkpt lat="46.47638" lon="6.96716"><ele></ele><time>2025-2-13T3:3:46Z</time></trkpt>
<trkpt lat="46.47638" lon="6.96716"><ele></ele><time>2025-2-13T3:3:49Z</time></trkpt>
<trkpt lat="46.4764" lon="6.96717"><ele></ele><time>2025-2-13T3:3:52Z</time></trkpt>
<trkpt lat="46.47638" lon="6.96717"><ele></ele><time>2025-2-13T3:3:55Z</time></trkpt>
<trkpt lat="46.47638" lon="6.96717"><ele></ele><time>2025-2-13T3:3:58Z</time></trkpt>
<trkpt lat="46.47638" lon="6.96718"><ele></ele><time>2025-2-13T3:4:1Z</time></trkpt>
<trkpt lat="46.47638" lon="6.96718"><ele></ele><time>2025-2-13T3:4:4Z</time></trkpt>
<trkpt lat="46.47638" lon="6.96718"><ele></ele><time>2025-2-13T3:4:7Z</time></trkpt>
<trkpt lat="46.47638" lon="6.96718"><ele></ele><time>2025-2-13T3:4:10Z</time></trkpt>
<trkpt lat="46.47639" lon="6.96718"><ele></ele><time>2025-2-13T3:4:13Z</time></trkpt>
<trkpt lat="46.47639" lon="6.96717"><ele></ele><time>2025-2-13T3:4:16Z</time></trkpt>
<trkpt lat="46.47639" lon="6.96715"><ele></ele><time>2025-2-13T3:4:19Z</time></trkpt>
<trkpt lat="46.47639" lon="6.96715"><ele></ele><time>2025-2-13T3:4:22Z</time></trkpt>
<trkpt lat="46.47639" lon="6.96715"><ele></ele><time>2025-2-13T3:4:25Z</time></trkpt>
<trkpt lat="46.47639" lon="6.96715"><ele></ele><time>2025-2-13T3:4:28Z</time></trkpt>
<trkpt lat="46.47639" lon="6.96715"><ele></ele><time>2025-2-13T3:4:31Z</time></trkpt>
<trkpt lat="46.47639" lon="6.96716"><ele></ele><time>2025-2-13T3:4:34Z</time></trkpt>
<trkpt lat="46.47638" lon="6.9672"><ele></ele><time>2025-2-13T3:4:37Z</time></trkpt>
<trkpt lat="46.47638" lon="6.96719"><ele></ele><time>2025-2-13T3:4:40Z</time></trkpt>
<trkpt lat="46.47639" lon="6.9672"><ele></ele><time>2025-2-13T3:4:43Z</time></trkpt>
<trkpt lat="46.47638" lon="6.9672"><ele></ele><time>2025-2-13T3:4:46Z</time></trkpt>
<trkpt lat="46.47639" lon="6.9672"><ele></ele><time>2025-2-13T3:4:49Z</time></trkpt>
<trkpt lat="46.4764" lon="6.9672"><ele></ele><time>2025-2-13T3:4:52Z</time></trkpt>
<trkpt lat="46.4764" lon="6.96719"><ele></ele><time>2025-2-13T3:4:55Z</time></trkpt>
<trkpt lat="46.47639" lon="6.96719"><ele></ele><time>2025-2-13T3:4:58Z</time></trkpt>
<trkpt lat="46.47639" lon="6.96719"><ele></ele><time>2025-2-13T3:5:1Z</time></trkpt>
<trkpt lat="46.4764" lon="6.9672"><ele></ele><time>2025-2-13T3:5:4Z</time></trkpt>
<trkpt lat="46.47639" lon="6.9672"><ele></ele><time>2025-2-13T3:5:7Z</time></trkpt>
<trkpt lat="46.47638" lon="6.96719"><ele></ele><time>2025-2-13T3:5:10Z</time></trkpt>
<trkpt lat="46.47638" lon="6.9672"><ele></ele><time>2025-2-13T3:5:13Z</time></trkpt>
<trkpt lat="46.47637" lon="6.9672"><ele></ele><time>2025-2-13T3:5:16Z</time></trkpt>
<trkpt lat="46.47638" lon="6.9672"><ele></ele><time>2025-2-13T3:5:19Z</time></trkpt>
<trkpt lat="46.47638" lon="6.9672"><ele></ele><time>2025-2-13T3:5:22Z</time></trkpt>
<trkpt lat="46.47637" lon="6.96719"><ele></ele><time>2025-2-13T3:5:25Z</time></trkpt>
<trkpt lat="46.47637" lon="6.9672"><ele></ele><time>2025-2-13T3:5:28Z</time></trkpt>
<trkpt lat="46.47637" lon="6.96719"><ele></ele><time>2025-2-13T3:5:31Z</time></trkpt>
<trkpt lat="46.47636" lon="6.96719"><ele></ele><time>2025-2-13T3:5:34Z</time></trkpt>
<trkpt lat="46.47637" lon="6.96717"><ele></ele><time>2025-2-13T3:5:37Z</time></trkpt>
<trkpt lat="46.47638" lon="6.96716"><ele></ele><time>2025-2-13T3:5:40Z</time></trkpt>
<trkpt lat="46.47637" lon="6.96718"><ele></ele><time>2025-2-13T3:5:43Z</time></trkpt>
<trkpt lat="46.47638" lon="6.9672"><ele></ele><time>2025-2-13T3:5:46Z</time></trkpt>
<trkpt lat="46.47638" lon="6.9672"><ele></ele><time>2025-2-13T3:5:49Z</time></trkpt>
<trkpt lat="46.47639" lon="6.96718"><ele></ele><time>2025-2-13T3:5:52Z</time></trkpt>
<trkpt lat="46.47639" lon="6.96718"><ele></ele><time>2025-2-13T3:5:55Z</time></trkpt>
<trkpt lat="46.47639" lon="6.96718"><ele></ele><time>2025-2-13T3:5:58Z</time></trkpt>
<trkpt lat="46.47639" lon="6.96718"><ele></ele><time>2025-2-13T3:6:1Z</time></trkpt>
<trkpt lat="46.47639" lon="6.96718"><ele></ele><time>2025-2-13T3:6:4Z</time></trkpt>
<trkpt lat="46.47639" lon="6.96718"><ele></ele><time>2025-2-13T3:6:7Z</time></trkpt>
<trkpt lat="46.47639" lon="6.9672"><ele></ele><time>2025-2-13T3:6:10Z</time></trkpt>
<trkpt lat="46.47639" lon="6.9672"><ele></ele><time>2025-2-13T3:6:13Z</time></trkpt>
<trkpt lat="46.47638" lon="6.9672"><ele></ele><time>2025-2-13T3:6:16Z</time></trkpt>
<trkpt lat="46.47638" lon="6.96719"><ele></ele><time>2025-2-13T3:6:19Z</time></trkpt>
<trkpt lat="46.47639" lon="6.96719"><ele></ele><time>2025-2-13T3:6:22Z</time></trkpt>
<trkpt lat="46.47639" lon="6.96719"><ele></ele><time>2025-2-13T3:6:25Z</time></trkpt>
<trkpt lat="46.47639" lon="6.96719"><ele></ele><time>2025-2-13T3:6:28Z</time></trkpt>
<trkpt lat="46.47639" lon="6.9672"><ele></ele><time>2025-2-13T3:6:31Z</time></trkpt>
<trkpt lat="46.47638" lon="6.9672"><ele></ele><time>2025-2-13T3:6:34Z</time></trkpt>
<trkpt lat="46.47639" lon="6.9672"><ele></ele><time>2025-2-13T3:6:37Z</time></trkpt>
<trkpt lat="46.47639" lon="6.96721"><ele></ele><time>2025-2-13T3:6:40Z</time></trkpt>
<trkpt lat="46.47639" lon="6.9672"><ele></ele><time>2025-2-13T3:6:43Z</time></trkpt>
<trkpt lat="46.47639" lon="6.9672"><ele></ele><time>2025-2-13T3:6:46Z</time></trkpt>
<trkpt lat="46.47639" lon="6.9672"><ele></ele><time>2025-2-13T3:6:49Z</time></trkpt>
<trkpt lat="46.47639" lon="6.9672"><ele></ele><time>2025-2-13T3:6:52Z</time></trkpt>
<trkpt lat="46.47639" lon="6.9672"><ele></ele><time>2025-2-13T3:6:55Z</time></trkpt>
<trkpt lat="46.47639" lon="6.9672"><ele></ele><time>2025-2-13T3:6:58Z</time></trkpt>
<trkpt lat="46.47639" lon="6.96718"><ele></ele><time>2025-2-13T3:7:1Z</time></trkpt>
<trkpt lat="46.47638" lon="6.96719"><ele></ele><time>2025-2-13T3:7:4Z</time></trkpt>
<trkpt lat="46.4764" lon="6.96719"><ele></ele><time>2025-2-13T3:7:7Z</time></trkpt>
<trkpt lat="46.4764" lon="6.96721"><ele></ele><time>2025-2-13T3:7:10Z</time></trkpt>
<trkpt lat="46.47639" lon="6.9672"><ele></ele><time>2025-2-13T3:7:13Z</time></trkpt>
<trkpt lat="46.47639" lon="6.96721"><ele></ele><time>2025-2-13T3:7:16Z</time></trkpt>
<trkpt lat="46.4764" lon="6.96721"><ele></ele><time>2025-2-13T3:7:19Z</time></trkpt>
<trkpt lat="46.4764" lon="6.96721"><ele></ele><time>2025-2-13T3:7:22Z</time></trkpt>
<trkpt lat="46.4764" lon="6.96721"><ele></ele><time>2025-2-13T3:7:25Z</time></trkpt>
<trkpt lat="46.47639" lon="6.9672"><ele></ele><time>2025-2-13T3:7:28Z</time></trkpt>
<trkpt lat="46.47639" lon="6.9672"><ele></ele><time>2025-2-13T3:7:31Z</time></trkpt>
<trkpt lat="46.47639" lon="6.9672"><ele></ele><time>2025-2-13T3:7:34Z</time></trkpt>
<trkpt lat="46.47638" lon="6.96719"><ele></ele><time>2025-2-13T3:7:37Z</time></trkpt>
<trkpt lat="46.47638" lon="6.96719"><ele></ele><time>2025-2-13T3:7:40Z</time></trkpt>
<trkpt lat="46.47638" lon="6.96719"><ele></ele><time>2025-2-13T3:7:43Z</time></trkpt>
<trkpt lat="46.47639" lon="6.96719"><ele></ele><time>2025-2-13T3:7:46Z</time></trkpt>
<trkpt lat="46.47638" lon="6.96719"><ele></ele><time>2025-2-13T3:7:49Z</time></trkpt>
<trkpt lat="46.47639" lon="6.96719"><ele></ele><time>2025-2-13T3:7:52Z</time></trkpt>
<trkpt lat="46.47639" lon="6.9672"><ele></ele><time>2025-2-13T3:7:55Z</time></trkpt>
<trkpt lat="46.4764" lon="6.96722"><ele></ele><time>2025-2-13T3:7:58Z</time></trkpt>
<trkpt lat="46.4764" lon="6.96721"><ele></ele><time>2025-2-13T3:8:1Z</time></trkpt>
<trkpt lat="46.4764" lon="6.96721"><ele></ele><time>2025-2-13T3:8:4Z</time></trkpt>
<trkpt lat="46.4764" lon="6.96721"><ele></ele><time>2025-2-13T3:8:7Z</time></trkpt>
<trkpt lat="46.47641" lon="6.96723"><ele></ele><time>2025-2-13T3:8:10Z</time></trkpt>
<trkpt lat="46.47641" lon="6.96723"><ele></ele><time>2025-2-13T3:8:13Z</time></trkpt>
<trkpt lat="46.47642" lon="6.96723"><ele></ele><time>2025-2-13T3:8:16Z</time></trkpt>
<trkpt lat="46.47641" lon="6.96722"><ele></ele><time>2025-2-13T3:8:19Z</time></trkpt>
<trkpt lat="46.4764" lon="6.96724"><ele></ele><time>2025-2-13T3:8:22Z</time></trkpt>
<trkpt lat="46.47642" lon="6.96727"><ele></ele><time>2025-2-13T3:8:25Z</time></trkpt>
<trkpt lat="46.47643" lon="6.96727"><ele></ele><time>2025-2-13T3:8:28Z</time></trkpt>
<trkpt lat="46.47646" lon="6.96727"><ele></ele><time>2025-2-13T3:8:31Z</time></trkpt>
<trkpt lat="46.4765" lon="6.96723"><ele></ele><time>2025-2-13T3:8:34Z</time></trkpt>
<trkpt lat="46.47653" lon="6.9672"><ele></ele><time>2025-2-13T3:8:37Z</time></trkpt>
<trkpt lat="46.47655" lon="6.96715"><ele></ele><time>2025-2-13T3:8:40Z</time></trkpt>
<trkpt lat="46.47656" lon="6.96712"><ele></ele><time>2025-2-13T3:8:43Z</time></trkpt>
<trkpt lat="46.47656" lon="6.96701"><ele></ele><time>2025-2-13T3:8:46Z</time></trkpt>
<trkpt lat="46.47649" lon="6.96689"><ele></ele><time>2025-2-13T3:8:49Z</time></trkpt>
<trkpt lat="46.47648" lon="6.96687"><ele></ele><time>2025-2-13T3:8:52Z</time></trkpt>
<trkpt lat="46.47645" lon="6.96681"><ele></ele><time>2025-2-13T3:8:55Z</time></trkpt>
<trkpt lat="46.47638" lon="6.96672"><ele></ele><time>2025-2-13T3:8:58Z</time></trkpt>
<trkpt lat="46.47635" lon="6.96669"><ele></ele><time>2025-2-13T3:9:1Z</time></trkpt>
<trkpt lat="46.47628" lon="6.96653"><ele></ele><time>2025-2-13T3:9:4Z</time></trkpt>
<trkpt lat="46.47625" lon="6.96633"><ele></ele><time>2025-2-13T3:9:7Z</time></trkpt>
<trkpt lat="46.47631" lon="6.9661"><ele></ele><time>2025-2-13T3:9:10Z</time></trkpt>
<trkpt lat="46.47635" lon="6.96598"><ele></ele><time>2025-2-13T3:9:13Z</time></trkpt>
<trkpt lat="46.47639" lon="6.96586"><ele></ele><time>2025-2-13T3:9:16Z</time></trkpt>
<trkpt lat="46.47638" lon="6.96579"><ele></ele><time>2025-2-13T3:9:19Z</time></trkpt>
<trkpt lat="46.4764" lon="6.96572"><ele></ele><time>2025-2-13T3:9:22Z</time></trkpt>
<trkpt lat="46.4764" lon="6.96567"><ele></ele><time>2025-2-13T3:9:25Z</time></trkpt>
<trkpt lat="46.47642" lon="6.96552"><ele></ele><time>2025-2-13T3:9:28Z</time></trkpt>
<trkpt lat="46.47642" lon="6.96534"><ele></ele><time>2025-2-13T3:9:31Z</time></trkpt>
<trkpt lat="46.47639" lon="6.96512"><ele></ele><time>2025-2-13T3:9:34Z</time></trkpt>
<trkpt lat="46.47636" lon="6.96504"><ele></ele><time>2025-2-13T3:9:37Z</time></trkpt>
<trkpt lat="46.47629" lon="6.96492"><ele></ele><time>2025-2-13T3:9:40Z</time></trkpt>
<trkpt lat="46.47622" lon="6.96484"><ele></ele><time>2025-2-13T3:9:43Z</time></trkpt>
<trkpt lat="46.4762" lon="6.96482"><ele></ele><time>2025-2-13T3:9:46Z</time></trkpt>
<trkpt lat="46.47617" lon="6.96478"><ele></ele><time>2025-2-13T3:9:49Z</time></trkpt>
<trkpt lat="46.47616" lon="6.96477"><ele></ele><time>2025-2-13T3:9:52Z</time></trkpt>
<trkpt lat="46.47611" lon="6.9647"><ele></ele><time>2025-2-13T3:9:55Z</time></trkpt>
<trkpt lat="46.47607" lon="6.96466"><ele></ele><time>2025-2-13T3:9:58Z</time></trkpt>
<trkpt lat="46.47606" lon="6.96464"><ele></ele><time>2025-2-13T3:10:1Z</time></trkpt>
<trkpt lat="46.47592" lon="6.96445"><ele></ele><time>2025-2-13T3:10:4Z</time></trkpt>
<trkpt lat="46.4759" lon="6.96442"><ele></ele><time>2025-2-13T3:10:7Z</time></trkpt>
<trkpt lat="46.47577" lon="6.96427"><ele></ele><time>2025-2-13T3:10:10Z</time></trkpt>
<trkpt lat="46.47567" lon="6.96417"><ele></ele><time>2025-2-13T3:10:13Z</time></trkpt>
<trkpt lat="46.47563" lon="6.96413"><ele></ele><time>2025-2-13T3:10:16Z</time></trkpt>
<trkpt lat="46.47554" lon="6.96406"><ele></ele><time>2025-2-13T3:10:19Z</time></trkpt>
<trkpt lat="46.4755" lon="6.96402"><ele></ele><time>2025-2-13T3:10:22Z</time></trkpt>
<trkpt lat="46.47542" lon="6.96395"><ele></ele><time>2025-2-13T3:10:25Z</time></trkpt>
<trkpt lat="46.47532" lon="6.9639"><ele></ele><time>2025-2-13T3:10:28Z</time></trkpt>
<trkpt lat="46.47529" lon="6.96386"><ele></ele><time>2025-2-13T3:10:31Z</time></trkpt>
<trkpt lat="46.47525" lon="6.96383"><ele></ele><time>2025-2-13T3:10:34Z</time></trkpt>
<trkpt lat="46.47526" lon="6.96382"><ele></ele><time>2025-2-13T3:10:37Z</time></trkpt>
<trkpt lat="46.47527" lon="6.96383"><ele></ele><time>2025-2-13T3:10:40Z</time></trkpt>
<trkpt lat="46.47521" lon="6.96382"><ele></ele><time>2025-2-13T3:10:43Z</time></trkpt>
<trkpt lat="46.47513" lon="6.96373"><ele></ele><time>2025-2-13T3:10:46Z</time></trkpt>
<trkpt lat="46.47509" lon="6.9637"><ele></ele><time>2025-2-13T3:10:49Z</time></trkpt>
<trkpt lat="46.47499" lon="6.96364"><ele></ele><time>2025-2-13T3:10:52Z</time></trkpt>
<trkpt lat="46.47495" lon="6.9636"><ele></ele><time>2025-2-13T3:10:55Z</time></trkpt>
<trkpt lat="46.47478" lon="6.96341"><ele></ele><time>2025-2-13T3:10:58Z</time></trkpt>
<trkpt lat="46.47476" lon="6.96337"><ele></ele><time>2025-2-13T3:11:1Z</time></trkpt>
<trkpt lat="46.47464" lon="6.96319"><ele></ele><time>2025-2-13T3:11:4Z</time></trkpt>
<trkpt lat="46.47449" lon="6.96295"><ele></ele><time>2025-2-13T3:11:7Z</time></trkpt>
<trkpt lat="46.47446" lon="6.96291"><ele></ele><time>2025-2-13T3:11:10Z</time></trkpt>
<trkpt lat="46.47425" lon="6.9626"><ele></ele><time>2025-2-13T3:11:13Z</time></trkpt>
<trkpt lat="46.47422" lon="6.9625"><ele></ele><time>2025-2-13T3:11:16Z</time></trkpt>
<trkpt lat="46.47419" lon="6.96235"><ele></ele><time>2025-2-13T3:11:19Z</time></trkpt>
<trkpt lat="46.47421" lon="6.96217"><ele></ele><time>2025-2-13T3:11:22Z</time></trkpt>
<trkpt lat="46.47424" lon="6.96212"><ele></ele><time>2025-2-13T3:11:25Z</time></trkpt>
<trkpt lat="46.47427" lon="6.96208"><ele></ele><time>2025-2-13T3:11:28Z</time></trkpt>
<trkpt lat="46.47435" lon="6.96202"><ele></ele><time>2025-2-13T3:11:31Z</time></trkpt>
<trkpt lat="46.47439" lon="6.962"><ele></ele><time>2025-2-13T3:11:34Z</time></trkpt>
<trkpt lat="46.47443" lon="6.962"><ele></ele><time>2025-2-13T3:11:37Z</time></trkpt>
<trkpt lat="46.4746" lon="6.96198"><ele></ele><time>2025-2-13T3:11:40Z</time></trkpt>
<trkpt lat="46.47464" lon="6.96197"><ele></ele><time>2025-2-13T3:11:43Z</time></trkpt>
<trkpt lat="46.47484" lon="6.96195"><ele></ele><time>2025-2-13T3:11:46Z</time></trkpt>
<trkpt lat="46.47487" lon="6.96195"><ele></ele><time>2025-2-13T3:11:49Z</time></trkpt>
<trkpt lat="46.47512" lon="6.96195"><ele></ele><time>2025-2-13T3:11:52Z</time></trkpt>
<trkpt lat="46.47533" lon="6.96194"><ele></ele><time>2025-2-13T3:11:55Z</time></trkpt>
<trkpt lat="46.47553" lon="6.96197"><ele></ele><time>2025-2-13T3:11:58Z</time></trkpt>
<trkpt lat="46.4756" lon="6.96197"><ele></ele><time>2025-2-13T3:12:1Z</time></trkpt>
<trkpt lat="46.47577" lon="6.96201"><ele></ele><time>2025-2-13T3:12:4Z</time></trkpt>
<trkpt lat="46.47602" lon="6.96207"><ele></ele><time>2025-2-13T3:12:7Z</time></trkpt>
<trkpt lat="46.47615" lon="6.9621"><ele></ele><time>2025-2-13T3:12:10Z</time></trkpt>
<trkpt lat="46.47625" lon="6.96215"><ele></ele><time>2025-2-13T3:12:13Z</time></trkpt>
<trkpt lat="46.47647" lon="6.96222"><ele></ele><time>2025-2-13T3:12:16Z</time></trkpt>
<trkpt lat="46.47649" lon="6.96223"><ele></ele><time>2025-2-13T3:12:19Z</time></trkpt>
<trkpt lat="46.47663" lon="6.9623"><ele></ele><time>2025-2-13T3:12:22Z</time></trkpt>
<trkpt lat="46.47667" lon="6.96231"><ele></ele><time>2025-2-13T3:12:25Z</time></trkpt>
<trkpt lat="46.47676" lon="6.96237"><ele></ele><time>2025-2-13T3:12:28Z</time></trkpt>
<trkpt lat="46.47684" lon="6.96243"><ele></ele><time>2025-2-13T3:12:31Z</time></trkpt>
<trkpt lat="46.47687" lon="6.96245"><ele></ele><time>2025-2-13T3:12:34Z</time></trkpt>
<trkpt lat="46.477" lon="6.96249"><ele></ele><time>2025-2-13T3:12:37Z</time></trkpt>
<trkpt lat="46.47702" lon="6.9625"><ele></ele><time>2025-2-13T3:12:40Z</time></trkpt>
<trkpt lat="46.47718" lon="6.96258"><ele></ele><time>2025-2-13T3:12:43Z</time></trkpt>
<trkpt lat="46.47729" lon="6.96264"><ele></ele><time>2025-2-13T3:12:46Z</time></trkpt>
<trkpt lat="46.47733" lon="6.96266"><ele></ele><time>2025-2-13T3:12:49Z</time></trkpt>
<trkpt lat="46.47744" lon="6.96272"><ele></ele><time>2025-2-13T3:12:52Z</time></trkpt>
<trkpt lat="46.47751" lon="6.96274"><ele></ele><time>2025-2-13T3:12:55Z</time></trkpt>
<trkpt lat="46.47757" lon="6.96276"><ele></ele><time>2025-2-13T3:12:58Z</time></trkpt>
<trkpt lat="46.47766" lon="6.96281"><ele></ele><time>2025-2-13T3:13:1Z</time></trkpt>
<trkpt lat="46.47768" lon="6.96283"><ele></ele><time>2025-2-13T3:13:4Z</time></trkpt>
<trkpt lat="46.4778" lon="6.96291"><ele></ele><time>2025-2-13T3:13:7Z</time></trkpt>
<trkpt lat="46.47782" lon="6.96293"><ele></ele><time>2025-2-13T3:13:10Z</time></trkpt>
<trkpt lat="46.47797" lon="6.96302"><ele></ele><time>2025-2-13T3:13:13Z</time></trkpt>
<trkpt lat="46.47799" lon="6.96304"><ele></ele><time>2025-2-13T3:13:16Z</time></trkpt>
<trkpt lat="46.47814" lon="6.96314"><ele></ele><time>2025-2-13T3:13:19Z</time></trkpt>
<trkpt lat="46.47821" lon="6.96318"><ele></ele><time>2025-2-13T3:13:22Z</time></trkpt>
<trkpt lat="46.47842" lon="6.96332"><ele></ele><time>2025-2-13T3:13:25Z</time></trkpt>
<trkpt lat="46.47844" lon="6.96333"><ele></ele><time>2025-2-13T3:13:28Z</time></trkpt>
<trkpt lat="46.47865" lon="6.96344"><ele></ele><time>2025-2-13T3:13:31Z</time></trkpt>
<trkpt lat="46.47874" lon="6.96351"><ele></ele><time>2025-2-13T3:13:34Z</time></trkpt>
<trkpt lat="46.47887" lon="6.96359"><ele></ele><time>2025-2-13T3:13:37Z</time></trkpt>
<trkpt lat="46.47908" lon="6.96372"><ele></ele><time>2025-2-13T3:13:40Z</time></trkpt>
<trkpt lat="46.47915" lon="6.96376"><ele></ele><time>2025-2-13T3:13:43Z</time></trkpt>
<trkpt lat="46.47933" lon="6.96382"><ele></ele><time>2025-2-13T3:13:46Z</time></trkpt>
<trkpt lat="46.4796" lon="6.96391"><ele></ele><time>2025-2-13T3:13:49Z</time></trkpt>
<trkpt lat="46.47965" lon="6.96392"><ele></ele><time>2025-2-13T3:13:52Z</time></trkpt>
<trkpt lat="46.48004" lon="6.96407"><ele></ele><time>2025-2-13T3:13:55Z</time></trkpt>
<trkpt lat="46.48022" lon="6.96413"><ele></ele><time>2025-2-13T3:13:58Z</time></trkpt>
<trkpt lat="46.48031" lon="6.96415"><ele></ele><time>2025-2-13T3:14:1Z</time></trkpt>
<trkpt lat="46.48051" lon="6.9642"><ele></ele><time>2025-2-13T3:14:4Z</time></trkpt>
<trkpt lat="46.48053" lon="6.96421"><ele></ele><time>2025-2-13T3:14:7Z</time></trkpt>
<trkpt lat="46.48069" lon="6.96425"><ele></ele><time>2025-2-13T3:14:10Z</time></trkpt>
<trkpt lat="46.48091" lon="6.96426"><ele></ele><time>2025-2-13T3:14:13Z</time></trkpt>
<trkpt lat="46.481" lon="6.96422"><ele></ele><time>2025-2-13T3:14:16Z</time></trkpt>
<trkpt lat="46.48105" lon="6.9642"><ele></ele><time>2025-2-13T3:14:19Z</time></trkpt>
<trkpt lat="46.48113" lon="6.96405"><ele></ele><time>2025-2-13T3:14:22Z</time></trkpt>
<trkpt lat="46.48113" lon="6.9639"><ele></ele><time>2025-2-13T3:14:25Z</time></trkpt>
<trkpt lat="46.48112" lon="6.96387"><ele></ele><time>2025-2-13T3:14:28Z</time></trkpt>
<trkpt lat="46.48108" lon="6.96378"><ele></ele><time>2025-2-13T3:14:31Z</time></trkpt>
<trkpt lat="46.48104" lon="6.96372"><ele></ele><time>2025-2-13T3:14:34Z</time></trkpt>
<trkpt lat="46.481" lon="6.96365"><ele></ele><time>2025-2-13T3:14:37Z</time></trkpt>
<trkpt lat="46.48091" lon="6.96356"><ele></ele><time>2025-2-13T3:14:40Z</time></trkpt>
<trkpt lat="46.4807" lon="6.9634"><ele></ele><time>2025-2-13T3:14:43Z</time></trkpt>
<trkpt lat="46.48063" lon="6.96336"><ele></ele><time>2025-2-13T3:14:46Z</time></trkpt>
<trkpt lat="46.48048" lon="6.96331"><ele></ele><time>2025-2-13T3:14:49Z</time></trkpt>
<trkpt lat="46.48043" lon="6.96328"><ele></ele><time>2025-2-13T3:14:52Z</time></trkpt>
<trkpt lat="46.48035" lon="6.96319"><ele></ele><time>2025-2-13T3:14:55Z</time></trkpt>
<trkpt lat="46.48033" lon="6.96314"><ele></ele><time>2025-2-13T3:14:58Z</time></trkpt>
<trkpt lat="46.48027" lon="6.96305"><ele></ele><time>2025-2-13T3:15:1Z</time></trkpt>
<trkpt lat="46.48026" lon="6.963"><ele></ele><time>2025-2-13T3:15:4Z</time></trkpt>
<trkpt lat="46.48023" lon="6.96294"><ele></ele><time>2025-2-13T3:15:7Z</time></trkpt>
<trkpt lat="46.4802" lon="6.96288"><ele></ele><time>2025-2-13T3:15:10Z</time></trkpt>
<trkpt lat="46.48019" lon="6.96285"><ele></ele><time>2025-2-13T3:15:13Z</time></trkpt>
<trkpt lat="46.48015" lon="6.96279"><ele></ele><time>2025-2-13T3:15:16Z</time></trkpt>
<trkpt lat="46.48015" lon="6.96277"><ele></ele><time>2025-2-13T3:15:19Z</time></trkpt>
<trkpt lat="46.48013" lon="6.96274"><ele></ele><time>2025-2-13T3:15:22Z</time></trkpt>
<trkpt lat="46.48009" lon="6.96266"><ele></ele><time>2025-2-13T3:15:25Z</time></trkpt>
<trkpt lat="46.48008" lon="6.96265"><ele></ele><time>2025-2-13T3:15:28Z</time></trkpt>
<trkpt lat="46.48006" lon="6.96261"><ele></ele><time>2025-2-13T3:15:31Z</time></trkpt>
<trkpt lat="46.48" lon="6.96255"><ele></ele><time>2025-2-13T3:15:34Z</time></trkpt>
<trkpt lat="46.47996" lon="6.96252"><ele></ele><time>2025-2-13T3:15:37Z</time></trkpt>
<trkpt lat="46.47992" lon="6.96245"><ele></ele><time>2025-2-13T3:15:40Z</time></trkpt>
<trkpt lat="46.47988" lon="6.96239"><ele></ele><time>2025-2-13T3:15:43Z</time></trkpt>
<trkpt lat="46.47983" lon="6.96233"><ele></ele><time>2025-2-13T3:15:46Z</time></trkpt>
<trkpt lat="46.47981" lon="6.96231"><ele></ele><time>2025-2-13T3:15:49Z</time></trkpt>
<trkpt lat="46.47977" lon="6.96227"><ele></ele><time>2025-2-13T3:15:52Z</time></trkpt>
<trkpt lat="46.47973" lon="6.96224"><ele></ele><time>2025-2-13T3:15:55Z</time></trkpt>
<trkpt lat="46.47968" lon="6.9622"><ele></ele><time>2025-2-13T3:15:58Z</time></trkpt>
<trkpt lat="46.47967" lon="6.96218"><ele></ele><time>2025-2-13T3:16:1Z</time></trkpt>
<trkpt lat="46.47967" lon="6.96216"><ele></ele><time>2025-2-13T3:16:4Z</time></trkpt>
<trkpt lat="46.47966" lon="6.96214"><ele></ele><time>2025-2-13T3:16:7Z</time></trkpt>
<trkpt lat="46.47962" lon="6.96208"><ele></ele><time>2025-2-13T3:16:10Z</time></trkpt>
<trkpt lat="46.47959" lon="6.96202"><ele></ele><time>2025-2-13T3:16:13Z</time></trkpt>
<trkpt lat="46.47956" lon="6.96195"><ele></ele><time>2025-2-13T3:16:16Z</time></trkpt>
<trkpt lat="46.47951" lon="6.96188"><ele></ele><time>2025-2-13T3:16:19Z</time></trkpt>
<trkpt lat="46.47949" lon="6.96186"><ele></ele><time>2025-2-13T3:16:22Z</time></trkpt>
<trkpt lat="46.47948" lon="6.96184"><ele></ele><time>2025-2-13T3:16:25Z</time></trkpt>
<trkpt lat="46.47942" lon="6.96179"><ele></ele><time>2025-2-13T3:16:28Z</time></trkpt>
<trkpt lat="46.47935" lon="6.9617"><ele></ele><time>2025-2-13T3:16:31Z</time></trkpt>
<trkpt lat="46.47923" lon="6.96155"><ele></ele><time>2025-2-13T3:16:34Z</time></trkpt>
<trkpt lat="46.47919" lon="6.9615"><ele></ele><time>2025-2-13T3:16:37Z</time></trkpt>
<trkpt lat="46.47907" lon="6.9614"><ele></ele><time>2025-2-13T3:16:40Z</time></trkpt>
<trkpt lat="46.47896" lon="6.96132"><ele></ele><time>2025-2-13T3:16:43Z</time></trkpt>
<trkpt lat="46.47891" lon="6.96128"><ele></ele><time>2025-2-13T3:16:46Z</time></trkpt>
<trkpt lat="46.4788" lon="6.96119"><ele></ele><time>2025-2-13T3:16:49Z</time></trkpt>
<trkpt lat="46.47875" lon="6.96115"><ele></ele><time>2025-2-13T3:16:52Z</time></trkpt>
<trkpt lat="46.47864" lon="6.96102"><ele></ele><time>2025-2-13T3:16:55Z</time></trkpt>
<trkpt lat="46.47862" lon="6.961"><ele></ele><time>2025-2-13T3:16:58Z</time></trkpt>
<trkpt lat="46.47851" lon="6.96085"><ele></ele><time>2025-2-13T3:17:1Z</time></trkpt>
<trkpt lat="46.47846" lon="6.96079"><ele></ele><time>2025-2-13T3:17:4Z</time></trkpt>
<trkpt lat="46.4783" lon="6.96067"><ele></ele><time>2025-2-13T3:17:7Z</time></trkpt>
<trkpt lat="46.47829" lon="6.96065"><ele></ele><time>2025-2-13T3:17:10Z</time></trkpt>
<trkpt lat="46.47812" lon="6.96054"><ele></ele><time>2025-2-13T3:17:13Z</time></trkpt>
<trkpt lat="46.4781" lon="6.96052"><ele></ele><time>2025-2-13T3:17:16Z</time></trkpt>
<trkpt lat="46.478" lon="6.96039"><ele></ele><time>2025-2-13T3:17:19Z</time></trkpt>
<trkpt lat="46.47799" lon="6.96037"><ele></ele><time>2025-2-13T3:17:22Z</time></trkpt>
<trkpt lat="46.47789" lon="6.96022"><ele></ele><time>2025-2-13T3:17:25Z</time></trkpt>
<trkpt lat="46.47784" lon="6.96015"><ele></ele><time>2025-2-13T3:17:28Z</time></trkpt>
<trkpt lat="46.47778" lon="6.96007"><ele></ele><time>2025-2-13T3:17:31Z</time></trkpt>
<trkpt lat="46.4777" lon="6.95991"><ele></ele><time>2025-2-13T3:17:34Z</time></trkpt>
<trkpt lat="46.47769" lon="6.95989"><ele></ele><time>2025-2-13T3:17:37Z</time></trkpt>
<trkpt lat="46.47757" lon="6.95973"><ele></ele><time>2025-2-13T3:17:40Z</time></trkpt>
<trkpt lat="46.47755" lon="6.95971"><ele></ele><time>2025-2-13T3:17:43Z</time></trkpt>
<trkpt lat="46.47748" lon="6.95957"><ele></ele><time>2025-2-13T3:17:46Z</time></trkpt>
<trkpt lat="46.47751" lon="6.95947"><ele></ele><time>2025-2-13T3:17:49Z</time></trkpt>
<trkpt lat="46.47753" lon="6.95944"><ele></ele><time>2025-2-13T3:17:52Z</time></trkpt>
<trkpt lat="46.47767" lon="6.95929"><ele></ele><time>2025-2-13T3:17:55Z</time></trkpt>
<trkpt lat="46.47771" lon="6.95926"><ele></ele><time>2025-2-13T3:17:58Z</time></trkpt>
<trkpt lat="46.47775" lon="6.95922"><ele></ele><time>2025-2-13T3:18:1Z</time></trkpt>
<trkpt lat="46.47779" lon="6.95919"><ele></ele><time>2025-2-13T3:18:4Z</time></trkpt>
<trkpt lat="46.4779" lon="6.9591"><ele></ele><time>2025-2-13T3:18:7Z</time></trkpt>
<trkpt lat="46.47804" lon="6.959"><ele></ele><time>2025-2-13T3:18:10Z</time></trkpt>
<trkpt lat="46.47811" lon="6.95894"><ele></ele><time>2025-2-13T3:18:13Z</time></trkpt>
<trkpt lat="46.4782" lon="6.95889"><ele></ele><time>2025-2-13T3:18:16Z</time></trkpt>
<trkpt lat="46.47828" lon="6.95883"><ele></ele><time>2025-2-13T3:18:19Z</time></trkpt>
<trkpt lat="46.47846" lon="6.9587"><ele></ele><time>2025-2-13T3:18:22Z</time></trkpt>
<trkpt lat="46.47855" lon="6.95862"><ele></ele><time>2025-2-13T3:18:25Z</time></trkpt>
<trkpt lat="46.47864" lon="6.95854"><ele></ele><time>2025-2-13T3:18:28Z</time></trkpt>
<trkpt lat="46.47882" lon="6.95836"><ele></ele><time>2025-2-13T3:18:31Z</time></trkpt>
<trkpt lat="46.47891" lon="6.95826"><ele></ele><time>2025-2-13T3:18:34Z</time></trkpt>
<trkpt lat="46.479" lon="6.95816"><ele></ele><time>2025-2-13T3:18:37Z</time></trkpt>
<trkpt lat="46.47907" lon="6.95805"><ele></ele><time>2025-2-13T3:18:40Z</time></trkpt>
<trkpt lat="46.47914" lon="6.95793"><ele></ele><time>2025-2-13T3:18:43Z</time></trkpt>
<trkpt lat="46.4793" lon="6.95773"><ele></ele><time>2025-2-13T3:18:46Z</time></trkpt>
<trkpt lat="46.47938" lon="6.95767"><ele></ele><time>2025-2-13T3:18:49Z</time></trkpt>
<trkpt lat="46.47946" lon="6.95762"><ele></ele><time>2025-2-13T3:18:52Z</time></trkpt>
<trkpt lat="46.47952" lon="6.95756"><ele></ele><time>2025-2-13T3:18:55Z</time></trkpt>
<trkpt lat="46.47956" lon="6.95742"><ele></ele><time>2025-2-13T3:18:58Z</time></trkpt>
<trkpt lat="46.47953" lon="6.95732"><ele></ele><time>2025-2-13T3:19:1Z</time></trkpt>
<trkpt lat="46.47952" lon="6.9573"><ele></ele><time>2025-2-13T3:19:4Z</time></trkpt>
<trkpt lat="46.47952" lon="6.95731"><ele></ele><time>2025-2-13T3:19:7Z</time></trkpt>
<trkpt lat="46.47951" lon="6.95731"><ele></ele><time>2025-2-13T3:19:10Z</time></trkpt>
<trkpt lat="46.47951" lon="6.95731"><ele></ele><time>2025-2-13T3:19:13Z</time></trkpt>
<trkpt lat="46.47951" lon="6.95732"><ele></ele><time>2025-2-13T3:19:16Z</time></trkpt>
<trkpt lat="46.4795" lon="6.95733"><ele></ele><time>2025-2-13T3:19:19Z</time></trkpt>
<trkpt lat="46.47951" lon="6.95732"><ele></ele><time>2025-2-13T3:19:22Z</time></trkpt>
<trkpt lat="46.47953" lon="6.95734"><ele></ele><time>2025-2-13T3:19:25Z</time></trkpt>
<trkpt lat="46.47954" lon="6.95734"><ele></ele><time>2025-2-13T3:19:28Z</time></trkpt>
<trkpt lat="46.47956" lon="6.95736"><ele></ele><time>2025-2-13T3:19:31Z</time></trkpt>
<trkpt lat="46.47957" lon="6.95736"><ele></ele><time>2025-2-13T3:19:34Z</time></trkpt>
<trkpt lat="46.47961" lon="6.95729"><ele></ele><time>2025-2-13T3:19:37Z</time></trkpt>
<trkpt lat="46.47966" lon="6.95719"><ele></ele><time>2025-2-13T3:19:40Z</time></trkpt>
<trkpt lat="46.47968" lon="6.95713"><ele></ele><time>2025-2-13T3:19:43Z</time></trkpt>
<trkpt lat="46.47969" lon="6.95707"><ele></ele><time>2025-2-13T3:19:46Z</time></trkpt>
<trkpt lat="46.4797" lon="6.957"><ele></ele><time>2025-2-13T3:19:49Z</time></trkpt>
<trkpt lat="46.47969" lon="6.95693"><ele></ele><time>2025-2-13T3:19:52Z</time></trkpt>
<trkpt lat="46.47968" lon="6.95687"><ele></ele><time>2025-2-13T3:19:55Z</time></trkpt>
<trkpt lat="46.47967" lon="6.95683"><ele></ele><time>2025-2-13T3:19:58Z</time></trkpt>
<trkpt lat="46.47966" lon="6.95679"><ele></ele><time>2025-2-13T3:20:1Z</time></trkpt>
<trkpt lat="46.47964" lon="6.95668"><ele></ele><time>2025-2-13T3:20:4Z</time></trkpt>
<trkpt lat="46.47963" lon="6.95663"><ele></ele><time>2025-2-13T3:20:7Z</time></trkpt>
<trkpt lat="46.47961" lon="6.95657"><ele></ele><time>2025-2-13T3:20:10Z</time></trkpt>
<trkpt lat="46.4796" lon="6.95655"><ele></ele><time>2025-2-13T3:20:13Z</time></trkpt>
<trkpt lat="46.47958" lon="6.95647"><ele></ele><time>2025-2-13T3:20:16Z</time></trkpt>
<trkpt lat="46.47955" lon="6.95641"><ele></ele><time>2025-2-13T3:20:19Z</time></trkpt>
<trkpt lat="46.47952" lon="6.95637"><ele></ele><time>2025-2-13T3:20:22Z</time></trkpt>
<trkpt lat="46.47949" lon="6.95633"><ele></ele><time>2025-2-13T3:20:25Z</time></trkpt>
<trkpt lat="46.47945" lon="6.95629"><ele></ele><time>2025-2-13T3:20:28Z</time></trkpt>
<trkpt lat="46.47941" lon="6.95625"><ele></ele><time>2025-2-13T3:20:31Z</time></trkpt>
<trkpt lat="46.47932" lon="6.95621"><ele></ele><time>2025-2-13T3:20:34Z</time></trkpt>
<trkpt lat="46.47925" lon="6.95616"><ele></ele><time>2025-2-13T3:20:37Z</time></trkpt>
<trkpt lat="46.4791" lon="6.95604"><ele></ele><time>2025-2-13T3:20:40Z</time></trkpt>
<trkpt lat="46.47907" lon="6.95601"><ele></ele><time>2025-2-13T3:20:43Z</time></trkpt>
<trkpt lat="46.47903" lon="6.95598"><ele></ele><time>2025-2-13T3:20:46Z</time></trkpt>
<trkpt lat="46.47903" lon="6.95596"><ele></ele><time>2025-2-13T3:20:49Z</time></trkpt>
<trkpt lat="46.47903" lon="6.95596"><ele></ele><time>2025-2-13T3:20:52Z</time></trkpt>
<trkpt lat="46.47901" lon="6.95594"><ele></ele><time>2025-2-13T3:20:55Z</time></trkpt>
<trkpt lat="46.47899" lon="6.95593"><ele></ele><time>2025-2-13T3:20:58Z</time></trkpt>
<trkpt lat="46.47893" lon="6.95586"><ele></ele><time>2025-2-13T3:21:1Z</time></trkpt>
<trkpt lat="46.47886" lon="6.95583"><ele></ele><time>2025-2-13T3:21:4Z</time></trkpt>
<trkpt lat="46.47878" lon="6.95575"><ele></ele><time>2025-2-13T3:21:7Z</time></trkpt>
<trkpt lat="46.47871" lon="6.95566"><ele></ele><time>2025-2-13T3:21:10Z</time></trkpt>
<trkpt lat="46.47865" lon="6.95559"><ele></ele><time>2025-2-13T3:21:13Z</time></trkpt>
<trkpt lat="46.4786" lon="6.9555"><ele></ele><time>2025-2-13T3:21:16Z</time></trkpt>
<trkpt lat="46.47859" lon="6.95548"><ele></ele><time>2025-2-13T3:21:19Z</time></trkpt>
<trkpt lat="46.47857" lon="6.95542"><ele></ele><time>2025-2-13T3:21:22Z</time></trkpt>
<trkpt lat="46.47853" lon="6.95537"><ele></ele><time>2025-2-13T3:21:25Z</time></trkpt>
<trkpt lat="46.47846" lon="6.95529"><ele></ele><time>2025-2-13T3:21:28Z</time></trkpt>
<trkpt lat="46.47845" lon="6.95526"><ele></ele><time>2025-2-13T3:21:31Z</time></trkpt>
<trkpt lat="46.47843" lon="6.95524"><ele></ele><time>2025-2-13T3:21:34Z</time></trkpt>
<trkpt lat="46.47842" lon="6.95523"><ele></ele><time>2025-2-13T3:21:37Z</time></trkpt>
<trkpt lat="46.47835" lon="6.95516"><ele></ele><time>2025-2-13T3:21:40Z</time></trkpt>
<trkpt lat="46.47834" lon="6.95515"><ele></ele><time>2025-2-13T3:21:43Z</time></trkpt>
<trkpt lat="46.47832" lon="6.95511"><ele></ele><time>2025-2-13T3:21:46Z</time></trkpt>
<trkpt lat="46.47831" lon="6.95508"><ele></ele><time>2025-2-13T3:21:49Z</time></trkpt>
<trkpt lat="46.47822" lon="6.95497"><ele></ele><time>2025-2-13T3:21:52Z</time></trkpt>
<trkpt lat="46.47815" lon="6.95489"><ele></ele><time>2025-2-13T3:21:55Z</time></trkpt>
<trkpt lat="46.4781" lon="6.95481"><ele></ele><time>2025-2-13T3:21:58Z</time></trkpt>
<trkpt lat="46.47804" lon="6.95478"><ele></ele><time>2025-2-13T3:22:1Z</time></trkpt>
<trkpt lat="46.47804" lon="6.95478"><ele></ele><time>2025-2-13T3:22:4Z</time></trkpt>
<trkpt lat="46.47803" lon="6.95481"><ele></ele><time>2025-2-13T3:22:7Z</time></trkpt>
<trkpt lat="46.47794" lon="6.95484"><ele></ele><time>2025-2-13T3:22:10Z</time></trkpt>
<trkpt lat="46.47781" lon="6.9548"><ele></ele><time>2025-2-13T3:22:13Z</time></trkpt>
<trkpt lat="46.47771" lon="6.95477"><ele></ele><time>2025-2-13T3:22:16Z</time></trkpt>
<trkpt lat="46.47763" lon="6.95474"><ele></ele><time>2025-2-13T3:22:19Z</time></trkpt>
<trkpt lat="46.47756" lon="6.95467"><ele></ele><time>2025-2-13T3:22:22Z</time></trkpt>
<trkpt lat="46.47747" lon="6.95457"><ele></ele><time>2025-2-13T3:22:25Z</time></trkpt>
<trkpt lat="46.47744" lon="6.95451"><ele></ele><time>2025-2-13T3:22:28Z</time></trkpt>
<trkpt lat="46.47739" lon="6.95443"><ele></ele><time>2025-2-13T3:22:31Z</time></trkpt>
<trkpt lat="46.47733" lon="6.95436"><ele></ele><time>2025-2-13T3:22:34Z</time></trkpt>
<trkpt lat="46.47724" lon="6.95426"><ele></ele><time>2025-2-13T3:22:37Z</time></trkpt>
<trkpt lat="46.47719" lon="6.95417"><ele></ele><time>2025-2-13T3:22:40Z</time></trkpt>
<trkpt lat="46.47712" lon="6.95401"><ele></ele><time>2025-2-13T3:22:43Z</time></trkpt>
<trkpt lat="46.47711" lon="6.95397"><ele></ele><time>2025-2-13T3:22:46Z</time></trkpt>
<trkpt lat="46.47708" lon="6.95389"><ele></ele><time>2025-2-13T3:22:49Z</time></trkpt>
<trkpt lat="46.47702" lon="6.95379"><ele></ele><time>2025-2-13T3:22:52Z</time></trkpt>
<trkpt lat="46.47698" lon="6.95363"><ele></ele><time>2025-2-13T3:22:55Z</time></trkpt>
<trkpt lat="46.47698" lon="6.95347"><ele></ele><time>2025-2-13T3:22:58Z</time></trkpt>
<trkpt lat="46.477" lon="6.9533"><ele></ele><time>2025-2-13T3:23:1Z</time></trkpt>
<trkpt lat="46.47702" lon="6.95326"><ele></ele><time>2025-2-13T3:23:4Z</time></trkpt>
<trkpt lat="46.47703" lon="6.95321"><ele></ele><time>2025-2-13T3:23:7Z</time></trkpt>
<trkpt lat="46.47703" lon="6.95318"><ele></ele><time>2025-2-13T3:23:10Z</time></trkpt>
<trkpt lat="46.47703" lon="6.95317"><ele></ele><time>2025-2-13T3:23:13Z</time></trkpt>
<trkpt lat="46.47704" lon="6.95314"><ele></ele><time>2025-2-13T3:23:16Z</time></trkpt>
<trkpt lat="46.47703" lon="6.95311"><ele></ele><time>2025-2-13T3:23:19Z</time></trkpt>
<trkpt lat="46.47703" lon="6.95304"><ele></ele><time>2025-2-13T3:23:22Z</time></trkpt>
<trkpt lat="46.47701" lon="6.95296"><ele></ele><time>2025-2-13T3:23:25Z</time></trkpt>
<trkpt lat="46.47704" lon="6.95293"><ele></ele><time>2025-2-13T3:23:28Z</time></trkpt>
<trkpt lat="46.47704" lon="6.95288"><ele></ele><time>2025-2-13T3:23:31Z</time></trkpt>
<trkpt lat="46.47702" lon="6.9528"><ele></ele><time>2025-2-13T3:23:34Z</time></trkpt>
<trkpt lat="46.47702" lon="6.95268"><ele></ele><time>2025-2-13T3:23:37Z</time></trkpt>
<trkpt lat="46.47702" lon="6.95265"><ele></ele><time>2025-2-13T3:23:40Z</time></trkpt>
<trkpt lat="46.477" lon="6.9525"><ele></ele><time>2025-2-13T3:23:43Z</time></trkpt>
<trkpt lat="46.47699" lon="6.95236"><ele></ele><time>2025-2-13T3:23:46Z</time></trkpt>
<trkpt lat="46.47697" lon="6.95224"><ele></ele><time>2025-2-13T3:23:49Z</time></trkpt>
<trkpt lat="46.47695" lon="6.9521"><ele></ele><time>2025-2-13T3:23:52Z</time></trkpt>
<trkpt lat="46.47693" lon="6.95196"><ele></ele><time>2025-2-13T3:23:55Z</time></trkpt>
<trkpt lat="46.47691" lon="6.95195"><ele></ele><time>2025-2-13T3:23:58Z</time></trkpt>
<trkpt lat="46.47691" lon="6.95194"><ele></ele><time>2025-2-13T3:24:1Z</time></trkpt>
<trkpt lat="46.4769" lon="6.95185"><ele></ele><time>2025-2-13T3:24:4Z</time></trkpt>
<trkpt lat="46.47687" lon="6.95183"><ele></ele><time>2025-2-13T3:24:7Z</time></trkpt>
<trkpt lat="46.47686" lon="6.95183"><ele></ele><time>2025-2-13T3:24:10Z</time></trkpt>
<trkpt lat="46.47683" lon="6.95187"><ele></ele><time>2025-2-13T3:24:13Z</time></trkpt>
<trkpt lat="46.47683" lon="6.95187"><ele></ele><time>2025-2-13T3:24:16Z</time></trkpt>
<trkpt lat="46.47682" lon="6.95186"><ele></ele><time>2025-2-13T3:24:19Z</time></trkpt>
<trkpt lat="46.47682" lon="6.95186"><ele></ele><time>2025-2-13T3:24:22Z</time></trkpt>
<trkpt lat="46.47676" lon="6.95187"><ele></ele><time>2025-2-13T3:24:25Z</time></trkpt>
<trkpt lat="46.47667" lon="6.95184"><ele></ele><time>2025-2-13T3:24:28Z</time></trkpt>
<trkpt lat="46.47666" lon="6.95182"><ele></ele><time>2025-2-13T3:24:31Z</time></trkpt>
<trkpt lat="46.47658" lon="6.95173"><ele></ele><time>2025-2-13T3:24:34Z</time></trkpt>
<trkpt lat="46.47648" lon="6.95154"><ele></ele><time>2025-2-13T3:24:37Z</time></trkpt>
<trkpt lat="46.47646" lon="6.95151"><ele></ele><time>2025-2-13T3:24:40Z</time></trkpt>
<trkpt lat="46.47641" lon="6.95151"><ele></ele><time>2025-2-13T3:24:43Z</time></trkpt>
<trkpt lat="46.47631" lon="6.95141"><ele></ele><time>2025-2-13T3:24:46Z</time></trkpt>
<trkpt lat="46.47628" lon="6.95134"><ele></ele><time>2025-2-13T3:24:49Z</time></trkpt>
<trkpt lat="46.47621" lon="6.95124"><ele></ele><time>2025-2-13T3:24:52Z</time></trkpt>
<trkpt lat="46.47618" lon="6.95112"><ele></ele><time>2025-2-13T3:24:55Z</time></trkpt>
<trkpt lat="46.47617" lon="6.95106"><ele></ele><time>2025-2-13T3:24:58Z</time></trkpt>
<trkpt lat="46.47615" lon="6.95094"><ele></ele><time>2025-2-13T3:25:1Z</time></trkpt>
<trkpt lat="46.47615" lon="6.95085"><ele></ele><time>2025-2-13T3:25:4Z</time></trkpt>
<trkpt lat="46.47615" lon="6.9508"><ele></ele><time>2025-2-13T3:25:7Z</time></trkpt>
<trkpt lat="46.47614" lon="6.95079"><ele></ele><time>2025-2-13T3:25:10Z</time></trkpt>
<trkpt lat="46.47611" lon="6.95069"><ele></ele><time>2025-2-13T3:25:13Z</time></trkpt>
<trkpt lat="46.47609" lon="6.95059"><ele></ele><time>2025-2-13T3:25:16Z</time></trkpt>
<trkpt lat="46.47608" lon="6.95051"><ele></ele><time>2025-2-13T3:25:19Z</time></trkpt>
<trkpt lat="46.47604" lon="6.95033"><ele></ele><time>2025-2-13T3:25:22Z</time></trkpt>
<trkpt lat="46.47599" lon="6.9502"><ele></ele><time>2025-2-13T3:25:25Z</time></trkpt>
<trkpt lat="46.47597" lon="6.95011"><ele></ele><time>2025-2-13T3:25:28Z</time></trkpt>
<trkpt lat="46.47591" lon="6.94996"><ele></ele><time>2025-2-13T3:25:31Z</time></trkpt>
<trkpt lat="46.47583" lon="6.94987"><ele></ele><time>2025-2-13T3:25:34Z</time></trkpt>
<trkpt lat="46.4758" lon="6.94983"><ele></ele><time>2025-2-13T3:25:37Z</time></trkpt>
<trkpt lat="46.47578" lon="6.94978"><ele></ele><time>2025-2-13T3:25:40Z</time></trkpt>
<trkpt lat="46.47575" lon="6.94973"><ele></ele><time>2025-2-13T3:25:43Z</time></trkpt>
<trkpt lat="46.47567" lon="6.9497"><ele></ele><time>2025-2-13T3:25:46Z</time></trkpt>
<trkpt lat="46.4756" lon="6.94966"><ele></ele><time>2025-2-13T3:25:49Z</time></trkpt>
<trkpt lat="46.47558" lon="6.94965"><ele></ele><time>2025-2-13T3:25:52Z</time></trkpt>
<trkpt lat="46.47553" lon="6.9496"><ele></ele><time>2025-2-13T3:25:55Z</time></trkpt>
<trkpt lat="46.47552" lon="6.94958"><ele></ele><time>2025-2-13T3:25:58Z</time></trkpt>
<trkpt lat="46.47549" lon="6.94947"><ele></ele><time>2025-2-13T3:26:1Z</time></trkpt>
<trkpt lat="46.47549" lon="6.94935"><ele></ele><time>2025-2-13T3:26:4Z</time></trkpt>
<trkpt lat="46.4755" lon="6.9493"><ele></ele><time>2025-2-13T3:26:7Z</time></trkpt>
<trkpt lat="46.47548" lon="6.94926"><ele></ele><time>2025-2-13T3:26:10Z</time></trkpt>
<trkpt lat="46.47548" lon="6.94915"><ele></ele><time>2025-2-13T3:26:13Z</time></trkpt>
<trkpt lat="46.47548" lon="6.94903"><ele></ele><time>2025-2-13T3:26:16Z</time></trkpt>
<trkpt lat="46.47547" lon="6.94897"><ele></ele><time>2025-2-13T3:26:19Z</time></trkpt>
<trkpt lat="46.47545" lon="6.94883"><ele></ele><time>2025-2-13T3:26:22Z</time></trkpt>
<trkpt lat="46.47543" lon="6.9486"><ele></ele><time>2025-2-13T3:26:25Z</time></trkpt>
<trkpt lat="46.47541" lon="6.94838"><ele></ele><time>2025-2-13T3:26:28Z</time></trkpt>
<trkpt lat="46.47539" lon="6.9482"><ele></ele><time>2025-2-13T3:26:31Z</time></trkpt>
<trkpt lat="46.47536" lon="6.94807"><ele></ele><time>2025-2-13T3:26:34Z</time></trkpt>
<trkpt lat="46.47534" lon="6.94798"><ele></ele><time>2025-2-13T3:26:37Z</time></trkpt>
<trkpt lat="46.4753" lon="6.94787"><ele></ele><time>2025-2-13T3:26:40Z</time></trkpt>
<trkpt lat="46.4753" lon="6.94786"><ele></ele><time>2025-2-13T3:26:43Z</time></trkpt>
<trkpt lat="46.47522" lon="6.94772"><ele></ele><time>2025-2-13T3:26:46Z</time></trkpt>
<trkpt lat="46.47511" lon="6.94763"><ele></ele><time>2025-2-13T3:26:49Z</time></trkpt>
<trkpt lat="46.47505" lon="6.94758"><ele></ele><time>2025-2-13T3:26:52Z</time></trkpt>
<trkpt lat="46.47503" lon="6.94753"><ele></ele><time>2025-2-13T3:26:55Z</time></trkpt>
<trkpt lat="46.47503" lon="6.94752"><ele></ele><time>2025-2-13T3:26:58Z</time></trkpt>
<trkpt lat="46.47503" lon="6.94752"><ele></ele><time>2025-2-13T3:27:1Z</time></trkpt>
<trkpt lat="46.47503" lon="6.94753"><ele></ele><time>2025-2-13T3:27:4Z</time></trkpt>
<trkpt lat="46.47503" lon="6.94753"><ele></ele><time>2025-2-13T3:27:7Z</time></trkpt>
<trkpt lat="46.47503" lon="6.94752"><ele></ele><time>2025-2-13T3:27:10Z</time></trkpt>
<trkpt lat="46.47503" lon="6.94753"><ele></ele><time>2025-2-13T3:27:13Z</time></trkpt>
<trkpt lat="46.47505" lon="6.94758"><ele></ele><time>2025-2-13T3:27:16Z</time></trkpt>
<trkpt lat="46.47513" lon="6.94762"><ele></ele><time>2025-2-13T3:27:19Z</time></trkpt>
<trkpt lat="46.4752" lon="6.9477"><ele></ele><time>2025-2-13T3:27:22Z</time></trkpt>
<trkpt lat="46.47524" lon="6.94774"><ele></ele><time>2025-2-13T3:27:25Z</time></trkpt>
<trkpt lat="46.47527" lon="6.94779"><ele></ele><time>2025-2-13T3:27:28Z</time></trkpt>
<trkpt lat="46.47528" lon="6.94781"><ele></ele><time>2025-2-13T3:27:31Z</time></trkpt>
<trkpt lat="46.47528" lon="6.94781"><ele></ele><time>2025-2-13T3:27:34Z</time></trkpt>
<trkpt lat="46.47527" lon="6.94781"><ele></ele><time>2025-2-13T3:27:37Z</time></trkpt>
<trkpt lat="46.47527" lon="6.94781"><ele></ele><time>2025-2-13T3:27:40Z</time></trkpt>
<trkpt lat="46.47527" lon="6.9478"><ele></ele><time>2025-2-13T3:27:43Z</time></trkpt>
<trkpt lat="46.47523" lon="6.94774"><ele></ele><time>2025-2-13T3:27:46Z</time></trkpt>
<trkpt lat="46.47511" lon="6.94763"><ele></ele><time>2025-2-13T3:27:49Z</time></trkpt>
<trkpt lat="46.47507" lon="6.9476"><ele></ele><time>2025-2-13T3:27:52Z</time></trkpt>
<trkpt lat="46.47504" lon="6.94754"><ele></ele><time>2025-2-13T3:27:55Z</time></trkpt>
<trkpt lat="46.47504" lon="6.94753"><ele></ele><time>2025-2-13T3:27:58Z</time></trkpt>
<trkpt lat="46.47505" lon="6.94753"><ele></ele><time>2025-2-13T3:28:1Z</time></trkpt>
<trkpt lat="46.47505" lon="6.94753"><ele></ele><time>2025-2-13T3:28:4Z</time></trkpt>
<trkpt lat="46.47505" lon="6.94753"><ele></ele><time>2025-2-13T3:28:7Z</time></trkpt>
<trkpt lat="46.47502" lon="6.94751"><ele></ele><time>2025-2-13T3:28:10Z</time></trkpt>
<trkpt lat="46.47502" lon="6.94751"><ele></ele><time>2025-2-13T3:28:13Z</time></trkpt>
<trkpt lat="46.47505" lon="6.94746"><ele></ele><time>2025-2-13T3:28:16Z</time></trkpt>
<trkpt lat="46.47505" lon="6.94745"><ele></ele><time>2025-2-13T3:28:19Z</time></trkpt>
<trkpt lat="46.47507" lon="6.94744"><ele></ele><time>2025-2-13T3:28:22Z</time></trkpt>
<trkpt lat="46.47516" lon="6.94739"><ele></ele><time>2025-2-13T3:28:25Z</time></trkpt>
<trkpt lat="46.47526" lon="6.94733"><ele></ele><time>2025-2-13T3:28:28Z</time></trkpt>
<trkpt lat="46.47532" lon="6.9473"><ele></ele><time>2025-2-13T3:28:31Z</time></trkpt>
<trkpt lat="46.47533" lon="6.94729"><ele></ele><time>2025-2-13T3:28:34Z</time></trkpt>
<trkpt lat="46.47537" lon="6.94725"><ele></ele><time>2025-2-13T3:28:37Z</time></trkpt>
<trkpt lat="46.47538" lon="6.94726"><ele></ele><time>2025-2-13T3:28:40Z</time></trkpt>
<trkpt lat="46.47538" lon="6.94725"><ele></ele><time>2025-2-13T3:28:43Z</time></trkpt>
<trkpt lat="46.47539" lon="6.94724"><ele></ele><time>2025-2-13T3:28:46Z</time></trkpt>
<trkpt lat="46.47546" lon="6.94721"><ele></ele><time>2025-2-13T3:28:49Z</time></trkpt>
<trkpt lat="46.47548" lon="6.94719"><ele></ele><time>2025-2-13T3:28:52Z</time></trkpt>
<trkpt lat="46.47549" lon="6.94717"><ele></ele><time>2025-2-13T3:28:55Z</time></trkpt>
<trkpt lat="46.47549" lon="6.94718"><ele></ele><time>2025-2-13T3:28:58Z</time></trkpt>
<trkpt lat="46.4755" lon="6.94717"><ele></ele><time>2025-2-13T3:29:1Z</time></trkpt>
<trkpt lat="46.47554" lon="6.94714"><ele></ele><time>2025-2-13T3:29:4Z</time></trkpt>
<trkpt lat="46.47559" lon="6.94709"><ele></ele><time>2025-2-13T3:29:7Z</time></trkpt>
<trkpt lat="46.47564" lon="6.94706"><ele></ele><time>2025-2-13T3:29:10Z</time></trkpt>
<trkpt lat="46.47569" lon="6.94701"><ele></ele><time>2025-2-13T3:29:13Z</time></trkpt>
<trkpt lat="46.47571" lon="6.94699"><ele></ele><time>2025-2-13T3:29:16Z</time></trkpt>
<trkpt lat="46.47574" lon="6.94697"><ele></ele><time>2025-2-13T3:29:19Z</time></trkpt>
<trkpt lat="46.47578" lon="6.94694"><ele></ele><time>2025-2-13T3:29:22Z</time></trkpt>
<trkpt lat="46.47584" lon="6.94687"><ele></ele><time>2025-2-13T3:29:25Z</time></trkpt>
<trkpt lat="46.47588" lon="6.94683"><ele></ele><time>2025-2-13T3:29:28Z</time></trkpt>
<trkpt lat="46.47594" lon="6.94676"><ele></ele><time>2025-2-13T3:29:31Z</time></trkpt>
<trkpt lat="46.47596" lon="6.94674"><ele></ele><time>2025-2-13T3:29:34Z</time></trkpt>
<trkpt lat="46.47598" lon="6.94673"><ele></ele><time>2025-2-13T3:29:37Z</time></trkpt>
<trkpt lat="46.47605" lon="6.94665"><ele></ele><time>2025-2-13T3:29:40Z</time></trkpt>
<trkpt lat="46.47608" lon="6.94663"><ele></ele><time>2025-2-13T3:29:43Z</time></trkpt>
<trkpt lat="46.4761" lon="6.94661"><ele></ele><time>2025-2-13T3:29:46Z</time></trkpt>
<trkpt lat="46.47615" lon="6.94656"><ele></ele><time>2025-2-13T3:29:49Z</time></trkpt>
<trkpt lat="46.47621" lon="6.9465"><ele></ele><time>2025-2-13T3:29:52Z</time></trkpt>
<trkpt lat="46.47626" lon="6.94646"><ele></ele><time>2025-2-13T3:29:55Z</time></trkpt>
<trkpt lat="46.47631" lon="6.94643"><ele></ele><time>2025-2-13T3:29:58Z</time></trkpt>
<trkpt lat="46.47632" lon="6.94641"><ele></ele><time>2025-2-13T3:30:1Z</time></trkpt>
<trkpt lat="46.47641" lon="6.94633"><ele></ele><time>2025-2-13T3:30:4Z</time></trkpt>
<trkpt lat="46.47646" lon="6.94628"><ele></ele><time>2025-2-13T3:30:7Z</time></trkpt>
<trkpt lat="46.47648" lon="6.94626"><ele></ele><time>2025-2-13T3:30:10Z</time></trkpt>
<trkpt lat="46.47655" lon="6.9462"><ele></ele><time>2025-2-13T3:30:13Z</time></trkpt>
<trkpt lat="46.47657" lon="6.94616"><ele></ele><time>2025-2-13T3:30:16Z</time></trkpt>
<trkpt lat="46.4766" lon="6.94611"><ele></ele><time>2025-2-13T3:30:19Z</time></trkpt>
<trkpt lat="46.47662" lon="6.94606"><ele></ele><time>2025-2-13T3:30:22Z</time></trkpt>
<trkpt lat="46.47666" lon="6.94602"><ele></ele><time>2025-2-13T3:30:25Z</time></trkpt>
<trkpt lat="46.47668" lon="6.94597"><ele></ele><time>2025-2-13T3:30:28Z</time></trkpt>
<trkpt lat="46.4767" lon="6.94595"><ele></ele><time>2025-2-13T3:30:31Z</time></trkpt>
<trkpt lat="46.4767" lon="6.94594"><ele></ele><time>2025-2-13T3:30:34Z</time></trkpt>
<trkpt lat="46.47669" lon="6.94593"><ele></ele><time>2025-2-13T3:30:37Z</time></trkpt>
<trkpt lat="46.4767" lon="6.94594"><ele></ele><time>2025-2-13T3:30:40Z</time></trkpt>
<trkpt lat="46.47671" lon="6.9459"><ele></ele><time>2025-2-13T3:30:43Z</time></trkpt>
<trkpt lat="46.47672" lon="6.94588"><ele></ele><time>2025-2-13T3:30:46Z</time></trkpt>
<trkpt lat="46.47677" lon="6.9458"><ele></ele><time>2025-2-13T3:30:49Z</time></trkpt>
<trkpt lat="46.4768" lon="6.94575"><ele></ele><time>2025-2-13T3:30:52Z</time></trkpt>
<trkpt lat="46.47681" lon="6.94574"><ele></ele><time>2025-2-13T3:30:55Z</time></trkpt>
<trkpt lat="46.47681" lon="6.94573"><ele></ele><time>2025-2-13T3:30:58Z</time></trkpt>
<trkpt lat="46.47682" lon="6.94573"><ele></ele><time>2025-2-13T3:31:1Z</time></trkpt>
<trkpt lat="46.47685" lon="6.94571"><ele></ele><time>2025-2-13T3:31:4Z</time></trkpt>
<trkpt lat="46.47687" lon="6.94569"><ele></ele><time>2025-2-13T3:31:7Z</time></trkpt>
<trkpt lat="46.4769" lon="6.94567"><ele></ele><time>2025-2-13T3:31:10Z</time></trkpt>
<trkpt lat="46.47694" lon="6.94563"><ele></ele><time>2025-2-13T3:31:13Z</time></trkpt>
<trkpt lat="46.47696" lon="6.94561"><ele></ele><time>2025-2-13T3:31:16Z</time></trkpt>
<trkpt lat="46.477" lon="6.94556"><ele></ele><time>2025-2-13T3:31:19Z</time></trkpt>
<trkpt lat="46.47703" lon="6.94553"><ele></ele><time>2025-2-13T3:31:22Z</time></trkpt>
<trkpt lat="46.47704" lon="6.94552"><ele></ele><time>2025-2-13T3:31:25Z</time></trkpt>
<trkpt lat="46.47708" lon="6.94547"><ele></ele><time>2025-2-13T3:31:28Z</time></trkpt>
<trkpt lat="46.47712" lon="6.94542"><ele></ele><time>2025-2-13T3:31:31Z</time></trkpt>
<trkpt lat="46.47717" lon="6.94536"><ele></ele><time>2025-2-13T3:31:34Z</time></trkpt>
<trkpt lat="46.47718" lon="6.94534"><ele></ele><time>2025-2-13T3:31:37Z</time></trkpt>
<trkpt lat="46.4772" lon="6.94532"><ele></ele><time>2025-2-13T3:31:40Z</time></trkpt>
<trkpt lat="46.47722" lon="6.94528"><ele></ele><time>2025-2-13T3:31:43Z</time></trkpt>
<trkpt lat="46.47726" lon="6.94528"><ele></ele><time>2025-2-13T3:31:46Z</time></trkpt>
<trkpt lat="46.47727" lon="6.94526"><ele></ele><time>2025-2-13T3:31:49Z</time></trkpt>
<trkpt lat="46.47727" lon="6.94523"><ele></ele><time>2025-2-13T3:31:52Z</time></trkpt>
<trkpt lat="46.47727" lon="6.94522"><ele></ele><time>2025-2-13T3:31:55Z</time></trkpt>
<trkpt lat="46.47729" lon="6.94519"><ele></ele><time>2025-2-13T3:31:58Z</time></trkpt>
<trkpt lat="46.4773" lon="6.94517"><ele></ele><time>2025-2-13T3:32:1Z</time></trkpt>
<trkpt lat="46.47731" lon="6.94516"><ele></ele><time>2025-2-13T3:32:4Z</time></trkpt>
<trkpt lat="46.47733" lon="6.94515"><ele></ele><time>2025-2-13T3:32:7Z</time></trkpt>
<trkpt lat="46.47734" lon="6.94513"><ele></ele><time>2025-2-13T3:32:10Z</time></trkpt>
<trkpt lat="46.47736" lon="6.94512"><ele></ele><time>2025-2-13T3:32:13Z</time></trkpt>
<trkpt lat="46.47738" lon="6.94508"><ele></ele><time>2025-2-13T3:32:16Z</time></trkpt>
<trkpt lat="46.47739" lon="6.94506"><ele></ele><time>2025-2-13T3:32:19Z</time></trkpt>
<trkpt lat="46.47739" lon="6.94505"><ele></ele><time>2025-2-13T3:32:22Z</time></trkpt>
<trkpt lat="46.4774" lon="6.94505"><ele></ele><time>2025-2-13T3:32:25Z</time></trkpt>
<trkpt lat="46.47744" lon="6.94499"><ele></ele><time>2025-2-13T3:32:28Z</time></trkpt>
<trkpt lat="46.47749" lon="6.94495"><ele></ele><time>2025-2-13T3:32:31Z</time></trkpt>
<trkpt lat="46.47754" lon="6.9449"><ele></ele><time>2025-2-13T3:32:34Z</time></trkpt>
<trkpt lat="46.4776" lon="6.94484"><ele></ele><time>2025-2-13T3:32:37Z</time></trkpt>
<trkpt lat="46.47762" lon="6.94481"><ele></ele><time>2025-2-13T3:32:40Z</time></trkpt>
<trkpt lat="46.47762" lon="6.9448"><ele></ele><time>2025-2-13T3:32:43Z</time></trkpt>
<trkpt lat="46.47763" lon="6.9448"><ele></ele><time>2025-2-13T3:32:46Z</time></trkpt>
<trkpt lat="46.47762" lon="6.94478"><ele></ele><time>2025-2-13T3:32:49Z</time></trkpt>
<trkpt lat="46.47763" lon="6.94477"><ele></ele><time>2025-2-13T3:32:52Z</time></trkpt>
<trkpt lat="46.47766" lon="6.94473"><ele></ele><time>2025-2-13T3:32:55Z</time></trkpt>
<trkpt lat="46.47767" lon="6.94472"><ele></ele><time>2025-2-13T3:32:58Z</time></trkpt>
<trkpt lat="46.47771" lon="6.94469"><ele></ele><time>2025-2-13T3:33:1Z</time></trkpt>
<trkpt lat="46.47772" lon="6.94469"><ele></ele><time>2025-2-13T3:33:4Z</time></trkpt>
<trkpt lat="46.47771" lon="6.94468"><ele></ele><time>2025-2-13T3:33:7Z</time></trkpt>
<trkpt lat="46.47779" lon="6.94463"><ele></ele><time>2025-2-13T3:33:10Z</time></trkpt>
<trkpt lat="46.47783" lon="6.94458"><ele></ele><time>2025-2-13T3:33:13Z</time></trkpt>
<trkpt lat="46.47788" lon="6.94454"><ele></ele><time>2025-2-13T3:33:16Z</time></trkpt>
<trkpt lat="46.47791" lon="6.94449"><ele></ele><time>2025-2-13T3:33:19Z</time></trkpt>
<trkpt lat="46.47794" lon="6.94444"><ele></ele><time>2025-2-13T3:33:22Z</time></trkpt>
<trkpt lat="46.47797" lon="6.94439"><ele></ele><time>2025-2-13T3:33:25Z</time></trkpt>
<trkpt lat="46.47803" lon="6.94432"><ele></ele><time>2025-2-13T3:33:28Z</time></trkpt>
<trkpt lat="46.47804" lon="6.9443"><ele></ele><time>2025-2-13T3:33:31Z</time></trkpt>
<trkpt lat="46.47805" lon="6.94429"><ele></ele><time>2025-2-13T3:33:34Z</time></trkpt>
<trkpt lat="46.47806" lon="6.9443"><ele></ele><time>2025-2-13T3:33:37Z</time></trkpt>
<trkpt lat="46.47806" lon="6.9443"><ele></ele><time>2025-2-13T3:33:40Z</time></trkpt>
<trkpt lat="46.47809" lon="6.9443"><ele></ele><time>2025-2-13T3:33:43Z</time></trkpt>
<trkpt lat="46.47811" lon="6.94425"><ele></ele><time>2025-2-13T3:33:46Z</time></trkpt>
<trkpt lat="46.47811" lon="6.94424"><ele></ele><time>2025-2-13T3:33:49Z</time></trkpt>
<trkpt lat="46.47817" lon="6.94418"><ele></ele><time>2025-2-13T3:33:52Z</time></trkpt>
<trkpt lat="46.47819" lon="6.94417"><ele></ele><time>2025-2-13T3:33:55Z</time></trkpt>
<trkpt lat="46.47827" lon="6.94414"><ele></ele><time>2025-2-13T3:33:58Z</time></trkpt>
<trkpt lat="46.4783" lon="6.94413"><ele></ele><time>2025-2-13T3:34:1Z</time></trkpt>
<trkpt lat="46.47839" lon="6.94413"><ele></ele><time>2025-2-13T3:34:4Z</time></trkpt>
<trkpt lat="46.47847" lon="6.94416"><ele></ele><time>2025-2-13T3:34:7Z</time></trkpt>
<trkpt lat="46.47868" lon="6.94423"><ele></ele><time>2025-2-13T3:34:10Z</time></trkpt>
<trkpt lat="46.47874" lon="6.94424"><ele></ele><time>2025-2-13T3:34:13Z</time></trkpt>
<trkpt lat="46.47876" lon="6.94425"><ele></ele><time>2025-2-13T3:34:16Z</time></trkpt>
<trkpt lat="46.47876" lon="6.94425"><ele></ele><time>2025-2-13T3:34:19Z</time></trkpt>
<trkpt lat="46.47874" lon="6.94425"><ele></ele><time>2025-2-13T3:34:22Z</time></trkpt>
<trkpt lat="46.47874" lon="6.94425"><ele></ele><time>2025-2-13T3:34:25Z</time></trkpt>
<trkpt lat="46.47875" lon="6.94424"><ele></ele><time>2025-2-13T3:34:28Z</time></trkpt>
<trkpt lat="46.47875" lon="6.94425"><ele></ele><time>2025-2-13T3:34:31Z</time></trkpt>
<trkpt lat="46.47875" lon="6.94425"><ele></ele><time>2025-2-13T3:34:34Z</time></trkpt>
<trkpt lat="46.47875" lon="6.94426"><ele></ele><time>2025-2-13T3:34:37Z</time></trkpt>
<trkpt lat="46.47875" lon="6.94424"><ele></ele><time>2025-2-13T3:34:40Z</time></trkpt>
<trkpt lat="46.47875" lon="6.94424"><ele></ele><time>2025-2-13T3:34:43Z</time></trkpt>
<trkpt lat="46.47869" lon="6.94423"><ele></ele><time>2025-2-13T3:34:46Z</time></trkpt>
<trkpt lat="46.47863" lon="6.94423"><ele></ele><time>2025-2-13T3:34:49Z</time></trkpt>
<trkpt lat="46.47864" lon="6.94423"><ele></ele><time>2025-2-13T3:34:52Z</time></trkpt>
<trkpt lat="46.47863" lon="6.94422"><ele></ele><time>2025-2-13T3:34:55Z</time></trkpt>
<trkpt lat="46.47864" lon="6.94422"><ele></ele><time>2025-2-13T3:34:58Z</time></trkpt>
<trkpt lat="46.47864" lon="6.94422"><ele></ele><time>2025-2-13T3:35:1Z</time></trkpt>
<trkpt lat="46.47864" lon="6.94422"><ele></ele><time>2025-2-13T3:35:4Z</time></trkpt>
<trkpt lat="46.47864" lon="6.94422"><ele></ele><time>2025-2-13T3:35:7Z</time></trkpt>
<trkpt lat="46.47864" lon="6.94422"><ele></ele><time>2025-2-13T3:35:10Z</time></trkpt>
<trkpt lat="46.47864" lon="6.94422"><ele></ele><time>2025-2-13T3:35:13Z</time></trkpt>
<trkpt lat="46.47864" lon="6.94422"><ele></ele><time>2025-2-13T3:35:16Z</time></trkpt>
<trkpt lat="46.47864" lon="6.94422"><ele></ele><time>2025-2-13T3:35:19Z</time></trkpt>
<trkpt lat="46.47864" lon="6.94422"><ele></ele><time>2025-2-13T3:35:22Z</time></trkpt>
<trkpt lat="46.47863" lon="6.94421"><ele></ele><time>2025-2-13T3:35:25Z</time></trkpt>
<trkpt lat="46.47863" lon="6.94422"><ele></ele><time>2025-2-13T3:35:28Z</time></trkpt>
<trkpt lat="46.47863" lon="6.94422"><ele></ele><time>2025-2-13T3:35:31Z</time></trkpt>
<trkpt lat="46.47863" lon="6.94422"><ele></ele><time>2025-2-13T3:35:34Z</time></trkpt>
<trkpt lat="46.47863" lon="6.94421"><ele></ele><time>2025-2-13T3:35:37Z</time></trkpt>
<trkpt lat="46.47863" lon="6.94421"><ele></ele><time>2025-2-13T3:35:40Z</time></trkpt>
<trkpt lat="46.47862" lon="6.94421"><ele></ele><time>2025-2-13T3:35:43Z</time></trkpt>
<trkpt lat="46.47858" lon="6.9442"><ele></ele><time>2025-2-13T3:35:46Z</time></trkpt>
<trkpt lat="46.47845" lon="6.94416"><ele></ele><time>2025-2-13T3:35:49Z</time></trkpt>
<trkpt lat="46.47842" lon="6.94415"><ele></ele><time>2025-2-13T3:35:52Z</time></trkpt>
<trkpt lat="46.4784" lon="6.94414"><ele></ele><time>2025-2-13T3:35:55Z</time></trkpt>
<trkpt lat="46.47845" lon="6.94415"><ele></ele><time>2025-2-13T3:35:58Z</time></trkpt>
<trkpt lat="46.47866" lon="6.94423"><ele></ele><time>2025-2-13T3:36:1Z</time></trkpt>
<trkpt lat="46.47867" lon="6.94423"><ele></ele><time>2025-2-13T3:36:4Z</time></trkpt>
<trkpt lat="46.47867" lon="6.94424"><ele></ele><time>2025-2-13T3:36:7Z</time></trkpt>
<trkpt lat="46.47866" lon="6.94423"><ele></ele><time>2025-2-13T3:36:10Z</time></trkpt>
<trkpt lat="46.47863" lon="6.94422"><ele></ele><time>2025-2-13T3:36:13Z</time></trkpt>
<trkpt lat="46.47861" lon="6.94423"><ele></ele><time>2025-2-13T3:36:16Z</time></trkpt>
<trkpt lat="46.47862" lon="6.94424"><ele></ele><time>2025-2-13T3:36:19Z</time></trkpt>
<trkpt lat="46.47864" lon="6.94425"><ele></ele><time>2025-2-13T3:36:22Z</time></trkpt>
<trkpt lat="46.47866" lon="6.94425"><ele></ele><time>2025-2-13T3:36:25Z</time></trkpt>
<trkpt lat="46.47866" lon="6.94425"><ele></ele><time>2025-2-13T3:36:28Z</time></trkpt>
<trkpt lat="46.47866" lon="6.94425"><ele></ele><time>2025-2-13T3:36:31Z</time></trkpt>
<trkpt lat="46.47866" lon="6.94425"><ele></ele><time>2025-2-13T3:36:34Z</time></trkpt>
<trkpt lat="46.47866" lon="6.94425"><ele></ele><time>2025-2-13T3:36:37Z</time></trkpt>
<trkpt lat="46.47866" lon="6.94425"><ele></ele><time>2025-2-13T3:36:40Z</time></trkpt>
<trkpt lat="46.47866" lon="6.94422"><ele></ele><time>2025-2-13T3:36:43Z</time></trkpt>
<trkpt lat="46.47866" lon="6.94422"><ele></ele><time>2025-2-13T3:36:46Z</time></trkpt>
<trkpt lat="46.47866" lon="6.94422"><ele></ele><time>2025-2-13T3:36:49Z</time></trkpt>
<trkpt lat="46.47866" lon="6.94423"><ele></ele><time>2025-2-13T3:36:52Z</time></trkpt>
<trkpt lat="46.47866" lon="6.94423"><ele></ele><time>2025-2-13T3:36:55Z</time></trkpt>
<trkpt lat="46.47866" lon="6.94423"><ele></ele><time>2025-2-13T3:36:58Z</time></trkpt>
<trkpt lat="46.4787" lon="6.94423"><ele></ele><time>2025-2-13T3:37:1Z</time></trkpt>
<trkpt lat="46.47881" lon="6.94424"><ele></ele><time>2025-2-13T3:37:4Z</time></trkpt>
<trkpt lat="46.47884" lon="6.94422"><ele></ele><time>2025-2-13T3:37:7Z</time></trkpt>
<trkpt lat="46.47889" lon="6.94418"><ele></ele><time>2025-2-13T3:37:10Z</time></trkpt>
<trkpt lat="46.47895" lon="6.94415"><ele></ele><time>2025-2-13T3:37:13Z</time></trkpt>
<trkpt lat="46.47901" lon="6.94411"><ele></ele><time>2025-2-13T3:37:16Z</time></trkpt>
<trkpt lat="46.47903" lon="6.94409"><ele></ele><time>2025-2-13T3:37:19Z</time></trkpt>
<trkpt lat="46.47907" lon="6.94403"><ele></ele><time>2025-2-13T3:37:22Z</time></trkpt>
<trkpt lat="46.47909" lon="6.94399"><ele></ele><time>2025-2-13T3:37:25Z</time></trkpt>
<trkpt lat="46.4791" lon="6.94392"><ele></ele><time>2025-2-13T3:37:28Z</time></trkpt>
<trkpt lat="46.47912" lon="6.94381"><ele></ele><time>2025-2-13T3:37:31Z</time></trkpt>
<trkpt lat="46.47914" lon="6.94377"><ele></ele><time>2025-2-13T3:37:34Z</time></trkpt>
<trkpt lat="46.47916" lon="6.94367"><ele></ele><time>2025-2-13T3:37:37Z</time></trkpt>
<trkpt lat="46.47918" lon="6.94357"><ele></ele><time>2025-2-13T3:37:40Z</time></trkpt>
<trkpt lat="46.47921" lon="6.94342"><ele></ele><time>2025-2-13T3:37:43Z</time></trkpt>
<trkpt lat="46.47922" lon="6.94338"><ele></ele><time>2025-2-13T3:37:46Z</time></trkpt>
<trkpt lat="46.47928" lon="6.94313"><ele></ele><time>2025-2-13T3:37:49Z</time></trkpt>
<trkpt lat="46.47929" lon="6.94308"><ele></ele><time>2025-2-13T3:37:52Z</time></trkpt>
<trkpt lat="46.4793" lon="6.94303"><ele></ele><time>2025-2-13T3:37:55Z</time></trkpt>
<trkpt lat="46.4793" lon="6.94294"><ele></ele><time>2025-2-13T3:37:58Z</time></trkpt>
<trkpt lat="46.47928" lon="6.94292"><ele></ele><time>2025-2-13T3:38:1Z</time></trkpt>
<trkpt lat="46.47926" lon="6.94291"><ele></ele><time>2025-2-13T3:38:4Z</time></trkpt>
<trkpt lat="46.47922" lon="6.94295"><ele></ele><time>2025-2-13T3:38:7Z</time></trkpt>
<trkpt lat="46.47911" lon="6.94313"><ele></ele><time>2025-2-13T3:38:10Z</time></trkpt>
<trkpt lat="46.47907" lon="6.94315"><ele></ele><time>2025-2-13T3:38:13Z</time></trkpt>
<trkpt lat="46.47896" lon="6.9432"><ele></ele><time>2025-2-13T3:38:16Z</time></trkpt>
<trkpt lat="46.47886" lon="6.94325"><ele></ele><time>2025-2-13T3:38:19Z</time></trkpt>
<trkpt lat="46.47877" lon="6.94328"><ele></ele><time>2025-2-13T3:38:22Z</time></trkpt>
<trkpt lat="46.47866" lon="6.9433"><ele></ele><time>2025-2-13T3:38:25Z</time></trkpt>
<trkpt lat="46.47851" lon="6.94333"><ele></ele><time>2025-2-13T3:38:28Z</time></trkpt>
<trkpt lat="46.47834" lon="6.94336"><ele></ele><time>2025-2-13T3:38:31Z</time></trkpt>
<trkpt lat="46.47826" lon="6.94336"><ele></ele><time>2025-2-13T3:38:34Z</time></trkpt>
<trkpt lat="46.47817" lon="6.94334"><ele></ele><time>2025-2-13T3:38:37Z</time></trkpt>
<trkpt lat="46.47808" lon="6.94332"><ele></ele><time>2025-2-13T3:38:40Z</time></trkpt>
<trkpt lat="46.4779" lon="6.94328"><ele></ele><time>2025-2-13T3:38:43Z</time></trkpt>
<trkpt lat="46.47781" lon="6.94325"><ele></ele><time>2025-2-13T3:38:46Z</time></trkpt>
<trkpt lat="46.47772" lon="6.94323"><ele></ele><time>2025-2-13T3:38:49Z</time></trkpt>
<trkpt lat="46.47762" lon="6.94322"><ele></ele><time>2025-2-13T3:38:52Z</time></trkpt>
<trkpt lat="46.47752" lon="6.94321"><ele></ele><time>2025-2-13T3:38:55Z</time></trkpt>
<trkpt lat="46.47742" lon="6.94322"><ele></ele><time>2025-2-13T3:38:58Z</time></trkpt>
<trkpt lat="46.47731" lon="6.94322"><ele></ele><time>2025-2-13T3:39:1Z</time></trkpt>
<trkpt lat="46.47713" lon="6.94319"><ele></ele><time>2025-2-13T3:39:4Z</time></trkpt>
<trkpt lat="46.47704" lon="6.94316"><ele></ele><time>2025-2-13T3:39:7Z</time></trkpt>
<trkpt lat="46.47696" lon="6.94315"><ele></ele><time>2025-2-13T3:39:10Z</time></trkpt>
<trkpt lat="46.47687" lon="6.94314"><ele></ele><time>2025-2-13T3:39:13Z</time></trkpt>
<trkpt lat="46.47679" lon="6.94315"><ele></ele><time>2025-2-13T3:39:16Z</time></trkpt>
<trkpt lat="46.47672" lon="6.94317"><ele></ele><time>2025-2-13T3:39:19Z</time></trkpt>
<trkpt lat="46.47666" lon="6.94322"><ele></ele><time>2025-2-13T3:39:22Z</time></trkpt>
<trkpt lat="46.47663" lon="6.94328"><ele></ele><time>2025-2-13T3:39:25Z</time></trkpt>
<trkpt lat="46.47657" lon="6.94338"><ele></ele><time>2025-2-13T3:39:28Z</time></trkpt>
<trkpt lat="46.4765" lon="6.94343"><ele></ele><time>2025-2-13T3:39:31Z</time></trkpt>
<trkpt lat="46.47617" lon="6.94371"><ele></ele><time>2025-2-13T3:39:34Z</time></trkpt>
<trkpt lat="46.47583" lon="6.94407"><ele></ele><time>2025-2-13T3:39:37Z</time></trkpt>
<trkpt lat="46.47573" lon="6.94419"><ele></ele><time>2025-2-13T3:39:40Z</time></trkpt>
<trkpt lat="46.47565" lon="6.94422"><ele></ele><time>2025-2-13T3:39:43Z</time></trkpt>
<trkpt lat="46.47562" lon="6.94422"><ele></ele><time>2025-2-13T3:39:46Z</time></trkpt>
<trkpt lat="46.4755" lon="6.94424"><ele></ele><time>2025-2-13T3:39:49Z</time></trkpt>
<trkpt lat="46.47545" lon="6.94426"><ele></ele><time>2025-2-13T3:39:52Z</time></trkpt>
<trkpt lat="46.47539" lon="6.94429"><ele></ele><time>2025-2-13T3:39:55Z</time></trkpt>
<trkpt lat="46.47527" lon="6.94432"><ele></ele><time>2025-2-13T3:39:58Z</time></trkpt>
<trkpt lat="46.47515" lon="6.94435"><ele></ele><time>2025-2-13T3:40:1Z</time></trkpt>
<trkpt lat="46.47509" lon="6.9444"><ele></ele><time>2025-2-13T3:40:4Z</time></trkpt>
<trkpt lat="46.47503" lon="6.94447"><ele></ele><time>2025-2-13T3:40:7Z</time></trkpt>
<trkpt lat="46.47496" lon="6.94455"><ele></ele><time>2025-2-13T3:40:10Z</time></trkpt>
<trkpt lat="46.47488" lon="6.94461"><ele></ele><time>2025-2-13T3:40:13Z</time></trkpt>
<trkpt lat="46.47479" lon="6.94463"><ele></ele><time>2025-2-13T3:40:16Z</time></trkpt>
<trkpt lat="46.47469" lon="6.94465"><ele></ele><time>2025-2-13T3:40:19Z</time></trkpt>
<trkpt lat="46.47448" lon="6.94466"><ele></ele><time>2025-2-13T3:40:22Z</time></trkpt>
<trkpt lat="46.47437" lon="6.94465"><ele></ele><time>2025-2-13T3:40:25Z</time></trkpt>
<trkpt lat="46.47425" lon="6.94465"><ele></ele><time>2025-2-13T3:40:28Z</time></trkpt>
<trkpt lat="46.47414" lon="6.94464"><ele></ele><time>2025-2-13T3:40:31Z</time></trkpt>
<trkpt lat="46.47403" lon="6.94463"><ele></ele><time>2025-2-13T3:40:34Z</time></trkpt>
<trkpt lat="46.47393" lon="6.94462"><ele></ele><time>2025-2-13T3:40:37Z</time></trkpt>
<trkpt lat="46.47383" lon="6.94462"><ele></ele><time>2025-2-13T3:40:40Z</time></trkpt>
<trkpt lat="46.47374" lon="6.94463"><ele></ele><time>2025-2-13T3:40:43Z</time></trkpt>
<trkpt lat="46.47365" lon="6.94463"><ele></ele><time>2025-2-13T3:40:46Z</time></trkpt>
<trkpt lat="46.47347" lon="6.94462"><ele></ele><time>2025-2-13T3:40:49Z</time></trkpt>
<trkpt lat="46.47328" lon="6.94453"><ele></ele><time>2025-2-13T3:40:52Z</time></trkpt>
<trkpt lat="46.47319" lon="6.94449"><ele></ele><time>2025-2-13T3:40:55Z</time></trkpt>
<trkpt lat="46.47311" lon="6.94443"><ele></ele><time>2025-2-13T3:40:58Z</time></trkpt>
<trkpt lat="46.47302" lon="6.94438"><ele></ele><time>2025-2-13T3:41:1Z</time></trkpt>
<trkpt lat="46.47293" lon="6.94432"><ele></ele><time>2025-2-13T3:41:4Z</time></trkpt>
<trkpt lat="46.47283" lon="6.94427"><ele></ele><time>2025-2-13T3:41:7Z</time></trkpt>
<trkpt lat="46.47265" lon="6.94415"><ele></ele><time>2025-2-13T3:41:10Z</time></trkpt>
<trkpt lat="46.47256" lon="6.94409"><ele></ele><time>2025-2-13T3:41:13Z</time></trkpt>
<trkpt lat="46.47237" lon="6.94397"><ele></ele><time>2025-2-13T3:41:16Z</time></trkpt>
<trkpt lat="46.47227" lon="6.94391"><ele></ele><time>2025-2-13T3:41:19Z</time></trkpt>
<trkpt lat="46.47217" lon="6.94385"><ele></ele><time>2025-2-13T3:41:22Z</time></trkpt>
<trkpt lat="46.47196" lon="6.94375"><ele></ele><time>2025-2-13T3:41:25Z</time></trkpt>
<trkpt lat="46.47186" lon="6.9437"><ele></ele><time>2025-2-13T3:41:28Z</time></trkpt>
<trkpt lat="46.47168" lon="6.94359"><ele></ele><time>2025-2-13T3:41:31Z</time></trkpt>
<trkpt lat="46.47161" lon="6.94352"><ele></ele><time>2025-2-13T3:41:34Z</time></trkpt>
<trkpt lat="46.47154" lon="6.94344"><ele></ele><time>2025-2-13T3:41:37Z</time></trkpt>
<trkpt lat="46.47149" lon="6.94336"><ele></ele><time>2025-2-13T3:41:40Z</time></trkpt>
<trkpt lat="46.47145" lon="6.9433"><ele></ele><time>2025-2-13T3:41:43Z</time></trkpt>
<trkpt lat="46.47141" lon="6.94326"><ele></ele><time>2025-2-13T3:41:46Z</time></trkpt>
<trkpt lat="46.47135" lon="6.9432"><ele></ele><time>2025-2-13T3:41:49Z</time></trkpt>
<trkpt lat="46.47124" lon="6.9432"><ele></ele><time>2025-2-13T3:41:52Z</time></trkpt>
<trkpt lat="46.47119" lon="6.9432"><ele></ele><time>2025-2-13T3:41:55Z</time></trkpt>
<trkpt lat="46.47106" lon="6.94317"><ele></ele><time>2025-2-13T3:41:58Z</time></trkpt>
<trkpt lat="46.47097" lon="6.94315"><ele></ele><time>2025-2-13T3:42:1Z</time></trkpt>
<trkpt lat="46.47087" lon="6.94311"><ele></ele><time>2025-2-13T3:42:4Z</time></trkpt>
<trkpt lat="46.47075" lon="6.94308"><ele></ele><time>2025-2-13T3:42:7Z</time></trkpt>
<trkpt lat="46.47063" lon="6.94305"><ele></ele><time>2025-2-13T3:42:10Z</time></trkpt>
<trkpt lat="46.47051" lon="6.94301"><ele></ele><time>2025-2-13T3:42:13Z</time></trkpt>
<trkpt lat="46.47039" lon="6.94296"><ele></ele><time>2025-2-13T3:42:16Z</time></trkpt>
<trkpt lat="46.47027" lon="6.94293"><ele></ele><time>2025-2-13T3:42:19Z</time></trkpt>
<trkpt lat="46.47015" lon="6.94289"><ele></ele><time>2025-2-13T3:42:22Z</time></trkpt>
<trkpt lat="46.47004" lon="6.94287"><ele></ele><time>2025-2-13T3:42:25Z</time></trkpt>
<trkpt lat="46.46995" lon="6.94284"><ele></ele><time>2025-2-13T3:42:28Z</time></trkpt>
<trkpt lat="46.46986" lon="6.9428"><ele></ele><time>2025-2-13T3:42:31Z</time></trkpt>
<trkpt lat="46.46978" lon="6.94277"><ele></ele><time>2025-2-13T3:42:34Z</time></trkpt>
<trkpt lat="46.46969" lon="6.94272"><ele></ele><time>2025-2-13T3:42:37Z</time></trkpt>
<trkpt lat="46.46961" lon="6.94265"><ele></ele><time>2025-2-13T3:42:40Z</time></trkpt>
<trkpt lat="46.46953" lon="6.94259"><ele></ele><time>2025-2-13T3:42:43Z</time></trkpt>
<trkpt lat="46.46946" lon="6.94254"><ele></ele><time>2025-2-13T3:42:46Z</time></trkpt>
<trkpt lat="46.46941" lon="6.9425"><ele></ele><time>2025-2-13T3:42:49Z</time></trkpt>
<trkpt lat="46.46935" lon="6.94246"><ele></ele><time>2025-2-13T3:42:52Z</time></trkpt>
<trkpt lat="46.46929" lon="6.94244"><ele></ele><time>2025-2-13T3:42:55Z</time></trkpt>
<trkpt lat="46.46923" lon="6.94243"><ele></ele><time>2025-2-13T3:42:58Z</time></trkpt>
<trkpt lat="46.46916" lon="6.94242"><ele></ele><time>2025-2-13T3:43:1Z</time></trkpt>
<trkpt lat="46.46909" lon="6.94241"><ele></ele><time>2025-2-13T3:43:4Z</time></trkpt>
<trkpt lat="46.46901" lon="6.9424"><ele></ele><time>2025-2-13T3:43:7Z</time></trkpt>
<trkpt lat="46.46885" lon="6.94238"><ele></ele><time>2025-2-13T3:43:10Z</time></trkpt>
<trkpt lat="46.46869" lon="6.94232"><ele></ele><time>2025-2-13T3:43:13Z</time></trkpt>
<trkpt lat="46.46861" lon="6.94229"><ele></ele><time>2025-2-13T3:43:16Z</time></trkpt>
<trkpt lat="46.46853" lon="6.94227"><ele></ele><time>2025-2-13T3:43:19Z</time></trkpt>
<trkpt lat="46.46845" lon="6.94225"><ele></ele><time>2025-2-13T3:43:22Z</time></trkpt>
<trkpt lat="46.46837" lon="6.94226"><ele></ele><time>2025-2-13T3:43:25Z</time></trkpt>
<trkpt lat="46.46829" lon="6.94225"><ele></ele><time>2025-2-13T3:43:28Z</time></trkpt>
<trkpt lat="46.4682" lon="6.94224"><ele></ele><time>2025-2-13T3:43:31Z</time></trkpt>
<trkpt lat="46.46812" lon="6.9422"><ele></ele><time>2025-2-13T3:43:34Z</time></trkpt>
<trkpt lat="46.46795" lon="6.9421"><ele></ele><time>2025-2-13T3:43:37Z</time></trkpt>
<trkpt lat="46.46786" lon="6.94203"><ele></ele><time>2025-2-13T3:43:40Z</time></trkpt>
<trkpt lat="46.46778" lon="6.94197"><ele></ele><time>2025-2-13T3:43:43Z</time></trkpt>
<trkpt lat="46.4677" lon="6.94192"><ele></ele><time>2025-2-13T3:43:46Z</time></trkpt>
<trkpt lat="46.46764" lon="6.94188"><ele></ele><time>2025-2-13T3:43:49Z</time></trkpt>
<trkpt lat="46.46757" lon="6.94185"><ele></ele><time>2025-2-13T3:43:52Z</time></trkpt>
<trkpt lat="46.4675" lon="6.94182"><ele></ele><time>2025-2-13T3:43:55Z</time></trkpt>
<trkpt lat="46.46736" lon="6.9418"><ele></ele><time>2025-2-13T3:43:58Z</time></trkpt>
<trkpt lat="46.4673" lon="6.94181"><ele></ele><time>2025-2-13T3:44:1Z</time></trkpt>
<trkpt lat="46.46724" lon="6.94181"><ele></ele><time>2025-2-13T3:44:4Z</time></trkpt>
<trkpt lat="46.46718" lon="6.94182"><ele></ele><time>2025-2-13T3:44:7Z</time></trkpt>
<trkpt lat="46.46712" lon="6.94184"><ele></ele><time>2025-2-13T3:44:10Z</time></trkpt>
<trkpt lat="46.46707" lon="6.94187"><ele></ele><time>2025-2-13T3:44:13Z</time></trkpt>
<trkpt lat="46.46702" lon="6.94192"><ele></ele><time>2025-2-13T3:44:16Z</time></trkpt>
<trkpt lat="46.46698" lon="6.94199"><ele></ele><time>2025-2-13T3:44:19Z</time></trkpt>
<trkpt lat="46.46694" lon="6.94205"><ele></ele><time>2025-2-13T3:44:22Z</time></trkpt>
<trkpt lat="46.46691" lon="6.94213"><ele></ele><time>2025-2-13T3:44:25Z</time></trkpt>
<trkpt lat="46.4669" lon="6.9422"><ele></ele><time>2025-2-13T3:44:28Z</time></trkpt>
<trkpt lat="46.46689" lon="6.94228"><ele></ele><time>2025-2-13T3:44:31Z</time></trkpt>
<trkpt lat="46.46689" lon="6.94236"><ele></ele><time>2025-2-13T3:44:34Z</time></trkpt>
<trkpt lat="46.46689" lon="6.94243"><ele></ele><time>2025-2-13T3:44:37Z</time></trkpt>
<trkpt lat="46.46689" lon="6.94249"><ele></ele><time>2025-2-13T3:44:40Z</time></trkpt>
<trkpt lat="46.4669" lon="6.94255"><ele></ele><time>2025-2-13T3:44:43Z</time></trkpt>
<trkpt lat="46.4669" lon="6.94261"><ele></ele><time>2025-2-13T3:44:46Z</time></trkpt>
<trkpt lat="46.46696" lon="6.94292"><ele></ele><time>2025-2-13T3:44:49Z</time></trkpt>
<trkpt lat="46.46699" lon="6.94308"><ele></ele><time>2025-2-13T3:44:52Z</time></trkpt>
<trkpt lat="46.46702" lon="6.94326"><ele></ele><time>2025-2-13T3:44:55Z</time></trkpt>
<trkpt lat="46.46705" lon="6.94355"><ele></ele><time>2025-2-13T3:44:58Z</time></trkpt>
<trkpt lat="46.46705" lon="6.94364"><ele></ele><time>2025-2-13T3:45:1Z</time></trkpt>
<trkpt lat="46.46704" lon="6.94373"><ele></ele><time>2025-2-13T3:45:4Z</time></trkpt>
<trkpt lat="46.46705" lon="6.94412"><ele></ele><time>2025-2-13T3:45:7Z</time></trkpt>
<trkpt lat="46.46706" lon="6.94423"><ele></ele><time>2025-2-13T3:45:10Z</time></trkpt>
<trkpt lat="46.46709" lon="6.94433"><ele></ele><time>2025-2-13T3:45:13Z</time></trkpt>
<trkpt lat="46.46721" lon="6.94463"><ele></ele><time>2025-2-13T3:45:16Z</time></trkpt>
<trkpt lat="46.4673" lon="6.94484"><ele></ele><time>2025-2-13T3:45:19Z</time></trkpt>
<trkpt lat="46.46741" lon="6.9452"><ele></ele><time>2025-2-13T3:45:22Z</time></trkpt>
<trkpt lat="46.46753" lon="6.94618"><ele></ele><time>2025-2-13T3:45:25Z</time></trkpt>
<trkpt lat="46.46754" lon="6.94619"><ele></ele><time>2025-2-13T3:45:28Z</time></trkpt>
<trkpt lat="46.46758" lon="6.94627"><ele></ele><time>2025-2-13T3:45:31Z</time></trkpt>
<trkpt lat="46.46759" lon="6.94628"><ele></ele><time>2025-2-13T3:45:34Z</time></trkpt>
<trkpt lat="46.46765" lon="6.94633"><ele></ele><time>2025-2-13T3:45:37Z</time></trkpt>
<trkpt lat="46.46768" lon="6.94636"><ele></ele><time>2025-2-13T3:45:40Z</time></trkpt>
<trkpt lat="46.46773" lon="6.94641"><ele></ele><time>2025-2-13T3:45:43Z</time></trkpt>
<trkpt lat="46.46774" lon="6.94643"><ele></ele><time>2025-2-13T3:45:46Z</time></trkpt>
<trkpt lat="46.46783" lon="6.94652"><ele></ele><time>2025-2-13T3:45:49Z</time></trkpt>
<trkpt lat="46.46792" lon="6.94662"><ele></ele><time>2025-2-13T3:45:52Z</time></trkpt>
<trkpt lat="46.46796" lon="6.94666"><ele></ele><time>2025-2-13T3:45:55Z</time></trkpt>
<trkpt lat="46.46805" lon="6.94674"><ele></ele><time>2025-2-13T3:45:58Z</time></trkpt>
<trkpt lat="46.46807" lon="6.94677"><ele></ele><time>2025-2-13T3:46:1Z</time></trkpt>
<trkpt lat="46.46817" lon="6.94685"><ele></ele><time>2025-2-13T3:46:4Z</time></trkpt>
<trkpt lat="46.46819" lon="6.94688"><ele></ele><time>2025-2-13T3:46:7Z</time></trkpt>
<trkpt lat="46.46831" lon="6.947"><ele></ele><time>2025-2-13T3:46:10Z</time></trkpt>
<trkpt lat="46.4684" lon="6.94709"><ele></ele><time>2025-2-13T3:46:13Z</time></trkpt>
<trkpt lat="46.46842" lon="6.94712"><ele></ele><time>2025-2-13T3:46:16Z</time></trkpt>
<trkpt lat="46.46852" lon="6.9472"><ele></ele><time>2025-2-13T3:46:19Z</time></trkpt>
<trkpt lat="46.46857" lon="6.94725"><ele></ele><time>2025-2-13T3:46:22Z</time></trkpt>
<trkpt lat="46.46865" lon="6.94736"><ele></ele><time>2025-2-13T3:46:25Z</time></trkpt>
<trkpt lat="46.46877" lon="6.94753"><ele></ele><time>2025-2-13T3:46:28Z</time></trkpt>
<trkpt lat="46.46883" lon="6.94765"><ele></ele><time>2025-2-13T3:46:31Z</time></trkpt>
<trkpt lat="46.46896" lon="6.94789"><ele></ele><time>2025-2-13T3:46:34Z</time></trkpt>
<trkpt lat="46.46896" lon="6.94792"><ele></ele><time>2025-2-13T3:46:37Z</time></trkpt>
<trkpt lat="46.46902" lon="6.9481"><ele></ele><time>2025-2-13T3:46:40Z</time></trkpt>
<trkpt lat="46.46903" lon="6.94827"><ele></ele><time>2025-2-13T3:46:43Z</time></trkpt>
<trkpt lat="46.46904" lon="6.94833"><ele></ele><time>2025-2-13T3:46:46Z</time></trkpt>
<trkpt lat="46.46901" lon="6.94857"><ele></ele><time>2025-2-13T3:46:49Z</time></trkpt>
<trkpt lat="46.46898" lon="6.94878"><ele></ele><time>2025-2-13T3:46:52Z</time></trkpt>
<trkpt lat="46.46897" lon="6.94881"><ele></ele><time>2025-2-13T3:46:55Z</time></trkpt>
<trkpt lat="46.46891" lon="6.94912"><ele></ele><time>2025-2-13T3:46:58Z</time></trkpt>
<trkpt lat="46.46888" lon="6.94917"><ele></ele><time>2025-2-13T3:47:1Z</time></trkpt>
<trkpt lat="46.46881" lon="6.94919"><ele></ele><time>2025-2-13T3:47:4Z</time></trkpt>
<trkpt lat="46.46871" lon="6.94914"><ele></ele><time>2025-2-13T3:47:7Z</time></trkpt>
<trkpt lat="46.46856" lon="6.94909"><ele></ele><time>2025-2-13T3:47:10Z</time></trkpt>
<trkpt lat="46.46849" lon="6.94907"><ele></ele><time>2025-2-13T3:47:13Z</time></trkpt>
<trkpt lat="46.46839" lon="6.94908"><ele></ele><time>2025-2-13T3:47:16Z</time></trkpt>
<trkpt lat="46.46824" lon="6.9491"><ele></ele><time>2025-2-13T3:47:19Z</time></trkpt>
<trkpt lat="46.46813" lon="6.94912"><ele></ele><time>2025-2-13T3:47:22Z</time></trkpt>
<trkpt lat="46.46791" lon="6.94907"><ele></ele><time>2025-2-13T3:47:25Z</time></trkpt>
<trkpt lat="46.46779" lon="6.94901"><ele></ele><time>2025-2-13T3:47:28Z</time></trkpt>
<trkpt lat="46.46759" lon="6.94891"><ele></ele><time>2025-2-13T3:47:31Z</time></trkpt>
<trkpt lat="46.46755" lon="6.94889"><ele></ele><time>2025-2-13T3:47:34Z</time></trkpt>
<trkpt lat="46.46729" lon="6.94875"><ele></ele><time>2025-2-13T3:47:37Z</time></trkpt>
<trkpt lat="46.46724" lon="6.94869"><ele></ele><time>2025-2-13T3:47:40Z</time></trkpt>
<trkpt lat="46.46719" lon="6.94862"><ele></ele><time>2025-2-13T3:47:43Z</time></trkpt>
<trkpt lat="46.46716" lon="6.94852"><ele></ele><time>2025-2-13T3:47:46Z</time></trkpt>
<trkpt lat="46.46716" lon="6.94842"><ele></ele><time>2025-2-13T3:47:49Z</time></trkpt>
<trkpt lat="46.46717" lon="6.94833"><ele></ele><time>2025-2-13T3:47:52Z</time></trkpt>
<trkpt lat="46.46718" lon="6.94826"><ele></ele><time>2025-2-13T3:47:55Z</time></trkpt>
<trkpt lat="46.4672" lon="6.94803"><ele></ele><time>2025-2-13T3:47:58Z</time></trkpt>
<trkpt lat="46.46716" lon="6.94797"><ele></ele><time>2025-2-13T3:48:1Z</time></trkpt>
<trkpt lat="46.46711" lon="6.94793"><ele></ele><time>2025-2-13T3:48:4Z</time></trkpt>
<trkpt lat="46.46697" lon="6.94786"><ele></ele><time>2025-2-13T3:48:7Z</time></trkpt>
<trkpt lat="46.46681" lon="6.94776"><ele></ele><time>2025-2-13T3:48:10Z</time></trkpt>
<trkpt lat="46.46673" lon="6.94768"><ele></ele><time>2025-2-13T3:48:13Z</time></trkpt>
<trkpt lat="46.46667" lon="6.94758"><ele></ele><time>2025-2-13T3:48:16Z</time></trkpt>
<trkpt lat="46.46661" lon="6.94747"><ele></ele><time>2025-2-13T3:48:19Z</time></trkpt>
<trkpt lat="46.46655" lon="6.94737"><ele></ele><time>2025-2-13T3:48:22Z</time></trkpt>
<trkpt lat="46.46649" lon="6.94729"><ele></ele><time>2025-2-13T3:48:25Z</time></trkpt>
<trkpt lat="46.46641" lon="6.94724"><ele></ele><time>2025-2-13T3:48:28Z</time></trkpt>
<trkpt lat="46.46632" lon="6.94722"><ele></ele><time>2025-2-13T3:48:31Z</time></trkpt>
<trkpt lat="46.46622" lon="6.9472"><ele></ele><time>2025-2-13T3:48:34Z</time></trkpt>
<trkpt lat="46.46611" lon="6.94718"><ele></ele><time>2025-2-13T3:48:37Z</time></trkpt>
<trkpt lat="46.466" lon="6.94716"><ele></ele><time>2025-2-13T3:48:40Z</time></trkpt>
<trkpt lat="46.46589" lon="6.94714"><ele></ele><time>2025-2-13T3:48:43Z</time></trkpt>
<trkpt lat="46.46577" lon="6.94711"><ele></ele><time>2025-2-13T3:48:46Z</time></trkpt>
<trkpt lat="46.46564" lon="6.9471"><ele></ele><time>2025-2-13T3:48:49Z</time></trkpt>
<trkpt lat="46.46552" lon="6.94707"><ele></ele><time>2025-2-13T3:48:52Z</time></trkpt>
<trkpt lat="46.46539" lon="6.94705"><ele></ele><time>2025-2-13T3:48:55Z</time></trkpt>
<trkpt lat="46.46526" lon="6.94703"><ele></ele><time>2025-2-13T3:48:58Z</time></trkpt>
<trkpt lat="46.46512" lon="6.94701"><ele></ele><time>2025-2-13T3:49:1Z</time></trkpt>
<trkpt lat="46.46487" lon="6.94693"><ele></ele><time>2025-2-13T3:49:4Z</time></trkpt>
<trkpt lat="46.46475" lon="6.94687"><ele></ele><time>2025-2-13T3:49:7Z</time></trkpt>
<trkpt lat="46.46464" lon="6.94678"><ele></ele><time>2025-2-13T3:49:10Z</time></trkpt>
<trkpt lat="46.46428" lon="6.94663"><ele></ele><time>2025-2-13T3:49:13Z</time></trkpt>
<trkpt lat="46.46405" lon="6.94652"><ele></ele><time>2025-2-13T3:49:16Z</time></trkpt>
<trkpt lat="46.46395" lon="6.94644"><ele></ele><time>2025-2-13T3:49:19Z</time></trkpt>
<trkpt lat="46.46377" lon="6.94626"><ele></ele><time>2025-2-13T3:49:22Z</time></trkpt>
<trkpt lat="46.46371" lon="6.94615"><ele></ele><time>2025-2-13T3:49:25Z</time></trkpt>
<trkpt lat="46.46368" lon="6.94602"><ele></ele><time>2025-2-13T3:49:28Z</time></trkpt>
<trkpt lat="46.46369" lon="6.94591"><ele></ele><time>2025-2-13T3:49:31Z</time></trkpt>
<trkpt lat="46.46371" lon="6.9458"><ele></ele><time>2025-2-13T3:49:34Z</time></trkpt>
<trkpt lat="46.46375" lon="6.94552"><ele></ele><time>2025-2-13T3:49:37Z</time></trkpt>
<trkpt lat="46.46375" lon="6.94544"><ele></ele><time>2025-2-13T3:49:40Z</time></trkpt>
<trkpt lat="46.46371" lon="6.9453"><ele></ele><time>2025-2-13T3:49:43Z</time></trkpt>
<trkpt lat="46.46363" lon="6.94513"><ele></ele><time>2025-2-13T3:49:46Z</time></trkpt>
<trkpt lat="46.46361" lon="6.94509"><ele></ele><time>2025-2-13T3:49:49Z</time></trkpt>
<trkpt lat="46.4636" lon="6.94508"><ele></ele><time>2025-2-13T3:49:52Z</time></trkpt>
<trkpt lat="46.4636" lon="6.94508"><ele></ele><time>2025-2-13T3:49:55Z</time></trkpt>
<trkpt lat="46.4636" lon="6.94507"><ele></ele><time>2025-2-13T3:49:58Z</time></trkpt>
<trkpt lat="46.46361" lon="6.94507"><ele></ele><time>2025-2-13T3:50:1Z</time></trkpt>
<trkpt lat="46.46365" lon="6.9451"><ele></ele><time>2025-2-13T3:50:4Z</time></trkpt>
<trkpt lat="46.46364" lon="6.94509"><ele></ele><time>2025-2-13T3:50:7Z</time></trkpt>
<trkpt lat="46.46363" lon="6.9451"><ele></ele><time>2025-2-13T3:50:10Z</time></trkpt>
<trkpt lat="46.46362" lon="6.94506"><ele></ele><time>2025-2-13T3:50:13Z</time></trkpt>
<trkpt lat="46.46361" lon="6.94508"><ele></ele><time>2025-2-13T3:50:16Z</time></trkpt>
<trkpt lat="46.46361" lon="6.94506"><ele></ele><time>2025-2-13T3:50:19Z</time></trkpt>
<trkpt lat="46.46361" lon="6.94506"><ele></ele><time>2025-2-13T3:50:22Z</time></trkpt>
<trkpt lat="46.46362" lon="6.94507"><ele></ele><time>2025-2-13T3:50:25Z</time></trkpt>
<trkpt lat="46.46362" lon="6.94506"><ele></ele><time>2025-2-13T3:50:28Z</time></trkpt>
<trkpt lat="46.46363" lon="6.94505"><ele></ele><time>2025-2-13T3:50:31Z</time></trkpt>
<trkpt lat="46.46364" lon="6.94506"><ele></ele><time>2025-2-13T3:50:34Z</time></trkpt>
<trkpt lat="46.46363" lon="6.94507"><ele></ele><time>2025-2-13T3:50:37Z</time></trkpt>
<trkpt lat="46.46362" lon="6.94507"><ele></ele><time>2025-2-13T3:50:40Z</time></trkpt>
<trkpt lat="46.46361" lon="6.9451"><ele></ele><time>2025-2-13T3:50:43Z</time></trkpt>
<trkpt lat="46.46362" lon="6.94511"><ele></ele><time>2025-2-13T3:50:46Z</time></trkpt>
<trkpt lat="46.46361" lon="6.94511"><ele></ele><time>2025-2-13T3:50:49Z</time></trkpt>
<trkpt lat="46.46361" lon="6.94512"><ele></ele><time>2025-2-13T3:50:52Z</time></trkpt>
<trkpt lat="46.46359" lon="6.94514"><ele></ele><time>2025-2-13T3:50:55Z</time></trkpt>
<trkpt lat="46.4636" lon="6.94516"><ele></ele><time>2025-2-13T3:50:58Z</time></trkpt>
<trkpt lat="46.46364" lon="6.94511"><ele></ele><time>2025-2-13T3:51:1Z</time></trkpt>
<trkpt lat="46.46363" lon="6.9451"><ele></ele><time>2025-2-13T3:51:4Z</time></trkpt>
<trkpt lat="46.46361" lon="6.94508"><ele></ele><time>2025-2-13T3:51:7Z</time></trkpt>
<trkpt lat="46.4636" lon="6.94509"><ele></ele><time>2025-2-13T3:51:10Z</time></trkpt>
<trkpt lat="46.4636" lon="6.94509"><ele></ele><time>2025-2-13T3:51:13Z</time></trkpt>
</trkseg></trk></gpx>